<?xml version="1.0" encoding="UTF-8" standalone="no" ?>
<gpx xmlns="http://www.topografix.com/GPX/1/1" xmlns:xsi="http://www.w3.org/2001/XMLSchema-instance" xsi:schemaLocation="http://www.topografix.com/GPX/1/1 http://www.topografix.com/GPX/1/1/gpx.xsd" version="1.1" creator="VisuGPX - https://www.visugpx.com">
  <metadata>
    <name>De la Cadière au Broussan</name>
    <desc><![CDATA[Au départ de la Cadière d’Azur, vous rejoignez Sainte Anne du Castellet. Puis  en passant par de petites routes peu fréquentées, au milieu des vignes, vous traversez la Vallée du Silence. Une fois au Beausset, direction Sainte Anne d’Evenos, toujours par des petits chemins qui sentent bon la Provence. L’ascension vers Evenos s’effectuera sans difficulté. Le chemin de la Colle vous conduira jusqu’au petit village du Broussan, dans une ambiance dépaysante, plus « montagnarde », rappelant un peu les Alpes du Sud. Une Auberge vous permettra de vous désaltérer ou de vous restaurer. Vous passerez ensuite sous Evenos et pourrez admirer son château médiéval, datant du XIIe siècle. Enfin, vous rejoindrez la Cadière d’Azur en passant à proximité du Beausset Vieux, du Plan du Castellet et par le chemin de l’argile qui offre, lui aussi, des points de vue magnifiques. ]]></desc>
  </metadata>
  <trk>
    <name><![CDATA[La Cadière-d’Azur Cyclisme]]></name>
    <trkseg>
      <trkpt lat="43.1957" lon="5.75746">
        <ele>133.80000305176</ele>
        <time>2016-04-13T11:51:57.000Z</time>
      </trkpt>
      <trkpt lat="43.19574" lon="5.75746">
        <ele>134.60000610352</ele>
        <time>2016-04-13T11:53:03.000Z</time>
      </trkpt>
      <trkpt lat="43.19572" lon="5.75752">
        <ele>133.60000610352</ele>
        <time>2016-04-13T11:53:05.000Z</time>
      </trkpt>
      <trkpt lat="43.19558" lon="5.7577">
        <ele>129.39999389648</ele>
        <time>2016-04-13T11:53:10.000Z</time>
      </trkpt>
      <trkpt lat="43.19544" lon="5.75782">
        <ele>127.80000305176</ele>
        <time>2016-04-13T11:53:14.000Z</time>
      </trkpt>
      <trkpt lat="43.19539" lon="5.75785">
        <ele>127.19999694824</ele>
        <time>2016-04-13T11:53:16.000Z</time>
      </trkpt>
      <trkpt lat="43.19538" lon="5.75787">
        <ele>127</ele>
        <time>2016-04-13T11:53:17.000Z</time>
      </trkpt>
      <trkpt lat="43.19535" lon="5.75789">
        <ele>126.59999847412</ele>
        <time>2016-04-13T11:53:19.000Z</time>
      </trkpt>
      <trkpt lat="43.19533" lon="5.75797">
        <ele>126.40000152588</ele>
        <time>2016-04-13T11:53:21.000Z</time>
      </trkpt>
      <trkpt lat="43.19533" lon="5.75802">
        <ele>126.40000152588</ele>
        <time>2016-04-13T11:53:22.000Z</time>
      </trkpt>
      <trkpt lat="43.19533" lon="5.75809">
        <ele>126.19999694824</ele>
        <time>2016-04-13T11:53:23.000Z</time>
      </trkpt>
      <trkpt lat="43.19534" lon="5.75822">
        <ele>125.40000152588</ele>
        <time>2016-04-13T11:53:25.000Z</time>
      </trkpt>
      <trkpt lat="43.1953" lon="5.75835">
        <ele>124.19999694824</ele>
        <time>2016-04-13T11:53:27.000Z</time>
      </trkpt>
      <trkpt lat="43.19527" lon="5.75842">
        <ele>123.40000152588</ele>
        <time>2016-04-13T11:53:28.000Z</time>
      </trkpt>
      <trkpt lat="43.19518" lon="5.75854">
        <ele>121.80000305176</ele>
        <time>2016-04-13T11:53:30.000Z</time>
      </trkpt>
      <trkpt lat="43.19509" lon="5.75869">
        <ele>119.59999847412</ele>
        <time>2016-04-13T11:53:32.000Z</time>
      </trkpt>
      <trkpt lat="43.19504" lon="5.75877">
        <ele>118.40000152588</ele>
        <time>2016-04-13T11:53:33.000Z</time>
      </trkpt>
      <trkpt lat="43.19496" lon="5.75892">
        <ele>116</ele>
        <time>2016-04-13T11:53:35.000Z</time>
      </trkpt>
      <trkpt lat="43.19488" lon="5.75903">
        <ele>114.40000152588</ele>
        <time>2016-04-13T11:53:37.000Z</time>
      </trkpt>
      <trkpt lat="43.19483" lon="5.75906">
        <ele>113.59999847412</ele>
        <time>2016-04-13T11:53:38.000Z</time>
      </trkpt>
      <trkpt lat="43.19476" lon="5.75906">
        <ele>112.40000152588</ele>
        <time>2016-04-13T11:53:39.000Z</time>
      </trkpt>
      <trkpt lat="43.1947" lon="5.75903">
        <ele>111.19999694824</ele>
        <time>2016-04-13T11:53:40.000Z</time>
      </trkpt>
      <trkpt lat="43.19464" lon="5.75898">
        <ele>110.19999694824</ele>
        <time>2016-04-13T11:53:41.000Z</time>
      </trkpt>
      <trkpt lat="43.19459" lon="5.75891">
        <ele>109.40000152588</ele>
        <time>2016-04-13T11:53:42.000Z</time>
      </trkpt>
      <trkpt lat="43.19452" lon="5.75874">
        <ele>109.40000152588</ele>
        <time>2016-04-13T11:53:44.000Z</time>
      </trkpt>
      <trkpt lat="43.19455" lon="5.75857">
        <ele>111.40000152588</ele>
        <time>2016-04-13T11:53:46.000Z</time>
      </trkpt>
      <trkpt lat="43.19455" lon="5.75849">
        <ele>112.19999694824</ele>
        <time>2016-04-13T11:53:47.000Z</time>
      </trkpt>
      <trkpt lat="43.19456" lon="5.75834">
        <ele>113.40000152588</ele>
        <time>2016-04-13T11:53:49.000Z</time>
      </trkpt>
      <trkpt lat="43.19456" lon="5.75827">
        <ele>114</ele>
        <time>2016-04-13T11:53:50.000Z</time>
      </trkpt>
      <trkpt lat="43.19456" lon="5.75821">
        <ele>114.40000152588</ele>
        <time>2016-04-13T11:53:51.000Z</time>
      </trkpt>
      <trkpt lat="43.19465" lon="5.75776">
        <ele>117.19999694824</ele>
        <time>2016-04-13T11:53:58.000Z</time>
      </trkpt>
      <trkpt lat="43.19473" lon="5.75759">
        <ele>118.59999847412</ele>
        <time>2016-04-13T11:54:01.000Z</time>
      </trkpt>
      <trkpt lat="43.19479" lon="5.75741">
        <ele>119.80000305176</ele>
        <time>2016-04-13T11:54:04.000Z</time>
      </trkpt>
      <trkpt lat="43.19481" lon="5.75734">
        <ele>120</ele>
        <time>2016-04-13T11:54:05.000Z</time>
      </trkpt>
      <trkpt lat="43.19484" lon="5.75715">
        <ele>120.80000305176</ele>
        <time>2016-04-13T11:54:08.000Z</time>
      </trkpt>
      <trkpt lat="43.19482" lon="5.75695">
        <ele>121.40000152588</ele>
        <time>2016-04-13T11:54:11.000Z</time>
      </trkpt>
      <trkpt lat="43.19481" lon="5.75683">
        <ele>121.40000152588</ele>
        <time>2016-04-13T11:54:13.000Z</time>
      </trkpt>
      <trkpt lat="43.19475" lon="5.75657">
        <ele>121.19999694824</ele>
        <time>2016-04-13T11:54:17.000Z</time>
      </trkpt>
      <trkpt lat="43.19474" lon="5.75651">
        <ele>121.19999694824</ele>
        <time>2016-04-13T11:54:18.000Z</time>
      </trkpt>
      <trkpt lat="43.19474" lon="5.75644">
        <ele>121.40000152588</ele>
        <time>2016-04-13T11:54:19.000Z</time>
      </trkpt>
      <trkpt lat="43.19475" lon="5.75625">
        <ele>122</ele>
        <time>2016-04-13T11:54:22.000Z</time>
      </trkpt>
      <trkpt lat="43.19477" lon="5.75618">
        <ele>122.40000152588</ele>
        <time>2016-04-13T11:54:23.000Z</time>
      </trkpt>
      <trkpt lat="43.19481" lon="5.75607">
        <ele>123.40000152588</ele>
        <time>2016-04-13T11:54:25.000Z</time>
      </trkpt>
      <trkpt lat="43.19492" lon="5.75586">
        <ele>125.40000152588</ele>
        <time>2016-04-13T11:54:29.000Z</time>
      </trkpt>
      <trkpt lat="43.19501" lon="5.75563">
        <ele>127.19999694824</ele>
        <time>2016-04-13T11:54:33.000Z</time>
      </trkpt>
      <trkpt lat="43.19506" lon="5.75546">
        <ele>128.39999389648</ele>
        <time>2016-04-13T11:54:36.000Z</time>
      </trkpt>
      <trkpt lat="43.19507" lon="5.7554">
        <ele>128.60000610352</ele>
        <time>2016-04-13T11:54:37.000Z</time>
      </trkpt>
      <trkpt lat="43.19508" lon="5.75534">
        <ele>128.80000305176</ele>
        <time>2016-04-13T11:54:38.000Z</time>
      </trkpt>
      <trkpt lat="43.19511" lon="5.75514">
        <ele>129.39999389648</ele>
        <time>2016-04-13T11:54:41.000Z</time>
      </trkpt>
      <trkpt lat="43.19512" lon="5.75507">
        <ele>129.60000610352</ele>
        <time>2016-04-13T11:54:42.000Z</time>
      </trkpt>
      <trkpt lat="43.19518" lon="5.7546">
        <ele>131.80000305176</ele>
        <time>2016-04-13T11:54:49.000Z</time>
      </trkpt>
      <trkpt lat="43.19519" lon="5.75446">
        <ele>132.60000610352</ele>
        <time>2016-04-13T11:54:51.000Z</time>
      </trkpt>
      <trkpt lat="43.19521" lon="5.75427">
        <ele>134</ele>
        <time>2016-04-13T11:54:54.000Z</time>
      </trkpt>
      <trkpt lat="43.19525" lon="5.75395">
        <ele>136.19999694824</ele>
        <time>2016-04-13T11:54:59.000Z</time>
      </trkpt>
      <trkpt lat="43.19526" lon="5.75389">
        <ele>136.60000610352</ele>
        <time>2016-04-13T11:55:00.000Z</time>
      </trkpt>
      <trkpt lat="43.19527" lon="5.75369">
        <ele>136.80000305176</ele>
        <time>2016-04-13T11:55:03.000Z</time>
      </trkpt>
      <trkpt lat="43.19529" lon="5.7535">
        <ele>136.80000305176</ele>
        <time>2016-04-13T11:55:06.000Z</time>
      </trkpt>
      <trkpt lat="43.1953" lon="5.75344">
        <ele>137</ele>
        <time>2016-04-13T11:55:07.000Z</time>
      </trkpt>
      <trkpt lat="43.19531" lon="5.75325">
        <ele>137</ele>
        <time>2016-04-13T11:55:10.000Z</time>
      </trkpt>
      <trkpt lat="43.19534" lon="5.75294">
        <ele>137.80000305176</ele>
        <time>2016-04-13T11:55:15.000Z</time>
      </trkpt>
      <trkpt lat="43.19536" lon="5.75282">
        <ele>138</ele>
        <time>2016-04-13T11:55:17.000Z</time>
      </trkpt>
      <trkpt lat="43.1954" lon="5.75258">
        <ele>138.39999389648</ele>
        <time>2016-04-13T11:55:21.000Z</time>
      </trkpt>
      <trkpt lat="43.19542" lon="5.75246">
        <ele>138.60000610352</ele>
        <time>2016-04-13T11:55:23.000Z</time>
      </trkpt>
      <trkpt lat="43.19544" lon="5.75228">
        <ele>139.39999389648</ele>
        <time>2016-04-13T11:55:26.000Z</time>
      </trkpt>
      <trkpt lat="43.1955" lon="5.75199">
        <ele>141.39999389648</ele>
        <time>2016-04-13T11:55:31.000Z</time>
      </trkpt>
      <trkpt lat="43.19553" lon="5.75196">
        <ele>142.19999694824</ele>
        <time>2016-04-13T11:55:32.000Z</time>
      </trkpt>
      <trkpt lat="43.19562" lon="5.75198">
        <ele>144.39999389648</ele>
        <time>2016-04-13T11:55:34.000Z</time>
      </trkpt>
      <trkpt lat="43.19565" lon="5.75203">
        <ele>145.19999694824</ele>
        <time>2016-04-13T11:55:35.000Z</time>
      </trkpt>
      <trkpt lat="43.19568" lon="5.75215">
        <ele>146</ele>
        <time>2016-04-13T11:55:37.000Z</time>
      </trkpt>
      <trkpt lat="43.19569" lon="5.75234">
        <ele>146</ele>
        <time>2016-04-13T11:55:40.000Z</time>
      </trkpt>
      <trkpt lat="43.1957" lon="5.75246">
        <ele>146</ele>
        <time>2016-04-13T11:55:42.000Z</time>
      </trkpt>
      <trkpt lat="43.1957" lon="5.7526">
        <ele>146</ele>
        <time>2016-04-13T11:55:44.000Z</time>
      </trkpt>
      <trkpt lat="43.19571" lon="5.75273">
        <ele>146.19999694824</ele>
        <time>2016-04-13T11:55:46.000Z</time>
      </trkpt>
      <trkpt lat="43.19572" lon="5.75279">
        <ele>146.19999694824</ele>
        <time>2016-04-13T11:55:47.000Z</time>
      </trkpt>
      <trkpt lat="43.19573" lon="5.75292">
        <ele>146.80000305176</ele>
        <time>2016-04-13T11:55:49.000Z</time>
      </trkpt>
      <trkpt lat="43.19574" lon="5.75298">
        <ele>147.19999694824</ele>
        <time>2016-04-13T11:55:50.000Z</time>
      </trkpt>
      <trkpt lat="43.19576" lon="5.75324">
        <ele>147.19999694824</ele>
        <time>2016-04-13T11:55:54.000Z</time>
      </trkpt>
      <trkpt lat="43.19579" lon="5.75343">
        <ele>147.39999389648</ele>
        <time>2016-04-13T11:55:57.000Z</time>
      </trkpt>
      <trkpt lat="43.1958" lon="5.75349">
        <ele>147.60000610352</ele>
        <time>2016-04-13T11:55:58.000Z</time>
      </trkpt>
      <trkpt lat="43.19582" lon="5.75354">
        <ele>147.80000305176</ele>
        <time>2016-04-13T11:55:59.000Z</time>
      </trkpt>
      <trkpt lat="43.19587" lon="5.75364">
        <ele>148.80000305176</ele>
        <time>2016-04-13T11:56:01.000Z</time>
      </trkpt>
      <trkpt lat="43.1959" lon="5.75368">
        <ele>149.39999389648</ele>
        <time>2016-04-13T11:56:02.000Z</time>
      </trkpt>
      <trkpt lat="43.19593" lon="5.75372">
        <ele>150</ele>
        <time>2016-04-13T11:56:03.000Z</time>
      </trkpt>
      <trkpt lat="43.19598" lon="5.75378">
        <ele>150.80000305176</ele>
        <time>2016-04-13T11:56:05.000Z</time>
      </trkpt>
      <trkpt lat="43.19602" lon="5.75383">
        <ele>151.80000305176</ele>
        <time>2016-04-13T11:56:07.000Z</time>
      </trkpt>
      <trkpt lat="43.19613" lon="5.75397">
        <ele>154</ele>
        <time>2016-04-13T11:56:11.000Z</time>
      </trkpt>
      <trkpt lat="43.19618" lon="5.75404">
        <ele>155.19999694824</ele>
        <time>2016-04-13T11:56:13.000Z</time>
      </trkpt>
      <trkpt lat="43.19624" lon="5.75411">
        <ele>156.60000610352</ele>
        <time>2016-04-13T11:56:15.000Z</time>
      </trkpt>
      <trkpt lat="43.19628" lon="5.7542">
        <ele>157.60000610352</ele>
        <time>2016-04-13T11:56:17.000Z</time>
      </trkpt>
      <trkpt lat="43.19631" lon="5.75427">
        <ele>158</ele>
        <time>2016-04-13T11:56:19.000Z</time>
      </trkpt>
      <trkpt lat="43.19631" lon="5.75431">
        <ele>157.80000305176</ele>
        <time>2016-04-13T11:56:20.000Z</time>
      </trkpt>
      <trkpt lat="43.1963" lon="5.75457">
        <ele>156.39999389648</ele>
        <time>2016-04-13T11:56:25.000Z</time>
      </trkpt>
      <trkpt lat="43.19626" lon="5.75502">
        <ele>153.39999389648</ele>
        <time>2016-04-13T11:56:30.000Z</time>
      </trkpt>
      <trkpt lat="43.19622" lon="5.75562">
        <ele>152.60000610352</ele>
        <time>2016-04-13T11:56:37.000Z</time>
      </trkpt>
      <trkpt lat="43.19623" lon="5.75585">
        <ele>151</ele>
        <time>2016-04-13T11:56:40.000Z</time>
      </trkpt>
      <trkpt lat="43.19624" lon="5.75597">
        <ele>151</ele>
        <time>2016-04-13T11:56:42.000Z</time>
      </trkpt>
      <trkpt lat="43.19624" lon="5.75602">
        <ele>151</ele>
        <time>2016-04-13T11:56:43.000Z</time>
      </trkpt>
      <trkpt lat="43.1963" lon="5.7563">
        <ele>151.60000610352</ele>
        <time>2016-04-13T11:56:49.000Z</time>
      </trkpt>
      <trkpt lat="43.1964" lon="5.75662">
        <ele>150.39999389648</ele>
        <time>2016-04-13T11:56:56.000Z</time>
      </trkpt>
      <trkpt lat="43.1965" lon="5.75691">
        <ele>148.80000305176</ele>
        <time>2016-04-13T11:57:02.000Z</time>
      </trkpt>
      <trkpt lat="43.19665" lon="5.75722">
        <ele>148.39999389648</ele>
        <time>2016-04-13T11:57:10.000Z</time>
      </trkpt>
      <trkpt lat="43.19666" lon="5.75723">
        <ele>148.39999389648</ele>
        <time>2016-04-13T11:57:11.000Z</time>
      </trkpt>
      <trkpt lat="43.19678" lon="5.75728">
        <ele>148.80000305176</ele>
        <time>2016-04-13T11:57:14.000Z</time>
      </trkpt>
      <trkpt lat="43.19686" lon="5.75726">
        <ele>147.39999389648</ele>
        <time>2016-04-13T11:57:17.000Z</time>
      </trkpt>
      <trkpt lat="43.19688" lon="5.75723">
        <ele>147</ele>
        <time>2016-04-13T11:57:18.000Z</time>
      </trkpt>
      <trkpt lat="43.19699" lon="5.75712">
        <ele>145.19999694824</ele>
        <time>2016-04-13T11:57:21.000Z</time>
      </trkpt>
      <trkpt lat="43.19703" lon="5.75707">
        <ele>144.80000305176</ele>
        <time>2016-04-13T11:57:22.000Z</time>
      </trkpt>
      <trkpt lat="43.19711" lon="5.75693">
        <ele>143.80000305176</ele>
        <time>2016-04-13T11:57:25.000Z</time>
      </trkpt>
      <trkpt lat="43.19717" lon="5.75678">
        <ele>144</ele>
        <time>2016-04-13T11:57:27.000Z</time>
      </trkpt>
      <trkpt lat="43.19727" lon="5.7565">
        <ele>142.39999389648</ele>
        <time>2016-04-13T11:57:30.000Z</time>
      </trkpt>
      <trkpt lat="43.19731" lon="5.75639">
        <ele>142</ele>
        <time>2016-04-13T11:57:31.000Z</time>
      </trkpt>
      <trkpt lat="43.19734" lon="5.75629">
        <ele>141.80000305176</ele>
        <time>2016-04-13T11:57:32.000Z</time>
      </trkpt>
      <trkpt lat="43.1974" lon="5.75608">
        <ele>141.80000305176</ele>
        <time>2016-04-13T11:57:34.000Z</time>
      </trkpt>
      <trkpt lat="43.19746" lon="5.75589">
        <ele>142.39999389648</ele>
        <time>2016-04-13T11:57:36.000Z</time>
      </trkpt>
      <trkpt lat="43.19751" lon="5.75574">
        <ele>142.80000305176</ele>
        <time>2016-04-13T11:57:38.000Z</time>
      </trkpt>
      <trkpt lat="43.19759" lon="5.75553">
        <ele>142.80000305176</ele>
        <time>2016-04-13T11:57:41.000Z</time>
      </trkpt>
      <trkpt lat="43.1977" lon="5.75523">
        <ele>143.39999389648</ele>
        <time>2016-04-13T11:57:45.000Z</time>
      </trkpt>
      <trkpt lat="43.19784" lon="5.75487">
        <ele>142.60000610352</ele>
        <time>2016-04-13T11:57:50.000Z</time>
      </trkpt>
      <trkpt lat="43.19795" lon="5.75456">
        <ele>141</ele>
        <time>2016-04-13T11:57:54.000Z</time>
      </trkpt>
      <trkpt lat="43.19801" lon="5.75425">
        <ele>142</ele>
        <time>2016-04-13T11:57:58.000Z</time>
      </trkpt>
      <trkpt lat="43.19801" lon="5.75418">
        <ele>143.19999694824</ele>
        <time>2016-04-13T11:57:59.000Z</time>
      </trkpt>
      <trkpt lat="43.19799" lon="5.75401">
        <ele>146.19999694824</ele>
        <time>2016-04-13T11:58:02.000Z</time>
      </trkpt>
      <trkpt lat="43.19801" lon="5.75395">
        <ele>146</ele>
        <time>2016-04-13T11:58:03.000Z</time>
      </trkpt>
      <trkpt lat="43.19809" lon="5.75378">
        <ele>144.60000610352</ele>
        <time>2016-04-13T11:58:06.000Z</time>
      </trkpt>
      <trkpt lat="43.19814" lon="5.75364">
        <ele>144</ele>
        <time>2016-04-13T11:58:08.000Z</time>
      </trkpt>
      <trkpt lat="43.19816" lon="5.75357">
        <ele>143.80000305176</ele>
        <time>2016-04-13T11:58:09.000Z</time>
      </trkpt>
      <trkpt lat="43.19834" lon="5.75308">
        <ele>142.39999389648</ele>
        <time>2016-04-13T11:58:15.000Z</time>
      </trkpt>
      <trkpt lat="43.19847" lon="5.75272">
        <ele>139.39999389648</ele>
        <time>2016-04-13T11:58:19.000Z</time>
      </trkpt>
      <trkpt lat="43.1986" lon="5.75232">
        <ele>137.19999694824</ele>
        <time>2016-04-13T11:58:23.000Z</time>
      </trkpt>
      <trkpt lat="43.19868" lon="5.75199">
        <ele>135.80000305176</ele>
        <time>2016-04-13T11:58:26.000Z</time>
      </trkpt>
      <trkpt lat="43.19876" lon="5.75165">
        <ele>134.60000610352</ele>
        <time>2016-04-13T11:58:29.000Z</time>
      </trkpt>
      <trkpt lat="43.19883" lon="5.7513">
        <ele>132.19999694824</ele>
        <time>2016-04-13T11:58:32.000Z</time>
      </trkpt>
      <trkpt lat="43.19885" lon="5.75093">
        <ele>130.19999694824</ele>
        <time>2016-04-13T11:58:35.000Z</time>
      </trkpt>
      <trkpt lat="43.19885" lon="5.75081">
        <ele>129.80000305176</ele>
        <time>2016-04-13T11:58:36.000Z</time>
      </trkpt>
      <trkpt lat="43.19885" lon="5.75043">
        <ele>128.60000610352</ele>
        <time>2016-04-13T11:58:39.000Z</time>
      </trkpt>
      <trkpt lat="43.19884" lon="5.75017">
        <ele>126.80000305176</ele>
        <time>2016-04-13T11:58:41.000Z</time>
      </trkpt>
      <trkpt lat="43.19884" lon="5.74992">
        <ele>126.80000305176</ele>
        <time>2016-04-13T11:58:43.000Z</time>
      </trkpt>
      <trkpt lat="43.19883" lon="5.74966">
        <ele>127</ele>
        <time>2016-04-13T11:58:45.000Z</time>
      </trkpt>
      <trkpt lat="43.19883" lon="5.74953">
        <ele>126.59999847412</ele>
        <time>2016-04-13T11:58:46.000Z</time>
      </trkpt>
      <trkpt lat="43.19886" lon="5.74915">
        <ele>124.80000305176</ele>
        <time>2016-04-13T11:58:49.000Z</time>
      </trkpt>
      <trkpt lat="43.19889" lon="5.74903">
        <ele>123.80000305176</ele>
        <time>2016-04-13T11:58:50.000Z</time>
      </trkpt>
      <trkpt lat="43.19892" lon="5.74891">
        <ele>122.59999847412</ele>
        <time>2016-04-13T11:58:51.000Z</time>
      </trkpt>
      <trkpt lat="43.19901" lon="5.74867">
        <ele>120</ele>
        <time>2016-04-13T11:58:53.000Z</time>
      </trkpt>
      <trkpt lat="43.19916" lon="5.74832">
        <ele>115.80000305176</ele>
        <time>2016-04-13T11:58:56.000Z</time>
      </trkpt>
      <trkpt lat="43.19926" lon="5.7481">
        <ele>112.80000305176</ele>
        <time>2016-04-13T11:58:58.000Z</time>
      </trkpt>
      <trkpt lat="43.19936" lon="5.74787">
        <ele>111.59999847412</ele>
        <time>2016-04-13T11:59:00.000Z</time>
      </trkpt>
      <trkpt lat="43.19951" lon="5.74754">
        <ele>110.59999847412</ele>
        <time>2016-04-13T11:59:03.000Z</time>
      </trkpt>
      <trkpt lat="43.1996" lon="5.74732">
        <ele>109.80000305176</ele>
        <time>2016-04-13T11:59:05.000Z</time>
      </trkpt>
      <trkpt lat="43.19969" lon="5.7471">
        <ele>109.19999694824</ele>
        <time>2016-04-13T11:59:07.000Z</time>
      </trkpt>
      <trkpt lat="43.19984" lon="5.74678">
        <ele>107.59999847412</ele>
        <time>2016-04-13T11:59:10.000Z</time>
      </trkpt>
      <trkpt lat="43.20004" lon="5.74649">
        <ele>104.40000152588</ele>
        <time>2016-04-13T11:59:13.000Z</time>
      </trkpt>
      <trkpt lat="43.20026" lon="5.74622">
        <ele>102.40000152588</ele>
        <time>2016-04-13T11:59:16.000Z</time>
      </trkpt>
      <trkpt lat="43.20047" lon="5.74595">
        <ele>101.80000305176</ele>
        <time>2016-04-13T11:59:19.000Z</time>
      </trkpt>
      <trkpt lat="43.20068" lon="5.74568">
        <ele>99.599998474121</ele>
        <time>2016-04-13T11:59:22.000Z</time>
      </trkpt>
      <trkpt lat="43.20081" lon="5.74549">
        <ele>98.199996948242</ele>
        <time>2016-04-13T11:59:24.000Z</time>
      </trkpt>
      <trkpt lat="43.20095" lon="5.74531">
        <ele>96.800003051758</ele>
        <time>2016-04-13T11:59:26.000Z</time>
      </trkpt>
      <trkpt lat="43.20108" lon="5.74513">
        <ele>96.199996948242</ele>
        <time>2016-04-13T11:59:28.000Z</time>
      </trkpt>
      <trkpt lat="43.2012" lon="5.74494">
        <ele>95.800003051758</ele>
        <time>2016-04-13T11:59:30.000Z</time>
      </trkpt>
      <trkpt lat="43.20125" lon="5.74484">
        <ele>95.800003051758</ele>
        <time>2016-04-13T11:59:31.000Z</time>
      </trkpt>
      <trkpt lat="43.20138" lon="5.74452">
        <ele>95</ele>
        <time>2016-04-13T11:59:34.000Z</time>
      </trkpt>
      <trkpt lat="43.20142" lon="5.74441">
        <ele>94.800003051758</ele>
        <time>2016-04-13T11:59:35.000Z</time>
      </trkpt>
      <trkpt lat="43.20151" lon="5.74421">
        <ele>94.800003051758</ele>
        <time>2016-04-13T11:59:37.000Z</time>
      </trkpt>
      <trkpt lat="43.20166" lon="5.74382">
        <ele>95</ele>
        <time>2016-04-13T11:59:41.000Z</time>
      </trkpt>
      <trkpt lat="43.20184" lon="5.74333">
        <ele>95.800003051758</ele>
        <time>2016-04-13T11:59:47.000Z</time>
      </trkpt>
      <trkpt lat="43.20198" lon="5.74278">
        <ele>96.400001525879</ele>
        <time>2016-04-13T11:59:54.000Z</time>
      </trkpt>
      <trkpt lat="43.20218" lon="5.74208">
        <ele>96.800003051758</ele>
        <time>2016-04-13T12:00:03.000Z</time>
      </trkpt>
      <trkpt lat="43.2022" lon="5.74201">
        <ele>97</ele>
        <time>2016-04-13T12:00:04.000Z</time>
      </trkpt>
      <trkpt lat="43.20239" lon="5.74129">
        <ele>97.199996948242</ele>
        <time>2016-04-13T12:00:13.000Z</time>
      </trkpt>
      <trkpt lat="43.20242" lon="5.74095">
        <ele>97.599998474121</ele>
        <time>2016-04-13T12:00:17.000Z</time>
      </trkpt>
      <trkpt lat="43.20244" lon="5.7407">
        <ele>98.199996948242</ele>
        <time>2016-04-13T12:00:20.000Z</time>
      </trkpt>
      <trkpt lat="43.20245" lon="5.74007">
        <ele>99</ele>
        <time>2016-04-13T12:00:28.000Z</time>
      </trkpt>
      <trkpt lat="43.20247" lon="5.73994">
        <ele>99</ele>
        <time>2016-04-13T12:00:30.000Z</time>
      </trkpt>
      <trkpt lat="43.20253" lon="5.73984">
        <ele>98.599998474121</ele>
        <time>2016-04-13T12:00:32.000Z</time>
      </trkpt>
      <trkpt lat="43.20269" lon="5.73982">
        <ele>97.400001525879</ele>
        <time>2016-04-13T12:00:35.000Z</time>
      </trkpt>
      <trkpt lat="43.20275" lon="5.73981">
        <ele>97</ele>
        <time>2016-04-13T12:00:36.000Z</time>
      </trkpt>
      <trkpt lat="43.20311" lon="5.73981">
        <ele>94.400001525879</ele>
        <time>2016-04-13T12:00:42.000Z</time>
      </trkpt>
      <trkpt lat="43.20317" lon="5.73983">
        <ele>93.800003051758</ele>
        <time>2016-04-13T12:00:43.000Z</time>
      </trkpt>
      <trkpt lat="43.20337" lon="5.73989">
        <ele>92.400001525879</ele>
        <time>2016-04-13T12:00:46.000Z</time>
      </trkpt>
      <trkpt lat="43.20356" lon="5.73981">
        <ele>91.800003051758</ele>
        <time>2016-04-13T12:00:49.000Z</time>
      </trkpt>
      <trkpt lat="43.20391" lon="5.73972">
        <ele>91</ele>
        <time>2016-04-13T12:00:54.000Z</time>
      </trkpt>
      <trkpt lat="43.20398" lon="5.73971">
        <ele>90.800003051758</ele>
        <time>2016-04-13T12:00:55.000Z</time>
      </trkpt>
      <trkpt lat="43.20424" lon="5.73964">
        <ele>90.199996948242</ele>
        <time>2016-04-13T12:00:59.000Z</time>
      </trkpt>
      <trkpt lat="43.20442" lon="5.73961">
        <ele>90.400001525879</ele>
        <time>2016-04-13T12:01:02.000Z</time>
      </trkpt>
      <trkpt lat="43.20485" lon="5.73958">
        <ele>92</ele>
        <time>2016-04-13T12:01:09.000Z</time>
      </trkpt>
      <trkpt lat="43.20491" lon="5.7396">
        <ele>92.199996948242</ele>
        <time>2016-04-13T12:01:10.000Z</time>
      </trkpt>
      <trkpt lat="43.20518" lon="5.73982">
        <ele>93.599998474121</ele>
        <time>2016-04-13T12:01:15.000Z</time>
      </trkpt>
      <trkpt lat="43.20536" lon="5.74015">
        <ele>95</ele>
        <time>2016-04-13T12:01:20.000Z</time>
      </trkpt>
      <trkpt lat="43.20545" lon="5.74036">
        <ele>95.800003051758</ele>
        <time>2016-04-13T12:01:23.000Z</time>
      </trkpt>
      <trkpt lat="43.20557" lon="5.74055">
        <ele>96.800003051758</ele>
        <time>2016-04-13T12:01:26.000Z</time>
      </trkpt>
      <trkpt lat="43.20567" lon="5.74064">
        <ele>97.599998474121</ele>
        <time>2016-04-13T12:01:28.000Z</time>
      </trkpt>
      <trkpt lat="43.20584" lon="5.74072">
        <ele>98.800003051758</ele>
        <time>2016-04-13T12:01:31.000Z</time>
      </trkpt>
      <trkpt lat="43.20595" lon="5.74078">
        <ele>99.599998474121</ele>
        <time>2016-04-13T12:01:33.000Z</time>
      </trkpt>
      <trkpt lat="43.20616" lon="5.74093">
        <ele>100.19999694824</ele>
        <time>2016-04-13T12:01:37.000Z</time>
      </trkpt>
      <trkpt lat="43.20631" lon="5.74106">
        <ele>100.59999847412</ele>
        <time>2016-04-13T12:01:40.000Z</time>
      </trkpt>
      <trkpt lat="43.20654" lon="5.74131">
        <ele>101.59999847412</ele>
        <time>2016-04-13T12:01:45.000Z</time>
      </trkpt>
      <trkpt lat="43.20677" lon="5.74156">
        <ele>101.59999847412</ele>
        <time>2016-04-13T12:01:50.000Z</time>
      </trkpt>
      <trkpt lat="43.20695" lon="5.74177">
        <ele>103.40000152588</ele>
        <time>2016-04-13T12:01:54.000Z</time>
      </trkpt>
      <trkpt lat="43.20701" lon="5.7419">
        <ele>104</ele>
        <time>2016-04-13T12:01:56.000Z</time>
      </trkpt>
      <trkpt lat="43.20703" lon="5.74198">
        <ele>104.19999694824</ele>
        <time>2016-04-13T12:01:57.000Z</time>
      </trkpt>
      <trkpt lat="43.20706" lon="5.74222">
        <ele>104</ele>
        <time>2016-04-13T12:02:00.000Z</time>
      </trkpt>
      <trkpt lat="43.20708" lon="5.74237">
        <ele>104</ele>
        <time>2016-04-13T12:02:02.000Z</time>
      </trkpt>
      <trkpt lat="43.20711" lon="5.74252">
        <ele>104</ele>
        <time>2016-04-13T12:02:04.000Z</time>
      </trkpt>
      <trkpt lat="43.20721" lon="5.74299">
        <ele>105</ele>
        <time>2016-04-13T12:02:10.000Z</time>
      </trkpt>
      <trkpt lat="43.20722" lon="5.74306">
        <ele>105.19999694824</ele>
        <time>2016-04-13T12:02:11.000Z</time>
      </trkpt>
      <trkpt lat="43.20742" lon="5.74365">
        <ele>105.40000152588</ele>
        <time>2016-04-13T12:02:19.000Z</time>
      </trkpt>
      <trkpt lat="43.20756" lon="5.74392">
        <ele>106.40000152588</ele>
        <time>2016-04-13T12:02:23.000Z</time>
      </trkpt>
      <trkpt lat="43.20769" lon="5.7441">
        <ele>107</ele>
        <time>2016-04-13T12:02:26.000Z</time>
      </trkpt>
      <trkpt lat="43.20805" lon="5.74453">
        <ele>107.59999847412</ele>
        <time>2016-04-13T12:02:34.000Z</time>
      </trkpt>
      <trkpt lat="43.20816" lon="5.7446">
        <ele>107.59999847412</ele>
        <time>2016-04-13T12:02:36.000Z</time>
      </trkpt>
      <trkpt lat="43.20834" lon="5.74463">
        <ele>107.80000305176</ele>
        <time>2016-04-13T12:02:39.000Z</time>
      </trkpt>
      <trkpt lat="43.2084" lon="5.74463">
        <ele>108</ele>
        <time>2016-04-13T12:02:40.000Z</time>
      </trkpt>
      <trkpt lat="43.20878" lon="5.7446">
        <ele>108.80000305176</ele>
        <time>2016-04-13T12:02:46.000Z</time>
      </trkpt>
      <trkpt lat="43.20908" lon="5.74463">
        <ele>109</ele>
        <time>2016-04-13T12:02:51.000Z</time>
      </trkpt>
      <trkpt lat="43.20914" lon="5.74467">
        <ele>109</ele>
        <time>2016-04-13T12:02:52.000Z</time>
      </trkpt>
      <trkpt lat="43.20932" lon="5.7449">
        <ele>109.19999694824</ele>
        <time>2016-04-13T12:02:56.000Z</time>
      </trkpt>
      <trkpt lat="43.20943" lon="5.74521">
        <ele>110</ele>
        <time>2016-04-13T12:03:00.000Z</time>
      </trkpt>
      <trkpt lat="43.20945" lon="5.74546">
        <ele>110.19999694824</ele>
        <time>2016-04-13T12:03:03.000Z</time>
      </trkpt>
      <trkpt lat="43.20946" lon="5.74564">
        <ele>110.59999847412</ele>
        <time>2016-04-13T12:03:05.000Z</time>
      </trkpt>
      <trkpt lat="43.20946" lon="5.74572">
        <ele>111</ele>
        <time>2016-04-13T12:03:06.000Z</time>
      </trkpt>
      <trkpt lat="43.20945" lon="5.74623">
        <ele>110.19999694824</ele>
        <time>2016-04-13T12:03:12.000Z</time>
      </trkpt>
      <trkpt lat="43.20943" lon="5.74664">
        <ele>110.19999694824</ele>
        <time>2016-04-13T12:03:17.000Z</time>
      </trkpt>
      <trkpt lat="43.20939" lon="5.7468">
        <ele>110.19999694824</ele>
        <time>2016-04-13T12:03:19.000Z</time>
      </trkpt>
      <trkpt lat="43.20933" lon="5.74726">
        <ele>110.59999847412</ele>
        <time>2016-04-13T12:03:25.000Z</time>
      </trkpt>
      <trkpt lat="43.20934" lon="5.74734">
        <ele>110.59999847412</ele>
        <time>2016-04-13T12:03:26.000Z</time>
      </trkpt>
      <trkpt lat="43.20941" lon="5.74765">
        <ele>111</ele>
        <time>2016-04-13T12:03:30.000Z</time>
      </trkpt>
      <trkpt lat="43.20944" lon="5.74772">
        <ele>111.19999694824</ele>
        <time>2016-04-13T12:03:31.000Z</time>
      </trkpt>
      <trkpt lat="43.20958" lon="5.74801">
        <ele>112.59999847412</ele>
        <time>2016-04-13T12:03:35.000Z</time>
      </trkpt>
      <trkpt lat="43.20961" lon="5.74808">
        <ele>113</ele>
        <time>2016-04-13T12:03:36.000Z</time>
      </trkpt>
      <trkpt lat="43.20965" lon="5.74824">
        <ele>114</ele>
        <time>2016-04-13T12:03:38.000Z</time>
      </trkpt>
      <trkpt lat="43.20966" lon="5.7484">
        <ele>114.80000305176</ele>
        <time>2016-04-13T12:03:40.000Z</time>
      </trkpt>
      <trkpt lat="43.20962" lon="5.74873">
        <ele>114.19999694824</ele>
        <time>2016-04-13T12:03:44.000Z</time>
      </trkpt>
      <trkpt lat="43.20958" lon="5.74889">
        <ele>113.59999847412</ele>
        <time>2016-04-13T12:03:46.000Z</time>
      </trkpt>
      <trkpt lat="43.20946" lon="5.74928">
        <ele>114.40000152588</ele>
        <time>2016-04-13T12:03:51.000Z</time>
      </trkpt>
      <trkpt lat="43.20934" lon="5.74965">
        <ele>115.40000152588</ele>
        <time>2016-04-13T12:03:56.000Z</time>
      </trkpt>
      <trkpt lat="43.20922" lon="5.75003">
        <ele>115</ele>
        <time>2016-04-13T12:04:01.000Z</time>
      </trkpt>
      <trkpt lat="43.20919" lon="5.7501">
        <ele>114.80000305176</ele>
        <time>2016-04-13T12:04:02.000Z</time>
      </trkpt>
      <trkpt lat="43.20907" lon="5.75052">
        <ele>114.59999847412</ele>
        <time>2016-04-13T12:04:08.000Z</time>
      </trkpt>
      <trkpt lat="43.20906" lon="5.7506">
        <ele>114.59999847412</ele>
        <time>2016-04-13T12:04:09.000Z</time>
      </trkpt>
      <trkpt lat="43.20908" lon="5.75092">
        <ele>113.59999847412</ele>
        <time>2016-04-13T12:04:13.000Z</time>
      </trkpt>
      <trkpt lat="43.20909" lon="5.751">
        <ele>113.59999847412</ele>
        <time>2016-04-13T12:04:14.000Z</time>
      </trkpt>
      <trkpt lat="43.20915" lon="5.75149">
        <ele>113.80000305176</ele>
        <time>2016-04-13T12:04:20.000Z</time>
      </trkpt>
      <trkpt lat="43.20916" lon="5.75157">
        <ele>114</ele>
        <time>2016-04-13T12:04:21.000Z</time>
      </trkpt>
      <trkpt lat="43.20924" lon="5.75229">
        <ele>115.59999847412</ele>
        <time>2016-04-13T12:04:30.000Z</time>
      </trkpt>
      <trkpt lat="43.20927" lon="5.75244">
        <ele>116.19999694824</ele>
        <time>2016-04-13T12:04:32.000Z</time>
      </trkpt>
      <trkpt lat="43.20929" lon="5.75251">
        <ele>116.40000152588</ele>
        <time>2016-04-13T12:04:33.000Z</time>
      </trkpt>
      <trkpt lat="43.20936" lon="5.75264">
        <ele>116.80000305176</ele>
        <time>2016-04-13T12:04:35.000Z</time>
      </trkpt>
      <trkpt lat="43.20952" lon="5.75275">
        <ele>117.19999694824</ele>
        <time>2016-04-13T12:04:38.000Z</time>
      </trkpt>
      <trkpt lat="43.20977" lon="5.75278">
        <ele>117.80000305176</ele>
        <time>2016-04-13T12:04:42.000Z</time>
      </trkpt>
      <trkpt lat="43.20995" lon="5.75275">
        <ele>118.80000305176</ele>
        <time>2016-04-13T12:04:45.000Z</time>
      </trkpt>
      <trkpt lat="43.2102" lon="5.75273">
        <ele>120.40000152588</ele>
        <time>2016-04-13T12:04:49.000Z</time>
      </trkpt>
      <trkpt lat="43.21037" lon="5.75278">
        <ele>121.80000305176</ele>
        <time>2016-04-13T12:04:52.000Z</time>
      </trkpt>
      <trkpt lat="43.21042" lon="5.75282">
        <ele>122</ele>
        <time>2016-04-13T12:04:53.000Z</time>
      </trkpt>
      <trkpt lat="43.21047" lon="5.75286">
        <ele>122.40000152588</ele>
        <time>2016-04-13T12:04:54.000Z</time>
      </trkpt>
      <trkpt lat="43.21063" lon="5.75306">
        <ele>123.19999694824</ele>
        <time>2016-04-13T12:04:58.000Z</time>
      </trkpt>
      <trkpt lat="43.21071" lon="5.75317">
        <ele>123.40000152588</ele>
        <time>2016-04-13T12:05:00.000Z</time>
      </trkpt>
      <trkpt lat="43.21087" lon="5.75338">
        <ele>123.80000305176</ele>
        <time>2016-04-13T12:05:04.000Z</time>
      </trkpt>
      <trkpt lat="43.21101" lon="5.75352">
        <ele>124.40000152588</ele>
        <time>2016-04-13T12:05:07.000Z</time>
      </trkpt>
      <trkpt lat="43.21105" lon="5.75356">
        <ele>124.59999847412</ele>
        <time>2016-04-13T12:05:08.000Z</time>
      </trkpt>
      <trkpt lat="43.2111" lon="5.75358">
        <ele>125</ele>
        <time>2016-04-13T12:05:09.000Z</time>
      </trkpt>
      <trkpt lat="43.21121" lon="5.7536">
        <ele>126.19999694824</ele>
        <time>2016-04-13T12:05:11.000Z</time>
      </trkpt>
      <trkpt lat="43.21131" lon="5.75359">
        <ele>127.19999694824</ele>
        <time>2016-04-13T12:05:13.000Z</time>
      </trkpt>
      <trkpt lat="43.21137" lon="5.75358">
        <ele>128</ele>
        <time>2016-04-13T12:05:14.000Z</time>
      </trkpt>
      <trkpt lat="43.21149" lon="5.75359">
        <ele>129.19999694824</ele>
        <time>2016-04-13T12:05:16.000Z</time>
      </trkpt>
      <trkpt lat="43.21155" lon="5.75361">
        <ele>129.60000610352</ele>
        <time>2016-04-13T12:05:17.000Z</time>
      </trkpt>
      <trkpt lat="43.21164" lon="5.7537">
        <ele>130.19999694824</ele>
        <time>2016-04-13T12:05:19.000Z</time>
      </trkpt>
      <trkpt lat="43.21166" lon="5.75387">
        <ele>129.60000610352</ele>
        <time>2016-04-13T12:05:21.000Z</time>
      </trkpt>
      <trkpt lat="43.21164" lon="5.75404">
        <ele>129.60000610352</ele>
        <time>2016-04-13T12:05:23.000Z</time>
      </trkpt>
      <trkpt lat="43.21162" lon="5.75412">
        <ele>129.60000610352</ele>
        <time>2016-04-13T12:05:24.000Z</time>
      </trkpt>
      <trkpt lat="43.21155" lon="5.75442">
        <ele>129</ele>
        <time>2016-04-13T12:05:28.000Z</time>
      </trkpt>
      <trkpt lat="43.21149" lon="5.75464">
        <ele>128.39999389648</ele>
        <time>2016-04-13T12:05:31.000Z</time>
      </trkpt>
      <trkpt lat="43.21147" lon="5.75471">
        <ele>128.19999694824</ele>
        <time>2016-04-13T12:05:32.000Z</time>
      </trkpt>
      <trkpt lat="43.21141" lon="5.75501">
        <ele>126.80000305176</ele>
        <time>2016-04-13T12:05:36.000Z</time>
      </trkpt>
      <trkpt lat="43.2114" lon="5.75517">
        <ele>126.40000152588</ele>
        <time>2016-04-13T12:05:38.000Z</time>
      </trkpt>
      <trkpt lat="43.21145" lon="5.7553">
        <ele>126.80000305176</ele>
        <time>2016-04-13T12:05:40.000Z</time>
      </trkpt>
      <trkpt lat="43.21147" lon="5.75537">
        <ele>127</ele>
        <time>2016-04-13T12:05:41.000Z</time>
      </trkpt>
      <trkpt lat="43.21154" lon="5.75549">
        <ele>127.59999847412</ele>
        <time>2016-04-13T12:05:43.000Z</time>
      </trkpt>
      <trkpt lat="43.21167" lon="5.75564">
        <ele>128.39999389648</ele>
        <time>2016-04-13T12:05:46.000Z</time>
      </trkpt>
      <trkpt lat="43.21178" lon="5.75569">
        <ele>129.39999389648</ele>
        <time>2016-04-13T12:05:48.000Z</time>
      </trkpt>
      <trkpt lat="43.2119" lon="5.75569">
        <ele>129.39999389648</ele>
        <time>2016-04-13T12:05:50.000Z</time>
      </trkpt>
      <trkpt lat="43.21215" lon="5.75561">
        <ele>129.60000610352</ele>
        <time>2016-04-13T12:05:54.000Z</time>
      </trkpt>
      <trkpt lat="43.21256" lon="5.75549">
        <ele>130.19999694824</ele>
        <time>2016-04-13T12:06:01.000Z</time>
      </trkpt>
      <trkpt lat="43.21303" lon="5.75541">
        <ele>132.19999694824</ele>
        <time>2016-04-13T12:06:09.000Z</time>
      </trkpt>
      <trkpt lat="43.21339" lon="5.75526">
        <ele>134.19999694824</ele>
        <time>2016-04-13T12:06:15.000Z</time>
      </trkpt>
      <trkpt lat="43.21367" lon="5.75511">
        <ele>135</ele>
        <time>2016-04-13T12:06:20.000Z</time>
      </trkpt>
      <trkpt lat="43.21388" lon="5.75498">
        <ele>135.39999389648</ele>
        <time>2016-04-13T12:06:24.000Z</time>
      </trkpt>
      <trkpt lat="43.21398" lon="5.75492">
        <ele>135.19999694824</ele>
        <time>2016-04-13T12:06:26.000Z</time>
      </trkpt>
      <trkpt lat="43.21441" lon="5.75468">
        <ele>135.60000610352</ele>
        <time>2016-04-13T12:06:34.000Z</time>
      </trkpt>
      <trkpt lat="43.21452" lon="5.75465">
        <ele>136.19999694824</ele>
        <time>2016-04-13T12:06:36.000Z</time>
      </trkpt>
      <trkpt lat="43.21463" lon="5.75466">
        <ele>136.39999389648</ele>
        <time>2016-04-13T12:06:38.000Z</time>
      </trkpt>
      <trkpt lat="43.21481" lon="5.75484">
        <ele>136.60000610352</ele>
        <time>2016-04-13T12:06:42.000Z</time>
      </trkpt>
      <trkpt lat="43.21486" lon="5.75489">
        <ele>136.60000610352</ele>
        <time>2016-04-13T12:06:43.000Z</time>
      </trkpt>
      <trkpt lat="43.21495" lon="5.75498">
        <ele>136.80000305176</ele>
        <time>2016-04-13T12:06:45.000Z</time>
      </trkpt>
      <trkpt lat="43.21506" lon="5.75504">
        <ele>137</ele>
        <time>2016-04-13T12:06:47.000Z</time>
      </trkpt>
      <trkpt lat="43.21512" lon="5.75506">
        <ele>137.19999694824</ele>
        <time>2016-04-13T12:06:48.000Z</time>
      </trkpt>
      <trkpt lat="43.21523" lon="5.7551">
        <ele>137.39999389648</ele>
        <time>2016-04-13T12:06:50.000Z</time>
      </trkpt>
      <trkpt lat="43.21552" lon="5.75519">
        <ele>138.19999694824</ele>
        <time>2016-04-13T12:06:55.000Z</time>
      </trkpt>
      <trkpt lat="43.21569" lon="5.75528">
        <ele>138.60000610352</ele>
        <time>2016-04-13T12:06:58.000Z</time>
      </trkpt>
      <trkpt lat="43.21585" lon="5.7554">
        <ele>139</ele>
        <time>2016-04-13T12:07:01.000Z</time>
      </trkpt>
      <trkpt lat="43.21617" lon="5.75562">
        <ele>139.80000305176</ele>
        <time>2016-04-13T12:07:07.000Z</time>
      </trkpt>
      <trkpt lat="43.21623" lon="5.75563">
        <ele>140.19999694824</ele>
        <time>2016-04-13T12:07:08.000Z</time>
      </trkpt>
      <trkpt lat="43.21647" lon="5.75556">
        <ele>140.80000305176</ele>
        <time>2016-04-13T12:07:12.000Z</time>
      </trkpt>
      <trkpt lat="43.21686" lon="5.75533">
        <ele>142.60000610352</ele>
        <time>2016-04-13T12:07:19.000Z</time>
      </trkpt>
      <trkpt lat="43.21707" lon="5.75517">
        <ele>142.80000305176</ele>
        <time>2016-04-13T12:07:23.000Z</time>
      </trkpt>
      <trkpt lat="43.21739" lon="5.75492">
        <ele>141.60000610352</ele>
        <time>2016-04-13T12:07:29.000Z</time>
      </trkpt>
      <trkpt lat="43.2179" lon="5.75449">
        <ele>142.19999694824</ele>
        <time>2016-04-13T12:07:39.000Z</time>
      </trkpt>
      <trkpt lat="43.21832" lon="5.75422">
        <ele>143.39999389648</ele>
        <time>2016-04-13T12:07:47.000Z</time>
      </trkpt>
      <trkpt lat="43.21857" lon="5.75424">
        <ele>143.60000610352</ele>
        <time>2016-04-13T12:07:51.000Z</time>
      </trkpt>
      <trkpt lat="43.21879" lon="5.75431">
        <ele>145</ele>
        <time>2016-04-13T12:07:55.000Z</time>
      </trkpt>
      <trkpt lat="43.21885" lon="5.7543">
        <ele>145.39999389648</ele>
        <time>2016-04-13T12:07:56.000Z</time>
      </trkpt>
      <trkpt lat="43.219" lon="5.75417">
        <ele>145.39999389648</ele>
        <time>2016-04-13T12:07:59.000Z</time>
      </trkpt>
      <trkpt lat="43.21909" lon="5.75406">
        <ele>145.19999694824</ele>
        <time>2016-04-13T12:08:01.000Z</time>
      </trkpt>
      <trkpt lat="43.21928" lon="5.75388">
        <ele>145</ele>
        <time>2016-04-13T12:08:05.000Z</time>
      </trkpt>
      <trkpt lat="43.2195" lon="5.75384">
        <ele>145</ele>
        <time>2016-04-13T12:08:09.000Z</time>
      </trkpt>
      <trkpt lat="43.21966" lon="5.7539">
        <ele>145</ele>
        <time>2016-04-13T12:08:12.000Z</time>
      </trkpt>
      <trkpt lat="43.2197" lon="5.75393">
        <ele>145</ele>
        <time>2016-04-13T12:08:13.000Z</time>
      </trkpt>
      <trkpt lat="43.21981" lon="5.75402">
        <ele>145.19999694824</ele>
        <time>2016-04-13T12:08:16.000Z</time>
      </trkpt>
      <trkpt lat="43.21984" lon="5.75405">
        <ele>145.19999694824</ele>
        <time>2016-04-13T12:08:17.000Z</time>
      </trkpt>
      <trkpt lat="43.21987" lon="5.75408">
        <ele>145.19999694824</ele>
        <time>2016-04-13T12:08:18.000Z</time>
      </trkpt>
      <trkpt lat="43.22003" lon="5.75421">
        <ele>145.39999389648</ele>
        <time>2016-04-13T12:08:22.000Z</time>
      </trkpt>
      <trkpt lat="43.2202" lon="5.75432">
        <ele>146</ele>
        <time>2016-04-13T12:08:26.000Z</time>
      </trkpt>
      <trkpt lat="43.22043" lon="5.75447">
        <ele>147.19999694824</ele>
        <time>2016-04-13T12:08:31.000Z</time>
      </trkpt>
      <trkpt lat="43.22055" lon="5.75457">
        <ele>148</ele>
        <time>2016-04-13T12:08:34.000Z</time>
      </trkpt>
      <trkpt lat="43.22059" lon="5.75462">
        <ele>148.19999694824</ele>
        <time>2016-04-13T12:08:35.000Z</time>
      </trkpt>
      <trkpt lat="43.22063" lon="5.75466">
        <ele>148.39999389648</ele>
        <time>2016-04-13T12:08:36.000Z</time>
      </trkpt>
      <trkpt lat="43.22082" lon="5.75488">
        <ele>149.60000610352</ele>
        <time>2016-04-13T12:08:41.000Z</time>
      </trkpt>
      <trkpt lat="43.22089" lon="5.75498">
        <ele>150</ele>
        <time>2016-04-13T12:08:43.000Z</time>
      </trkpt>
      <trkpt lat="43.22096" lon="5.75508">
        <ele>150.39999389648</ele>
        <time>2016-04-13T12:08:45.000Z</time>
      </trkpt>
      <trkpt lat="43.2211" lon="5.75529">
        <ele>151.39999389648</ele>
        <time>2016-04-13T12:08:49.000Z</time>
      </trkpt>
      <trkpt lat="43.2212" lon="5.75545">
        <ele>152</ele>
        <time>2016-04-13T12:08:52.000Z</time>
      </trkpt>
      <trkpt lat="43.22123" lon="5.7555">
        <ele>152.19999694824</ele>
        <time>2016-04-13T12:08:53.000Z</time>
      </trkpt>
      <trkpt lat="43.22134" lon="5.75564">
        <ele>152.19999694824</ele>
        <time>2016-04-13T12:08:56.000Z</time>
      </trkpt>
      <trkpt lat="43.22138" lon="5.75569">
        <ele>152</ele>
        <time>2016-04-13T12:08:57.000Z</time>
      </trkpt>
      <trkpt lat="43.22151" lon="5.75582">
        <ele>151.60000610352</ele>
        <time>2016-04-13T12:09:00.000Z</time>
      </trkpt>
      <trkpt lat="43.22156" lon="5.75585">
        <ele>151.60000610352</ele>
        <time>2016-04-13T12:09:01.000Z</time>
      </trkpt>
      <trkpt lat="43.22176" lon="5.75595">
        <ele>152</ele>
        <time>2016-04-13T12:09:05.000Z</time>
      </trkpt>
      <trkpt lat="43.22182" lon="5.75597">
        <ele>152</ele>
        <time>2016-04-13T12:09:06.000Z</time>
      </trkpt>
      <trkpt lat="43.22222" lon="5.75608">
        <ele>152.80000305176</ele>
        <time>2016-04-13T12:09:13.000Z</time>
      </trkpt>
      <trkpt lat="43.22239" lon="5.75616">
        <ele>152.80000305176</ele>
        <time>2016-04-13T12:09:16.000Z</time>
      </trkpt>
      <trkpt lat="43.22249" lon="5.75624">
        <ele>152.39999389648</ele>
        <time>2016-04-13T12:09:18.000Z</time>
      </trkpt>
      <trkpt lat="43.22258" lon="5.75635">
        <ele>152</ele>
        <time>2016-04-13T12:09:20.000Z</time>
      </trkpt>
      <trkpt lat="43.22266" lon="5.75657">
        <ele>152.39999389648</ele>
        <time>2016-04-13T12:09:23.000Z</time>
      </trkpt>
      <trkpt lat="43.22268" lon="5.75672">
        <ele>152.80000305176</ele>
        <time>2016-04-13T12:09:25.000Z</time>
      </trkpt>
      <trkpt lat="43.22271" lon="5.75693">
        <ele>153.19999694824</ele>
        <time>2016-04-13T12:09:28.000Z</time>
      </trkpt>
      <trkpt lat="43.22273" lon="5.75739">
        <ele>154</ele>
        <time>2016-04-13T12:09:34.000Z</time>
      </trkpt>
      <trkpt lat="43.22274" lon="5.75817">
        <ele>158.39999389648</ele>
        <time>2016-04-13T12:09:44.000Z</time>
      </trkpt>
      <trkpt lat="43.22274" lon="5.75825">
        <ele>158.19999694824</ele>
        <time>2016-04-13T12:09:45.000Z</time>
      </trkpt>
      <trkpt lat="43.22282" lon="5.75885">
        <ele>155.80000305176</ele>
        <time>2016-04-13T12:09:53.000Z</time>
      </trkpt>
      <trkpt lat="43.22285" lon="5.75892">
        <ele>155.60000610352</ele>
        <time>2016-04-13T12:09:54.000Z</time>
      </trkpt>
      <trkpt lat="43.22291" lon="5.75905">
        <ele>155</ele>
        <time>2016-04-13T12:09:56.000Z</time>
      </trkpt>
      <trkpt lat="43.22297" lon="5.75917">
        <ele>154.60000610352</ele>
        <time>2016-04-13T12:09:58.000Z</time>
      </trkpt>
      <trkpt lat="43.22301" lon="5.75924">
        <ele>154.19999694824</ele>
        <time>2016-04-13T12:09:59.000Z</time>
      </trkpt>
      <trkpt lat="43.22316" lon="5.75948">
        <ele>153.19999694824</ele>
        <time>2016-04-13T12:10:03.000Z</time>
      </trkpt>
      <trkpt lat="43.22325" lon="5.75958">
        <ele>152.60000610352</ele>
        <time>2016-04-13T12:10:05.000Z</time>
      </trkpt>
      <trkpt lat="43.22363" lon="5.75982">
        <ele>152.80000305176</ele>
        <time>2016-04-13T12:10:12.000Z</time>
      </trkpt>
      <trkpt lat="43.22378" lon="5.75995">
        <ele>153.39999389648</ele>
        <time>2016-04-13T12:10:15.000Z</time>
      </trkpt>
      <trkpt lat="43.22385" lon="5.76007">
        <ele>153.80000305176</ele>
        <time>2016-04-13T12:10:17.000Z</time>
      </trkpt>
      <trkpt lat="43.22396" lon="5.76026">
        <ele>154.39999389648</ele>
        <time>2016-04-13T12:10:20.000Z</time>
      </trkpt>
      <trkpt lat="43.22425" lon="5.76073">
        <ele>155.39999389648</ele>
        <time>2016-04-13T12:10:28.000Z</time>
      </trkpt>
      <trkpt lat="43.22442" lon="5.76094">
        <ele>154.80000305176</ele>
        <time>2016-04-13T12:10:32.000Z</time>
      </trkpt>
      <trkpt lat="43.22452" lon="5.76101">
        <ele>154.60000610352</ele>
        <time>2016-04-13T12:10:34.000Z</time>
      </trkpt>
      <trkpt lat="43.22463" lon="5.76106">
        <ele>154.39999389648</ele>
        <time>2016-04-13T12:10:36.000Z</time>
      </trkpt>
      <trkpt lat="43.2248" lon="5.76111">
        <ele>154</ele>
        <time>2016-04-13T12:10:39.000Z</time>
      </trkpt>
      <trkpt lat="43.22498" lon="5.76113">
        <ele>154.19999694824</ele>
        <time>2016-04-13T12:10:42.000Z</time>
      </trkpt>
      <trkpt lat="43.22528" lon="5.76112">
        <ele>155.19999694824</ele>
        <time>2016-04-13T12:10:47.000Z</time>
      </trkpt>
      <trkpt lat="43.22582" lon="5.76106">
        <ele>157.39999389648</ele>
        <time>2016-04-13T12:10:56.000Z</time>
      </trkpt>
      <trkpt lat="43.22632" lon="5.76106">
        <ele>158.39999389648</ele>
        <time>2016-04-13T12:11:05.000Z</time>
      </trkpt>
      <trkpt lat="43.22676" lon="5.76112">
        <ele>157.80000305176</ele>
        <time>2016-04-13T12:11:13.000Z</time>
      </trkpt>
      <trkpt lat="43.22681" lon="5.76114">
        <ele>157.60000610352</ele>
        <time>2016-04-13T12:11:14.000Z</time>
      </trkpt>
      <trkpt lat="43.2269" lon="5.7613">
        <ele>157.39999389648</ele>
        <time>2016-04-13T12:11:17.000Z</time>
      </trkpt>
      <trkpt lat="43.22692" lon="5.76153">
        <ele>156.60000610352</ele>
        <time>2016-04-13T12:11:20.000Z</time>
      </trkpt>
      <trkpt lat="43.22693" lon="5.76168">
        <ele>156.19999694824</ele>
        <time>2016-04-13T12:11:22.000Z</time>
      </trkpt>
      <trkpt lat="43.22703" lon="5.76195">
        <ele>155.60000610352</ele>
        <time>2016-04-13T12:11:26.000Z</time>
      </trkpt>
      <trkpt lat="43.22727" lon="5.76217">
        <ele>155</ele>
        <time>2016-04-13T12:11:31.000Z</time>
      </trkpt>
      <trkpt lat="43.22745" lon="5.76222">
        <ele>155</ele>
        <time>2016-04-13T12:11:34.000Z</time>
      </trkpt>
      <trkpt lat="43.22768" lon="5.76227">
        <ele>155.19999694824</ele>
        <time>2016-04-13T12:11:38.000Z</time>
      </trkpt>
      <trkpt lat="43.22811" lon="5.76238">
        <ele>157.80000305176</ele>
        <time>2016-04-13T12:11:46.000Z</time>
      </trkpt>
      <trkpt lat="43.2283" lon="5.76244">
        <ele>158.80000305176</ele>
        <time>2016-04-13T12:11:50.000Z</time>
      </trkpt>
      <trkpt lat="43.2285" lon="5.76251">
        <ele>159.80000305176</ele>
        <time>2016-04-13T12:11:54.000Z</time>
      </trkpt>
      <trkpt lat="43.22855" lon="5.76252">
        <ele>160</ele>
        <time>2016-04-13T12:11:55.000Z</time>
      </trkpt>
      <trkpt lat="43.22875" lon="5.76256">
        <ele>161</ele>
        <time>2016-04-13T12:11:59.000Z</time>
      </trkpt>
      <trkpt lat="43.22879" lon="5.76259">
        <ele>161.19999694824</ele>
        <time>2016-04-13T12:12:00.000Z</time>
      </trkpt>
      <trkpt lat="43.22895" lon="5.76276">
        <ele>161.80000305176</ele>
        <time>2016-04-13T12:12:04.000Z</time>
      </trkpt>
      <trkpt lat="43.229" lon="5.76281">
        <ele>161.80000305176</ele>
        <time>2016-04-13T12:12:05.000Z</time>
      </trkpt>
      <trkpt lat="43.22917" lon="5.76297">
        <ele>162.39999389648</ele>
        <time>2016-04-13T12:12:09.000Z</time>
      </trkpt>
      <trkpt lat="43.22945" lon="5.76328">
        <ele>163.39999389648</ele>
        <time>2016-04-13T12:12:16.000Z</time>
      </trkpt>
      <trkpt lat="43.22952" lon="5.76337">
        <ele>163.80000305176</ele>
        <time>2016-04-13T12:12:18.000Z</time>
      </trkpt>
      <trkpt lat="43.22962" lon="5.76355">
        <ele>164</ele>
        <time>2016-04-13T12:12:21.000Z</time>
      </trkpt>
      <trkpt lat="43.22968" lon="5.76383">
        <ele>163.39999389648</ele>
        <time>2016-04-13T12:12:25.000Z</time>
      </trkpt>
      <trkpt lat="43.22975" lon="5.7644">
        <ele>163</ele>
        <time>2016-04-13T12:12:32.000Z</time>
      </trkpt>
      <trkpt lat="43.22983" lon="5.76481">
        <ele>164.60000610352</ele>
        <time>2016-04-13T12:12:37.000Z</time>
      </trkpt>
      <trkpt lat="43.22985" lon="5.76495">
        <ele>164.60000610352</ele>
        <time>2016-04-13T12:12:39.000Z</time>
      </trkpt>
      <trkpt lat="43.22989" lon="5.76521">
        <ele>164.80000305176</ele>
        <time>2016-04-13T12:12:44.000Z</time>
      </trkpt>
      <trkpt lat="43.22989" lon="5.7653">
        <ele>164.80000305176</ele>
        <time>2016-04-13T12:12:56.000Z</time>
      </trkpt>
      <trkpt lat="43.22989" lon="5.76544">
        <ele>165.80000305176</ele>
        <time>2016-04-13T12:13:00.000Z</time>
      </trkpt>
      <trkpt lat="43.22989" lon="5.76567">
        <ele>167.19999694824</ele>
        <time>2016-04-13T12:13:05.000Z</time>
      </trkpt>
      <trkpt lat="43.22989" lon="5.76573">
        <ele>167.60000610352</ele>
        <time>2016-04-13T12:13:06.000Z</time>
      </trkpt>
      <trkpt lat="43.22994" lon="5.76589">
        <ele>168</ele>
        <time>2016-04-13T12:13:09.000Z</time>
      </trkpt>
      <trkpt lat="43.23007" lon="5.76609">
        <ele>168</ele>
        <time>2016-04-13T12:13:13.000Z</time>
      </trkpt>
      <trkpt lat="43.23011" lon="5.76614">
        <ele>168</ele>
        <time>2016-04-13T12:13:14.000Z</time>
      </trkpt>
      <trkpt lat="43.23018" lon="5.76625">
        <ele>168.39999389648</ele>
        <time>2016-04-13T12:13:16.000Z</time>
      </trkpt>
      <trkpt lat="43.23024" lon="5.76645">
        <ele>169.39999389648</ele>
        <time>2016-04-13T12:13:19.000Z</time>
      </trkpt>
      <trkpt lat="43.23026" lon="5.76652">
        <ele>169.80000305176</ele>
        <time>2016-04-13T12:13:20.000Z</time>
      </trkpt>
      <trkpt lat="43.23034" lon="5.76694">
        <ele>172.19999694824</ele>
        <time>2016-04-13T12:13:26.000Z</time>
      </trkpt>
      <trkpt lat="43.23036" lon="5.767">
        <ele>172.39999389648</ele>
        <time>2016-04-13T12:13:27.000Z</time>
      </trkpt>
      <trkpt lat="43.23046" lon="5.76721">
        <ele>173.60000610352</ele>
        <time>2016-04-13T12:13:31.000Z</time>
      </trkpt>
      <trkpt lat="43.23067" lon="5.76751">
        <ele>173.60000610352</ele>
        <time>2016-04-13T12:13:38.000Z</time>
      </trkpt>
      <trkpt lat="43.23074" lon="5.76759">
        <ele>173.80000305176</ele>
        <time>2016-04-13T12:13:40.000Z</time>
      </trkpt>
      <trkpt lat="43.23079" lon="5.76768">
        <ele>173.80000305176</ele>
        <time>2016-04-13T12:13:42.000Z</time>
      </trkpt>
      <trkpt lat="43.23085" lon="5.76776">
        <ele>173.80000305176</ele>
        <time>2016-04-13T12:13:44.000Z</time>
      </trkpt>
      <trkpt lat="43.23088" lon="5.7678">
        <ele>173.80000305176</ele>
        <time>2016-04-13T12:13:45.000Z</time>
      </trkpt>
      <trkpt lat="43.23096" lon="5.76786">
        <ele>173.80000305176</ele>
        <time>2016-04-13T12:13:47.000Z</time>
      </trkpt>
      <trkpt lat="43.23103" lon="5.76789">
        <ele>174.60000610352</ele>
        <time>2016-04-13T12:13:49.000Z</time>
      </trkpt>
      <trkpt lat="43.23107" lon="5.76791">
        <ele>175</ele>
        <time>2016-04-13T12:13:50.000Z</time>
      </trkpt>
      <trkpt lat="43.23109" lon="5.76795">
        <ele>175.19999694824</ele>
        <time>2016-04-13T12:13:51.000Z</time>
      </trkpt>
      <trkpt lat="43.2311" lon="5.768">
        <ele>175.39999389648</ele>
        <time>2016-04-13T12:13:52.000Z</time>
      </trkpt>
      <trkpt lat="43.23111" lon="5.76812">
        <ele>175.39999389648</ele>
        <time>2016-04-13T12:13:54.000Z</time>
      </trkpt>
      <trkpt lat="43.23112" lon="5.76818">
        <ele>175.39999389648</ele>
        <time>2016-04-13T12:13:55.000Z</time>
      </trkpt>
      <trkpt lat="43.23113" lon="5.76825">
        <ele>175.39999389648</ele>
        <time>2016-04-13T12:13:56.000Z</time>
      </trkpt>
      <trkpt lat="43.23114" lon="5.76838">
        <ele>175.80000305176</ele>
        <time>2016-04-13T12:13:58.000Z</time>
      </trkpt>
      <trkpt lat="43.23116" lon="5.76857">
        <ele>176</ele>
        <time>2016-04-13T12:14:01.000Z</time>
      </trkpt>
      <trkpt lat="43.23116" lon="5.76869">
        <ele>176.19999694824</ele>
        <time>2016-04-13T12:14:03.000Z</time>
      </trkpt>
      <trkpt lat="43.23117" lon="5.76876">
        <ele>176.39999389648</ele>
        <time>2016-04-13T12:14:04.000Z</time>
      </trkpt>
      <trkpt lat="43.2312" lon="5.76922">
        <ele>176.60000610352</ele>
        <time>2016-04-13T12:14:11.000Z</time>
      </trkpt>
      <trkpt lat="43.23122" lon="5.76972">
        <ele>177.19999694824</ele>
        <time>2016-04-13T12:14:19.000Z</time>
      </trkpt>
      <trkpt lat="43.23126" lon="5.76988">
        <ele>176.80000305176</ele>
        <time>2016-04-13T12:14:22.000Z</time>
      </trkpt>
      <trkpt lat="43.23129" lon="5.76993">
        <ele>176.80000305176</ele>
        <time>2016-04-13T12:14:23.000Z</time>
      </trkpt>
      <trkpt lat="43.23132" lon="5.76997">
        <ele>176.80000305176</ele>
        <time>2016-04-13T12:14:24.000Z</time>
      </trkpt>
      <trkpt lat="43.23152" lon="5.77019">
        <ele>177</ele>
        <time>2016-04-13T12:14:29.000Z</time>
      </trkpt>
      <trkpt lat="43.23171" lon="5.77041">
        <ele>177</ele>
        <time>2016-04-13T12:14:34.000Z</time>
      </trkpt>
      <trkpt lat="43.23179" lon="5.77047">
        <ele>177.19999694824</ele>
        <time>2016-04-13T12:14:36.000Z</time>
      </trkpt>
      <trkpt lat="43.23206" lon="5.77057">
        <ele>178.80000305176</ele>
        <time>2016-04-13T12:14:42.000Z</time>
      </trkpt>
      <trkpt lat="43.2321" lon="5.7706">
        <ele>179.19999694824</ele>
        <time>2016-04-13T12:14:43.000Z</time>
      </trkpt>
      <trkpt lat="43.23217" lon="5.77066">
        <ele>180</ele>
        <time>2016-04-13T12:14:45.000Z</time>
      </trkpt>
      <trkpt lat="43.23221" lon="5.77074">
        <ele>181</ele>
        <time>2016-04-13T12:14:47.000Z</time>
      </trkpt>
      <trkpt lat="43.23221" lon="5.77097">
        <ele>182.60000610352</ele>
        <time>2016-04-13T12:14:51.000Z</time>
      </trkpt>
      <trkpt lat="43.23215" lon="5.77138">
        <ele>183.60000610352</ele>
        <time>2016-04-13T12:14:58.000Z</time>
      </trkpt>
      <trkpt lat="43.23214" lon="5.77144">
        <ele>183.80000305176</ele>
        <time>2016-04-13T12:14:59.000Z</time>
      </trkpt>
      <trkpt lat="43.23215" lon="5.77166">
        <ele>185.39999389648</ele>
        <time>2016-04-13T12:15:03.000Z</time>
      </trkpt>
      <trkpt lat="43.23216" lon="5.7717">
        <ele>185.80000305176</ele>
        <time>2016-04-13T12:15:04.000Z</time>
      </trkpt>
      <trkpt lat="43.2322" lon="5.77178">
        <ele>186.80000305176</ele>
        <time>2016-04-13T12:15:06.000Z</time>
      </trkpt>
      <trkpt lat="43.23224" lon="5.77187">
        <ele>187.60000610352</ele>
        <time>2016-04-13T12:15:08.000Z</time>
      </trkpt>
      <trkpt lat="43.23226" lon="5.77192">
        <ele>188.19999694824</ele>
        <time>2016-04-13T12:15:09.000Z</time>
      </trkpt>
      <trkpt lat="43.23229" lon="5.77204">
        <ele>188.80000305176</ele>
        <time>2016-04-13T12:15:11.000Z</time>
      </trkpt>
      <trkpt lat="43.2323" lon="5.77224">
        <ele>189.39999389648</ele>
        <time>2016-04-13T12:15:14.000Z</time>
      </trkpt>
      <trkpt lat="43.23231" lon="5.77281">
        <ele>189</ele>
        <time>2016-04-13T12:15:23.000Z</time>
      </trkpt>
      <trkpt lat="43.2323" lon="5.77305">
        <ele>188.80000305176</ele>
        <time>2016-04-13T12:15:27.000Z</time>
      </trkpt>
      <trkpt lat="43.2323" lon="5.77335">
        <ele>187.60000610352</ele>
        <time>2016-04-13T12:15:32.000Z</time>
      </trkpt>
      <trkpt lat="43.2323" lon="5.7734">
        <ele>187.60000610352</ele>
        <time>2016-04-13T12:15:33.000Z</time>
      </trkpt>
      <trkpt lat="43.23229" lon="5.77367">
        <ele>187</ele>
        <time>2016-04-13T12:15:38.000Z</time>
      </trkpt>
      <trkpt lat="43.23227" lon="5.77393">
        <ele>187.60000610352</ele>
        <time>2016-04-13T12:15:42.000Z</time>
      </trkpt>
      <trkpt lat="43.23223" lon="5.77406">
        <ele>187.80000305176</ele>
        <time>2016-04-13T12:15:44.000Z</time>
      </trkpt>
      <trkpt lat="43.2321" lon="5.77414">
        <ele>187.19999694824</ele>
        <time>2016-04-13T12:15:47.000Z</time>
      </trkpt>
      <trkpt lat="43.23201" lon="5.77415">
        <ele>186.60000610352</ele>
        <time>2016-04-13T12:15:49.000Z</time>
      </trkpt>
      <trkpt lat="43.23185" lon="5.77418">
        <ele>185.39999389648</ele>
        <time>2016-04-13T12:15:53.000Z</time>
      </trkpt>
      <trkpt lat="43.23176" lon="5.77429">
        <ele>185.60000610352</ele>
        <time>2016-04-13T12:15:56.000Z</time>
      </trkpt>
      <trkpt lat="43.23175" lon="5.77435">
        <ele>185.80000305176</ele>
        <time>2016-04-13T12:15:57.000Z</time>
      </trkpt>
      <trkpt lat="43.23162" lon="5.77478">
        <ele>187</ele>
        <time>2016-04-13T12:16:03.000Z</time>
      </trkpt>
      <trkpt lat="43.23147" lon="5.77535">
        <ele>188.60000610352</ele>
        <time>2016-04-13T12:16:11.000Z</time>
      </trkpt>
      <trkpt lat="43.23132" lon="5.77579">
        <ele>191.39999389648</ele>
        <time>2016-04-13T12:16:18.000Z</time>
      </trkpt>
      <trkpt lat="43.23131" lon="5.77584">
        <ele>191.39999389648</ele>
        <time>2016-04-13T12:16:19.000Z</time>
      </trkpt>
      <trkpt lat="43.23133" lon="5.77602">
        <ele>191.60000610352</ele>
        <time>2016-04-13T12:16:23.000Z</time>
      </trkpt>
      <trkpt lat="43.23139" lon="5.77609">
        <ele>191.19999694824</ele>
        <time>2016-04-13T12:16:25.000Z</time>
      </trkpt>
      <trkpt lat="43.23143" lon="5.77615">
        <ele>191</ele>
        <time>2016-04-13T12:16:27.000Z</time>
      </trkpt>
      <trkpt lat="43.23139" lon="5.77627">
        <ele>191.60000610352</ele>
        <time>2016-04-13T12:16:30.000Z</time>
      </trkpt>
      <trkpt lat="43.23132" lon="5.77631">
        <ele>192.19999694824</ele>
        <time>2016-04-13T12:16:32.000Z</time>
      </trkpt>
      <trkpt lat="43.23127" lon="5.77633">
        <ele>192.80000305176</ele>
        <time>2016-04-13T12:16:34.000Z</time>
      </trkpt>
      <trkpt lat="43.23125" lon="5.77635">
        <ele>193</ele>
        <time>2016-04-13T12:16:35.000Z</time>
      </trkpt>
      <trkpt lat="43.2312" lon="5.77641">
        <ele>193.80000305176</ele>
        <time>2016-04-13T12:16:39.000Z</time>
      </trkpt>
      <trkpt lat="43.23119" lon="5.77644">
        <ele>193.80000305176</ele>
        <time>2016-04-13T12:16:40.000Z</time>
      </trkpt>
      <trkpt lat="43.23124" lon="5.77661">
        <ele>193.80000305176</ele>
        <time>2016-04-13T12:16:43.000Z</time>
      </trkpt>
      <trkpt lat="43.23132" lon="5.77676">
        <ele>193.39999389648</ele>
        <time>2016-04-13T12:16:46.000Z</time>
      </trkpt>
      <trkpt lat="43.23144" lon="5.77698">
        <ele>193.19999694824</ele>
        <time>2016-04-13T12:16:50.000Z</time>
      </trkpt>
      <trkpt lat="43.23158" lon="5.77724">
        <ele>193.19999694824</ele>
        <time>2016-04-13T12:16:55.000Z</time>
      </trkpt>
      <trkpt lat="43.23166" lon="5.77728">
        <ele>192.39999389648</ele>
        <time>2016-04-13T12:16:57.000Z</time>
      </trkpt>
      <trkpt lat="43.23195" lon="5.77739">
        <ele>190.60000610352</ele>
        <time>2016-04-13T12:17:04.000Z</time>
      </trkpt>
      <trkpt lat="43.23205" lon="5.77749">
        <ele>190.80000305176</ele>
        <time>2016-04-13T12:17:07.000Z</time>
      </trkpt>
      <trkpt lat="43.23209" lon="5.77759">
        <ele>191.39999389648</ele>
        <time>2016-04-13T12:17:09.000Z</time>
      </trkpt>
      <trkpt lat="43.23212" lon="5.77771">
        <ele>192.39999389648</ele>
        <time>2016-04-13T12:17:11.000Z</time>
      </trkpt>
      <trkpt lat="43.23217" lon="5.7779">
        <ele>193.80000305176</ele>
        <time>2016-04-13T12:17:14.000Z</time>
      </trkpt>
      <trkpt lat="43.23219" lon="5.77797">
        <ele>194.39999389648</ele>
        <time>2016-04-13T12:17:15.000Z</time>
      </trkpt>
      <trkpt lat="43.23232" lon="5.77833">
        <ele>194.19999694824</ele>
        <time>2016-04-13T12:17:20.000Z</time>
      </trkpt>
      <trkpt lat="43.23248" lon="5.7787">
        <ele>193</ele>
        <time>2016-04-13T12:17:25.000Z</time>
      </trkpt>
      <trkpt lat="43.2325" lon="5.77876">
        <ele>192.80000305176</ele>
        <time>2016-04-13T12:17:26.000Z</time>
      </trkpt>
      <trkpt lat="43.23251" lon="5.77888">
        <ele>193.80000305176</ele>
        <time>2016-04-13T12:17:28.000Z</time>
      </trkpt>
      <trkpt lat="43.23248" lon="5.77905">
        <ele>195.39999389648</ele>
        <time>2016-04-13T12:17:31.000Z</time>
      </trkpt>
      <trkpt lat="43.23245" lon="5.77917">
        <ele>196.39999389648</ele>
        <time>2016-04-13T12:17:33.000Z</time>
      </trkpt>
      <trkpt lat="43.23243" lon="5.77929">
        <ele>197.39999389648</ele>
        <time>2016-04-13T12:17:35.000Z</time>
      </trkpt>
      <trkpt lat="43.2324" lon="5.77949">
        <ele>199.19999694824</ele>
        <time>2016-04-13T12:17:38.000Z</time>
      </trkpt>
      <trkpt lat="43.23237" lon="5.77969">
        <ele>201.39999389648</ele>
        <time>2016-04-13T12:17:41.000Z</time>
      </trkpt>
      <trkpt lat="43.23236" lon="5.77975">
        <ele>202</ele>
        <time>2016-04-13T12:17:42.000Z</time>
      </trkpt>
      <trkpt lat="43.2323" lon="5.78007">
        <ele>204.39999389648</ele>
        <time>2016-04-13T12:17:47.000Z</time>
      </trkpt>
      <trkpt lat="43.23227" lon="5.78026">
        <ele>206</ele>
        <time>2016-04-13T12:17:50.000Z</time>
      </trkpt>
      <trkpt lat="43.23214" lon="5.78068">
        <ele>209.19999694824</ele>
        <time>2016-04-13T12:17:57.000Z</time>
      </trkpt>
      <trkpt lat="43.232" lon="5.78098">
        <ele>212.19999694824</ele>
        <time>2016-04-13T12:18:04.000Z</time>
      </trkpt>
      <trkpt lat="43.23196" lon="5.78119">
        <ele>213.80000305176</ele>
        <time>2016-04-13T12:18:08.000Z</time>
      </trkpt>
      <trkpt lat="43.23197" lon="5.78125">
        <ele>213.80000305176</ele>
        <time>2016-04-13T12:18:09.000Z</time>
      </trkpt>
      <trkpt lat="43.23208" lon="5.78174">
        <ele>212.19999694824</ele>
        <time>2016-04-13T12:18:17.000Z</time>
      </trkpt>
      <trkpt lat="43.23222" lon="5.78229">
        <ele>208.80000305176</ele>
        <time>2016-04-13T12:18:26.000Z</time>
      </trkpt>
      <trkpt lat="43.23223" lon="5.78235">
        <ele>208.60000610352</ele>
        <time>2016-04-13T12:18:27.000Z</time>
      </trkpt>
      <trkpt lat="43.23225" lon="5.78248">
        <ele>208.19999694824</ele>
        <time>2016-04-13T12:18:29.000Z</time>
      </trkpt>
      <trkpt lat="43.23226" lon="5.78268">
        <ele>208</ele>
        <time>2016-04-13T12:18:32.000Z</time>
      </trkpt>
      <trkpt lat="43.23226" lon="5.78282">
        <ele>208.19999694824</ele>
        <time>2016-04-13T12:18:34.000Z</time>
      </trkpt>
      <trkpt lat="43.23225" lon="5.78289">
        <ele>208.39999389648</ele>
        <time>2016-04-13T12:18:35.000Z</time>
      </trkpt>
      <trkpt lat="43.23223" lon="5.78311">
        <ele>209.60000610352</ele>
        <time>2016-04-13T12:18:38.000Z</time>
      </trkpt>
      <trkpt lat="43.23221" lon="5.78325">
        <ele>210.60000610352</ele>
        <time>2016-04-13T12:18:40.000Z</time>
      </trkpt>
      <trkpt lat="43.23221" lon="5.78331">
        <ele>211</ele>
        <time>2016-04-13T12:18:41.000Z</time>
      </trkpt>
      <trkpt lat="43.23222" lon="5.78338">
        <ele>211.19999694824</ele>
        <time>2016-04-13T12:18:42.000Z</time>
      </trkpt>
      <trkpt lat="43.23223" lon="5.78359">
        <ele>212</ele>
        <time>2016-04-13T12:18:45.000Z</time>
      </trkpt>
      <trkpt lat="43.23223" lon="5.78372">
        <ele>212.19999694824</ele>
        <time>2016-04-13T12:18:47.000Z</time>
      </trkpt>
      <trkpt lat="43.23223" lon="5.78379">
        <ele>212.39999389648</ele>
        <time>2016-04-13T12:18:48.000Z</time>
      </trkpt>
      <trkpt lat="43.23223" lon="5.78387">
        <ele>212.60000610352</ele>
        <time>2016-04-13T12:18:49.000Z</time>
      </trkpt>
      <trkpt lat="43.23224" lon="5.78401">
        <ele>213.60000610352</ele>
        <time>2016-04-13T12:18:51.000Z</time>
      </trkpt>
      <trkpt lat="43.23225" lon="5.78423">
        <ele>215.39999389648</ele>
        <time>2016-04-13T12:18:54.000Z</time>
      </trkpt>
      <trkpt lat="43.23226" lon="5.78451">
        <ele>216.39999389648</ele>
        <time>2016-04-13T12:18:58.000Z</time>
      </trkpt>
      <trkpt lat="43.23224" lon="5.78472">
        <ele>216.80000305176</ele>
        <time>2016-04-13T12:19:01.000Z</time>
      </trkpt>
      <trkpt lat="43.23221" lon="5.7849">
        <ele>217.80000305176</ele>
        <time>2016-04-13T12:19:04.000Z</time>
      </trkpt>
      <trkpt lat="43.23219" lon="5.78496">
        <ele>218.19999694824</ele>
        <time>2016-04-13T12:19:05.000Z</time>
      </trkpt>
      <trkpt lat="43.23217" lon="5.78502">
        <ele>218.80000305176</ele>
        <time>2016-04-13T12:19:06.000Z</time>
      </trkpt>
      <trkpt lat="43.23214" lon="5.78514">
        <ele>219.19999694824</ele>
        <time>2016-04-13T12:19:08.000Z</time>
      </trkpt>
      <trkpt lat="43.23212" lon="5.7852">
        <ele>219.19999694824</ele>
        <time>2016-04-13T12:19:09.000Z</time>
      </trkpt>
      <trkpt lat="43.23212" lon="5.78527">
        <ele>219.19999694824</ele>
        <time>2016-04-13T12:19:10.000Z</time>
      </trkpt>
      <trkpt lat="43.23212" lon="5.78541">
        <ele>219.19999694824</ele>
        <time>2016-04-13T12:19:12.000Z</time>
      </trkpt>
      <trkpt lat="43.23212" lon="5.78547">
        <ele>219.19999694824</ele>
        <time>2016-04-13T12:19:13.000Z</time>
      </trkpt>
      <trkpt lat="43.23211" lon="5.78554">
        <ele>219.19999694824</ele>
        <time>2016-04-13T12:19:14.000Z</time>
      </trkpt>
      <trkpt lat="43.23208" lon="5.78567">
        <ele>219.80000305176</ele>
        <time>2016-04-13T12:19:16.000Z</time>
      </trkpt>
      <trkpt lat="43.23206" lon="5.78581">
        <ele>220.19999694824</ele>
        <time>2016-04-13T12:19:18.000Z</time>
      </trkpt>
      <trkpt lat="43.23203" lon="5.78601">
        <ele>220.19999694824</ele>
        <time>2016-04-13T12:19:21.000Z</time>
      </trkpt>
      <trkpt lat="43.23202" lon="5.78608">
        <ele>220.19999694824</ele>
        <time>2016-04-13T12:19:22.000Z</time>
      </trkpt>
      <trkpt lat="43.23201" lon="5.78622">
        <ele>220.19999694824</ele>
        <time>2016-04-13T12:19:24.000Z</time>
      </trkpt>
      <trkpt lat="43.23196" lon="5.78656">
        <ele>221</ele>
        <time>2016-04-13T12:19:29.000Z</time>
      </trkpt>
      <trkpt lat="43.23191" lon="5.78685">
        <ele>221.60000610352</ele>
        <time>2016-04-13T12:19:33.000Z</time>
      </trkpt>
      <trkpt lat="43.23184" lon="5.7872">
        <ele>222.19999694824</ele>
        <time>2016-04-13T12:19:38.000Z</time>
      </trkpt>
      <trkpt lat="43.2318" lon="5.78741">
        <ele>223.39999389648</ele>
        <time>2016-04-13T12:19:41.000Z</time>
      </trkpt>
      <trkpt lat="43.23178" lon="5.78747">
        <ele>223.80000305176</ele>
        <time>2016-04-13T12:19:42.000Z</time>
      </trkpt>
      <trkpt lat="43.23171" lon="5.78773">
        <ele>226</ele>
        <time>2016-04-13T12:19:46.000Z</time>
      </trkpt>
      <trkpt lat="43.23164" lon="5.78797">
        <ele>227.39999389648</ele>
        <time>2016-04-13T12:19:50.000Z</time>
      </trkpt>
      <trkpt lat="43.23163" lon="5.78802">
        <ele>227.39999389648</ele>
        <time>2016-04-13T12:19:51.000Z</time>
      </trkpt>
      <trkpt lat="43.23159" lon="5.78809">
        <ele>227.60000610352</ele>
        <time>2016-04-13T12:19:53.000Z</time>
      </trkpt>
      <trkpt lat="43.23157" lon="5.78811">
        <ele>227.60000610352</ele>
        <time>2016-04-13T12:19:54.000Z</time>
      </trkpt>
      <trkpt lat="43.23149" lon="5.78812">
        <ele>227.39999389648</ele>
        <time>2016-04-13T12:19:56.000Z</time>
      </trkpt>
      <trkpt lat="43.23143" lon="5.78811">
        <ele>227</ele>
        <time>2016-04-13T12:19:57.000Z</time>
      </trkpt>
      <trkpt lat="43.23121" lon="5.78807">
        <ele>226</ele>
        <time>2016-04-13T12:20:00.000Z</time>
      </trkpt>
      <trkpt lat="43.23092" lon="5.78802">
        <ele>224.80000305176</ele>
        <time>2016-04-13T12:20:03.000Z</time>
      </trkpt>
      <trkpt lat="43.23083" lon="5.78801">
        <ele>224.19999694824</ele>
        <time>2016-04-13T12:20:04.000Z</time>
      </trkpt>
      <trkpt lat="43.23074" lon="5.788">
        <ele>223.60000610352</ele>
        <time>2016-04-13T12:20:05.000Z</time>
      </trkpt>
      <trkpt lat="43.23058" lon="5.78797">
        <ele>222.60000610352</ele>
        <time>2016-04-13T12:20:07.000Z</time>
      </trkpt>
      <trkpt lat="43.23044" lon="5.78795">
        <ele>221.60000610352</ele>
        <time>2016-04-13T12:20:09.000Z</time>
      </trkpt>
      <trkpt lat="43.23039" lon="5.78793">
        <ele>221.39999389648</ele>
        <time>2016-04-13T12:20:10.000Z</time>
      </trkpt>
      <trkpt lat="43.23025" lon="5.7879">
        <ele>220.39999389648</ele>
        <time>2016-04-13T12:20:13.000Z</time>
      </trkpt>
      <trkpt lat="43.23021" lon="5.78787">
        <ele>220.39999389648</ele>
        <time>2016-04-13T12:20:14.000Z</time>
      </trkpt>
      <trkpt lat="43.23019" lon="5.78777">
        <ele>220.60000610352</ele>
        <time>2016-04-13T12:20:16.000Z</time>
      </trkpt>
      <trkpt lat="43.2302" lon="5.78772">
        <ele>220.80000305176</ele>
        <time>2016-04-13T12:20:17.000Z</time>
      </trkpt>
      <trkpt lat="43.23019" lon="5.78756">
        <ele>221.19999694824</ele>
        <time>2016-04-13T12:20:21.000Z</time>
      </trkpt>
      <trkpt lat="43.23019" lon="5.78753">
        <ele>221.39999389648</ele>
        <time>2016-04-13T12:22:15.000Z</time>
      </trkpt>
      <trkpt lat="43.23018" lon="5.7875">
        <ele>221.39999389648</ele>
        <time>2016-04-13T12:22:16.000Z</time>
      </trkpt>
      <trkpt lat="43.23013" lon="5.78733">
        <ele>221.60000610352</ele>
        <time>2016-04-13T12:22:20.000Z</time>
      </trkpt>
      <trkpt lat="43.23009" lon="5.7873">
        <ele>221.19999694824</ele>
        <time>2016-04-13T12:22:22.000Z</time>
      </trkpt>
      <trkpt lat="43.23006" lon="5.78731">
        <ele>220.80000305176</ele>
        <time>2016-04-13T12:22:23.000Z</time>
      </trkpt>
      <trkpt lat="43.22993" lon="5.78739">
        <ele>218.80000305176</ele>
        <time>2016-04-13T12:22:26.000Z</time>
      </trkpt>
      <trkpt lat="43.22987" lon="5.78741">
        <ele>218</ele>
        <time>2016-04-13T12:22:27.000Z</time>
      </trkpt>
      <trkpt lat="43.22962" lon="5.7875">
        <ele>214.39999389648</ele>
        <time>2016-04-13T12:22:31.000Z</time>
      </trkpt>
      <trkpt lat="43.22953" lon="5.78754">
        <ele>213.19999694824</ele>
        <time>2016-04-13T12:22:33.000Z</time>
      </trkpt>
      <trkpt lat="43.22948" lon="5.78757">
        <ele>212.60000610352</ele>
        <time>2016-04-13T12:22:35.000Z</time>
      </trkpt>
      <trkpt lat="43.22945" lon="5.78759">
        <ele>212.19999694824</ele>
        <time>2016-04-13T12:22:37.000Z</time>
      </trkpt>
      <trkpt lat="43.22944" lon="5.78761">
        <ele>212.19999694824</ele>
        <time>2016-04-13T12:26:41.000Z</time>
      </trkpt>
      <trkpt lat="43.22932" lon="5.78764">
        <ele>210.80000305176</ele>
        <time>2016-04-13T12:26:45.000Z</time>
      </trkpt>
      <trkpt lat="43.22918" lon="5.78767">
        <ele>209.80000305176</ele>
        <time>2016-04-13T12:26:48.000Z</time>
      </trkpt>
      <trkpt lat="43.22908" lon="5.78773">
        <ele>209.19999694824</ele>
        <time>2016-04-13T12:26:50.000Z</time>
      </trkpt>
      <trkpt lat="43.22882" lon="5.78792">
        <ele>207.80000305176</ele>
        <time>2016-04-13T12:26:55.000Z</time>
      </trkpt>
      <trkpt lat="43.22862" lon="5.78807">
        <ele>206.80000305176</ele>
        <time>2016-04-13T12:26:59.000Z</time>
      </trkpt>
      <trkpt lat="43.2284" lon="5.7882">
        <ele>204.80000305176</ele>
        <time>2016-04-13T12:27:03.000Z</time>
      </trkpt>
      <trkpt lat="43.22823" lon="5.78831">
        <ele>202.60000610352</ele>
        <time>2016-04-13T12:27:06.000Z</time>
      </trkpt>
      <trkpt lat="43.22811" lon="5.78838">
        <ele>201.19999694824</ele>
        <time>2016-04-13T12:27:08.000Z</time>
      </trkpt>
      <trkpt lat="43.22788" lon="5.78851">
        <ele>199.80000305176</ele>
        <time>2016-04-13T12:27:12.000Z</time>
      </trkpt>
      <trkpt lat="43.22769" lon="5.7886">
        <ele>199.39999389648</ele>
        <time>2016-04-13T12:27:15.000Z</time>
      </trkpt>
      <trkpt lat="43.22763" lon="5.78863">
        <ele>199.39999389648</ele>
        <time>2016-04-13T12:27:16.000Z</time>
      </trkpt>
      <trkpt lat="43.22723" lon="5.78884">
        <ele>197.39999389648</ele>
        <time>2016-04-13T12:27:22.000Z</time>
      </trkpt>
      <trkpt lat="43.22715" lon="5.78888">
        <ele>197.19999694824</ele>
        <time>2016-04-13T12:27:23.000Z</time>
      </trkpt>
      <trkpt lat="43.22701" lon="5.78896">
        <ele>196.39999389648</ele>
        <time>2016-04-13T12:27:25.000Z</time>
      </trkpt>
      <trkpt lat="43.22676" lon="5.78914">
        <ele>194.80000305176</ele>
        <time>2016-04-13T12:27:29.000Z</time>
      </trkpt>
      <trkpt lat="43.22664" lon="5.78923">
        <ele>194</ele>
        <time>2016-04-13T12:27:31.000Z</time>
      </trkpt>
      <trkpt lat="43.22657" lon="5.78926">
        <ele>193.39999389648</ele>
        <time>2016-04-13T12:27:32.000Z</time>
      </trkpt>
      <trkpt lat="43.2265" lon="5.78928">
        <ele>193</ele>
        <time>2016-04-13T12:27:33.000Z</time>
      </trkpt>
      <trkpt lat="43.22642" lon="5.7893">
        <ele>192.39999389648</ele>
        <time>2016-04-13T12:27:34.000Z</time>
      </trkpt>
      <trkpt lat="43.22634" lon="5.78931">
        <ele>191.80000305176</ele>
        <time>2016-04-13T12:27:35.000Z</time>
      </trkpt>
      <trkpt lat="43.22619" lon="5.78935">
        <ele>191</ele>
        <time>2016-04-13T12:27:37.000Z</time>
      </trkpt>
      <trkpt lat="43.22603" lon="5.78938">
        <ele>190</ele>
        <time>2016-04-13T12:27:39.000Z</time>
      </trkpt>
      <trkpt lat="43.22595" lon="5.78939">
        <ele>189.60000610352</ele>
        <time>2016-04-13T12:27:40.000Z</time>
      </trkpt>
      <trkpt lat="43.2258" lon="5.78943">
        <ele>189.39999389648</ele>
        <time>2016-04-13T12:27:42.000Z</time>
      </trkpt>
      <trkpt lat="43.22559" lon="5.78949">
        <ele>188.80000305176</ele>
        <time>2016-04-13T12:27:45.000Z</time>
      </trkpt>
      <trkpt lat="43.22546" lon="5.78952">
        <ele>188.19999694824</ele>
        <time>2016-04-13T12:27:47.000Z</time>
      </trkpt>
      <trkpt lat="43.22541" lon="5.78952">
        <ele>187.80000305176</ele>
        <time>2016-04-13T12:27:48.000Z</time>
      </trkpt>
      <trkpt lat="43.22536" lon="5.78951">
        <ele>187.60000610352</ele>
        <time>2016-04-13T12:27:49.000Z</time>
      </trkpt>
      <trkpt lat="43.22526" lon="5.78944">
        <ele>187.39999389648</ele>
        <time>2016-04-13T12:27:51.000Z</time>
      </trkpt>
      <trkpt lat="43.2252" lon="5.78939">
        <ele>187.19999694824</ele>
        <time>2016-04-13T12:27:52.000Z</time>
      </trkpt>
      <trkpt lat="43.22515" lon="5.78935">
        <ele>187</ele>
        <time>2016-04-13T12:27:53.000Z</time>
      </trkpt>
      <trkpt lat="43.22509" lon="5.78931">
        <ele>186.60000610352</ele>
        <time>2016-04-13T12:27:54.000Z</time>
      </trkpt>
      <trkpt lat="43.22497" lon="5.78925">
        <ele>185.39999389648</ele>
        <time>2016-04-13T12:27:56.000Z</time>
      </trkpt>
      <trkpt lat="43.22477" lon="5.78925">
        <ele>183.19999694824</ele>
        <time>2016-04-13T12:27:59.000Z</time>
      </trkpt>
      <trkpt lat="43.2247" lon="5.78927">
        <ele>182.39999389648</ele>
        <time>2016-04-13T12:28:00.000Z</time>
      </trkpt>
      <trkpt lat="43.22463" lon="5.78929">
        <ele>182.19999694824</ele>
        <time>2016-04-13T12:28:01.000Z</time>
      </trkpt>
      <trkpt lat="43.22449" lon="5.78936">
        <ele>182</ele>
        <time>2016-04-13T12:28:03.000Z</time>
      </trkpt>
      <trkpt lat="43.22444" lon="5.78941">
        <ele>182</ele>
        <time>2016-04-13T12:28:04.000Z</time>
      </trkpt>
      <trkpt lat="43.22438" lon="5.78946">
        <ele>182.19999694824</ele>
        <time>2016-04-13T12:28:05.000Z</time>
      </trkpt>
      <trkpt lat="43.22428" lon="5.78958">
        <ele>182.19999694824</ele>
        <time>2016-04-13T12:28:07.000Z</time>
      </trkpt>
      <trkpt lat="43.22419" lon="5.7897">
        <ele>181.80000305176</ele>
        <time>2016-04-13T12:28:09.000Z</time>
      </trkpt>
      <trkpt lat="43.22408" lon="5.7898">
        <ele>180.80000305176</ele>
        <time>2016-04-13T12:28:11.000Z</time>
      </trkpt>
      <trkpt lat="43.22395" lon="5.78989">
        <ele>179.60000610352</ele>
        <time>2016-04-13T12:28:13.000Z</time>
      </trkpt>
      <trkpt lat="43.2237" lon="5.79">
        <ele>177</ele>
        <time>2016-04-13T12:28:17.000Z</time>
      </trkpt>
      <trkpt lat="43.22364" lon="5.79001">
        <ele>176.60000610352</ele>
        <time>2016-04-13T12:28:18.000Z</time>
      </trkpt>
      <trkpt lat="43.22343" lon="5.79004">
        <ele>175.19999694824</ele>
        <time>2016-04-13T12:28:21.000Z</time>
      </trkpt>
      <trkpt lat="43.22336" lon="5.79003">
        <ele>174.80000305176</ele>
        <time>2016-04-13T12:28:22.000Z</time>
      </trkpt>
      <trkpt lat="43.2233" lon="5.79002">
        <ele>174.19999694824</ele>
        <time>2016-04-13T12:28:23.000Z</time>
      </trkpt>
      <trkpt lat="43.22319" lon="5.78994">
        <ele>173</ele>
        <time>2016-04-13T12:28:25.000Z</time>
      </trkpt>
      <trkpt lat="43.22314" lon="5.78988">
        <ele>172.19999694824</ele>
        <time>2016-04-13T12:28:26.000Z</time>
      </trkpt>
      <trkpt lat="43.2231" lon="5.78981">
        <ele>171.60000610352</ele>
        <time>2016-04-13T12:28:27.000Z</time>
      </trkpt>
      <trkpt lat="43.22303" lon="5.78964">
        <ele>170</ele>
        <time>2016-04-13T12:28:29.000Z</time>
      </trkpt>
      <trkpt lat="43.22299" lon="5.78955">
        <ele>169.19999694824</ele>
        <time>2016-04-13T12:28:30.000Z</time>
      </trkpt>
      <trkpt lat="43.22295" lon="5.78947">
        <ele>168.39999389648</ele>
        <time>2016-04-13T12:28:31.000Z</time>
      </trkpt>
      <trkpt lat="43.22285" lon="5.78929">
        <ele>166.80000305176</ele>
        <time>2016-04-13T12:28:33.000Z</time>
      </trkpt>
      <trkpt lat="43.22275" lon="5.78912">
        <ele>165.19999694824</ele>
        <time>2016-04-13T12:28:35.000Z</time>
      </trkpt>
      <trkpt lat="43.22268" lon="5.78894">
        <ele>163.60000610352</ele>
        <time>2016-04-13T12:28:37.000Z</time>
      </trkpt>
      <trkpt lat="43.22259" lon="5.78878">
        <ele>163.19999694824</ele>
        <time>2016-04-13T12:28:39.000Z</time>
      </trkpt>
      <trkpt lat="43.22254" lon="5.78873">
        <ele>163.19999694824</ele>
        <time>2016-04-13T12:28:40.000Z</time>
      </trkpt>
      <trkpt lat="43.22247" lon="5.7887">
        <ele>162.80000305176</ele>
        <time>2016-04-13T12:28:41.000Z</time>
      </trkpt>
      <trkpt lat="43.22236" lon="5.78869">
        <ele>162</ele>
        <time>2016-04-13T12:28:43.000Z</time>
      </trkpt>
      <trkpt lat="43.2223" lon="5.7887">
        <ele>161.60000610352</ele>
        <time>2016-04-13T12:28:44.000Z</time>
      </trkpt>
      <trkpt lat="43.22218" lon="5.78875">
        <ele>160.39999389648</ele>
        <time>2016-04-13T12:28:46.000Z</time>
      </trkpt>
      <trkpt lat="43.22212" lon="5.78877">
        <ele>160</ele>
        <time>2016-04-13T12:28:47.000Z</time>
      </trkpt>
      <trkpt lat="43.22194" lon="5.78882">
        <ele>158.39999389648</ele>
        <time>2016-04-13T12:28:50.000Z</time>
      </trkpt>
      <trkpt lat="43.22187" lon="5.78881">
        <ele>158</ele>
        <time>2016-04-13T12:28:51.000Z</time>
      </trkpt>
      <trkpt lat="43.22181" lon="5.78878">
        <ele>157.60000610352</ele>
        <time>2016-04-13T12:28:52.000Z</time>
      </trkpt>
      <trkpt lat="43.22172" lon="5.78867">
        <ele>157.80000305176</ele>
        <time>2016-04-13T12:28:54.000Z</time>
      </trkpt>
      <trkpt lat="43.22168" lon="5.78862">
        <ele>158</ele>
        <time>2016-04-13T12:28:55.000Z</time>
      </trkpt>
      <trkpt lat="43.22165" lon="5.78855">
        <ele>158</ele>
        <time>2016-04-13T12:28:56.000Z</time>
      </trkpt>
      <trkpt lat="43.22153" lon="5.78832">
        <ele>158.80000305176</ele>
        <time>2016-04-13T12:29:00.000Z</time>
      </trkpt>
      <trkpt lat="43.22145" lon="5.78823">
        <ele>159</ele>
        <time>2016-04-13T12:29:02.000Z</time>
      </trkpt>
      <trkpt lat="43.22125" lon="5.78804">
        <ele>159</ele>
        <time>2016-04-13T12:29:08.000Z</time>
      </trkpt>
      <trkpt lat="43.22117" lon="5.78801">
        <ele>158.60000610352</ele>
        <time>2016-04-13T12:29:39.000Z</time>
      </trkpt>
      <trkpt lat="43.22111" lon="5.78799">
        <ele>158.39999389648</ele>
        <time>2016-04-13T12:29:41.000Z</time>
      </trkpt>
      <trkpt lat="43.22091" lon="5.78795">
        <ele>157.39999389648</ele>
        <time>2016-04-13T12:29:45.000Z</time>
      </trkpt>
      <trkpt lat="43.22064" lon="5.78791">
        <ele>155.80000305176</ele>
        <time>2016-04-13T12:29:49.000Z</time>
      </trkpt>
      <trkpt lat="43.2205" lon="5.78788">
        <ele>154.80000305176</ele>
        <time>2016-04-13T12:29:51.000Z</time>
      </trkpt>
      <trkpt lat="43.22021" lon="5.7878">
        <ele>153</ele>
        <time>2016-04-13T12:29:55.000Z</time>
      </trkpt>
      <trkpt lat="43.22007" lon="5.78773">
        <ele>152.19999694824</ele>
        <time>2016-04-13T12:29:57.000Z</time>
      </trkpt>
      <trkpt lat="43.21993" lon="5.78765">
        <ele>151.60000610352</ele>
        <time>2016-04-13T12:29:59.000Z</time>
      </trkpt>
      <trkpt lat="43.21977" lon="5.7876">
        <ele>151</ele>
        <time>2016-04-13T12:30:01.000Z</time>
      </trkpt>
      <trkpt lat="43.2197" lon="5.78757">
        <ele>150.80000305176</ele>
        <time>2016-04-13T12:30:02.000Z</time>
      </trkpt>
      <trkpt lat="43.21962" lon="5.78755">
        <ele>150.60000610352</ele>
        <time>2016-04-13T12:30:03.000Z</time>
      </trkpt>
      <trkpt lat="43.21949" lon="5.78749">
        <ele>150</ele>
        <time>2016-04-13T12:30:05.000Z</time>
      </trkpt>
      <trkpt lat="43.21937" lon="5.78742">
        <ele>149.60000610352</ele>
        <time>2016-04-13T12:30:07.000Z</time>
      </trkpt>
      <trkpt lat="43.21913" lon="5.78725">
        <ele>148.60000610352</ele>
        <time>2016-04-13T12:30:12.000Z</time>
      </trkpt>
      <trkpt lat="43.21908" lon="5.78721">
        <ele>148.39999389648</ele>
        <time>2016-04-13T12:30:13.000Z</time>
      </trkpt>
      <trkpt lat="43.21893" lon="5.78713">
        <ele>148</ele>
        <time>2016-04-13T12:30:16.000Z</time>
      </trkpt>
      <trkpt lat="43.21873" lon="5.78705">
        <ele>147.19999694824</ele>
        <time>2016-04-13T12:30:20.000Z</time>
      </trkpt>
      <trkpt lat="43.21839" lon="5.78692">
        <ele>146.19999694824</ele>
        <time>2016-04-13T12:30:25.000Z</time>
      </trkpt>
      <trkpt lat="43.21818" lon="5.78684">
        <ele>145.39999389648</ele>
        <time>2016-04-13T12:30:28.000Z</time>
      </trkpt>
      <trkpt lat="43.21806" lon="5.7868">
        <ele>145</ele>
        <time>2016-04-13T12:30:30.000Z</time>
      </trkpt>
      <trkpt lat="43.21802" lon="5.78678">
        <ele>145</ele>
        <time>2016-04-13T12:30:31.000Z</time>
      </trkpt>
      <trkpt lat="43.21799" lon="5.78677">
        <ele>144.80000305176</ele>
        <time>2016-04-13T12:30:32.000Z</time>
      </trkpt>
      <trkpt lat="43.21796" lon="5.78675">
        <ele>144.60000610352</ele>
        <time>2016-04-13T12:31:09.000Z</time>
      </trkpt>
      <trkpt lat="43.21787" lon="5.78671">
        <ele>144.39999389648</ele>
        <time>2016-04-13T12:31:12.000Z</time>
      </trkpt>
      <trkpt lat="43.2176" lon="5.78663">
        <ele>143.60000610352</ele>
        <time>2016-04-13T12:31:17.000Z</time>
      </trkpt>
      <trkpt lat="43.21746" lon="5.78659">
        <ele>144.39999389648</ele>
        <time>2016-04-13T12:31:20.000Z</time>
      </trkpt>
      <trkpt lat="43.21739" lon="5.78655">
        <ele>144.80000305176</ele>
        <time>2016-04-13T12:31:22.000Z</time>
      </trkpt>
      <trkpt lat="43.21728" lon="5.78653">
        <ele>145.39999389648</ele>
        <time>2016-04-13T12:31:25.000Z</time>
      </trkpt>
      <trkpt lat="43.21724" lon="5.78654">
        <ele>145.60000610352</ele>
        <time>2016-04-13T12:31:26.000Z</time>
      </trkpt>
      <trkpt lat="43.21699" lon="5.7867">
        <ele>146.60000610352</ele>
        <time>2016-04-13T12:31:31.000Z</time>
      </trkpt>
      <trkpt lat="43.21676" lon="5.78677">
        <ele>145.80000305176</ele>
        <time>2016-04-13T12:31:36.000Z</time>
      </trkpt>
      <trkpt lat="43.21667" lon="5.78677">
        <ele>145.80000305176</ele>
        <time>2016-04-13T12:31:38.000Z</time>
      </trkpt>
      <trkpt lat="43.21657" lon="5.78677">
        <ele>146</ele>
        <time>2016-04-13T12:31:40.000Z</time>
      </trkpt>
      <trkpt lat="43.21649" lon="5.78677">
        <ele>146</ele>
        <time>2016-04-13T12:31:42.000Z</time>
      </trkpt>
      <trkpt lat="43.21644" lon="5.78677">
        <ele>146</ele>
        <time>2016-04-13T12:31:43.000Z</time>
      </trkpt>
      <trkpt lat="43.21635" lon="5.78679">
        <ele>146.19999694824</ele>
        <time>2016-04-13T12:31:46.000Z</time>
      </trkpt>
      <trkpt lat="43.2162" lon="5.78681">
        <ele>146.60000610352</ele>
        <time>2016-04-13T12:31:49.000Z</time>
      </trkpt>
      <trkpt lat="43.21616" lon="5.78681">
        <ele>146.60000610352</ele>
        <time>2016-04-13T12:31:50.000Z</time>
      </trkpt>
      <trkpt lat="43.216" lon="5.78684">
        <ele>147.19999694824</ele>
        <time>2016-04-13T12:31:55.000Z</time>
      </trkpt>
      <trkpt lat="43.21591" lon="5.78685">
        <ele>147.19999694824</ele>
        <time>2016-04-13T12:31:57.000Z</time>
      </trkpt>
      <trkpt lat="43.21582" lon="5.78684">
        <ele>146.80000305176</ele>
        <time>2016-04-13T12:31:59.000Z</time>
      </trkpt>
      <trkpt lat="43.21552" lon="5.78676">
        <ele>145.60000610352</ele>
        <time>2016-04-13T12:32:04.000Z</time>
      </trkpt>
      <trkpt lat="43.21546" lon="5.78674">
        <ele>145.39999389648</ele>
        <time>2016-04-13T12:32:05.000Z</time>
      </trkpt>
      <trkpt lat="43.2152" lon="5.78666">
        <ele>144.60000610352</ele>
        <time>2016-04-13T12:32:09.000Z</time>
      </trkpt>
      <trkpt lat="43.215" lon="5.7866">
        <ele>143.39999389648</ele>
        <time>2016-04-13T12:32:12.000Z</time>
      </trkpt>
      <trkpt lat="43.21493" lon="5.78658">
        <ele>142.80000305176</ele>
        <time>2016-04-13T12:32:13.000Z</time>
      </trkpt>
      <trkpt lat="43.21458" lon="5.78654">
        <ele>139.39999389648</ele>
        <time>2016-04-13T12:32:18.000Z</time>
      </trkpt>
      <trkpt lat="43.21435" lon="5.78658">
        <ele>137.39999389648</ele>
        <time>2016-04-13T12:32:21.000Z</time>
      </trkpt>
      <trkpt lat="43.21419" lon="5.78659">
        <ele>136.19999694824</ele>
        <time>2016-04-13T12:32:23.000Z</time>
      </trkpt>
      <trkpt lat="43.21411" lon="5.78658">
        <ele>135.60000610352</ele>
        <time>2016-04-13T12:32:24.000Z</time>
      </trkpt>
      <trkpt lat="43.21396" lon="5.78652">
        <ele>134.19999694824</ele>
        <time>2016-04-13T12:32:26.000Z</time>
      </trkpt>
      <trkpt lat="43.21389" lon="5.78647">
        <ele>133.60000610352</ele>
        <time>2016-04-13T12:32:27.000Z</time>
      </trkpt>
      <trkpt lat="43.21384" lon="5.7864">
        <ele>133.19999694824</ele>
        <time>2016-04-13T12:32:28.000Z</time>
      </trkpt>
      <trkpt lat="43.21373" lon="5.78631">
        <ele>132.39999389648</ele>
        <time>2016-04-13T12:32:30.000Z</time>
      </trkpt>
      <trkpt lat="43.21361" lon="5.78627">
        <ele>131.39999389648</ele>
        <time>2016-04-13T12:32:32.000Z</time>
      </trkpt>
      <trkpt lat="43.21349" lon="5.78625">
        <ele>130.39999389648</ele>
        <time>2016-04-13T12:32:34.000Z</time>
      </trkpt>
      <trkpt lat="43.21329" lon="5.78624">
        <ele>128.80000305176</ele>
        <time>2016-04-13T12:32:38.000Z</time>
      </trkpt>
      <trkpt lat="43.21287" lon="5.78622">
        <ele>125.80000305176</ele>
        <time>2016-04-13T12:32:46.000Z</time>
      </trkpt>
      <trkpt lat="43.21276" lon="5.78624">
        <ele>125</ele>
        <time>2016-04-13T12:32:48.000Z</time>
      </trkpt>
      <trkpt lat="43.21266" lon="5.78625">
        <ele>124.19999694824</ele>
        <time>2016-04-13T12:32:50.000Z</time>
      </trkpt>
      <trkpt lat="43.21257" lon="5.78627">
        <ele>123.80000305176</ele>
        <time>2016-04-13T12:32:52.000Z</time>
      </trkpt>
      <trkpt lat="43.21252" lon="5.78628">
        <ele>123.80000305176</ele>
        <time>2016-04-13T12:32:53.000Z</time>
      </trkpt>
      <trkpt lat="43.21248" lon="5.78628">
        <ele>123.80000305176</ele>
        <time>2016-04-13T12:32:54.000Z</time>
      </trkpt>
      <trkpt lat="43.21243" lon="5.78627">
        <ele>123.59999847412</ele>
        <time>2016-04-13T12:32:55.000Z</time>
      </trkpt>
      <trkpt lat="43.21233" lon="5.78627">
        <ele>123.59999847412</ele>
        <time>2016-04-13T12:32:57.000Z</time>
      </trkpt>
      <trkpt lat="43.2122" lon="5.7863">
        <ele>123.40000152588</ele>
        <time>2016-04-13T12:32:59.000Z</time>
      </trkpt>
      <trkpt lat="43.21207" lon="5.78634">
        <ele>123.19999694824</ele>
        <time>2016-04-13T12:33:01.000Z</time>
      </trkpt>
      <trkpt lat="43.21201" lon="5.78636">
        <ele>123.19999694824</ele>
        <time>2016-04-13T12:33:02.000Z</time>
      </trkpt>
      <trkpt lat="43.21194" lon="5.78637">
        <ele>123.19999694824</ele>
        <time>2016-04-13T12:33:03.000Z</time>
      </trkpt>
      <trkpt lat="43.21183" lon="5.7864">
        <ele>123</ele>
        <time>2016-04-13T12:33:05.000Z</time>
      </trkpt>
      <trkpt lat="43.21174" lon="5.78642">
        <ele>124.19999694824</ele>
        <time>2016-04-13T12:33:07.000Z</time>
      </trkpt>
      <trkpt lat="43.21167" lon="5.78644">
        <ele>125.59999847412</ele>
        <time>2016-04-13T12:33:09.000Z</time>
      </trkpt>
      <trkpt lat="43.21163" lon="5.78646">
        <ele>126.40000152588</ele>
        <time>2016-04-13T12:33:11.000Z</time>
      </trkpt>
      <trkpt lat="43.21162" lon="5.78649">
        <ele>127</ele>
        <time>2016-04-13T12:33:12.000Z</time>
      </trkpt>
      <trkpt lat="43.21162" lon="5.78652">
        <ele>127.59999847412</ele>
        <time>2016-04-13T12:33:13.000Z</time>
      </trkpt>
      <trkpt lat="43.21162" lon="5.78655">
        <ele>128</ele>
        <time>2016-04-13T12:33:14.000Z</time>
      </trkpt>
      <trkpt lat="43.21163" lon="5.7866">
        <ele>128.60000610352</ele>
        <time>2016-04-13T12:33:15.000Z</time>
      </trkpt>
      <trkpt lat="43.21166" lon="5.7867">
        <ele>129.80000305176</ele>
        <time>2016-04-13T12:33:17.000Z</time>
      </trkpt>
      <trkpt lat="43.21168" lon="5.78676">
        <ele>130.39999389648</ele>
        <time>2016-04-13T12:33:18.000Z</time>
      </trkpt>
      <trkpt lat="43.21181" lon="5.78719">
        <ele>135.19999694824</ele>
        <time>2016-04-13T12:33:25.000Z</time>
      </trkpt>
      <trkpt lat="43.21194" lon="5.78777">
        <ele>138</ele>
        <time>2016-04-13T12:33:34.000Z</time>
      </trkpt>
      <trkpt lat="43.21211" lon="5.78844">
        <ele>140</ele>
        <time>2016-04-13T12:33:45.000Z</time>
      </trkpt>
      <trkpt lat="43.21216" lon="5.78877">
        <ele>145</ele>
        <time>2016-04-13T12:33:50.000Z</time>
      </trkpt>
      <trkpt lat="43.21217" lon="5.78883">
        <ele>145.60000610352</ele>
        <time>2016-04-13T12:33:51.000Z</time>
      </trkpt>
      <trkpt lat="43.21225" lon="5.78907">
        <ele>145.60000610352</ele>
        <time>2016-04-13T12:33:55.000Z</time>
      </trkpt>
      <trkpt lat="43.21229" lon="5.78911">
        <ele>144.19999694824</ele>
        <time>2016-04-13T12:33:56.000Z</time>
      </trkpt>
      <trkpt lat="43.2125" lon="5.78921">
        <ele>135.60000610352</ele>
        <time>2016-04-13T12:34:00.000Z</time>
      </trkpt>
      <trkpt lat="43.21256" lon="5.78923">
        <ele>133</ele>
        <time>2016-04-13T12:34:01.000Z</time>
      </trkpt>
      <trkpt lat="43.21292" lon="5.78927">
        <ele>124.19999694824</ele>
        <time>2016-04-13T12:34:08.000Z</time>
      </trkpt>
      <trkpt lat="43.21321" lon="5.78934">
        <ele>122</ele>
        <time>2016-04-13T12:34:14.000Z</time>
      </trkpt>
      <trkpt lat="43.21325" lon="5.78937">
        <ele>121.80000305176</ele>
        <time>2016-04-13T12:34:15.000Z</time>
      </trkpt>
      <trkpt lat="43.21337" lon="5.78958">
        <ele>121.40000152588</ele>
        <time>2016-04-13T12:34:19.000Z</time>
      </trkpt>
      <trkpt lat="43.21339" lon="5.78964">
        <ele>121.19999694824</ele>
        <time>2016-04-13T12:34:20.000Z</time>
      </trkpt>
      <trkpt lat="43.2134" lon="5.78971">
        <ele>122</ele>
        <time>2016-04-13T12:34:21.000Z</time>
      </trkpt>
      <trkpt lat="43.21341" lon="5.78992">
        <ele>122.19999694824</ele>
        <time>2016-04-13T12:34:24.000Z</time>
      </trkpt>
      <trkpt lat="43.21342" lon="5.79025">
        <ele>122.19999694824</ele>
        <time>2016-04-13T12:34:29.000Z</time>
      </trkpt>
      <trkpt lat="43.21341" lon="5.79032">
        <ele>122.59999847412</ele>
        <time>2016-04-13T12:34:30.000Z</time>
      </trkpt>
      <trkpt lat="43.21331" lon="5.79054">
        <ele>125</ele>
        <time>2016-04-13T12:34:34.000Z</time>
      </trkpt>
      <trkpt lat="43.21324" lon="5.79063">
        <ele>127</ele>
        <time>2016-04-13T12:34:36.000Z</time>
      </trkpt>
      <trkpt lat="43.21308" lon="5.7908">
        <ele>131.39999389648</ele>
        <time>2016-04-13T12:34:40.000Z</time>
      </trkpt>
      <trkpt lat="43.21286" lon="5.79119">
        <ele>134.39999389648</ele>
        <time>2016-04-13T12:34:47.000Z</time>
      </trkpt>
      <trkpt lat="43.21275" lon="5.79156">
        <ele>135.80000305176</ele>
        <time>2016-04-13T12:34:53.000Z</time>
      </trkpt>
      <trkpt lat="43.21275" lon="5.79162">
        <ele>136.39999389648</ele>
        <time>2016-04-13T12:34:54.000Z</time>
      </trkpt>
      <trkpt lat="43.21279" lon="5.79188">
        <ele>137.60000610352</ele>
        <time>2016-04-13T12:34:58.000Z</time>
      </trkpt>
      <trkpt lat="43.21281" lon="5.79194">
        <ele>137.80000305176</ele>
        <time>2016-04-13T12:34:59.000Z</time>
      </trkpt>
      <trkpt lat="43.21283" lon="5.792">
        <ele>137.80000305176</ele>
        <time>2016-04-13T12:35:00.000Z</time>
      </trkpt>
      <trkpt lat="43.21298" lon="5.79227">
        <ele>136.60000610352</ele>
        <time>2016-04-13T12:35:05.000Z</time>
      </trkpt>
      <trkpt lat="43.21302" lon="5.79231">
        <ele>136</ele>
        <time>2016-04-13T12:35:06.000Z</time>
      </trkpt>
      <trkpt lat="43.21311" lon="5.79245">
        <ele>134</ele>
        <time>2016-04-13T12:35:09.000Z</time>
      </trkpt>
      <trkpt lat="43.21317" lon="5.79257">
        <ele>132.80000305176</ele>
        <time>2016-04-13T12:35:11.000Z</time>
      </trkpt>
      <trkpt lat="43.21335" lon="5.79287">
        <ele>129</ele>
        <time>2016-04-13T12:35:17.000Z</time>
      </trkpt>
      <trkpt lat="43.21339" lon="5.79292">
        <ele>128.19999694824</ele>
        <time>2016-04-13T12:35:18.000Z</time>
      </trkpt>
      <trkpt lat="43.21352" lon="5.79303">
        <ele>127.40000152588</ele>
        <time>2016-04-13T12:35:21.000Z</time>
      </trkpt>
      <trkpt lat="43.21365" lon="5.7931">
        <ele>128.19999694824</ele>
        <time>2016-04-13T12:35:24.000Z</time>
      </trkpt>
      <trkpt lat="43.21384" lon="5.79328">
        <ele>129.19999694824</ele>
        <time>2016-04-13T12:35:30.000Z</time>
      </trkpt>
      <trkpt lat="43.21378" lon="5.79346">
        <ele>129.39999389648</ele>
        <time>2016-04-13T12:35:34.000Z</time>
      </trkpt>
      <trkpt lat="43.21376" lon="5.79351">
        <ele>130.19999694824</ele>
        <time>2016-04-13T12:35:35.000Z</time>
      </trkpt>
      <trkpt lat="43.21361" lon="5.7937">
        <ele>133</ele>
        <time>2016-04-13T12:35:39.000Z</time>
      </trkpt>
      <trkpt lat="43.21357" lon="5.79374">
        <ele>133.80000305176</ele>
        <time>2016-04-13T12:35:40.000Z</time>
      </trkpt>
      <trkpt lat="43.21349" lon="5.79384">
        <ele>135.39999389648</ele>
        <time>2016-04-13T12:35:42.000Z</time>
      </trkpt>
      <trkpt lat="43.2134" lon="5.79393">
        <ele>137</ele>
        <time>2016-04-13T12:35:44.000Z</time>
      </trkpt>
      <trkpt lat="43.2132" lon="5.79411">
        <ele>141.39999389648</ele>
        <time>2016-04-13T12:35:49.000Z</time>
      </trkpt>
      <trkpt lat="43.21312" lon="5.79418">
        <ele>143</ele>
        <time>2016-04-13T12:35:51.000Z</time>
      </trkpt>
      <trkpt lat="43.21292" lon="5.79435">
        <ele>144.19999694824</ele>
        <time>2016-04-13T12:35:56.000Z</time>
      </trkpt>
      <trkpt lat="43.21285" lon="5.79442">
        <ele>143.39999389648</ele>
        <time>2016-04-13T12:35:58.000Z</time>
      </trkpt>
      <trkpt lat="43.2127" lon="5.79457">
        <ele>141.80000305176</ele>
        <time>2016-04-13T12:36:02.000Z</time>
      </trkpt>
      <trkpt lat="43.21257" lon="5.79476">
        <ele>142</ele>
        <time>2016-04-13T12:36:06.000Z</time>
      </trkpt>
      <trkpt lat="43.2123" lon="5.7951">
        <ele>149.19999694824</ele>
        <time>2016-04-13T12:36:13.000Z</time>
      </trkpt>
      <trkpt lat="43.212" lon="5.79534">
        <ele>148.80000305176</ele>
        <time>2016-04-13T12:36:20.000Z</time>
      </trkpt>
      <trkpt lat="43.21163" lon="5.79558">
        <ele>146.80000305176</ele>
        <time>2016-04-13T12:36:28.000Z</time>
      </trkpt>
      <trkpt lat="43.21142" lon="5.79566">
        <ele>147.19999694824</ele>
        <time>2016-04-13T12:36:33.000Z</time>
      </trkpt>
      <trkpt lat="43.21113" lon="5.79574">
        <ele>147</ele>
        <time>2016-04-13T12:36:40.000Z</time>
      </trkpt>
      <trkpt lat="43.21108" lon="5.79576">
        <ele>146.39999389648</ele>
        <time>2016-04-13T12:36:41.000Z</time>
      </trkpt>
      <trkpt lat="43.21092" lon="5.79582">
        <ele>145.39999389648</ele>
        <time>2016-04-13T12:36:44.000Z</time>
      </trkpt>
      <trkpt lat="43.21076" lon="5.79589">
        <ele>147.39999389648</ele>
        <time>2016-04-13T12:36:47.000Z</time>
      </trkpt>
      <trkpt lat="43.21061" lon="5.79597">
        <ele>149.60000610352</ele>
        <time>2016-04-13T12:36:50.000Z</time>
      </trkpt>
      <trkpt lat="43.21035" lon="5.79612">
        <ele>148.39999389648</ele>
        <time>2016-04-13T12:36:55.000Z</time>
      </trkpt>
      <trkpt lat="43.21018" lon="5.79628">
        <ele>146.60000610352</ele>
        <time>2016-04-13T12:36:59.000Z</time>
      </trkpt>
      <trkpt lat="43.21014" lon="5.79632">
        <ele>146.19999694824</ele>
        <time>2016-04-13T12:37:00.000Z</time>
      </trkpt>
      <trkpt lat="43.2101" lon="5.79636">
        <ele>146</ele>
        <time>2016-04-13T12:37:01.000Z</time>
      </trkpt>
      <trkpt lat="43.21006" lon="5.7964">
        <ele>146.60000610352</ele>
        <time>2016-04-13T12:37:02.000Z</time>
      </trkpt>
      <trkpt lat="43.20987" lon="5.79658">
        <ele>151.60000610352</ele>
        <time>2016-04-13T12:37:07.000Z</time>
      </trkpt>
      <trkpt lat="43.20984" lon="5.79662">
        <ele>152.60000610352</ele>
        <time>2016-04-13T12:37:08.000Z</time>
      </trkpt>
      <trkpt lat="43.20963" lon="5.79687">
        <ele>158.39999389648</ele>
        <time>2016-04-13T12:37:14.000Z</time>
      </trkpt>
      <trkpt lat="43.20959" lon="5.79689">
        <ele>158.60000610352</ele>
        <time>2016-04-13T12:37:15.000Z</time>
      </trkpt>
      <trkpt lat="43.20942" lon="5.7969">
        <ele>158.19999694824</ele>
        <time>2016-04-13T12:37:19.000Z</time>
      </trkpt>
      <trkpt lat="43.20933" lon="5.79686">
        <ele>157.19999694824</ele>
        <time>2016-04-13T12:37:21.000Z</time>
      </trkpt>
      <trkpt lat="43.20919" lon="5.7968">
        <ele>155.19999694824</ele>
        <time>2016-04-13T12:37:24.000Z</time>
      </trkpt>
      <trkpt lat="43.20901" lon="5.79669">
        <ele>152.19999694824</ele>
        <time>2016-04-13T12:37:28.000Z</time>
      </trkpt>
      <trkpt lat="43.20896" lon="5.7966">
        <ele>150.19999694824</ele>
        <time>2016-04-13T12:37:30.000Z</time>
      </trkpt>
      <trkpt lat="43.20883" lon="5.79635">
        <ele>145.39999389648</ele>
        <time>2016-04-13T12:37:36.000Z</time>
      </trkpt>
      <trkpt lat="43.2087" lon="5.79626">
        <ele>143.60000610352</ele>
        <time>2016-04-13T12:37:40.000Z</time>
      </trkpt>
      <trkpt lat="43.20862" lon="5.79629">
        <ele>143.19999694824</ele>
        <time>2016-04-13T12:37:42.000Z</time>
      </trkpt>
      <trkpt lat="43.20852" lon="5.79635">
        <ele>143.19999694824</ele>
        <time>2016-04-13T12:37:44.000Z</time>
      </trkpt>
      <trkpt lat="43.20816" lon="5.79663">
        <ele>145.19999694824</ele>
        <time>2016-04-13T12:37:52.000Z</time>
      </trkpt>
      <trkpt lat="43.20777" lon="5.79696">
        <ele>142.80000305176</ele>
        <time>2016-04-13T12:38:01.000Z</time>
      </trkpt>
      <trkpt lat="43.20757" lon="5.79714">
        <ele>141</ele>
        <time>2016-04-13T12:38:06.000Z</time>
      </trkpt>
      <trkpt lat="43.20745" lon="5.79726">
        <ele>141.39999389648</ele>
        <time>2016-04-13T12:38:09.000Z</time>
      </trkpt>
      <trkpt lat="43.20716" lon="5.79771">
        <ele>145.80000305176</ele>
        <time>2016-04-13T12:38:18.000Z</time>
      </trkpt>
      <trkpt lat="43.20682" lon="5.79823">
        <ele>142.39999389648</ele>
        <time>2016-04-13T12:38:28.000Z</time>
      </trkpt>
      <trkpt lat="43.20647" lon="5.79881">
        <ele>145.39999389648</ele>
        <time>2016-04-13T12:38:39.000Z</time>
      </trkpt>
      <trkpt lat="43.20631" lon="5.79927">
        <ele>146.60000610352</ele>
        <time>2016-04-13T12:38:47.000Z</time>
      </trkpt>
      <trkpt lat="43.20627" lon="5.79951">
        <ele>146.39999389648</ele>
        <time>2016-04-13T12:38:51.000Z</time>
      </trkpt>
      <trkpt lat="43.20624" lon="5.7997">
        <ele>146.19999694824</ele>
        <time>2016-04-13T12:38:54.000Z</time>
      </trkpt>
      <trkpt lat="43.20618" lon="5.79994">
        <ele>146.80000305176</ele>
        <time>2016-04-13T12:38:58.000Z</time>
      </trkpt>
      <trkpt lat="43.20613" lon="5.80006">
        <ele>146.19999694824</ele>
        <time>2016-04-13T12:39:00.000Z</time>
      </trkpt>
      <trkpt lat="43.2061" lon="5.80011">
        <ele>145.80000305176</ele>
        <time>2016-04-13T12:39:01.000Z</time>
      </trkpt>
      <trkpt lat="43.20598" lon="5.80021">
        <ele>143.80000305176</ele>
        <time>2016-04-13T12:39:04.000Z</time>
      </trkpt>
      <trkpt lat="43.20589" lon="5.80023">
        <ele>143.80000305176</ele>
        <time>2016-04-13T12:39:06.000Z</time>
      </trkpt>
      <trkpt lat="43.20575" lon="5.80029">
        <ele>145</ele>
        <time>2016-04-13T12:39:09.000Z</time>
      </trkpt>
      <trkpt lat="43.20571" lon="5.80031">
        <ele>145.39999389648</ele>
        <time>2016-04-13T12:39:10.000Z</time>
      </trkpt>
      <trkpt lat="43.20568" lon="5.80033">
        <ele>145.39999389648</ele>
        <time>2016-04-13T12:39:11.000Z</time>
      </trkpt>
      <trkpt lat="43.20564" lon="5.8004">
        <ele>145.39999389648</ele>
        <time>2016-04-13T12:39:14.000Z</time>
      </trkpt>
      <trkpt lat="43.20566" lon="5.80046">
        <ele>145</ele>
        <time>2016-04-13T12:39:44.000Z</time>
      </trkpt>
      <trkpt lat="43.20566" lon="5.80049">
        <ele>145</ele>
        <time>2016-04-13T12:39:45.000Z</time>
      </trkpt>
      <trkpt lat="43.20566" lon="5.80069">
        <ele>145.60000610352</ele>
        <time>2016-04-13T12:39:49.000Z</time>
      </trkpt>
      <trkpt lat="43.20562" lon="5.80101">
        <ele>147.60000610352</ele>
        <time>2016-04-13T12:39:54.000Z</time>
      </trkpt>
      <trkpt lat="43.2056" lon="5.80107">
        <ele>147.80000305176</ele>
        <time>2016-04-13T12:39:55.000Z</time>
      </trkpt>
      <trkpt lat="43.20545" lon="5.80125">
        <ele>147.60000610352</ele>
        <time>2016-04-13T12:39:59.000Z</time>
      </trkpt>
      <trkpt lat="43.20541" lon="5.80128">
        <ele>147.60000610352</ele>
        <time>2016-04-13T12:40:00.000Z</time>
      </trkpt>
      <trkpt lat="43.2052" lon="5.80147">
        <ele>147.80000305176</ele>
        <time>2016-04-13T12:40:05.000Z</time>
      </trkpt>
      <trkpt lat="43.20516" lon="5.80151">
        <ele>147.39999389648</ele>
        <time>2016-04-13T12:40:06.000Z</time>
      </trkpt>
      <trkpt lat="43.20492" lon="5.80169">
        <ele>147.80000305176</ele>
        <time>2016-04-13T12:40:13.000Z</time>
      </trkpt>
      <trkpt lat="43.20483" lon="5.80176">
        <ele>148.19999694824</ele>
        <time>2016-04-13T12:40:16.000Z</time>
      </trkpt>
      <trkpt lat="43.20474" lon="5.80186">
        <ele>148.60000610352</ele>
        <time>2016-04-13T12:40:19.000Z</time>
      </trkpt>
      <trkpt lat="43.20464" lon="5.80212">
        <ele>150</ele>
        <time>2016-04-13T12:40:25.000Z</time>
      </trkpt>
      <trkpt lat="43.2046" lon="5.80239">
        <ele>151.80000305176</ele>
        <time>2016-04-13T12:40:30.000Z</time>
      </trkpt>
      <trkpt lat="43.20447" lon="5.80251">
        <ele>154.80000305176</ele>
        <time>2016-04-13T12:40:34.000Z</time>
      </trkpt>
      <trkpt lat="43.20442" lon="5.80253">
        <ele>155.80000305176</ele>
        <time>2016-04-13T12:40:35.000Z</time>
      </trkpt>
      <trkpt lat="43.20438" lon="5.80253">
        <ele>156.60000610352</ele>
        <time>2016-04-13T12:40:36.000Z</time>
      </trkpt>
      <trkpt lat="43.20429" lon="5.80253">
        <ele>158.19999694824</ele>
        <time>2016-04-13T12:40:38.000Z</time>
      </trkpt>
      <trkpt lat="43.20424" lon="5.80252">
        <ele>158.19999694824</ele>
        <time>2016-04-13T12:40:39.000Z</time>
      </trkpt>
      <trkpt lat="43.204" lon="5.80251">
        <ele>158</ele>
        <time>2016-04-13T12:40:44.000Z</time>
      </trkpt>
      <trkpt lat="43.20377" lon="5.80251">
        <ele>158</ele>
        <time>2016-04-13T12:40:49.000Z</time>
      </trkpt>
      <trkpt lat="43.20373" lon="5.80251">
        <ele>157.80000305176</ele>
        <time>2016-04-13T12:40:50.000Z</time>
      </trkpt>
      <trkpt lat="43.20348" lon="5.80249">
        <ele>155.60000610352</ele>
        <time>2016-04-13T12:40:56.000Z</time>
      </trkpt>
      <trkpt lat="43.2034" lon="5.80252">
        <ele>155.60000610352</ele>
        <time>2016-04-13T12:40:58.000Z</time>
      </trkpt>
      <trkpt lat="43.20333" lon="5.80257">
        <ele>156.19999694824</ele>
        <time>2016-04-13T12:41:00.000Z</time>
      </trkpt>
      <trkpt lat="43.20322" lon="5.80268">
        <ele>157.60000610352</ele>
        <time>2016-04-13T12:41:03.000Z</time>
      </trkpt>
      <trkpt lat="43.20315" lon="5.80277">
        <ele>158.39999389648</ele>
        <time>2016-04-13T12:41:05.000Z</time>
      </trkpt>
      <trkpt lat="43.20306" lon="5.80296">
        <ele>157.19999694824</ele>
        <time>2016-04-13T12:41:09.000Z</time>
      </trkpt>
      <trkpt lat="43.20297" lon="5.80333">
        <ele>156.60000610352</ele>
        <time>2016-04-13T12:41:16.000Z</time>
      </trkpt>
      <trkpt lat="43.20294" lon="5.80376">
        <ele>156.19999694824</ele>
        <time>2016-04-13T12:41:23.000Z</time>
      </trkpt>
      <trkpt lat="43.20291" lon="5.80397">
        <ele>156.19999694824</ele>
        <time>2016-04-13T12:41:28.000Z</time>
      </trkpt>
      <trkpt lat="43.20291" lon="5.80405">
        <ele>156.19999694824</ele>
        <time>2016-04-13T12:41:30.000Z</time>
      </trkpt>
      <trkpt lat="43.20292" lon="5.80419">
        <ele>156.80000305176</ele>
        <time>2016-04-13T12:41:33.000Z</time>
      </trkpt>
      <trkpt lat="43.20295" lon="5.80429">
        <ele>157.60000610352</ele>
        <time>2016-04-13T12:41:35.000Z</time>
      </trkpt>
      <trkpt lat="43.20299" lon="5.80437">
        <ele>158.60000610352</ele>
        <time>2016-04-13T12:41:37.000Z</time>
      </trkpt>
      <trkpt lat="43.20304" lon="5.80451">
        <ele>160</ele>
        <time>2016-04-13T12:41:40.000Z</time>
      </trkpt>
      <trkpt lat="43.20305" lon="5.80459">
        <ele>160.80000305176</ele>
        <time>2016-04-13T12:41:42.000Z</time>
      </trkpt>
      <trkpt lat="43.20303" lon="5.8047">
        <ele>161.39999389648</ele>
        <time>2016-04-13T12:41:45.000Z</time>
      </trkpt>
      <trkpt lat="43.20299" lon="5.80478">
        <ele>161.19999694824</ele>
        <time>2016-04-13T12:41:47.000Z</time>
      </trkpt>
      <trkpt lat="43.20297" lon="5.80482">
        <ele>161</ele>
        <time>2016-04-13T12:41:48.000Z</time>
      </trkpt>
      <trkpt lat="43.20286" lon="5.80501">
        <ele>160.39999389648</ele>
        <time>2016-04-13T12:41:53.000Z</time>
      </trkpt>
      <trkpt lat="43.20284" lon="5.80505">
        <ele>160.39999389648</ele>
        <time>2016-04-13T12:41:54.000Z</time>
      </trkpt>
      <trkpt lat="43.20268" lon="5.80535">
        <ele>160</ele>
        <time>2016-04-13T12:42:00.000Z</time>
      </trkpt>
      <trkpt lat="43.20249" lon="5.80574">
        <ele>160</ele>
        <time>2016-04-13T12:42:08.000Z</time>
      </trkpt>
      <trkpt lat="43.20243" lon="5.80589">
        <ele>160.39999389648</ele>
        <time>2016-04-13T12:42:11.000Z</time>
      </trkpt>
      <trkpt lat="43.20233" lon="5.80613">
        <ele>161</ele>
        <time>2016-04-13T12:42:16.000Z</time>
      </trkpt>
      <trkpt lat="43.20212" lon="5.80645">
        <ele>158.60000610352</ele>
        <time>2016-04-13T12:42:24.000Z</time>
      </trkpt>
      <trkpt lat="43.2021" lon="5.80649">
        <ele>158.19999694824</ele>
        <time>2016-04-13T12:42:25.000Z</time>
      </trkpt>
      <trkpt lat="43.20203" lon="5.80662">
        <ele>157.39999389648</ele>
        <time>2016-04-13T12:42:30.000Z</time>
      </trkpt>
      <trkpt lat="43.202" lon="5.80668">
        <ele>157.19999694824</ele>
        <time>2016-04-13T12:42:33.000Z</time>
      </trkpt>
      <trkpt lat="43.20195" lon="5.80673">
        <ele>156.80000305176</ele>
        <time>2016-04-13T12:42:35.000Z</time>
      </trkpt>
      <trkpt lat="43.20181" lon="5.80693">
        <ele>155.60000610352</ele>
        <time>2016-04-13T12:42:41.000Z</time>
      </trkpt>
      <trkpt lat="43.20176" lon="5.80701">
        <ele>155.60000610352</ele>
        <time>2016-04-13T12:42:43.000Z</time>
      </trkpt>
      <trkpt lat="43.20166" lon="5.8072">
        <ele>155.80000305176</ele>
        <time>2016-04-13T12:42:47.000Z</time>
      </trkpt>
      <trkpt lat="43.20163" lon="5.80724">
        <ele>156</ele>
        <time>2016-04-13T12:42:48.000Z</time>
      </trkpt>
      <trkpt lat="43.20146" lon="5.80729">
        <ele>156.19999694824</ele>
        <time>2016-04-13T12:42:52.000Z</time>
      </trkpt>
      <trkpt lat="43.20142" lon="5.80729">
        <ele>156</ele>
        <time>2016-04-13T12:42:53.000Z</time>
      </trkpt>
      <trkpt lat="43.20138" lon="5.80727">
        <ele>156</ele>
        <time>2016-04-13T12:42:54.000Z</time>
      </trkpt>
      <trkpt lat="43.20128" lon="5.80722">
        <ele>155.39999389648</ele>
        <time>2016-04-13T12:42:56.000Z</time>
      </trkpt>
      <trkpt lat="43.20119" lon="5.80716">
        <ele>155.19999694824</ele>
        <time>2016-04-13T12:42:58.000Z</time>
      </trkpt>
      <trkpt lat="43.20106" lon="5.80704">
        <ele>155</ele>
        <time>2016-04-13T12:43:01.000Z</time>
      </trkpt>
      <trkpt lat="43.20102" lon="5.80699">
        <ele>154.80000305176</ele>
        <time>2016-04-13T12:43:02.000Z</time>
      </trkpt>
      <trkpt lat="43.20098" lon="5.80694">
        <ele>154.80000305176</ele>
        <time>2016-04-13T12:43:03.000Z</time>
      </trkpt>
      <trkpt lat="43.20095" lon="5.80689">
        <ele>154.60000610352</ele>
        <time>2016-04-13T12:43:04.000Z</time>
      </trkpt>
      <trkpt lat="43.20089" lon="5.80679">
        <ele>154.60000610352</ele>
        <time>2016-04-13T12:43:06.000Z</time>
      </trkpt>
      <trkpt lat="43.20088" lon="5.80674">
        <ele>154.60000610352</ele>
        <time>2016-04-13T12:43:07.000Z</time>
      </trkpt>
      <trkpt lat="43.20086" lon="5.80664">
        <ele>154.60000610352</ele>
        <time>2016-04-13T12:43:09.000Z</time>
      </trkpt>
      <trkpt lat="43.20082" lon="5.80655">
        <ele>154.60000610352</ele>
        <time>2016-04-13T12:43:11.000Z</time>
      </trkpt>
      <trkpt lat="43.20079" lon="5.80646">
        <ele>154.60000610352</ele>
        <time>2016-04-13T12:43:13.000Z</time>
      </trkpt>
      <trkpt lat="43.20072" lon="5.80632">
        <ele>155</ele>
        <time>2016-04-13T12:43:17.000Z</time>
      </trkpt>
      <trkpt lat="43.20054" lon="5.80624">
        <ele>155.80000305176</ele>
        <time>2016-04-13T12:43:22.000Z</time>
      </trkpt>
      <trkpt lat="43.20045" lon="5.80612">
        <ele>156.39999389648</ele>
        <time>2016-04-13T12:43:25.000Z</time>
      </trkpt>
      <trkpt lat="43.2004" lon="5.80603">
        <ele>156.80000305176</ele>
        <time>2016-04-13T12:43:27.000Z</time>
      </trkpt>
      <trkpt lat="43.20023" lon="5.80577">
        <ele>158</ele>
        <time>2016-04-13T12:43:33.000Z</time>
      </trkpt>
      <trkpt lat="43.20018" lon="5.80568">
        <ele>158.39999389648</ele>
        <time>2016-04-13T12:43:35.000Z</time>
      </trkpt>
      <trkpt lat="43.20013" lon="5.8056">
        <ele>158.80000305176</ele>
        <time>2016-04-13T12:43:37.000Z</time>
      </trkpt>
      <trkpt lat="43.20005" lon="5.80547">
        <ele>159.80000305176</ele>
        <time>2016-04-13T12:43:40.000Z</time>
      </trkpt>
      <trkpt lat="43.19993" lon="5.80529">
        <ele>161</ele>
        <time>2016-04-13T12:43:44.000Z</time>
      </trkpt>
      <trkpt lat="43.19985" lon="5.80516">
        <ele>162</ele>
        <time>2016-04-13T12:43:47.000Z</time>
      </trkpt>
      <trkpt lat="43.19976" lon="5.80505">
        <ele>163</ele>
        <time>2016-04-13T12:43:50.000Z</time>
      </trkpt>
      <trkpt lat="43.19967" lon="5.80495">
        <ele>163.80000305176</ele>
        <time>2016-04-13T12:43:53.000Z</time>
      </trkpt>
      <trkpt lat="43.19954" lon="5.80485">
        <ele>165</ele>
        <time>2016-04-13T12:43:57.000Z</time>
      </trkpt>
      <trkpt lat="43.19947" lon="5.80481">
        <ele>165.60000610352</ele>
        <time>2016-04-13T12:43:59.000Z</time>
      </trkpt>
      <trkpt lat="43.19939" lon="5.80478">
        <ele>166.19999694824</ele>
        <time>2016-04-13T12:44:01.000Z</time>
      </trkpt>
      <trkpt lat="43.19928" lon="5.8048">
        <ele>166.39999389648</ele>
        <time>2016-04-13T12:44:04.000Z</time>
      </trkpt>
      <trkpt lat="43.19916" lon="5.80483">
        <ele>166.19999694824</ele>
        <time>2016-04-13T12:44:07.000Z</time>
      </trkpt>
      <trkpt lat="43.19899" lon="5.80485">
        <ele>166</ele>
        <time>2016-04-13T12:44:11.000Z</time>
      </trkpt>
      <trkpt lat="43.19896" lon="5.80485">
        <ele>166</ele>
        <time>2016-04-13T12:44:12.000Z</time>
      </trkpt>
      <trkpt lat="43.19875" lon="5.80481">
        <ele>166.39999389648</ele>
        <time>2016-04-13T12:44:18.000Z</time>
      </trkpt>
      <trkpt lat="43.19848" lon="5.80468">
        <ele>167.39999389648</ele>
        <time>2016-04-13T12:44:26.000Z</time>
      </trkpt>
      <trkpt lat="43.19841" lon="5.80467">
        <ele>167.39999389648</ele>
        <time>2016-04-13T12:44:29.000Z</time>
      </trkpt>
      <trkpt lat="43.19839" lon="5.80471">
        <ele>167</ele>
        <time>2016-04-13T12:44:30.000Z</time>
      </trkpt>
      <trkpt lat="43.19837" lon="5.80476">
        <ele>166.80000305176</ele>
        <time>2016-04-13T12:44:31.000Z</time>
      </trkpt>
      <trkpt lat="43.19835" lon="5.80482">
        <ele>166.39999389648</ele>
        <time>2016-04-13T12:44:32.000Z</time>
      </trkpt>
      <trkpt lat="43.1983" lon="5.80497">
        <ele>165.60000610352</ele>
        <time>2016-04-13T12:44:34.000Z</time>
      </trkpt>
      <trkpt lat="43.19819" lon="5.80548">
        <ele>163</ele>
        <time>2016-04-13T12:44:40.000Z</time>
      </trkpt>
      <trkpt lat="43.19815" lon="5.80566">
        <ele>162.80000305176</ele>
        <time>2016-04-13T12:44:42.000Z</time>
      </trkpt>
      <trkpt lat="43.1981" lon="5.80588">
        <ele>162.39999389648</ele>
        <time>2016-04-13T12:44:45.000Z</time>
      </trkpt>
      <trkpt lat="43.19809" lon="5.80595">
        <ele>162.39999389648</ele>
        <time>2016-04-13T12:44:46.000Z</time>
      </trkpt>
      <trkpt lat="43.19807" lon="5.80607">
        <ele>162.19999694824</ele>
        <time>2016-04-13T12:44:48.000Z</time>
      </trkpt>
      <trkpt lat="43.19802" lon="5.80625">
        <ele>162.19999694824</ele>
        <time>2016-04-13T12:44:51.000Z</time>
      </trkpt>
      <trkpt lat="43.19801" lon="5.80629">
        <ele>162.19999694824</ele>
        <time>2016-04-13T12:44:52.000Z</time>
      </trkpt>
      <trkpt lat="43.19798" lon="5.80644">
        <ele>162.19999694824</ele>
        <time>2016-04-13T12:45:28.000Z</time>
      </trkpt>
      <trkpt lat="43.19805" lon="5.8065">
        <ele>161.60000610352</ele>
        <time>2016-04-13T12:45:30.000Z</time>
      </trkpt>
      <trkpt lat="43.19813" lon="5.80658">
        <ele>161</ele>
        <time>2016-04-13T12:45:32.000Z</time>
      </trkpt>
      <trkpt lat="43.19816" lon="5.80672">
        <ele>160.60000610352</ele>
        <time>2016-04-13T12:45:34.000Z</time>
      </trkpt>
      <trkpt lat="43.19827" lon="5.80687">
        <ele>159.60000610352</ele>
        <time>2016-04-13T12:45:37.000Z</time>
      </trkpt>
      <trkpt lat="43.19844" lon="5.80705">
        <ele>158.39999389648</ele>
        <time>2016-04-13T12:45:41.000Z</time>
      </trkpt>
      <trkpt lat="43.19853" lon="5.80713">
        <ele>158.39999389648</ele>
        <time>2016-04-13T12:45:43.000Z</time>
      </trkpt>
      <trkpt lat="43.19882" lon="5.80736">
        <ele>158</ele>
        <time>2016-04-13T12:45:49.000Z</time>
      </trkpt>
      <trkpt lat="43.19892" lon="5.80744">
        <ele>157.80000305176</ele>
        <time>2016-04-13T12:45:51.000Z</time>
      </trkpt>
      <trkpt lat="43.19897" lon="5.80748">
        <ele>157.60000610352</ele>
        <time>2016-04-13T12:45:52.000Z</time>
      </trkpt>
      <trkpt lat="43.19912" lon="5.80762">
        <ele>157.39999389648</ele>
        <time>2016-04-13T12:45:55.000Z</time>
      </trkpt>
      <trkpt lat="43.1992" lon="5.80775">
        <ele>157</ele>
        <time>2016-04-13T12:45:57.000Z</time>
      </trkpt>
      <trkpt lat="43.19926" lon="5.80789">
        <ele>156.60000610352</ele>
        <time>2016-04-13T12:45:59.000Z</time>
      </trkpt>
      <trkpt lat="43.19932" lon="5.80811">
        <ele>156</ele>
        <time>2016-04-13T12:46:02.000Z</time>
      </trkpt>
      <trkpt lat="43.19937" lon="5.80826">
        <ele>155.60000610352</ele>
        <time>2016-04-13T12:46:04.000Z</time>
      </trkpt>
      <trkpt lat="43.19948" lon="5.80844">
        <ele>155.39999389648</ele>
        <time>2016-04-13T12:46:07.000Z</time>
      </trkpt>
      <trkpt lat="43.19965" lon="5.80872">
        <ele>154.80000305176</ele>
        <time>2016-04-13T12:46:12.000Z</time>
      </trkpt>
      <trkpt lat="43.19967" lon="5.80877">
        <ele>154.80000305176</ele>
        <time>2016-04-13T12:46:13.000Z</time>
      </trkpt>
      <trkpt lat="43.19967" lon="5.80883">
        <ele>154.60000610352</ele>
        <time>2016-04-13T12:46:14.000Z</time>
      </trkpt>
      <trkpt lat="43.19961" lon="5.80893">
        <ele>154.60000610352</ele>
        <time>2016-04-13T12:46:16.000Z</time>
      </trkpt>
      <trkpt lat="43.19955" lon="5.80901">
        <ele>154.60000610352</ele>
        <time>2016-04-13T12:46:18.000Z</time>
      </trkpt>
      <trkpt lat="43.19939" lon="5.80916">
        <ele>154.39999389648</ele>
        <time>2016-04-13T12:46:22.000Z</time>
      </trkpt>
      <trkpt lat="43.19919" lon="5.80917">
        <ele>154.19999694824</ele>
        <time>2016-04-13T12:46:26.000Z</time>
      </trkpt>
      <trkpt lat="43.19914" lon="5.80916">
        <ele>154.39999389648</ele>
        <time>2016-04-13T12:46:27.000Z</time>
      </trkpt>
      <trkpt lat="43.19905" lon="5.80916">
        <ele>154.60000610352</ele>
        <time>2016-04-13T12:46:29.000Z</time>
      </trkpt>
      <trkpt lat="43.19898" lon="5.80922">
        <ele>154.80000305176</ele>
        <time>2016-04-13T12:46:31.000Z</time>
      </trkpt>
      <trkpt lat="43.19892" lon="5.80931">
        <ele>154.80000305176</ele>
        <time>2016-04-13T12:46:33.000Z</time>
      </trkpt>
      <trkpt lat="43.19889" lon="5.80937">
        <ele>155</ele>
        <time>2016-04-13T12:46:34.000Z</time>
      </trkpt>
      <trkpt lat="43.19884" lon="5.80948">
        <ele>155</ele>
        <time>2016-04-13T12:46:36.000Z</time>
      </trkpt>
      <trkpt lat="43.19862" lon="5.80998">
        <ele>156</ele>
        <time>2016-04-13T12:46:45.000Z</time>
      </trkpt>
      <trkpt lat="43.19856" lon="5.81008">
        <ele>155.80000305176</ele>
        <time>2016-04-13T12:46:47.000Z</time>
      </trkpt>
      <trkpt lat="43.19845" lon="5.8102">
        <ele>155.39999389648</ele>
        <time>2016-04-13T12:46:50.000Z</time>
      </trkpt>
      <trkpt lat="43.19824" lon="5.81053">
        <ele>155</ele>
        <time>2016-04-13T12:46:57.000Z</time>
      </trkpt>
      <trkpt lat="43.198" lon="5.811">
        <ele>155.60000610352</ele>
        <time>2016-04-13T12:47:06.000Z</time>
      </trkpt>
      <trkpt lat="43.19791" lon="5.81114">
        <ele>155.80000305176</ele>
        <time>2016-04-13T12:47:09.000Z</time>
      </trkpt>
      <trkpt lat="43.19779" lon="5.81133">
        <ele>156</ele>
        <time>2016-04-13T12:47:14.000Z</time>
      </trkpt>
      <trkpt lat="43.19762" lon="5.81161">
        <ele>156.19999694824</ele>
        <time>2016-04-13T12:47:20.000Z</time>
      </trkpt>
      <trkpt lat="43.19734" lon="5.81187">
        <ele>157.19999694824</ele>
        <time>2016-04-13T12:47:27.000Z</time>
      </trkpt>
      <trkpt lat="43.19724" lon="5.81199">
        <ele>157.19999694824</ele>
        <time>2016-04-13T12:47:30.000Z</time>
      </trkpt>
      <trkpt lat="43.19716" lon="5.81216">
        <ele>157</ele>
        <time>2016-04-13T12:47:33.000Z</time>
      </trkpt>
      <trkpt lat="43.19713" lon="5.81222">
        <ele>157</ele>
        <time>2016-04-13T12:47:34.000Z</time>
      </trkpt>
      <trkpt lat="43.19692" lon="5.81264">
        <ele>157.19999694824</ele>
        <time>2016-04-13T12:47:42.000Z</time>
      </trkpt>
      <trkpt lat="43.19672" lon="5.813">
        <ele>157.19999694824</ele>
        <time>2016-04-13T12:47:50.000Z</time>
      </trkpt>
      <trkpt lat="43.19656" lon="5.81302">
        <ele>157.60000610352</ele>
        <time>2016-04-13T12:47:54.000Z</time>
      </trkpt>
      <trkpt lat="43.19651" lon="5.81304">
        <ele>157.60000610352</ele>
        <time>2016-04-13T12:47:55.000Z</time>
      </trkpt>
      <trkpt lat="43.19633" lon="5.81315">
        <ele>158.19999694824</ele>
        <time>2016-04-13T12:47:59.000Z</time>
      </trkpt>
      <trkpt lat="43.19598" lon="5.81345">
        <ele>159</ele>
        <time>2016-04-13T12:48:07.000Z</time>
      </trkpt>
      <trkpt lat="43.19569" lon="5.81364">
        <ele>159.60000610352</ele>
        <time>2016-04-13T12:48:13.000Z</time>
      </trkpt>
      <trkpt lat="43.19565" lon="5.81368">
        <ele>159.80000305176</ele>
        <time>2016-04-13T12:48:14.000Z</time>
      </trkpt>
      <trkpt lat="43.19531" lon="5.81391">
        <ele>160.60000610352</ele>
        <time>2016-04-13T12:48:21.000Z</time>
      </trkpt>
      <trkpt lat="43.19504" lon="5.81409">
        <ele>160.80000305176</ele>
        <time>2016-04-13T12:48:27.000Z</time>
      </trkpt>
      <trkpt lat="43.195" lon="5.81414">
        <ele>160.60000610352</ele>
        <time>2016-04-13T12:48:28.000Z</time>
      </trkpt>
      <trkpt lat="43.19486" lon="5.81443">
        <ele>160.39999389648</ele>
        <time>2016-04-13T12:48:33.000Z</time>
      </trkpt>
      <trkpt lat="43.19482" lon="5.81471">
        <ele>160.39999389648</ele>
        <time>2016-04-13T12:48:37.000Z</time>
      </trkpt>
      <trkpt lat="43.19481" lon="5.81478">
        <ele>160.39999389648</ele>
        <time>2016-04-13T12:48:38.000Z</time>
      </trkpt>
      <trkpt lat="43.19475" lon="5.81546">
        <ele>159.39999389648</ele>
        <time>2016-04-13T12:48:48.000Z</time>
      </trkpt>
      <trkpt lat="43.19472" lon="5.81565">
        <ele>159</ele>
        <time>2016-04-13T12:48:51.000Z</time>
      </trkpt>
      <trkpt lat="43.19466" lon="5.81576">
        <ele>158.80000305176</ele>
        <time>2016-04-13T12:48:53.000Z</time>
      </trkpt>
      <trkpt lat="43.19455" lon="5.81591">
        <ele>158.80000305176</ele>
        <time>2016-04-13T12:48:56.000Z</time>
      </trkpt>
      <trkpt lat="43.19444" lon="5.81603">
        <ele>158.80000305176</ele>
        <time>2016-04-13T12:48:59.000Z</time>
      </trkpt>
      <trkpt lat="43.19421" lon="5.81636">
        <ele>159.19999694824</ele>
        <time>2016-04-13T12:49:06.000Z</time>
      </trkpt>
      <trkpt lat="43.19406" lon="5.81661">
        <ele>160.39999389648</ele>
        <time>2016-04-13T12:49:11.000Z</time>
      </trkpt>
      <trkpt lat="43.19397" lon="5.81677">
        <ele>161.19999694824</ele>
        <time>2016-04-13T12:49:14.000Z</time>
      </trkpt>
      <trkpt lat="43.19385" lon="5.81696">
        <ele>161.60000610352</ele>
        <time>2016-04-13T12:49:18.000Z</time>
      </trkpt>
      <trkpt lat="43.19377" lon="5.817">
        <ele>161.80000305176</ele>
        <time>2016-04-13T12:49:20.000Z</time>
      </trkpt>
      <trkpt lat="43.19373" lon="5.81702">
        <ele>161.80000305176</ele>
        <time>2016-04-13T12:49:21.000Z</time>
      </trkpt>
      <trkpt lat="43.19359" lon="5.81712">
        <ele>161.80000305176</ele>
        <time>2016-04-13T12:49:26.000Z</time>
      </trkpt>
      <trkpt lat="43.19353" lon="5.81734">
        <ele>162.19999694824</ele>
        <time>2016-04-13T12:49:30.000Z</time>
      </trkpt>
      <trkpt lat="43.19336" lon="5.81787">
        <ele>161.39999389648</ele>
        <time>2016-04-13T12:49:39.000Z</time>
      </trkpt>
      <trkpt lat="43.19321" lon="5.81842">
        <ele>162.60000610352</ele>
        <time>2016-04-13T12:49:48.000Z</time>
      </trkpt>
      <trkpt lat="43.19304" lon="5.8189">
        <ele>164.60000610352</ele>
        <time>2016-04-13T12:49:56.000Z</time>
      </trkpt>
      <trkpt lat="43.19291" lon="5.81919">
        <ele>165</ele>
        <time>2016-04-13T12:50:01.000Z</time>
      </trkpt>
      <trkpt lat="43.19283" lon="5.81935">
        <ele>165</ele>
        <time>2016-04-13T12:50:04.000Z</time>
      </trkpt>
      <trkpt lat="43.19254" lon="5.81971">
        <ele>165</ele>
        <time>2016-04-13T12:50:12.000Z</time>
      </trkpt>
      <trkpt lat="43.19242" lon="5.81981">
        <ele>164.60000610352</ele>
        <time>2016-04-13T12:50:15.000Z</time>
      </trkpt>
      <trkpt lat="43.19224" lon="5.81991">
        <ele>164.39999389648</ele>
        <time>2016-04-13T12:50:19.000Z</time>
      </trkpt>
      <trkpt lat="43.19179" lon="5.82021">
        <ele>164</ele>
        <time>2016-04-13T12:50:29.000Z</time>
      </trkpt>
      <trkpt lat="43.19148" lon="5.82051">
        <ele>164.19999694824</ele>
        <time>2016-04-13T12:50:37.000Z</time>
      </trkpt>
      <trkpt lat="43.19144" lon="5.82053">
        <ele>164</ele>
        <time>2016-04-13T12:50:38.000Z</time>
      </trkpt>
      <trkpt lat="43.19134" lon="5.82053">
        <ele>164</ele>
        <time>2016-04-13T12:50:40.000Z</time>
      </trkpt>
      <trkpt lat="43.19115" lon="5.82056">
        <ele>164</ele>
        <time>2016-04-13T12:50:44.000Z</time>
      </trkpt>
      <trkpt lat="43.19106" lon="5.82061">
        <ele>164.19999694824</ele>
        <time>2016-04-13T12:50:46.000Z</time>
      </trkpt>
      <trkpt lat="43.19065" lon="5.82087">
        <ele>166.19999694824</ele>
        <time>2016-04-13T12:50:55.000Z</time>
      </trkpt>
      <trkpt lat="43.19023" lon="5.82109">
        <ele>166.80000305176</ele>
        <time>2016-04-13T12:51:04.000Z</time>
      </trkpt>
      <trkpt lat="43.19018" lon="5.8211">
        <ele>166.60000610352</ele>
        <time>2016-04-13T12:51:05.000Z</time>
      </trkpt>
      <trkpt lat="43.19002" lon="5.82112">
        <ele>166.60000610352</ele>
        <time>2016-04-13T12:51:08.000Z</time>
      </trkpt>
      <trkpt lat="43.18987" lon="5.82113">
        <ele>166.39999389648</ele>
        <time>2016-04-13T12:51:11.000Z</time>
      </trkpt>
      <trkpt lat="43.18957" lon="5.82115">
        <ele>166.60000610352</ele>
        <time>2016-04-13T12:51:17.000Z</time>
      </trkpt>
      <trkpt lat="43.18943" lon="5.82113">
        <ele>166.80000305176</ele>
        <time>2016-04-13T12:51:20.000Z</time>
      </trkpt>
      <trkpt lat="43.18938" lon="5.82112">
        <ele>166.80000305176</ele>
        <time>2016-04-13T12:51:21.000Z</time>
      </trkpt>
      <trkpt lat="43.189" lon="5.82105">
        <ele>167</ele>
        <time>2016-04-13T12:51:29.000Z</time>
      </trkpt>
      <trkpt lat="43.18862" lon="5.82094">
        <ele>166.80000305176</ele>
        <time>2016-04-13T12:51:37.000Z</time>
      </trkpt>
      <trkpt lat="43.18857" lon="5.82092">
        <ele>166.80000305176</ele>
        <time>2016-04-13T12:51:38.000Z</time>
      </trkpt>
      <trkpt lat="43.18823" lon="5.82069">
        <ele>167.39999389648</ele>
        <time>2016-04-13T12:51:46.000Z</time>
      </trkpt>
      <trkpt lat="43.18789" lon="5.82032">
        <ele>169</ele>
        <time>2016-04-13T12:51:55.000Z</time>
      </trkpt>
      <trkpt lat="43.18785" lon="5.82028">
        <ele>169</ele>
        <time>2016-04-13T12:51:56.000Z</time>
      </trkpt>
      <trkpt lat="43.18757" lon="5.81995">
        <ele>170.80000305176</ele>
        <time>2016-04-13T12:52:04.000Z</time>
      </trkpt>
      <trkpt lat="43.18754" lon="5.81991">
        <ele>171</ele>
        <time>2016-04-13T12:52:05.000Z</time>
      </trkpt>
      <trkpt lat="43.18738" lon="5.81981">
        <ele>172.19999694824</ele>
        <time>2016-04-13T12:52:10.000Z</time>
      </trkpt>
      <trkpt lat="43.18731" lon="5.81988">
        <ele>172.39999389648</ele>
        <time>2016-04-13T12:52:12.000Z</time>
      </trkpt>
      <trkpt lat="43.18725" lon="5.81994">
        <ele>172.60000610352</ele>
        <time>2016-04-13T12:52:14.000Z</time>
      </trkpt>
      <trkpt lat="43.18696" lon="5.82024">
        <ele>173.19999694824</ele>
        <time>2016-04-13T12:52:22.000Z</time>
      </trkpt>
      <trkpt lat="43.18675" lon="5.82046">
        <ele>173.39999389648</ele>
        <time>2016-04-13T12:52:28.000Z</time>
      </trkpt>
      <trkpt lat="43.18664" lon="5.82057">
        <ele>173.39999389648</ele>
        <time>2016-04-13T12:52:31.000Z</time>
      </trkpt>
      <trkpt lat="43.18632" lon="5.82087">
        <ele>173.39999389648</ele>
        <time>2016-04-13T12:52:40.000Z</time>
      </trkpt>
      <trkpt lat="43.1863" lon="5.82104">
        <ele>172.80000305176</ele>
        <time>2016-04-13T12:52:43.000Z</time>
      </trkpt>
      <trkpt lat="43.18636" lon="5.82128">
        <ele>172</ele>
        <time>2016-04-13T12:52:47.000Z</time>
      </trkpt>
      <trkpt lat="43.18638" lon="5.82133">
        <ele>171.60000610352</ele>
        <time>2016-04-13T12:52:48.000Z</time>
      </trkpt>
      <trkpt lat="43.18641" lon="5.82139">
        <ele>171.39999389648</ele>
        <time>2016-04-13T12:52:49.000Z</time>
      </trkpt>
      <trkpt lat="43.18651" lon="5.82165">
        <ele>171.39999389648</ele>
        <time>2016-04-13T12:52:53.000Z</time>
      </trkpt>
      <trkpt lat="43.18657" lon="5.82178">
        <ele>171.19999694824</ele>
        <time>2016-04-13T12:52:55.000Z</time>
      </trkpt>
      <trkpt lat="43.18673" lon="5.82226">
        <ele>170.80000305176</ele>
        <time>2016-04-13T12:53:02.000Z</time>
      </trkpt>
      <trkpt lat="43.1868" lon="5.8227">
        <ele>170.39999389648</ele>
        <time>2016-04-13T12:53:07.000Z</time>
      </trkpt>
      <trkpt lat="43.18678" lon="5.82331">
        <ele>170.60000610352</ele>
        <time>2016-04-13T12:53:14.000Z</time>
      </trkpt>
      <trkpt lat="43.18665" lon="5.82398">
        <ele>171.60000610352</ele>
        <time>2016-04-13T12:53:22.000Z</time>
      </trkpt>
      <trkpt lat="43.18658" lon="5.82429">
        <ele>171.80000305176</ele>
        <time>2016-04-13T12:53:26.000Z</time>
      </trkpt>
      <trkpt lat="43.1865" lon="5.8246">
        <ele>171.80000305176</ele>
        <time>2016-04-13T12:53:30.000Z</time>
      </trkpt>
      <trkpt lat="43.18648" lon="5.82467">
        <ele>171.80000305176</ele>
        <time>2016-04-13T12:53:31.000Z</time>
      </trkpt>
      <trkpt lat="43.18628" lon="5.82523">
        <ele>171.60000610352</ele>
        <time>2016-04-13T12:53:39.000Z</time>
      </trkpt>
      <trkpt lat="43.18626" lon="5.8253">
        <ele>171.39999389648</ele>
        <time>2016-04-13T12:53:40.000Z</time>
      </trkpt>
      <trkpt lat="43.1861" lon="5.82577">
        <ele>170.39999389648</ele>
        <time>2016-04-13T12:53:46.000Z</time>
      </trkpt>
      <trkpt lat="43.18597" lon="5.82602">
        <ele>170.60000610352</ele>
        <time>2016-04-13T12:53:49.000Z</time>
      </trkpt>
      <trkpt lat="43.1859" lon="5.8262">
        <ele>170.80000305176</ele>
        <time>2016-04-13T12:53:51.000Z</time>
      </trkpt>
      <trkpt lat="43.18586" lon="5.82629">
        <ele>170.80000305176</ele>
        <time>2016-04-13T12:53:52.000Z</time>
      </trkpt>
      <trkpt lat="43.18575" lon="5.82651">
        <ele>170.39999389648</ele>
        <time>2016-04-13T12:53:55.000Z</time>
      </trkpt>
      <trkpt lat="43.1857" lon="5.82664">
        <ele>170.39999389648</ele>
        <time>2016-04-13T12:53:57.000Z</time>
      </trkpt>
      <trkpt lat="43.18553" lon="5.82708">
        <ele>170.39999389648</ele>
        <time>2016-04-13T12:54:04.000Z</time>
      </trkpt>
      <trkpt lat="43.18541" lon="5.82748">
        <ele>170.39999389648</ele>
        <time>2016-04-13T12:54:11.000Z</time>
      </trkpt>
      <trkpt lat="43.18532" lon="5.82786">
        <ele>171.80000305176</ele>
        <time>2016-04-13T12:54:17.000Z</time>
      </trkpt>
      <trkpt lat="43.18525" lon="5.82836">
        <ele>173.80000305176</ele>
        <time>2016-04-13T12:54:25.000Z</time>
      </trkpt>
      <trkpt lat="43.1852" lon="5.829">
        <ele>174.60000610352</ele>
        <time>2016-04-13T12:54:35.000Z</time>
      </trkpt>
      <trkpt lat="43.18517" lon="5.82944">
        <ele>176.19999694824</ele>
        <time>2016-04-13T12:54:42.000Z</time>
      </trkpt>
      <trkpt lat="43.18517" lon="5.82951">
        <ele>176.39999389648</ele>
        <time>2016-04-13T12:54:43.000Z</time>
      </trkpt>
      <trkpt lat="43.18514" lon="5.82976">
        <ele>177.19999694824</ele>
        <time>2016-04-13T12:54:47.000Z</time>
      </trkpt>
      <trkpt lat="43.1851" lon="5.82987">
        <ele>177.80000305176</ele>
        <time>2016-04-13T12:54:49.000Z</time>
      </trkpt>
      <trkpt lat="43.18505" lon="5.82997">
        <ele>178.39999389648</ele>
        <time>2016-04-13T12:54:51.000Z</time>
      </trkpt>
      <trkpt lat="43.18496" lon="5.83012">
        <ele>179</ele>
        <time>2016-04-13T12:54:54.000Z</time>
      </trkpt>
      <trkpt lat="43.18491" lon="5.8302">
        <ele>179.39999389648</ele>
        <time>2016-04-13T12:54:56.000Z</time>
      </trkpt>
      <trkpt lat="43.18483" lon="5.83031">
        <ele>179.80000305176</ele>
        <time>2016-04-13T12:54:59.000Z</time>
      </trkpt>
      <trkpt lat="43.18482" lon="5.83041">
        <ele>180</ele>
        <time>2016-04-13T12:55:01.000Z</time>
      </trkpt>
      <trkpt lat="43.18483" lon="5.83046">
        <ele>180.19999694824</ele>
        <time>2016-04-13T12:55:02.000Z</time>
      </trkpt>
      <trkpt lat="43.18484" lon="5.83051">
        <ele>180.60000610352</ele>
        <time>2016-04-13T12:55:03.000Z</time>
      </trkpt>
      <trkpt lat="43.18487" lon="5.83074">
        <ele>181.80000305176</ele>
        <time>2016-04-13T12:55:07.000Z</time>
      </trkpt>
      <trkpt lat="43.18487" lon="5.8308">
        <ele>182</ele>
        <time>2016-04-13T12:55:08.000Z</time>
      </trkpt>
      <trkpt lat="43.18483" lon="5.83099">
        <ele>182.80000305176</ele>
        <time>2016-04-13T12:55:12.000Z</time>
      </trkpt>
      <trkpt lat="43.18479" lon="5.83103">
        <ele>182.80000305176</ele>
        <time>2016-04-13T12:55:13.000Z</time>
      </trkpt>
      <trkpt lat="43.18471" lon="5.83108">
        <ele>182.60000610352</ele>
        <time>2016-04-13T12:55:15.000Z</time>
      </trkpt>
      <trkpt lat="43.18467" lon="5.83111">
        <ele>182.80000305176</ele>
        <time>2016-04-13T12:55:16.000Z</time>
      </trkpt>
      <trkpt lat="43.18464" lon="5.83115">
        <ele>182.80000305176</ele>
        <time>2016-04-13T12:55:17.000Z</time>
      </trkpt>
      <trkpt lat="43.1846" lon="5.83127">
        <ele>183.39999389648</ele>
        <time>2016-04-13T12:55:19.000Z</time>
      </trkpt>
      <trkpt lat="43.18459" lon="5.83134">
        <ele>183.80000305176</ele>
        <time>2016-04-13T12:55:20.000Z</time>
      </trkpt>
      <trkpt lat="43.18458" lon="5.8314">
        <ele>184.19999694824</ele>
        <time>2016-04-13T12:55:21.000Z</time>
      </trkpt>
      <trkpt lat="43.18456" lon="5.83147">
        <ele>184.39999389648</ele>
        <time>2016-04-13T12:55:22.000Z</time>
      </trkpt>
      <trkpt lat="43.1845" lon="5.83158">
        <ele>185</ele>
        <time>2016-04-13T12:55:24.000Z</time>
      </trkpt>
      <trkpt lat="43.18434" lon="5.83171">
        <ele>184.80000305176</ele>
        <time>2016-04-13T12:55:28.000Z</time>
      </trkpt>
      <trkpt lat="43.18429" lon="5.83173">
        <ele>184.60000610352</ele>
        <time>2016-04-13T12:55:29.000Z</time>
      </trkpt>
      <trkpt lat="43.18415" lon="5.8318">
        <ele>184</ele>
        <time>2016-04-13T12:55:32.000Z</time>
      </trkpt>
      <trkpt lat="43.18396" lon="5.8319">
        <ele>183.19999694824</ele>
        <time>2016-04-13T12:55:37.000Z</time>
      </trkpt>
      <trkpt lat="43.1839" lon="5.83198">
        <ele>183.39999389648</ele>
        <time>2016-04-13T12:55:39.000Z</time>
      </trkpt>
      <trkpt lat="43.18387" lon="5.83209">
        <ele>184</ele>
        <time>2016-04-13T12:55:41.000Z</time>
      </trkpt>
      <trkpt lat="43.18385" lon="5.83214">
        <ele>184.39999389648</ele>
        <time>2016-04-13T12:55:42.000Z</time>
      </trkpt>
      <trkpt lat="43.18382" lon="5.83231">
        <ele>185.60000610352</ele>
        <time>2016-04-13T12:55:45.000Z</time>
      </trkpt>
      <trkpt lat="43.18379" lon="5.83253">
        <ele>187.60000610352</ele>
        <time>2016-04-13T12:55:49.000Z</time>
      </trkpt>
      <trkpt lat="43.18378" lon="5.83264">
        <ele>188.60000610352</ele>
        <time>2016-04-13T12:55:51.000Z</time>
      </trkpt>
      <trkpt lat="43.18377" lon="5.83287">
        <ele>190.80000305176</ele>
        <time>2016-04-13T12:55:55.000Z</time>
      </trkpt>
      <trkpt lat="43.18377" lon="5.83293">
        <ele>191.39999389648</ele>
        <time>2016-04-13T12:55:56.000Z</time>
      </trkpt>
      <trkpt lat="43.18381" lon="5.83312">
        <ele>193</ele>
        <time>2016-04-13T12:55:59.000Z</time>
      </trkpt>
      <trkpt lat="43.18383" lon="5.83318">
        <ele>193.39999389648</ele>
        <time>2016-04-13T12:56:00.000Z</time>
      </trkpt>
      <trkpt lat="43.18387" lon="5.8333">
        <ele>194.19999694824</ele>
        <time>2016-04-13T12:56:02.000Z</time>
      </trkpt>
      <trkpt lat="43.1839" lon="5.83341">
        <ele>194.80000305176</ele>
        <time>2016-04-13T12:56:04.000Z</time>
      </trkpt>
      <trkpt lat="43.18398" lon="5.83363">
        <ele>196.19999694824</ele>
        <time>2016-04-13T12:56:08.000Z</time>
      </trkpt>
      <trkpt lat="43.18401" lon="5.83373">
        <ele>197</ele>
        <time>2016-04-13T12:56:10.000Z</time>
      </trkpt>
      <trkpt lat="43.18404" lon="5.83384">
        <ele>197.60000610352</ele>
        <time>2016-04-13T12:56:12.000Z</time>
      </trkpt>
      <trkpt lat="43.18408" lon="5.83405">
        <ele>199.60000610352</ele>
        <time>2016-04-13T12:56:16.000Z</time>
      </trkpt>
      <trkpt lat="43.18409" lon="5.83417">
        <ele>200.80000305176</ele>
        <time>2016-04-13T12:56:18.000Z</time>
      </trkpt>
      <trkpt lat="43.1841" lon="5.83423">
        <ele>201.39999389648</ele>
        <time>2016-04-13T12:56:19.000Z</time>
      </trkpt>
      <trkpt lat="43.18411" lon="5.83428">
        <ele>202</ele>
        <time>2016-04-13T12:56:20.000Z</time>
      </trkpt>
      <trkpt lat="43.18416" lon="5.83438">
        <ele>203.19999694824</ele>
        <time>2016-04-13T12:56:22.000Z</time>
      </trkpt>
      <trkpt lat="43.18421" lon="5.83452">
        <ele>204.60000610352</ele>
        <time>2016-04-13T12:56:25.000Z</time>
      </trkpt>
      <trkpt lat="43.1842" lon="5.83466">
        <ele>206</ele>
        <time>2016-04-13T12:56:29.000Z</time>
      </trkpt>
      <trkpt lat="43.18412" lon="5.83475">
        <ele>206</ele>
        <time>2016-04-13T12:56:32.000Z</time>
      </trkpt>
      <trkpt lat="43.18403" lon="5.83482">
        <ele>205.60000610352</ele>
        <time>2016-04-13T12:56:34.000Z</time>
      </trkpt>
      <trkpt lat="43.1839" lon="5.83496">
        <ele>205.19999694824</ele>
        <time>2016-04-13T12:56:37.000Z</time>
      </trkpt>
      <trkpt lat="43.1838" lon="5.83512">
        <ele>205</ele>
        <time>2016-04-13T12:56:40.000Z</time>
      </trkpt>
      <trkpt lat="43.18374" lon="5.83523">
        <ele>204.60000610352</ele>
        <time>2016-04-13T12:56:42.000Z</time>
      </trkpt>
      <trkpt lat="43.1835" lon="5.83562">
        <ele>203.39999389648</ele>
        <time>2016-04-13T12:56:50.000Z</time>
      </trkpt>
      <trkpt lat="43.18332" lon="5.83576">
        <ele>200.39999389648</ele>
        <time>2016-04-13T12:56:56.000Z</time>
      </trkpt>
      <trkpt lat="43.18329" lon="5.83574">
        <ele>200.19999694824</ele>
        <time>2016-04-13T12:56:57.000Z</time>
      </trkpt>
      <trkpt lat="43.18326" lon="5.83567">
        <ele>200.19999694824</ele>
        <time>2016-04-13T12:56:59.000Z</time>
      </trkpt>
      <trkpt lat="43.18323" lon="5.83558">
        <ele>200.60000610352</ele>
        <time>2016-04-13T12:57:01.000Z</time>
      </trkpt>
      <trkpt lat="43.18315" lon="5.83544">
        <ele>200.39999389648</ele>
        <time>2016-04-13T12:57:04.000Z</time>
      </trkpt>
      <trkpt lat="43.18303" lon="5.83536">
        <ele>199.39999389648</ele>
        <time>2016-04-13T12:57:07.000Z</time>
      </trkpt>
      <trkpt lat="43.18294" lon="5.83532">
        <ele>198.60000610352</ele>
        <time>2016-04-13T12:57:09.000Z</time>
      </trkpt>
      <trkpt lat="43.18262" lon="5.83519">
        <ele>195.80000305176</ele>
        <time>2016-04-13T12:57:16.000Z</time>
      </trkpt>
      <trkpt lat="43.18258" lon="5.83517">
        <ele>195.39999389648</ele>
        <time>2016-04-13T12:57:17.000Z</time>
      </trkpt>
      <trkpt lat="43.18236" lon="5.83498">
        <ele>193.60000610352</ele>
        <time>2016-04-13T12:57:22.000Z</time>
      </trkpt>
      <trkpt lat="43.18209" lon="5.83466">
        <ele>192</ele>
        <time>2016-04-13T12:57:29.000Z</time>
      </trkpt>
      <trkpt lat="43.18206" lon="5.83461">
        <ele>191.80000305176</ele>
        <time>2016-04-13T12:57:30.000Z</time>
      </trkpt>
      <trkpt lat="43.18199" lon="5.83451">
        <ele>191.60000610352</ele>
        <time>2016-04-13T12:57:32.000Z</time>
      </trkpt>
      <trkpt lat="43.18193" lon="5.83439">
        <ele>191.39999389648</ele>
        <time>2016-04-13T12:57:34.000Z</time>
      </trkpt>
      <trkpt lat="43.18191" lon="5.83433">
        <ele>191.39999389648</ele>
        <time>2016-04-13T12:57:35.000Z</time>
      </trkpt>
      <trkpt lat="43.18188" lon="5.83427">
        <ele>191.19999694824</ele>
        <time>2016-04-13T12:57:36.000Z</time>
      </trkpt>
      <trkpt lat="43.18184" lon="5.83422">
        <ele>191</ele>
        <time>2016-04-13T12:57:37.000Z</time>
      </trkpt>
      <trkpt lat="43.18173" lon="5.83416">
        <ele>190.19999694824</ele>
        <time>2016-04-13T12:57:39.000Z</time>
      </trkpt>
      <trkpt lat="43.18167" lon="5.83414">
        <ele>189.60000610352</ele>
        <time>2016-04-13T12:57:40.000Z</time>
      </trkpt>
      <trkpt lat="43.18153" lon="5.83412">
        <ele>188.19999694824</ele>
        <time>2016-04-13T12:57:42.000Z</time>
      </trkpt>
      <trkpt lat="43.18147" lon="5.83411">
        <ele>187.60000610352</ele>
        <time>2016-04-13T12:57:43.000Z</time>
      </trkpt>
      <trkpt lat="43.18133" lon="5.8341">
        <ele>186.19999694824</ele>
        <time>2016-04-13T12:57:45.000Z</time>
      </trkpt>
      <trkpt lat="43.18127" lon="5.83409">
        <ele>185.60000610352</ele>
        <time>2016-04-13T12:57:46.000Z</time>
      </trkpt>
      <trkpt lat="43.18109" lon="5.83405">
        <ele>183.80000305176</ele>
        <time>2016-04-13T12:57:49.000Z</time>
      </trkpt>
      <trkpt lat="43.18104" lon="5.83402">
        <ele>183.39999389648</ele>
        <time>2016-04-13T12:57:50.000Z</time>
      </trkpt>
      <trkpt lat="43.181" lon="5.834">
        <ele>183</ele>
        <time>2016-04-13T12:57:51.000Z</time>
      </trkpt>
      <trkpt lat="43.18096" lon="5.83396">
        <ele>182.80000305176</ele>
        <time>2016-04-13T12:57:52.000Z</time>
      </trkpt>
      <trkpt lat="43.18091" lon="5.83385">
        <ele>182.80000305176</ele>
        <time>2016-04-13T12:57:54.000Z</time>
      </trkpt>
      <trkpt lat="43.18085" lon="5.83377">
        <ele>182.80000305176</ele>
        <time>2016-04-13T12:57:56.000Z</time>
      </trkpt>
      <trkpt lat="43.1808" lon="5.83374">
        <ele>182.39999389648</ele>
        <time>2016-04-13T12:57:57.000Z</time>
      </trkpt>
      <trkpt lat="43.18073" lon="5.83372">
        <ele>181.80000305176</ele>
        <time>2016-04-13T12:57:58.000Z</time>
      </trkpt>
      <trkpt lat="43.18066" lon="5.83371">
        <ele>181.19999694824</ele>
        <time>2016-04-13T12:57:59.000Z</time>
      </trkpt>
      <trkpt lat="43.18058" lon="5.8337">
        <ele>180.39999389648</ele>
        <time>2016-04-13T12:58:00.000Z</time>
      </trkpt>
      <trkpt lat="43.1805" lon="5.83369">
        <ele>179.60000610352</ele>
        <time>2016-04-13T12:58:01.000Z</time>
      </trkpt>
      <trkpt lat="43.18043" lon="5.83368">
        <ele>179</ele>
        <time>2016-04-13T12:58:02.000Z</time>
      </trkpt>
      <trkpt lat="43.1803" lon="5.83367">
        <ele>177.60000610352</ele>
        <time>2016-04-13T12:58:04.000Z</time>
      </trkpt>
      <trkpt lat="43.18018" lon="5.83367">
        <ele>176.19999694824</ele>
        <time>2016-04-13T12:58:06.000Z</time>
      </trkpt>
      <trkpt lat="43.18013" lon="5.83368">
        <ele>175.60000610352</ele>
        <time>2016-04-13T12:58:07.000Z</time>
      </trkpt>
      <trkpt lat="43.18007" lon="5.83368">
        <ele>175</ele>
        <time>2016-04-13T12:58:08.000Z</time>
      </trkpt>
      <trkpt lat="43.1799" lon="5.83369">
        <ele>173.19999694824</ele>
        <time>2016-04-13T12:58:11.000Z</time>
      </trkpt>
      <trkpt lat="43.17979" lon="5.83368">
        <ele>173</ele>
        <time>2016-04-13T12:58:13.000Z</time>
      </trkpt>
      <trkpt lat="43.17972" lon="5.83364">
        <ele>172.80000305176</ele>
        <time>2016-04-13T12:58:14.000Z</time>
      </trkpt>
      <trkpt lat="43.17966" lon="5.8336">
        <ele>172.60000610352</ele>
        <time>2016-04-13T12:58:15.000Z</time>
      </trkpt>
      <trkpt lat="43.1796" lon="5.83356">
        <ele>172.39999389648</ele>
        <time>2016-04-13T12:58:16.000Z</time>
      </trkpt>
      <trkpt lat="43.17954" lon="5.83353">
        <ele>172.19999694824</ele>
        <time>2016-04-13T12:58:17.000Z</time>
      </trkpt>
      <trkpt lat="43.17942" lon="5.83349">
        <ele>171.80000305176</ele>
        <time>2016-04-13T12:58:19.000Z</time>
      </trkpt>
      <trkpt lat="43.17935" lon="5.83349">
        <ele>171.60000610352</ele>
        <time>2016-04-13T12:58:20.000Z</time>
      </trkpt>
      <trkpt lat="43.1793" lon="5.83348">
        <ele>171.60000610352</ele>
        <time>2016-04-13T12:58:21.000Z</time>
      </trkpt>
      <trkpt lat="43.17918" lon="5.83346">
        <ele>171.19999694824</ele>
        <time>2016-04-13T12:58:23.000Z</time>
      </trkpt>
      <trkpt lat="43.17908" lon="5.83343">
        <ele>170.80000305176</ele>
        <time>2016-04-13T12:58:25.000Z</time>
      </trkpt>
      <trkpt lat="43.17898" lon="5.83339">
        <ele>170.39999389648</ele>
        <time>2016-04-13T12:58:27.000Z</time>
      </trkpt>
      <trkpt lat="43.17886" lon="5.83334">
        <ele>169.80000305176</ele>
        <time>2016-04-13T12:58:29.000Z</time>
      </trkpt>
      <trkpt lat="43.17875" lon="5.83328">
        <ele>169.39999389648</ele>
        <time>2016-04-13T12:58:31.000Z</time>
      </trkpt>
      <trkpt lat="43.17866" lon="5.83323">
        <ele>169</ele>
        <time>2016-04-13T12:58:33.000Z</time>
      </trkpt>
      <trkpt lat="43.17857" lon="5.83315">
        <ele>168.60000610352</ele>
        <time>2016-04-13T12:58:35.000Z</time>
      </trkpt>
      <trkpt lat="43.17824" lon="5.83284">
        <ele>166.39999389648</ele>
        <time>2016-04-13T12:58:42.000Z</time>
      </trkpt>
      <trkpt lat="43.17819" lon="5.8328">
        <ele>166.19999694824</ele>
        <time>2016-04-13T12:58:43.000Z</time>
      </trkpt>
      <trkpt lat="43.17814" lon="5.83277">
        <ele>165.80000305176</ele>
        <time>2016-04-13T12:58:44.000Z</time>
      </trkpt>
      <trkpt lat="43.17797" lon="5.83275">
        <ele>164.60000610352</ele>
        <time>2016-04-13T12:58:47.000Z</time>
      </trkpt>
      <trkpt lat="43.17792" lon="5.83274">
        <ele>164.19999694824</ele>
        <time>2016-04-13T12:58:48.000Z</time>
      </trkpt>
      <trkpt lat="43.1776" lon="5.83271">
        <ele>162</ele>
        <time>2016-04-13T12:58:54.000Z</time>
      </trkpt>
      <trkpt lat="43.17754" lon="5.83271">
        <ele>161.80000305176</ele>
        <time>2016-04-13T12:58:55.000Z</time>
      </trkpt>
      <trkpt lat="43.17748" lon="5.83273">
        <ele>161.60000610352</ele>
        <time>2016-04-13T12:58:56.000Z</time>
      </trkpt>
      <trkpt lat="43.17738" lon="5.83277">
        <ele>161.39999389648</ele>
        <time>2016-04-13T12:58:58.000Z</time>
      </trkpt>
      <trkpt lat="43.17722" lon="5.83283">
        <ele>160.80000305176</ele>
        <time>2016-04-13T12:59:01.000Z</time>
      </trkpt>
      <trkpt lat="43.17716" lon="5.83283">
        <ele>160.60000610352</ele>
        <time>2016-04-13T12:59:02.000Z</time>
      </trkpt>
      <trkpt lat="43.17711" lon="5.83283">
        <ele>160.39999389648</ele>
        <time>2016-04-13T12:59:03.000Z</time>
      </trkpt>
      <trkpt lat="43.1769" lon="5.83285">
        <ele>159.60000610352</ele>
        <time>2016-04-13T12:59:07.000Z</time>
      </trkpt>
      <trkpt lat="43.17679" lon="5.83284">
        <ele>159.39999389648</ele>
        <time>2016-04-13T12:59:09.000Z</time>
      </trkpt>
      <trkpt lat="43.17669" lon="5.83282">
        <ele>158.80000305176</ele>
        <time>2016-04-13T12:59:11.000Z</time>
      </trkpt>
      <trkpt lat="43.17638" lon="5.83275">
        <ele>157.39999389648</ele>
        <time>2016-04-13T12:59:17.000Z</time>
      </trkpt>
      <trkpt lat="43.17633" lon="5.83275">
        <ele>157.39999389648</ele>
        <time>2016-04-13T12:59:18.000Z</time>
      </trkpt>
      <trkpt lat="43.17608" lon="5.83276">
        <ele>157.19999694824</ele>
        <time>2016-04-13T12:59:22.000Z</time>
      </trkpt>
      <trkpt lat="43.17596" lon="5.83276">
        <ele>157</ele>
        <time>2016-04-13T12:59:24.000Z</time>
      </trkpt>
      <trkpt lat="43.17577" lon="5.83275">
        <ele>156.60000610352</ele>
        <time>2016-04-13T12:59:27.000Z</time>
      </trkpt>
      <trkpt lat="43.17566" lon="5.8327">
        <ele>156.39999389648</ele>
        <time>2016-04-13T12:59:29.000Z</time>
      </trkpt>
      <trkpt lat="43.1756" lon="5.83267">
        <ele>156.19999694824</ele>
        <time>2016-04-13T12:59:30.000Z</time>
      </trkpt>
      <trkpt lat="43.17546" lon="5.8326">
        <ele>155.80000305176</ele>
        <time>2016-04-13T12:59:33.000Z</time>
      </trkpt>
      <trkpt lat="43.17533" lon="5.8325">
        <ele>155.19999694824</ele>
        <time>2016-04-13T12:59:36.000Z</time>
      </trkpt>
      <trkpt lat="43.17529" lon="5.83245">
        <ele>155</ele>
        <time>2016-04-13T12:59:37.000Z</time>
      </trkpt>
      <trkpt lat="43.17506" lon="5.83216">
        <ele>153.60000610352</ele>
        <time>2016-04-13T12:59:44.000Z</time>
      </trkpt>
      <trkpt lat="43.17502" lon="5.83215">
        <ele>153.60000610352</ele>
        <time>2016-04-13T12:59:45.000Z</time>
      </trkpt>
      <trkpt lat="43.17493" lon="5.83212">
        <ele>153.19999694824</ele>
        <time>2016-04-13T12:59:47.000Z</time>
      </trkpt>
      <trkpt lat="43.17479" lon="5.83207">
        <ele>152.60000610352</ele>
        <time>2016-04-13T12:59:50.000Z</time>
      </trkpt>
      <trkpt lat="43.17464" lon="5.83204">
        <ele>152.19999694824</ele>
        <time>2016-04-13T12:59:53.000Z</time>
      </trkpt>
      <trkpt lat="43.17437" lon="5.832">
        <ele>151.39999389648</ele>
        <time>2016-04-13T12:59:58.000Z</time>
      </trkpt>
      <trkpt lat="43.17426" lon="5.83198">
        <ele>151</ele>
        <time>2016-04-13T13:00:00.000Z</time>
      </trkpt>
      <trkpt lat="43.17415" lon="5.83191">
        <ele>150.80000305176</ele>
        <time>2016-04-13T13:00:02.000Z</time>
      </trkpt>
      <trkpt lat="43.17407" lon="5.83179">
        <ele>150.19999694824</ele>
        <time>2016-04-13T13:00:04.000Z</time>
      </trkpt>
      <trkpt lat="43.17403" lon="5.83173">
        <ele>150</ele>
        <time>2016-04-13T13:00:05.000Z</time>
      </trkpt>
      <trkpt lat="43.174" lon="5.83167">
        <ele>149.60000610352</ele>
        <time>2016-04-13T13:00:06.000Z</time>
      </trkpt>
      <trkpt lat="43.17391" lon="5.83147">
        <ele>148.80000305176</ele>
        <time>2016-04-13T13:00:09.000Z</time>
      </trkpt>
      <trkpt lat="43.17374" lon="5.83111">
        <ele>147.39999389648</ele>
        <time>2016-04-13T13:00:15.000Z</time>
      </trkpt>
      <trkpt lat="43.17369" lon="5.831">
        <ele>147</ele>
        <time>2016-04-13T13:00:17.000Z</time>
      </trkpt>
      <trkpt lat="43.17354" lon="5.83071">
        <ele>145.60000610352</ele>
        <time>2016-04-13T13:00:23.000Z</time>
      </trkpt>
      <trkpt lat="43.17344" lon="5.83046">
        <ele>145.39999389648</ele>
        <time>2016-04-13T13:00:29.000Z</time>
      </trkpt>
      <trkpt lat="43.17336" lon="5.83019">
        <ele>146.39999389648</ele>
        <time>2016-04-13T13:00:36.000Z</time>
      </trkpt>
      <trkpt lat="43.17331" lon="5.82999">
        <ele>147.19999694824</ele>
        <time>2016-04-13T13:00:42.000Z</time>
      </trkpt>
      <trkpt lat="43.17326" lon="5.82991">
        <ele>147.60000610352</ele>
        <time>2016-04-13T13:00:46.000Z</time>
      </trkpt>
      <trkpt lat="43.17324" lon="5.82992">
        <ele>147.60000610352</ele>
        <time>2016-04-13T13:00:47.000Z</time>
      </trkpt>
      <trkpt lat="43.17311" lon="5.82996">
        <ele>147.60000610352</ele>
        <time>2016-04-13T13:00:53.000Z</time>
      </trkpt>
      <trkpt lat="43.17308" lon="5.82994">
        <ele>147.60000610352</ele>
        <time>2016-04-13T13:01:00.000Z</time>
      </trkpt>
      <trkpt lat="43.17308" lon="5.82992">
        <ele>147.80000305176</ele>
        <time>2016-04-13T13:01:01.000Z</time>
      </trkpt>
      <trkpt lat="43.17306" lon="5.82974">
        <ele>148.39999389648</ele>
        <time>2016-04-13T13:01:07.000Z</time>
      </trkpt>
      <trkpt lat="43.17303" lon="5.82961">
        <ele>148.39999389648</ele>
        <time>2016-04-13T13:01:16.000Z</time>
      </trkpt>
      <trkpt lat="43.17296" lon="5.82955">
        <ele>148.60000610352</ele>
        <time>2016-04-13T13:01:20.000Z</time>
      </trkpt>
      <trkpt lat="43.17284" lon="5.82961">
        <ele>148.80000305176</ele>
        <time>2016-04-13T13:01:23.000Z</time>
      </trkpt>
      <trkpt lat="43.17279" lon="5.82964">
        <ele>148.80000305176</ele>
        <time>2016-04-13T13:01:24.000Z</time>
      </trkpt>
      <trkpt lat="43.17247" lon="5.82984">
        <ele>148.60000610352</ele>
        <time>2016-04-13T13:01:31.000Z</time>
      </trkpt>
      <trkpt lat="43.17235" lon="5.8299">
        <ele>148.19999694824</ele>
        <time>2016-04-13T13:01:35.000Z</time>
      </trkpt>
      <trkpt lat="43.1723" lon="5.82993">
        <ele>148.19999694824</ele>
        <time>2016-04-13T13:01:41.000Z</time>
      </trkpt>
      <trkpt lat="43.17226" lon="5.82995">
        <ele>148</ele>
        <time>2016-04-13T13:01:43.000Z</time>
      </trkpt>
      <trkpt lat="43.17213" lon="5.8301">
        <ele>147.60000610352</ele>
        <time>2016-04-13T13:01:48.000Z</time>
      </trkpt>
      <trkpt lat="43.17215" lon="5.83033">
        <ele>147.19999694824</ele>
        <time>2016-04-13T13:01:52.000Z</time>
      </trkpt>
      <trkpt lat="43.17222" lon="5.83092">
        <ele>148.39999389648</ele>
        <time>2016-04-13T13:02:02.000Z</time>
      </trkpt>
      <trkpt lat="43.17225" lon="5.83115">
        <ele>149.19999694824</ele>
        <time>2016-04-13T13:02:06.000Z</time>
      </trkpt>
      <trkpt lat="43.17227" lon="5.83139">
        <ele>150</ele>
        <time>2016-04-13T13:02:10.000Z</time>
      </trkpt>
      <trkpt lat="43.17228" lon="5.83152">
        <ele>151</ele>
        <time>2016-04-13T13:02:12.000Z</time>
      </trkpt>
      <trkpt lat="43.1723" lon="5.8317">
        <ele>152.19999694824</ele>
        <time>2016-04-13T13:02:15.000Z</time>
      </trkpt>
      <trkpt lat="43.17233" lon="5.83194">
        <ele>154</ele>
        <time>2016-04-13T13:02:19.000Z</time>
      </trkpt>
      <trkpt lat="43.17233" lon="5.832">
        <ele>154.19999694824</ele>
        <time>2016-04-13T13:02:20.000Z</time>
      </trkpt>
      <trkpt lat="43.1723" lon="5.83217">
        <ele>154.60000610352</ele>
        <time>2016-04-13T13:02:23.000Z</time>
      </trkpt>
      <trkpt lat="43.17229" lon="5.83223">
        <ele>154.80000305176</ele>
        <time>2016-04-13T13:02:24.000Z</time>
      </trkpt>
      <trkpt lat="43.17227" lon="5.83229">
        <ele>155</ele>
        <time>2016-04-13T13:02:25.000Z</time>
      </trkpt>
      <trkpt lat="43.17224" lon="5.83241">
        <ele>155.39999389648</ele>
        <time>2016-04-13T13:02:27.000Z</time>
      </trkpt>
      <trkpt lat="43.1722" lon="5.83266">
        <ele>156.19999694824</ele>
        <time>2016-04-13T13:02:31.000Z</time>
      </trkpt>
      <trkpt lat="43.17217" lon="5.83284">
        <ele>157.60000610352</ele>
        <time>2016-04-13T13:02:34.000Z</time>
      </trkpt>
      <trkpt lat="43.17215" lon="5.83308">
        <ele>159.60000610352</ele>
        <time>2016-04-13T13:02:38.000Z</time>
      </trkpt>
      <trkpt lat="43.17216" lon="5.83333">
        <ele>161.19999694824</ele>
        <time>2016-04-13T13:02:42.000Z</time>
      </trkpt>
      <trkpt lat="43.17218" lon="5.83359">
        <ele>162.60000610352</ele>
        <time>2016-04-13T13:02:46.000Z</time>
      </trkpt>
      <trkpt lat="43.17222" lon="5.83385">
        <ele>163.80000305176</ele>
        <time>2016-04-13T13:02:50.000Z</time>
      </trkpt>
      <trkpt lat="43.17228" lon="5.83418">
        <ele>166.39999389648</ele>
        <time>2016-04-13T13:02:55.000Z</time>
      </trkpt>
      <trkpt lat="43.17233" lon="5.83444">
        <ele>168.60000610352</ele>
        <time>2016-04-13T13:02:59.000Z</time>
      </trkpt>
      <trkpt lat="43.17235" lon="5.83451">
        <ele>169.19999694824</ele>
        <time>2016-04-13T13:03:00.000Z</time>
      </trkpt>
      <trkpt lat="43.17241" lon="5.8347">
        <ele>170.60000610352</ele>
        <time>2016-04-13T13:03:03.000Z</time>
      </trkpt>
      <trkpt lat="43.1725" lon="5.83494">
        <ele>170.39999389648</ele>
        <time>2016-04-13T13:03:07.000Z</time>
      </trkpt>
      <trkpt lat="43.17265" lon="5.83539">
        <ele>169.80000305176</ele>
        <time>2016-04-13T13:03:14.000Z</time>
      </trkpt>
      <trkpt lat="43.17267" lon="5.83545">
        <ele>170</ele>
        <time>2016-04-13T13:03:15.000Z</time>
      </trkpt>
      <trkpt lat="43.17274" lon="5.83572">
        <ele>172</ele>
        <time>2016-04-13T13:03:19.000Z</time>
      </trkpt>
      <trkpt lat="43.17275" lon="5.83586">
        <ele>172.19999694824</ele>
        <time>2016-04-13T13:03:21.000Z</time>
      </trkpt>
      <trkpt lat="43.17275" lon="5.83599">
        <ele>172.39999389648</ele>
        <time>2016-04-13T13:03:23.000Z</time>
      </trkpt>
      <trkpt lat="43.17275" lon="5.83646">
        <ele>172.19999694824</ele>
        <time>2016-04-13T13:03:30.000Z</time>
      </trkpt>
      <trkpt lat="43.17277" lon="5.83666">
        <ele>173.60000610352</ele>
        <time>2016-04-13T13:03:33.000Z</time>
      </trkpt>
      <trkpt lat="43.17282" lon="5.83684">
        <ele>176.39999389648</ele>
        <time>2016-04-13T13:03:36.000Z</time>
      </trkpt>
      <trkpt lat="43.17285" lon="5.8369">
        <ele>177.39999389648</ele>
        <time>2016-04-13T13:03:37.000Z</time>
      </trkpt>
      <trkpt lat="43.17295" lon="5.83712">
        <ele>181</ele>
        <time>2016-04-13T13:03:41.000Z</time>
      </trkpt>
      <trkpt lat="43.17307" lon="5.83733">
        <ele>182</ele>
        <time>2016-04-13T13:03:45.000Z</time>
      </trkpt>
      <trkpt lat="43.17324" lon="5.83767">
        <ele>179.19999694824</ele>
        <time>2016-04-13T13:03:51.000Z</time>
      </trkpt>
      <trkpt lat="43.17336" lon="5.83789">
        <ele>177.39999389648</ele>
        <time>2016-04-13T13:03:55.000Z</time>
      </trkpt>
      <trkpt lat="43.17345" lon="5.83805">
        <ele>176</ele>
        <time>2016-04-13T13:03:58.000Z</time>
      </trkpt>
      <trkpt lat="43.17357" lon="5.83825">
        <ele>178.80000305176</ele>
        <time>2016-04-13T13:04:02.000Z</time>
      </trkpt>
      <trkpt lat="43.1736" lon="5.8383">
        <ele>179.39999389648</ele>
        <time>2016-04-13T13:04:03.000Z</time>
      </trkpt>
      <trkpt lat="43.1737" lon="5.83844">
        <ele>181.60000610352</ele>
        <time>2016-04-13T13:04:06.000Z</time>
      </trkpt>
      <trkpt lat="43.17373" lon="5.83849">
        <ele>182.39999389648</ele>
        <time>2016-04-13T13:04:07.000Z</time>
      </trkpt>
      <trkpt lat="43.17378" lon="5.83861">
        <ele>183.60000610352</ele>
        <time>2016-04-13T13:04:09.000Z</time>
      </trkpt>
      <trkpt lat="43.17382" lon="5.83896">
        <ele>184.80000305176</ele>
        <time>2016-04-13T13:04:14.000Z</time>
      </trkpt>
      <trkpt lat="43.17382" lon="5.83918">
        <ele>185.39999389648</ele>
        <time>2016-04-13T13:04:17.000Z</time>
      </trkpt>
      <trkpt lat="43.17387" lon="5.83953">
        <ele>192.60000610352</ele>
        <time>2016-04-13T13:04:22.000Z</time>
      </trkpt>
      <trkpt lat="43.17401" lon="5.8399">
        <ele>197.60000610352</ele>
        <time>2016-04-13T13:04:28.000Z</time>
      </trkpt>
      <trkpt lat="43.17406" lon="5.84002">
        <ele>197.39999389648</ele>
        <time>2016-04-13T13:04:30.000Z</time>
      </trkpt>
      <trkpt lat="43.17414" lon="5.84018">
        <ele>197.19999694824</ele>
        <time>2016-04-13T13:04:33.000Z</time>
      </trkpt>
      <trkpt lat="43.17421" lon="5.84034">
        <ele>197</ele>
        <time>2016-04-13T13:04:36.000Z</time>
      </trkpt>
      <trkpt lat="43.17423" lon="5.8404">
        <ele>197</ele>
        <time>2016-04-13T13:04:37.000Z</time>
      </trkpt>
      <trkpt lat="43.17427" lon="5.84051">
        <ele>197</ele>
        <time>2016-04-13T13:04:39.000Z</time>
      </trkpt>
      <trkpt lat="43.17435" lon="5.84066">
        <ele>198.60000610352</ele>
        <time>2016-04-13T13:04:42.000Z</time>
      </trkpt>
      <trkpt lat="43.17438" lon="5.8407">
        <ele>199.39999389648</ele>
        <time>2016-04-13T13:04:43.000Z</time>
      </trkpt>
      <trkpt lat="43.17441" lon="5.84074">
        <ele>200</ele>
        <time>2016-04-13T13:04:44.000Z</time>
      </trkpt>
      <trkpt lat="43.17444" lon="5.84078">
        <ele>200.60000610352</ele>
        <time>2016-04-13T13:04:45.000Z</time>
      </trkpt>
      <trkpt lat="43.17453" lon="5.84091">
        <ele>202.80000305176</ele>
        <time>2016-04-13T13:04:48.000Z</time>
      </trkpt>
      <trkpt lat="43.17461" lon="5.84103">
        <ele>204.60000610352</ele>
        <time>2016-04-13T13:04:51.000Z</time>
      </trkpt>
      <trkpt lat="43.17464" lon="5.84107">
        <ele>205.19999694824</ele>
        <time>2016-04-13T13:04:52.000Z</time>
      </trkpt>
      <trkpt lat="43.1747" lon="5.84116">
        <ele>206.60000610352</ele>
        <time>2016-04-13T13:04:54.000Z</time>
      </trkpt>
      <trkpt lat="43.17478" lon="5.84129">
        <ele>208.80000305176</ele>
        <time>2016-04-13T13:04:57.000Z</time>
      </trkpt>
      <trkpt lat="43.17486" lon="5.84144">
        <ele>210.19999694824</ele>
        <time>2016-04-13T13:05:00.000Z</time>
      </trkpt>
      <trkpt lat="43.17492" lon="5.84159">
        <ele>209.39999389648</ele>
        <time>2016-04-13T13:05:03.000Z</time>
      </trkpt>
      <trkpt lat="43.17496" lon="5.84177">
        <ele>208.39999389648</ele>
        <time>2016-04-13T13:05:06.000Z</time>
      </trkpt>
      <trkpt lat="43.17499" lon="5.84201">
        <ele>206.80000305176</ele>
        <time>2016-04-13T13:05:10.000Z</time>
      </trkpt>
      <trkpt lat="43.175" lon="5.84225">
        <ele>208.19999694824</ele>
        <time>2016-04-13T13:05:14.000Z</time>
      </trkpt>
      <trkpt lat="43.175" lon="5.84231">
        <ele>208.39999389648</ele>
        <time>2016-04-13T13:05:15.000Z</time>
      </trkpt>
      <trkpt lat="43.17501" lon="5.8426">
        <ele>209.19999694824</ele>
        <time>2016-04-13T13:05:20.000Z</time>
      </trkpt>
      <trkpt lat="43.17502" lon="5.84272">
        <ele>209.39999389648</ele>
        <time>2016-04-13T13:05:22.000Z</time>
      </trkpt>
      <trkpt lat="43.17503" lon="5.84278">
        <ele>209.60000610352</ele>
        <time>2016-04-13T13:05:23.000Z</time>
      </trkpt>
      <trkpt lat="43.17506" lon="5.84301">
        <ele>209.80000305176</ele>
        <time>2016-04-13T13:05:27.000Z</time>
      </trkpt>
      <trkpt lat="43.17511" lon="5.84319">
        <ele>211.60000610352</ele>
        <time>2016-04-13T13:05:30.000Z</time>
      </trkpt>
      <trkpt lat="43.17516" lon="5.84335">
        <ele>215.39999389648</ele>
        <time>2016-04-13T13:05:33.000Z</time>
      </trkpt>
      <trkpt lat="43.17522" lon="5.84352">
        <ele>219.39999389648</ele>
        <time>2016-04-13T13:05:36.000Z</time>
      </trkpt>
      <trkpt lat="43.17526" lon="5.84364">
        <ele>222.19999694824</ele>
        <time>2016-04-13T13:05:38.000Z</time>
      </trkpt>
      <trkpt lat="43.17528" lon="5.84369">
        <ele>223.60000610352</ele>
        <time>2016-04-13T13:05:39.000Z</time>
      </trkpt>
      <trkpt lat="43.17532" lon="5.8438">
        <ele>226.19999694824</ele>
        <time>2016-04-13T13:05:41.000Z</time>
      </trkpt>
      <trkpt lat="43.17538" lon="5.84397">
        <ele>228.60000610352</ele>
        <time>2016-04-13T13:05:44.000Z</time>
      </trkpt>
      <trkpt lat="43.17543" lon="5.84407">
        <ele>228.80000305176</ele>
        <time>2016-04-13T13:05:46.000Z</time>
      </trkpt>
      <trkpt lat="43.1755" lon="5.8442">
        <ele>229.60000610352</ele>
        <time>2016-04-13T13:05:49.000Z</time>
      </trkpt>
      <trkpt lat="43.1756" lon="5.84432">
        <ele>230.39999389648</ele>
        <time>2016-04-13T13:05:52.000Z</time>
      </trkpt>
      <trkpt lat="43.17563" lon="5.84436">
        <ele>230.80000305176</ele>
        <time>2016-04-13T13:05:53.000Z</time>
      </trkpt>
      <trkpt lat="43.17569" lon="5.84443">
        <ele>231.39999389648</ele>
        <time>2016-04-13T13:05:55.000Z</time>
      </trkpt>
      <trkpt lat="43.17578" lon="5.84455">
        <ele>232.19999694824</ele>
        <time>2016-04-13T13:05:58.000Z</time>
      </trkpt>
      <trkpt lat="43.17584" lon="5.84463">
        <ele>233.19999694824</ele>
        <time>2016-04-13T13:06:00.000Z</time>
      </trkpt>
      <trkpt lat="43.17587" lon="5.84468">
        <ele>233.80000305176</ele>
        <time>2016-04-13T13:06:01.000Z</time>
      </trkpt>
      <trkpt lat="43.1759" lon="5.84472">
        <ele>234.39999389648</ele>
        <time>2016-04-13T13:06:02.000Z</time>
      </trkpt>
      <trkpt lat="43.17595" lon="5.84482">
        <ele>235.19999694824</ele>
        <time>2016-04-13T13:06:04.000Z</time>
      </trkpt>
      <trkpt lat="43.176" lon="5.84492">
        <ele>237.39999389648</ele>
        <time>2016-04-13T13:06:06.000Z</time>
      </trkpt>
      <trkpt lat="43.17605" lon="5.84502">
        <ele>239.39999389648</ele>
        <time>2016-04-13T13:06:08.000Z</time>
      </trkpt>
      <trkpt lat="43.1761" lon="5.84512">
        <ele>241.60000610352</ele>
        <time>2016-04-13T13:06:10.000Z</time>
      </trkpt>
      <trkpt lat="43.17617" lon="5.84527">
        <ele>244.80000305176</ele>
        <time>2016-04-13T13:06:13.000Z</time>
      </trkpt>
      <trkpt lat="43.17619" lon="5.84532">
        <ele>245.80000305176</ele>
        <time>2016-04-13T13:06:14.000Z</time>
      </trkpt>
      <trkpt lat="43.17624" lon="5.84542">
        <ele>247.80000305176</ele>
        <time>2016-04-13T13:06:16.000Z</time>
      </trkpt>
      <trkpt lat="43.17625" lon="5.84548">
        <ele>248.80000305176</ele>
        <time>2016-04-13T13:06:17.000Z</time>
      </trkpt>
      <trkpt lat="43.17628" lon="5.84559">
        <ele>250.19999694824</ele>
        <time>2016-04-13T13:06:19.000Z</time>
      </trkpt>
      <trkpt lat="43.1763" lon="5.8457">
        <ele>250.19999694824</ele>
        <time>2016-04-13T13:06:21.000Z</time>
      </trkpt>
      <trkpt lat="43.17632" lon="5.84575">
        <ele>250.19999694824</ele>
        <time>2016-04-13T13:06:22.000Z</time>
      </trkpt>
      <trkpt lat="43.17636" lon="5.8459">
        <ele>250.60000610352</ele>
        <time>2016-04-13T13:06:25.000Z</time>
      </trkpt>
      <trkpt lat="43.1764" lon="5.84607">
        <ele>252.60000610352</ele>
        <time>2016-04-13T13:06:28.000Z</time>
      </trkpt>
      <trkpt lat="43.17645" lon="5.84623">
        <ele>256.20001220703</ele>
        <time>2016-04-13T13:06:31.000Z</time>
      </trkpt>
      <trkpt lat="43.17649" lon="5.84633">
        <ele>258.39999389648</ele>
        <time>2016-04-13T13:06:33.000Z</time>
      </trkpt>
      <trkpt lat="43.17655" lon="5.84649">
        <ele>259.60000610352</ele>
        <time>2016-04-13T13:06:36.000Z</time>
      </trkpt>
      <trkpt lat="43.1766" lon="5.84665">
        <ele>259.60000610352</ele>
        <time>2016-04-13T13:06:39.000Z</time>
      </trkpt>
      <trkpt lat="43.17662" lon="5.8467">
        <ele>259.60000610352</ele>
        <time>2016-04-13T13:06:40.000Z</time>
      </trkpt>
      <trkpt lat="43.17666" lon="5.8468">
        <ele>259.60000610352</ele>
        <time>2016-04-13T13:06:42.000Z</time>
      </trkpt>
      <trkpt lat="43.17672" lon="5.84696">
        <ele>259.79998779297</ele>
        <time>2016-04-13T13:06:45.000Z</time>
      </trkpt>
      <trkpt lat="43.17678" lon="5.84713">
        <ele>259.79998779297</ele>
        <time>2016-04-13T13:06:48.000Z</time>
      </trkpt>
      <trkpt lat="43.17682" lon="5.84723">
        <ele>261</ele>
        <time>2016-04-13T13:06:50.000Z</time>
      </trkpt>
      <trkpt lat="43.17684" lon="5.84728">
        <ele>260.60000610352</ele>
        <time>2016-04-13T13:06:51.000Z</time>
      </trkpt>
      <trkpt lat="43.17689" lon="5.84744">
        <ele>263.39999389648</ele>
        <time>2016-04-13T13:06:54.000Z</time>
      </trkpt>
      <trkpt lat="43.17696" lon="5.84759">
        <ele>266</ele>
        <time>2016-04-13T13:06:57.000Z</time>
      </trkpt>
      <trkpt lat="43.17702" lon="5.84769">
        <ele>267.60000610352</ele>
        <time>2016-04-13T13:06:59.000Z</time>
      </trkpt>
      <trkpt lat="43.17704" lon="5.84774">
        <ele>268.39999389648</ele>
        <time>2016-04-13T13:07:00.000Z</time>
      </trkpt>
      <trkpt lat="43.1771" lon="5.84785">
        <ele>270</ele>
        <time>2016-04-13T13:07:02.000Z</time>
      </trkpt>
      <trkpt lat="43.17719" lon="5.84798">
        <ele>271.79998779297</ele>
        <time>2016-04-13T13:07:05.000Z</time>
      </trkpt>
      <trkpt lat="43.17726" lon="5.84806">
        <ele>272.60000610352</ele>
        <time>2016-04-13T13:07:07.000Z</time>
      </trkpt>
      <trkpt lat="43.17733" lon="5.84814">
        <ele>271.79998779297</ele>
        <time>2016-04-13T13:07:09.000Z</time>
      </trkpt>
      <trkpt lat="43.17748" lon="5.84837">
        <ele>269.79998779297</ele>
        <time>2016-04-13T13:07:14.000Z</time>
      </trkpt>
      <trkpt lat="43.17758" lon="5.84851">
        <ele>268.39999389648</ele>
        <time>2016-04-13T13:07:17.000Z</time>
      </trkpt>
      <trkpt lat="43.17775" lon="5.84875">
        <ele>267.79998779297</ele>
        <time>2016-04-13T13:07:22.000Z</time>
      </trkpt>
      <trkpt lat="43.17778" lon="5.8488">
        <ele>267.79998779297</ele>
        <time>2016-04-13T13:07:23.000Z</time>
      </trkpt>
      <trkpt lat="43.17807" lon="5.84919">
        <ele>267.79998779297</ele>
        <time>2016-04-13T13:07:31.000Z</time>
      </trkpt>
      <trkpt lat="43.17814" lon="5.84928">
        <ele>267.79998779297</ele>
        <time>2016-04-13T13:07:33.000Z</time>
      </trkpt>
      <trkpt lat="43.17831" lon="5.84952">
        <ele>268</ele>
        <time>2016-04-13T13:07:38.000Z</time>
      </trkpt>
      <trkpt lat="43.17847" lon="5.84976">
        <ele>268.20001220703</ele>
        <time>2016-04-13T13:07:43.000Z</time>
      </trkpt>
      <trkpt lat="43.17853" lon="5.84986">
        <ele>269.20001220703</ele>
        <time>2016-04-13T13:07:45.000Z</time>
      </trkpt>
      <trkpt lat="43.17855" lon="5.84992">
        <ele>269.79998779297</ele>
        <time>2016-04-13T13:07:46.000Z</time>
      </trkpt>
      <trkpt lat="43.17855" lon="5.85003">
        <ele>271.79998779297</ele>
        <time>2016-04-13T13:07:48.000Z</time>
      </trkpt>
      <trkpt lat="43.17844" lon="5.85022">
        <ele>277</ele>
        <time>2016-04-13T13:07:52.000Z</time>
      </trkpt>
      <trkpt lat="43.17831" lon="5.85021">
        <ele>279.39999389648</ele>
        <time>2016-04-13T13:07:55.000Z</time>
      </trkpt>
      <trkpt lat="43.17819" lon="5.85012">
        <ele>280.20001220703</ele>
        <time>2016-04-13T13:07:58.000Z</time>
      </trkpt>
      <trkpt lat="43.17808" lon="5.85002">
        <ele>280.39999389648</ele>
        <time>2016-04-13T13:08:01.000Z</time>
      </trkpt>
      <trkpt lat="43.17797" lon="5.84991">
        <ele>280.60000610352</ele>
        <time>2016-04-13T13:08:04.000Z</time>
      </trkpt>
      <trkpt lat="43.17788" lon="5.84981">
        <ele>280.39999389648</ele>
        <time>2016-04-13T13:08:07.000Z</time>
      </trkpt>
      <trkpt lat="43.17784" lon="5.84977">
        <ele>280.39999389648</ele>
        <time>2016-04-13T13:08:08.000Z</time>
      </trkpt>
      <trkpt lat="43.17777" lon="5.84971">
        <ele>280.60000610352</ele>
        <time>2016-04-13T13:08:10.000Z</time>
      </trkpt>
      <trkpt lat="43.17765" lon="5.84957">
        <ele>280.39999389648</ele>
        <time>2016-04-13T13:08:14.000Z</time>
      </trkpt>
      <trkpt lat="43.17762" lon="5.84954">
        <ele>280.39999389648</ele>
        <time>2016-04-13T13:08:15.000Z</time>
      </trkpt>
      <trkpt lat="43.17755" lon="5.84948">
        <ele>280.60000610352</ele>
        <time>2016-04-13T13:08:17.000Z</time>
      </trkpt>
      <trkpt lat="43.17744" lon="5.84938">
        <ele>281.39999389648</ele>
        <time>2016-04-13T13:08:20.000Z</time>
      </trkpt>
      <trkpt lat="43.17736" lon="5.84934">
        <ele>282.20001220703</ele>
        <time>2016-04-13T13:08:22.000Z</time>
      </trkpt>
      <trkpt lat="43.17732" lon="5.84932">
        <ele>282.79998779297</ele>
        <time>2016-04-13T13:08:23.000Z</time>
      </trkpt>
      <trkpt lat="43.17724" lon="5.84931">
        <ele>284.60000610352</ele>
        <time>2016-04-13T13:08:25.000Z</time>
      </trkpt>
      <trkpt lat="43.17715" lon="5.84932">
        <ele>285.79998779297</ele>
        <time>2016-04-13T13:08:27.000Z</time>
      </trkpt>
      <trkpt lat="43.1771" lon="5.84934">
        <ele>286.20001220703</ele>
        <time>2016-04-13T13:08:28.000Z</time>
      </trkpt>
      <trkpt lat="43.17699" lon="5.84941">
        <ele>287</ele>
        <time>2016-04-13T13:08:31.000Z</time>
      </trkpt>
      <trkpt lat="43.17691" lon="5.84947">
        <ele>287.60000610352</ele>
        <time>2016-04-13T13:08:33.000Z</time>
      </trkpt>
      <trkpt lat="43.17688" lon="5.8495">
        <ele>287.79998779297</ele>
        <time>2016-04-13T13:08:34.000Z</time>
      </trkpt>
      <trkpt lat="43.17679" lon="5.84962">
        <ele>288.60000610352</ele>
        <time>2016-04-13T13:08:37.000Z</time>
      </trkpt>
      <trkpt lat="43.17678" lon="5.84966">
        <ele>288.79998779297</ele>
        <time>2016-04-13T13:08:38.000Z</time>
      </trkpt>
      <trkpt lat="43.17677" lon="5.84977">
        <ele>289.79998779297</ele>
        <time>2016-04-13T13:08:40.000Z</time>
      </trkpt>
      <trkpt lat="43.17678" lon="5.84989">
        <ele>291.20001220703</ele>
        <time>2016-04-13T13:08:42.000Z</time>
      </trkpt>
      <trkpt lat="43.1768" lon="5.84996">
        <ele>292.20001220703</ele>
        <time>2016-04-13T13:08:43.000Z</time>
      </trkpt>
      <trkpt lat="43.17682" lon="5.85002">
        <ele>293</ele>
        <time>2016-04-13T13:08:44.000Z</time>
      </trkpt>
      <trkpt lat="43.17688" lon="5.85023">
        <ele>295.39999389648</ele>
        <time>2016-04-13T13:08:47.000Z</time>
      </trkpt>
      <trkpt lat="43.17691" lon="5.85042">
        <ele>298</ele>
        <time>2016-04-13T13:08:50.000Z</time>
      </trkpt>
      <trkpt lat="43.17682" lon="5.8506">
        <ele>300.79998779297</ele>
        <time>2016-04-13T13:08:53.000Z</time>
      </trkpt>
      <trkpt lat="43.17673" lon="5.85066">
        <ele>303.39999389648</ele>
        <time>2016-04-13T13:08:55.000Z</time>
      </trkpt>
      <trkpt lat="43.17668" lon="5.85066">
        <ele>304.20001220703</ele>
        <time>2016-04-13T13:08:56.000Z</time>
      </trkpt>
      <trkpt lat="43.17662" lon="5.85065">
        <ele>305</ele>
        <time>2016-04-13T13:08:57.000Z</time>
      </trkpt>
      <trkpt lat="43.17657" lon="5.85062">
        <ele>305.39999389648</ele>
        <time>2016-04-13T13:08:58.000Z</time>
      </trkpt>
      <trkpt lat="43.17649" lon="5.85055">
        <ele>305.79998779297</ele>
        <time>2016-04-13T13:09:00.000Z</time>
      </trkpt>
      <trkpt lat="43.17641" lon="5.85045">
        <ele>306</ele>
        <time>2016-04-13T13:09:02.000Z</time>
      </trkpt>
      <trkpt lat="43.17634" lon="5.85035">
        <ele>306</ele>
        <time>2016-04-13T13:09:04.000Z</time>
      </trkpt>
      <trkpt lat="43.17627" lon="5.85024">
        <ele>305.79998779297</ele>
        <time>2016-04-13T13:09:06.000Z</time>
      </trkpt>
      <trkpt lat="43.1762" lon="5.85015">
        <ele>305.79998779297</ele>
        <time>2016-04-13T13:09:08.000Z</time>
      </trkpt>
      <trkpt lat="43.17616" lon="5.8501">
        <ele>306</ele>
        <time>2016-04-13T13:09:09.000Z</time>
      </trkpt>
      <trkpt lat="43.17608" lon="5.85001">
        <ele>306.20001220703</ele>
        <time>2016-04-13T13:09:11.000Z</time>
      </trkpt>
      <trkpt lat="43.17603" lon="5.84996">
        <ele>306.39999389648</ele>
        <time>2016-04-13T13:09:12.000Z</time>
      </trkpt>
      <trkpt lat="43.1759" lon="5.84983">
        <ele>307</ele>
        <time>2016-04-13T13:09:15.000Z</time>
      </trkpt>
      <trkpt lat="43.17578" lon="5.8497">
        <ele>307.60000610352</ele>
        <time>2016-04-13T13:09:18.000Z</time>
      </trkpt>
      <trkpt lat="43.17562" lon="5.8495">
        <ele>308.20001220703</ele>
        <time>2016-04-13T13:09:22.000Z</time>
      </trkpt>
      <trkpt lat="43.17551" lon="5.84933">
        <ele>308.60000610352</ele>
        <time>2016-04-13T13:09:25.000Z</time>
      </trkpt>
      <trkpt lat="43.17548" lon="5.84928">
        <ele>308.60000610352</ele>
        <time>2016-04-13T13:09:26.000Z</time>
      </trkpt>
      <trkpt lat="43.1754" lon="5.84916">
        <ele>308.79998779297</ele>
        <time>2016-04-13T13:09:28.000Z</time>
      </trkpt>
      <trkpt lat="43.1753" lon="5.849">
        <ele>309.20001220703</ele>
        <time>2016-04-13T13:09:31.000Z</time>
      </trkpt>
      <trkpt lat="43.17519" lon="5.84884">
        <ele>310</ele>
        <time>2016-04-13T13:09:34.000Z</time>
      </trkpt>
      <trkpt lat="43.17505" lon="5.84862">
        <ele>311.39999389648</ele>
        <time>2016-04-13T13:09:38.000Z</time>
      </trkpt>
      <trkpt lat="43.17497" lon="5.84845">
        <ele>312.20001220703</ele>
        <time>2016-04-13T13:09:41.000Z</time>
      </trkpt>
      <trkpt lat="43.17494" lon="5.84839">
        <ele>312.39999389648</ele>
        <time>2016-04-13T13:09:42.000Z</time>
      </trkpt>
      <trkpt lat="43.17492" lon="5.84833">
        <ele>312.60000610352</ele>
        <time>2016-04-13T13:09:43.000Z</time>
      </trkpt>
      <trkpt lat="43.1749" lon="5.84814">
        <ele>312.60000610352</ele>
        <time>2016-04-13T13:09:46.000Z</time>
      </trkpt>
      <trkpt lat="43.1749" lon="5.84807">
        <ele>312.60000610352</ele>
        <time>2016-04-13T13:09:47.000Z</time>
      </trkpt>
      <trkpt lat="43.17491" lon="5.84794">
        <ele>312</ele>
        <time>2016-04-13T13:09:49.000Z</time>
      </trkpt>
      <trkpt lat="43.17491" lon="5.84772">
        <ele>310.79998779297</ele>
        <time>2016-04-13T13:09:52.000Z</time>
      </trkpt>
      <trkpt lat="43.17488" lon="5.84751">
        <ele>310</ele>
        <time>2016-04-13T13:09:55.000Z</time>
      </trkpt>
      <trkpt lat="43.17485" lon="5.84745">
        <ele>310</ele>
        <time>2016-04-13T13:09:56.000Z</time>
      </trkpt>
      <trkpt lat="43.17477" lon="5.84736">
        <ele>310.79998779297</ele>
        <time>2016-04-13T13:09:58.000Z</time>
      </trkpt>
      <trkpt lat="43.17469" lon="5.84727">
        <ele>311.39999389648</ele>
        <time>2016-04-13T13:10:00.000Z</time>
      </trkpt>
      <trkpt lat="43.17464" lon="5.84724">
        <ele>311.79998779297</ele>
        <time>2016-04-13T13:10:01.000Z</time>
      </trkpt>
      <trkpt lat="43.17446" lon="5.84712">
        <ele>313.79998779297</ele>
        <time>2016-04-13T13:10:05.000Z</time>
      </trkpt>
      <trkpt lat="43.17442" lon="5.8471">
        <ele>314.39999389648</ele>
        <time>2016-04-13T13:10:06.000Z</time>
      </trkpt>
      <trkpt lat="43.17437" lon="5.84708">
        <ele>315</ele>
        <time>2016-04-13T13:10:07.000Z</time>
      </trkpt>
      <trkpt lat="43.17428" lon="5.84706">
        <ele>316.20001220703</ele>
        <time>2016-04-13T13:10:09.000Z</time>
      </trkpt>
      <trkpt lat="43.1741" lon="5.84703">
        <ele>318</ele>
        <time>2016-04-13T13:10:13.000Z</time>
      </trkpt>
      <trkpt lat="43.17387" lon="5.84699">
        <ele>319.60000610352</ele>
        <time>2016-04-13T13:10:18.000Z</time>
      </trkpt>
      <trkpt lat="43.17369" lon="5.84696">
        <ele>321</ele>
        <time>2016-04-13T13:10:22.000Z</time>
      </trkpt>
      <trkpt lat="43.17359" lon="5.84695">
        <ele>321.60000610352</ele>
        <time>2016-04-13T13:10:24.000Z</time>
      </trkpt>
      <trkpt lat="43.17335" lon="5.84693">
        <ele>322.60000610352</ele>
        <time>2016-04-13T13:10:29.000Z</time>
      </trkpt>
      <trkpt lat="43.17321" lon="5.8469">
        <ele>322.60000610352</ele>
        <time>2016-04-13T13:10:32.000Z</time>
      </trkpt>
      <trkpt lat="43.17311" lon="5.84689">
        <ele>322.60000610352</ele>
        <time>2016-04-13T13:10:34.000Z</time>
      </trkpt>
      <trkpt lat="43.17288" lon="5.84683">
        <ele>323.20001220703</ele>
        <time>2016-04-13T13:10:39.000Z</time>
      </trkpt>
      <trkpt lat="43.17255" lon="5.84675">
        <ele>323.60000610352</ele>
        <time>2016-04-13T13:10:46.000Z</time>
      </trkpt>
      <trkpt lat="43.17214" lon="5.84669">
        <ele>322.20001220703</ele>
        <time>2016-04-13T13:10:54.000Z</time>
      </trkpt>
      <trkpt lat="43.17171" lon="5.84662">
        <ele>320.20001220703</ele>
        <time>2016-04-13T13:11:02.000Z</time>
      </trkpt>
      <trkpt lat="43.17161" lon="5.84659">
        <ele>319.39999389648</ele>
        <time>2016-04-13T13:11:04.000Z</time>
      </trkpt>
      <trkpt lat="43.17135" lon="5.84654">
        <ele>317.79998779297</ele>
        <time>2016-04-13T13:11:10.000Z</time>
      </trkpt>
      <trkpt lat="43.17113" lon="5.84649">
        <ele>316.39999389648</ele>
        <time>2016-04-13T13:11:16.000Z</time>
      </trkpt>
      <trkpt lat="43.17088" lon="5.84644">
        <ele>315.39999389648</ele>
        <time>2016-04-13T13:11:22.000Z</time>
      </trkpt>
      <trkpt lat="43.17084" lon="5.84644">
        <ele>315.39999389648</ele>
        <time>2016-04-13T13:11:23.000Z</time>
      </trkpt>
      <trkpt lat="43.17079" lon="5.84648">
        <ele>315.79998779297</ele>
        <time>2016-04-13T13:11:25.000Z</time>
      </trkpt>
      <trkpt lat="43.17077" lon="5.84654">
        <ele>315.79998779297</ele>
        <time>2016-04-13T13:11:27.000Z</time>
      </trkpt>
      <trkpt lat="43.1708" lon="5.84667">
        <ele>315.60000610352</ele>
        <time>2016-04-13T13:11:30.000Z</time>
      </trkpt>
      <trkpt lat="43.17083" lon="5.84672">
        <ele>315.60000610352</ele>
        <time>2016-04-13T13:11:31.000Z</time>
      </trkpt>
      <trkpt lat="43.17086" lon="5.84678">
        <ele>315.39999389648</ele>
        <time>2016-04-13T13:11:32.000Z</time>
      </trkpt>
      <trkpt lat="43.17097" lon="5.847">
        <ele>315.20001220703</ele>
        <time>2016-04-13T13:11:36.000Z</time>
      </trkpt>
      <trkpt lat="43.17102" lon="5.84712">
        <ele>315.60000610352</ele>
        <time>2016-04-13T13:11:38.000Z</time>
      </trkpt>
      <trkpt lat="43.17116" lon="5.84744">
        <ele>316.20001220703</ele>
        <time>2016-04-13T13:11:45.000Z</time>
      </trkpt>
      <trkpt lat="43.17123" lon="5.84758">
        <ele>316.60000610352</ele>
        <time>2016-04-13T13:15:14.000Z</time>
      </trkpt>
      <trkpt lat="43.17127" lon="5.84764">
        <ele>316.79998779297</ele>
        <time>2016-04-13T13:15:17.000Z</time>
      </trkpt>
      <trkpt lat="43.17129" lon="5.84768">
        <ele>317</ele>
        <time>2016-04-13T13:15:18.000Z</time>
      </trkpt>
      <trkpt lat="43.17139" lon="5.84783">
        <ele>317.60000610352</ele>
        <time>2016-04-13T13:15:22.000Z</time>
      </trkpt>
      <trkpt lat="43.1716" lon="5.84812">
        <ele>318.60000610352</ele>
        <time>2016-04-13T13:15:29.000Z</time>
      </trkpt>
      <trkpt lat="43.17163" lon="5.84816">
        <ele>318.79998779297</ele>
        <time>2016-04-13T13:15:30.000Z</time>
      </trkpt>
      <trkpt lat="43.17172" lon="5.84829">
        <ele>319.20001220703</ele>
        <time>2016-04-13T13:15:33.000Z</time>
      </trkpt>
      <trkpt lat="43.17181" lon="5.84839">
        <ele>320.20001220703</ele>
        <time>2016-04-13T13:15:36.000Z</time>
      </trkpt>
      <trkpt lat="43.17187" lon="5.84847">
        <ele>321</ele>
        <time>2016-04-13T13:15:38.000Z</time>
      </trkpt>
      <trkpt lat="43.17194" lon="5.8486">
        <ele>322</ele>
        <time>2016-04-13T13:15:41.000Z</time>
      </trkpt>
      <trkpt lat="43.172" lon="5.84874">
        <ele>322.79998779297</ele>
        <time>2016-04-13T13:15:44.000Z</time>
      </trkpt>
      <trkpt lat="43.17206" lon="5.84889">
        <ele>323.79998779297</ele>
        <time>2016-04-13T13:15:47.000Z</time>
      </trkpt>
      <trkpt lat="43.17213" lon="5.8491">
        <ele>326</ele>
        <time>2016-04-13T13:15:51.000Z</time>
      </trkpt>
      <trkpt lat="43.17215" lon="5.84915">
        <ele>326.39999389648</ele>
        <time>2016-04-13T13:15:52.000Z</time>
      </trkpt>
      <trkpt lat="43.17219" lon="5.84924">
        <ele>327.60000610352</ele>
        <time>2016-04-13T13:15:54.000Z</time>
      </trkpt>
      <trkpt lat="43.17226" lon="5.84938">
        <ele>329.39999389648</ele>
        <time>2016-04-13T13:15:57.000Z</time>
      </trkpt>
      <trkpt lat="43.17232" lon="5.84953">
        <ele>331</ele>
        <time>2016-04-13T13:16:00.000Z</time>
      </trkpt>
      <trkpt lat="43.17238" lon="5.84968">
        <ele>332.60000610352</ele>
        <time>2016-04-13T13:16:03.000Z</time>
      </trkpt>
      <trkpt lat="43.17244" lon="5.84983">
        <ele>334.39999389648</ele>
        <time>2016-04-13T13:16:06.000Z</time>
      </trkpt>
      <trkpt lat="43.17251" lon="5.84998">
        <ele>336.39999389648</ele>
        <time>2016-04-13T13:16:09.000Z</time>
      </trkpt>
      <trkpt lat="43.17254" lon="5.85003">
        <ele>337.20001220703</ele>
        <time>2016-04-13T13:16:10.000Z</time>
      </trkpt>
      <trkpt lat="43.17256" lon="5.85008">
        <ele>337.79998779297</ele>
        <time>2016-04-13T13:16:11.000Z</time>
      </trkpt>
      <trkpt lat="43.17263" lon="5.85024">
        <ele>339.60000610352</ele>
        <time>2016-04-13T13:16:14.000Z</time>
      </trkpt>
      <trkpt lat="43.1727" lon="5.85038">
        <ele>341.39999389648</ele>
        <time>2016-04-13T13:16:17.000Z</time>
      </trkpt>
      <trkpt lat="43.17273" lon="5.85043">
        <ele>342</ele>
        <time>2016-04-13T13:16:18.000Z</time>
      </trkpt>
      <trkpt lat="43.17277" lon="5.85052">
        <ele>343.20001220703</ele>
        <time>2016-04-13T13:16:20.000Z</time>
      </trkpt>
      <trkpt lat="43.17284" lon="5.85066">
        <ele>344.79998779297</ele>
        <time>2016-04-13T13:16:23.000Z</time>
      </trkpt>
      <trkpt lat="43.1729" lon="5.8508">
        <ele>346.20001220703</ele>
        <time>2016-04-13T13:16:26.000Z</time>
      </trkpt>
      <trkpt lat="43.17294" lon="5.85087">
        <ele>347.20001220703</ele>
        <time>2016-04-13T13:16:28.000Z</time>
      </trkpt>
      <trkpt lat="43.17297" lon="5.85095">
        <ele>348.20001220703</ele>
        <time>2016-04-13T13:16:30.000Z</time>
      </trkpt>
      <trkpt lat="43.173" lon="5.85104">
        <ele>349.20001220703</ele>
        <time>2016-04-13T13:16:32.000Z</time>
      </trkpt>
      <trkpt lat="43.17301" lon="5.85108">
        <ele>349.79998779297</ele>
        <time>2016-04-13T13:16:33.000Z</time>
      </trkpt>
      <trkpt lat="43.17305" lon="5.85117">
        <ele>350.79998779297</ele>
        <time>2016-04-13T13:16:35.000Z</time>
      </trkpt>
      <trkpt lat="43.17309" lon="5.85125">
        <ele>352</ele>
        <time>2016-04-13T13:16:37.000Z</time>
      </trkpt>
      <trkpt lat="43.17311" lon="5.85136">
        <ele>353.20001220703</ele>
        <time>2016-04-13T13:16:39.000Z</time>
      </trkpt>
      <trkpt lat="43.17315" lon="5.85149">
        <ele>354.79998779297</ele>
        <time>2016-04-13T13:16:41.000Z</time>
      </trkpt>
      <trkpt lat="43.17321" lon="5.8516">
        <ele>356.60000610352</ele>
        <time>2016-04-13T13:16:43.000Z</time>
      </trkpt>
      <trkpt lat="43.17324" lon="5.85166">
        <ele>357.60000610352</ele>
        <time>2016-04-13T13:16:44.000Z</time>
      </trkpt>
      <trkpt lat="43.17327" lon="5.85171">
        <ele>358.60000610352</ele>
        <time>2016-04-13T13:16:45.000Z</time>
      </trkpt>
      <trkpt lat="43.17334" lon="5.85181">
        <ele>360.39999389648</ele>
        <time>2016-04-13T13:16:47.000Z</time>
      </trkpt>
      <trkpt lat="43.17343" lon="5.85189">
        <ele>362.20001220703</ele>
        <time>2016-04-13T13:16:49.000Z</time>
      </trkpt>
      <trkpt lat="43.17351" lon="5.85198">
        <ele>363.39999389648</ele>
        <time>2016-04-13T13:16:51.000Z</time>
      </trkpt>
      <trkpt lat="43.17358" lon="5.85206">
        <ele>364.39999389648</ele>
        <time>2016-04-13T13:16:53.000Z</time>
      </trkpt>
      <trkpt lat="43.17366" lon="5.85215">
        <ele>365.39999389648</ele>
        <time>2016-04-13T13:16:55.000Z</time>
      </trkpt>
      <trkpt lat="43.17373" lon="5.85225">
        <ele>366.79998779297</ele>
        <time>2016-04-13T13:16:57.000Z</time>
      </trkpt>
      <trkpt lat="43.17379" lon="5.85236">
        <ele>368.79998779297</ele>
        <time>2016-04-13T13:16:59.000Z</time>
      </trkpt>
      <trkpt lat="43.17386" lon="5.85246">
        <ele>370.79998779297</ele>
        <time>2016-04-13T13:17:01.000Z</time>
      </trkpt>
      <trkpt lat="43.17389" lon="5.8525">
        <ele>371.60000610352</ele>
        <time>2016-04-13T13:17:02.000Z</time>
      </trkpt>
      <trkpt lat="43.17397" lon="5.85258">
        <ele>373</ele>
        <time>2016-04-13T13:17:04.000Z</time>
      </trkpt>
      <trkpt lat="43.17401" lon="5.85261">
        <ele>373.60000610352</ele>
        <time>2016-04-13T13:17:05.000Z</time>
      </trkpt>
      <trkpt lat="43.17406" lon="5.85265">
        <ele>374.20001220703</ele>
        <time>2016-04-13T13:17:06.000Z</time>
      </trkpt>
      <trkpt lat="43.1741" lon="5.85267">
        <ele>374.79998779297</ele>
        <time>2016-04-13T13:17:07.000Z</time>
      </trkpt>
      <trkpt lat="43.17425" lon="5.85274">
        <ele>376.20001220703</ele>
        <time>2016-04-13T13:17:10.000Z</time>
      </trkpt>
      <trkpt lat="43.17435" lon="5.85278">
        <ele>376.39999389648</ele>
        <time>2016-04-13T13:17:12.000Z</time>
      </trkpt>
      <trkpt lat="43.1744" lon="5.85281">
        <ele>376.60000610352</ele>
        <time>2016-04-13T13:17:13.000Z</time>
      </trkpt>
      <trkpt lat="43.17445" lon="5.85284">
        <ele>376.79998779297</ele>
        <time>2016-04-13T13:17:14.000Z</time>
      </trkpt>
      <trkpt lat="43.17458" lon="5.85293">
        <ele>377.60000610352</ele>
        <time>2016-04-13T13:17:17.000Z</time>
      </trkpt>
      <trkpt lat="43.1747" lon="5.85304">
        <ele>378.60000610352</ele>
        <time>2016-04-13T13:17:20.000Z</time>
      </trkpt>
      <trkpt lat="43.17474" lon="5.85308">
        <ele>378.79998779297</ele>
        <time>2016-04-13T13:17:21.000Z</time>
      </trkpt>
      <trkpt lat="43.17482" lon="5.85316">
        <ele>379.20001220703</ele>
        <time>2016-04-13T13:17:23.000Z</time>
      </trkpt>
      <trkpt lat="43.17494" lon="5.85329">
        <ele>380</ele>
        <time>2016-04-13T13:17:26.000Z</time>
      </trkpt>
      <trkpt lat="43.17501" lon="5.85338">
        <ele>380.60000610352</ele>
        <time>2016-04-13T13:17:28.000Z</time>
      </trkpt>
      <trkpt lat="43.17504" lon="5.85343">
        <ele>381</ele>
        <time>2016-04-13T13:17:29.000Z</time>
      </trkpt>
      <trkpt lat="43.17507" lon="5.85349">
        <ele>381.39999389648</ele>
        <time>2016-04-13T13:17:30.000Z</time>
      </trkpt>
      <trkpt lat="43.17511" lon="5.8536">
        <ele>382.60000610352</ele>
        <time>2016-04-13T13:17:32.000Z</time>
      </trkpt>
      <trkpt lat="43.17512" lon="5.85366">
        <ele>383</ele>
        <time>2016-04-13T13:17:33.000Z</time>
      </trkpt>
      <trkpt lat="43.17515" lon="5.85372">
        <ele>383.20001220703</ele>
        <time>2016-04-13T13:17:34.000Z</time>
      </trkpt>
      <trkpt lat="43.17516" lon="5.85378">
        <ele>383.39999389648</ele>
        <time>2016-04-13T13:17:35.000Z</time>
      </trkpt>
      <trkpt lat="43.17518" lon="5.85384">
        <ele>383.79998779297</ele>
        <time>2016-04-13T13:17:36.000Z</time>
      </trkpt>
      <trkpt lat="43.17522" lon="5.85396">
        <ele>383.79998779297</ele>
        <time>2016-04-13T13:17:38.000Z</time>
      </trkpt>
      <trkpt lat="43.17525" lon="5.85408">
        <ele>384</ele>
        <time>2016-04-13T13:17:40.000Z</time>
      </trkpt>
      <trkpt lat="43.17528" lon="5.85422">
        <ele>384.60000610352</ele>
        <time>2016-04-13T13:17:42.000Z</time>
      </trkpt>
      <trkpt lat="43.17529" lon="5.85436">
        <ele>386</ele>
        <time>2016-04-13T13:17:44.000Z</time>
      </trkpt>
      <trkpt lat="43.17528" lon="5.85451">
        <ele>388</ele>
        <time>2016-04-13T13:17:46.000Z</time>
      </trkpt>
      <trkpt lat="43.17527" lon="5.85459">
        <ele>389.20001220703</ele>
        <time>2016-04-13T13:17:47.000Z</time>
      </trkpt>
      <trkpt lat="43.17525" lon="5.85466">
        <ele>390.20001220703</ele>
        <time>2016-04-13T13:17:48.000Z</time>
      </trkpt>
      <trkpt lat="43.17524" lon="5.85481">
        <ele>392.39999389648</ele>
        <time>2016-04-13T13:17:50.000Z</time>
      </trkpt>
      <trkpt lat="43.17524" lon="5.85496">
        <ele>393.39999389648</ele>
        <time>2016-04-13T13:17:52.000Z</time>
      </trkpt>
      <trkpt lat="43.17525" lon="5.85511">
        <ele>394</ele>
        <time>2016-04-13T13:17:54.000Z</time>
      </trkpt>
      <trkpt lat="43.17529" lon="5.85539">
        <ele>394.79998779297</ele>
        <time>2016-04-13T13:17:58.000Z</time>
      </trkpt>
      <trkpt lat="43.17532" lon="5.85554">
        <ele>394.79998779297</ele>
        <time>2016-04-13T13:18:00.000Z</time>
      </trkpt>
      <trkpt lat="43.17535" lon="5.85562">
        <ele>394.79998779297</ele>
        <time>2016-04-13T13:18:01.000Z</time>
      </trkpt>
      <trkpt lat="43.1755" lon="5.85594">
        <ele>392.79998779297</ele>
        <time>2016-04-13T13:18:06.000Z</time>
      </trkpt>
      <trkpt lat="43.17566" lon="5.85623">
        <ele>391</ele>
        <time>2016-04-13T13:18:12.000Z</time>
      </trkpt>
      <trkpt lat="43.17578" lon="5.8565">
        <ele>389.39999389648</ele>
        <time>2016-04-13T13:18:18.000Z</time>
      </trkpt>
      <trkpt lat="43.17583" lon="5.8568">
        <ele>389.79998779297</ele>
        <time>2016-04-13T13:18:24.000Z</time>
      </trkpt>
      <trkpt lat="43.17585" lon="5.85695">
        <ele>390</ele>
        <time>2016-04-13T13:18:27.000Z</time>
      </trkpt>
      <trkpt lat="43.17586" lon="5.85723">
        <ele>390.39999389648</ele>
        <time>2016-04-13T13:18:33.000Z</time>
      </trkpt>
      <trkpt lat="43.17583" lon="5.85756">
        <ele>390.20001220703</ele>
        <time>2016-04-13T13:18:39.000Z</time>
      </trkpt>
      <trkpt lat="43.17576" lon="5.85804">
        <ele>389.20001220703</ele>
        <time>2016-04-13T13:18:47.000Z</time>
      </trkpt>
      <trkpt lat="43.17573" lon="5.85826">
        <ele>388.60000610352</ele>
        <time>2016-04-13T13:18:51.000Z</time>
      </trkpt>
      <trkpt lat="43.17573" lon="5.85839">
        <ele>388.20001220703</ele>
        <time>2016-04-13T13:18:53.000Z</time>
      </trkpt>
      <trkpt lat="43.17577" lon="5.85895">
        <ele>383.79998779297</ele>
        <time>2016-04-13T13:19:01.000Z</time>
      </trkpt>
      <trkpt lat="43.17582" lon="5.85954">
        <ele>383.79998779297</ele>
        <time>2016-04-13T13:19:09.000Z</time>
      </trkpt>
      <trkpt lat="43.17577" lon="5.85975">
        <ele>381</ele>
        <time>2016-04-13T13:19:12.000Z</time>
      </trkpt>
      <trkpt lat="43.17575" lon="5.85982">
        <ele>380.20001220703</ele>
        <time>2016-04-13T13:19:13.000Z</time>
      </trkpt>
      <trkpt lat="43.17574" lon="5.85989">
        <ele>379.39999389648</ele>
        <time>2016-04-13T13:19:14.000Z</time>
      </trkpt>
      <trkpt lat="43.17574" lon="5.85996">
        <ele>378.79998779297</ele>
        <time>2016-04-13T13:19:15.000Z</time>
      </trkpt>
      <trkpt lat="43.17573" lon="5.86011">
        <ele>377.39999389648</ele>
        <time>2016-04-13T13:19:17.000Z</time>
      </trkpt>
      <trkpt lat="43.17572" lon="5.86018">
        <ele>376.60000610352</ele>
        <time>2016-04-13T13:19:18.000Z</time>
      </trkpt>
      <trkpt lat="43.1757" lon="5.86026">
        <ele>375.79998779297</ele>
        <time>2016-04-13T13:19:19.000Z</time>
      </trkpt>
      <trkpt lat="43.17564" lon="5.8604">
        <ele>373</ele>
        <time>2016-04-13T13:19:21.000Z</time>
      </trkpt>
      <trkpt lat="43.17561" lon="5.86047">
        <ele>371.39999389648</ele>
        <time>2016-04-13T13:19:22.000Z</time>
      </trkpt>
      <trkpt lat="43.17559" lon="5.86054">
        <ele>370</ele>
        <time>2016-04-13T13:19:23.000Z</time>
      </trkpt>
      <trkpt lat="43.17557" lon="5.86069">
        <ele>368</ele>
        <time>2016-04-13T13:19:25.000Z</time>
      </trkpt>
      <trkpt lat="43.17559" lon="5.86079">
        <ele>367.20001220703</ele>
        <time>2016-04-13T13:19:26.000Z</time>
      </trkpt>
      <trkpt lat="43.17561" lon="5.86089">
        <ele>366.60000610352</ele>
        <time>2016-04-13T13:19:27.000Z</time>
      </trkpt>
      <trkpt lat="43.17563" lon="5.86099">
        <ele>366</ele>
        <time>2016-04-13T13:19:28.000Z</time>
      </trkpt>
      <trkpt lat="43.17567" lon="5.86119">
        <ele>364</ele>
        <time>2016-04-13T13:19:30.000Z</time>
      </trkpt>
      <trkpt lat="43.17568" lon="5.86129">
        <ele>362.79998779297</ele>
        <time>2016-04-13T13:19:31.000Z</time>
      </trkpt>
      <trkpt lat="43.1757" lon="5.86138">
        <ele>361.60000610352</ele>
        <time>2016-04-13T13:19:32.000Z</time>
      </trkpt>
      <trkpt lat="43.17572" lon="5.86157">
        <ele>359.39999389648</ele>
        <time>2016-04-13T13:19:34.000Z</time>
      </trkpt>
      <trkpt lat="43.17573" lon="5.86173">
        <ele>357.39999389648</ele>
        <time>2016-04-13T13:19:36.000Z</time>
      </trkpt>
      <trkpt lat="43.17573" lon="5.86181">
        <ele>356.20001220703</ele>
        <time>2016-04-13T13:19:37.000Z</time>
      </trkpt>
      <trkpt lat="43.17572" lon="5.86189">
        <ele>354.79998779297</ele>
        <time>2016-04-13T13:19:38.000Z</time>
      </trkpt>
      <trkpt lat="43.17572" lon="5.86197">
        <ele>353.79998779297</ele>
        <time>2016-04-13T13:19:39.000Z</time>
      </trkpt>
      <trkpt lat="43.17573" lon="5.86206">
        <ele>353</ele>
        <time>2016-04-13T13:19:40.000Z</time>
      </trkpt>
      <trkpt lat="43.17576" lon="5.86216">
        <ele>352.60000610352</ele>
        <time>2016-04-13T13:19:41.000Z</time>
      </trkpt>
      <trkpt lat="43.17578" lon="5.86226">
        <ele>352</ele>
        <time>2016-04-13T13:19:42.000Z</time>
      </trkpt>
      <trkpt lat="43.17585" lon="5.86246">
        <ele>350.39999389648</ele>
        <time>2016-04-13T13:19:44.000Z</time>
      </trkpt>
      <trkpt lat="43.17587" lon="5.86257">
        <ele>349.39999389648</ele>
        <time>2016-04-13T13:19:45.000Z</time>
      </trkpt>
      <trkpt lat="43.17595" lon="5.86279">
        <ele>348</ele>
        <time>2016-04-13T13:19:47.000Z</time>
      </trkpt>
      <trkpt lat="43.17603" lon="5.86297">
        <ele>346.79998779297</ele>
        <time>2016-04-13T13:19:49.000Z</time>
      </trkpt>
      <trkpt lat="43.17608" lon="5.86306">
        <ele>346.20001220703</ele>
        <time>2016-04-13T13:19:50.000Z</time>
      </trkpt>
      <trkpt lat="43.17612" lon="5.86315">
        <ele>345</ele>
        <time>2016-04-13T13:19:51.000Z</time>
      </trkpt>
      <trkpt lat="43.17615" lon="5.86324">
        <ele>343.60000610352</ele>
        <time>2016-04-13T13:19:52.000Z</time>
      </trkpt>
      <trkpt lat="43.17619" lon="5.86333">
        <ele>342.20001220703</ele>
        <time>2016-04-13T13:19:53.000Z</time>
      </trkpt>
      <trkpt lat="43.17622" lon="5.86341">
        <ele>340.79998779297</ele>
        <time>2016-04-13T13:19:54.000Z</time>
      </trkpt>
      <trkpt lat="43.17625" lon="5.8635">
        <ele>339.39999389648</ele>
        <time>2016-04-13T13:19:55.000Z</time>
      </trkpt>
      <trkpt lat="43.17629" lon="5.86358">
        <ele>338.20001220703</ele>
        <time>2016-04-13T13:19:56.000Z</time>
      </trkpt>
      <trkpt lat="43.17633" lon="5.86367">
        <ele>337</ele>
        <time>2016-04-13T13:19:57.000Z</time>
      </trkpt>
      <trkpt lat="43.17637" lon="5.86374">
        <ele>336.20001220703</ele>
        <time>2016-04-13T13:19:58.000Z</time>
      </trkpt>
      <trkpt lat="43.17647" lon="5.86389">
        <ele>334.60000610352</ele>
        <time>2016-04-13T13:20:00.000Z</time>
      </trkpt>
      <trkpt lat="43.17658" lon="5.86402">
        <ele>334.39999389648</ele>
        <time>2016-04-13T13:20:02.000Z</time>
      </trkpt>
      <trkpt lat="43.17664" lon="5.86407">
        <ele>334.60000610352</ele>
        <time>2016-04-13T13:20:03.000Z</time>
      </trkpt>
      <trkpt lat="43.1767" lon="5.86412">
        <ele>334.79998779297</ele>
        <time>2016-04-13T13:20:04.000Z</time>
      </trkpt>
      <trkpt lat="43.17675" lon="5.86417">
        <ele>334.79998779297</ele>
        <time>2016-04-13T13:20:05.000Z</time>
      </trkpt>
      <trkpt lat="43.17678" lon="5.86423">
        <ele>334.39999389648</ele>
        <time>2016-04-13T13:20:06.000Z</time>
      </trkpt>
      <trkpt lat="43.1768" lon="5.8643">
        <ele>333.60000610352</ele>
        <time>2016-04-13T13:20:07.000Z</time>
      </trkpt>
      <trkpt lat="43.17682" lon="5.86439">
        <ele>332.60000610352</ele>
        <time>2016-04-13T13:20:08.000Z</time>
      </trkpt>
      <trkpt lat="43.17684" lon="5.86447">
        <ele>331.39999389648</ele>
        <time>2016-04-13T13:20:09.000Z</time>
      </trkpt>
      <trkpt lat="43.17685" lon="5.86457">
        <ele>330</ele>
        <time>2016-04-13T13:20:10.000Z</time>
      </trkpt>
      <trkpt lat="43.17686" lon="5.86467">
        <ele>328.39999389648</ele>
        <time>2016-04-13T13:20:11.000Z</time>
      </trkpt>
      <trkpt lat="43.17687" lon="5.86489">
        <ele>324.60000610352</ele>
        <time>2016-04-13T13:20:13.000Z</time>
      </trkpt>
      <trkpt lat="43.17687" lon="5.86499">
        <ele>322.79998779297</ele>
        <time>2016-04-13T13:20:14.000Z</time>
      </trkpt>
      <trkpt lat="43.17688" lon="5.8651">
        <ele>321.20001220703</ele>
        <time>2016-04-13T13:20:15.000Z</time>
      </trkpt>
      <trkpt lat="43.1769" lon="5.8652">
        <ele>319.60000610352</ele>
        <time>2016-04-13T13:20:16.000Z</time>
      </trkpt>
      <trkpt lat="43.17692" lon="5.86528">
        <ele>318.60000610352</ele>
        <time>2016-04-13T13:20:17.000Z</time>
      </trkpt>
      <trkpt lat="43.17694" lon="5.86536">
        <ele>317.60000610352</ele>
        <time>2016-04-13T13:20:18.000Z</time>
      </trkpt>
      <trkpt lat="43.17697" lon="5.86543">
        <ele>316.79998779297</ele>
        <time>2016-04-13T13:20:19.000Z</time>
      </trkpt>
      <trkpt lat="43.177" lon="5.8655">
        <ele>316</ele>
        <time>2016-04-13T13:20:20.000Z</time>
      </trkpt>
      <trkpt lat="43.17703" lon="5.86555">
        <ele>315.60000610352</ele>
        <time>2016-04-13T13:20:21.000Z</time>
      </trkpt>
      <trkpt lat="43.17707" lon="5.8656">
        <ele>315.60000610352</ele>
        <time>2016-04-13T13:20:22.000Z</time>
      </trkpt>
      <trkpt lat="43.17714" lon="5.8657">
        <ele>315.60000610352</ele>
        <time>2016-04-13T13:20:24.000Z</time>
      </trkpt>
      <trkpt lat="43.17722" lon="5.86576">
        <ele>316.20001220703</ele>
        <time>2016-04-13T13:20:26.000Z</time>
      </trkpt>
      <trkpt lat="43.17726" lon="5.8658">
        <ele>316.20001220703</ele>
        <time>2016-04-13T13:20:27.000Z</time>
      </trkpt>
      <trkpt lat="43.1773" lon="5.86586">
        <ele>316</ele>
        <time>2016-04-13T13:20:28.000Z</time>
      </trkpt>
      <trkpt lat="43.17734" lon="5.86599">
        <ele>314.79998779297</ele>
        <time>2016-04-13T13:20:30.000Z</time>
      </trkpt>
      <trkpt lat="43.17735" lon="5.86605">
        <ele>314.20001220703</ele>
        <time>2016-04-13T13:20:31.000Z</time>
      </trkpt>
      <trkpt lat="43.17736" lon="5.8661">
        <ele>313.60000610352</ele>
        <time>2016-04-13T13:20:32.000Z</time>
      </trkpt>
      <trkpt lat="43.17736" lon="5.86618">
        <ele>312.60000610352</ele>
        <time>2016-04-13T13:20:34.000Z</time>
      </trkpt>
      <trkpt lat="43.17739" lon="5.86622">
        <ele>312.60000610352</ele>
        <time>2016-04-13T13:22:27.000Z</time>
      </trkpt>
      <trkpt lat="43.17741" lon="5.86627">
        <ele>312</ele>
        <time>2016-04-13T13:22:28.000Z</time>
      </trkpt>
      <trkpt lat="43.17742" lon="5.86651">
        <ele>309.20001220703</ele>
        <time>2016-04-13T13:22:31.000Z</time>
      </trkpt>
      <trkpt lat="43.1774" lon="5.86659">
        <ele>308</ele>
        <time>2016-04-13T13:22:32.000Z</time>
      </trkpt>
      <trkpt lat="43.17733" lon="5.8668">
        <ele>304.60000610352</ele>
        <time>2016-04-13T13:22:35.000Z</time>
      </trkpt>
      <trkpt lat="43.17734" lon="5.86687">
        <ele>304.20001220703</ele>
        <time>2016-04-13T13:22:36.000Z</time>
      </trkpt>
      <trkpt lat="43.17745" lon="5.86701">
        <ele>305</ele>
        <time>2016-04-13T13:22:39.000Z</time>
      </trkpt>
      <trkpt lat="43.17749" lon="5.86705">
        <ele>305.39999389648</ele>
        <time>2016-04-13T13:22:40.000Z</time>
      </trkpt>
      <trkpt lat="43.17761" lon="5.86719">
        <ele>306.20001220703</ele>
        <time>2016-04-13T13:22:44.000Z</time>
      </trkpt>
      <trkpt lat="43.17762" lon="5.86723">
        <ele>306</ele>
        <time>2016-04-13T13:22:45.000Z</time>
      </trkpt>
      <trkpt lat="43.17762" lon="5.86733">
        <ele>305.20001220703</ele>
        <time>2016-04-13T13:22:48.000Z</time>
      </trkpt>
      <trkpt lat="43.17762" lon="5.86737">
        <ele>304.79998779297</ele>
        <time>2016-04-13T13:22:50.000Z</time>
      </trkpt>
      <trkpt lat="43.17765" lon="5.86742">
        <ele>304.39999389648</ele>
        <time>2016-04-13T13:24:00.000Z</time>
      </trkpt>
      <trkpt lat="43.17767" lon="5.86756">
        <ele>303.39999389648</ele>
        <time>2016-04-13T13:24:04.000Z</time>
      </trkpt>
      <trkpt lat="43.17767" lon="5.8676">
        <ele>303</ele>
        <time>2016-04-13T13:24:05.000Z</time>
      </trkpt>
      <trkpt lat="43.17763" lon="5.86777">
        <ele>301</ele>
        <time>2016-04-13T13:24:08.000Z</time>
      </trkpt>
      <trkpt lat="43.1776" lon="5.86783">
        <ele>300</ele>
        <time>2016-04-13T13:24:09.000Z</time>
      </trkpt>
      <trkpt lat="43.17753" lon="5.86795">
        <ele>297.79998779297</ele>
        <time>2016-04-13T13:24:11.000Z</time>
      </trkpt>
      <trkpt lat="43.17749" lon="5.86802">
        <ele>296.79998779297</ele>
        <time>2016-04-13T13:24:12.000Z</time>
      </trkpt>
      <trkpt lat="43.17741" lon="5.86815">
        <ele>295.20001220703</ele>
        <time>2016-04-13T13:24:14.000Z</time>
      </trkpt>
      <trkpt lat="43.1773" lon="5.86836">
        <ele>292.79998779297</ele>
        <time>2016-04-13T13:24:17.000Z</time>
      </trkpt>
      <trkpt lat="43.17726" lon="5.86842">
        <ele>292</ele>
        <time>2016-04-13T13:24:18.000Z</time>
      </trkpt>
      <trkpt lat="43.17722" lon="5.86849">
        <ele>291.20001220703</ele>
        <time>2016-04-13T13:24:19.000Z</time>
      </trkpt>
      <trkpt lat="43.17714" lon="5.86861">
        <ele>290.79998779297</ele>
        <time>2016-04-13T13:24:21.000Z</time>
      </trkpt>
      <trkpt lat="43.17707" lon="5.86875">
        <ele>290.39999389648</ele>
        <time>2016-04-13T13:24:23.000Z</time>
      </trkpt>
      <trkpt lat="43.177" lon="5.86888">
        <ele>290</ele>
        <time>2016-04-13T13:24:25.000Z</time>
      </trkpt>
      <trkpt lat="43.17693" lon="5.86899">
        <ele>289.39999389648</ele>
        <time>2016-04-13T13:24:27.000Z</time>
      </trkpt>
      <trkpt lat="43.17687" lon="5.8691">
        <ele>289.20001220703</ele>
        <time>2016-04-13T13:24:29.000Z</time>
      </trkpt>
      <trkpt lat="43.17684" lon="5.86915">
        <ele>289.39999389648</ele>
        <time>2016-04-13T13:24:30.000Z</time>
      </trkpt>
      <trkpt lat="43.17679" lon="5.86923">
        <ele>289.39999389648</ele>
        <time>2016-04-13T13:24:32.000Z</time>
      </trkpt>
      <trkpt lat="43.17675" lon="5.86929">
        <ele>289.39999389648</ele>
        <time>2016-04-13T13:24:34.000Z</time>
      </trkpt>
      <trkpt lat="43.17674" lon="5.86931">
        <ele>289.39999389648</ele>
        <time>2016-04-13T13:24:35.000Z</time>
      </trkpt>
      <trkpt lat="43.17672" lon="5.86932">
        <ele>289.39999389648</ele>
        <time>2016-04-13T13:24:36.000Z</time>
      </trkpt>
      <trkpt lat="43.17665" lon="5.86932">
        <ele>289</ele>
        <time>2016-04-13T13:24:39.000Z</time>
      </trkpt>
      <trkpt lat="43.17648" lon="5.86921">
        <ele>288.39999389648</ele>
        <time>2016-04-13T13:24:44.000Z</time>
      </trkpt>
      <trkpt lat="43.17631" lon="5.86907">
        <ele>287.60000610352</ele>
        <time>2016-04-13T13:24:49.000Z</time>
      </trkpt>
      <trkpt lat="43.17621" lon="5.86899">
        <ele>287</ele>
        <time>2016-04-13T13:24:52.000Z</time>
      </trkpt>
      <trkpt lat="43.17587" lon="5.86872">
        <ele>285.79998779297</ele>
        <time>2016-04-13T13:25:02.000Z</time>
      </trkpt>
      <trkpt lat="43.1756" lon="5.86846">
        <ele>285.79998779297</ele>
        <time>2016-04-13T13:25:10.000Z</time>
      </trkpt>
      <trkpt lat="43.17523" lon="5.86809">
        <ele>285.79998779297</ele>
        <time>2016-04-13T13:25:20.000Z</time>
      </trkpt>
      <trkpt lat="43.17501" lon="5.86774">
        <ele>285.39999389648</ele>
        <time>2016-04-13T13:25:27.000Z</time>
      </trkpt>
      <trkpt lat="43.17499" lon="5.86769">
        <ele>285.20001220703</ele>
        <time>2016-04-13T13:25:28.000Z</time>
      </trkpt>
      <trkpt lat="43.17477" lon="5.86732">
        <ele>284.20001220703</ele>
        <time>2016-04-13T13:25:36.000Z</time>
      </trkpt>
      <trkpt lat="43.17473" lon="5.86728">
        <ele>284.20001220703</ele>
        <time>2016-04-13T13:25:37.000Z</time>
      </trkpt>
      <trkpt lat="43.17454" lon="5.8672">
        <ele>283.60000610352</ele>
        <time>2016-04-13T13:25:42.000Z</time>
      </trkpt>
      <trkpt lat="43.17442" lon="5.86723">
        <ele>283.39999389648</ele>
        <time>2016-04-13T13:25:45.000Z</time>
      </trkpt>
      <trkpt lat="43.17431" lon="5.86727">
        <ele>283.20001220703</ele>
        <time>2016-04-13T13:25:48.000Z</time>
      </trkpt>
      <trkpt lat="43.17404" lon="5.86736">
        <ele>283</ele>
        <time>2016-04-13T13:25:55.000Z</time>
      </trkpt>
      <trkpt lat="43.17401" lon="5.86739">
        <ele>283</ele>
        <time>2016-04-13T13:25:56.000Z</time>
      </trkpt>
      <trkpt lat="43.17391" lon="5.86748">
        <ele>283.20001220703</ele>
        <time>2016-04-13T13:26:00.000Z</time>
      </trkpt>
      <trkpt lat="43.17389" lon="5.86749">
        <ele>283.20001220703</ele>
        <time>2016-04-13T13:27:16.000Z</time>
      </trkpt>
      <trkpt lat="43.17387" lon="5.86749">
        <ele>283.20001220703</ele>
        <time>2016-04-13T13:27:17.000Z</time>
      </trkpt>
      <trkpt lat="43.1737" lon="5.86757">
        <ele>283.39999389648</ele>
        <time>2016-04-13T13:27:22.000Z</time>
      </trkpt>
      <trkpt lat="43.1734" lon="5.86761">
        <ele>283.79998779297</ele>
        <time>2016-04-13T13:27:28.000Z</time>
      </trkpt>
      <trkpt lat="43.17334" lon="5.86761">
        <ele>283.60000610352</ele>
        <time>2016-04-13T13:27:29.000Z</time>
      </trkpt>
      <trkpt lat="43.17306" lon="5.8676">
        <ele>283.39999389648</ele>
        <time>2016-04-13T13:27:35.000Z</time>
      </trkpt>
      <trkpt lat="43.17285" lon="5.86762">
        <ele>282.79998779297</ele>
        <time>2016-04-13T13:27:41.000Z</time>
      </trkpt>
      <trkpt lat="43.17283" lon="5.86763">
        <ele>282.79998779297</ele>
        <time>2016-04-13T13:27:42.000Z</time>
      </trkpt>
      <trkpt lat="43.17279" lon="5.86766">
        <ele>282.60000610352</ele>
        <time>2016-04-13T13:27:44.000Z</time>
      </trkpt>
      <trkpt lat="43.17278" lon="5.8677">
        <ele>282.79998779297</ele>
        <time>2016-04-13T13:27:45.000Z</time>
      </trkpt>
      <trkpt lat="43.17278" lon="5.86775">
        <ele>282.79998779297</ele>
        <time>2016-04-13T13:27:46.000Z</time>
      </trkpt>
      <trkpt lat="43.17281" lon="5.86793">
        <ele>283.39999389648</ele>
        <time>2016-04-13T13:27:49.000Z</time>
      </trkpt>
      <trkpt lat="43.17283" lon="5.86804">
        <ele>283.79998779297</ele>
        <time>2016-04-13T13:27:51.000Z</time>
      </trkpt>
      <trkpt lat="43.17287" lon="5.86826">
        <ele>284.79998779297</ele>
        <time>2016-04-13T13:27:55.000Z</time>
      </trkpt>
      <trkpt lat="43.17291" lon="5.86848">
        <ele>286</ele>
        <time>2016-04-13T13:27:59.000Z</time>
      </trkpt>
      <trkpt lat="43.17292" lon="5.86853">
        <ele>286.20001220703</ele>
        <time>2016-04-13T13:28:00.000Z</time>
      </trkpt>
      <trkpt lat="43.17295" lon="5.86869">
        <ele>286.79998779297</ele>
        <time>2016-04-13T13:28:03.000Z</time>
      </trkpt>
      <trkpt lat="43.17304" lon="5.86903">
        <ele>288</ele>
        <time>2016-04-13T13:28:10.000Z</time>
      </trkpt>
      <trkpt lat="43.17305" lon="5.86907">
        <ele>288.20001220703</ele>
        <time>2016-04-13T13:28:11.000Z</time>
      </trkpt>
      <trkpt lat="43.17315" lon="5.86936">
        <ele>288.60000610352</ele>
        <time>2016-04-13T13:28:18.000Z</time>
      </trkpt>
      <trkpt lat="43.17324" lon="5.86964">
        <ele>288.79998779297</ele>
        <time>2016-04-13T13:28:25.000Z</time>
      </trkpt>
      <trkpt lat="43.17326" lon="5.86972">
        <ele>289</ele>
        <time>2016-04-13T13:28:27.000Z</time>
      </trkpt>
      <trkpt lat="43.17329" lon="5.86995">
        <ele>289.39999389648</ele>
        <time>2016-04-13T13:28:33.000Z</time>
      </trkpt>
      <trkpt lat="43.17333" lon="5.87004">
        <ele>289.60000610352</ele>
        <time>2016-04-13T13:28:36.000Z</time>
      </trkpt>
      <trkpt lat="43.17341" lon="5.87019">
        <ele>290.39999389648</ele>
        <time>2016-04-13T13:28:41.000Z</time>
      </trkpt>
      <trkpt lat="43.17349" lon="5.87035">
        <ele>291</ele>
        <time>2016-04-13T13:28:47.000Z</time>
      </trkpt>
      <trkpt lat="43.17351" lon="5.87041">
        <ele>291.20001220703</ele>
        <time>2016-04-13T13:28:49.000Z</time>
      </trkpt>
      <trkpt lat="43.17357" lon="5.87054">
        <ele>291.60000610352</ele>
        <time>2016-04-13T13:28:54.000Z</time>
      </trkpt>
      <trkpt lat="43.17365" lon="5.8707">
        <ele>292.60000610352</ele>
        <time>2016-04-13T13:29:01.000Z</time>
      </trkpt>
      <trkpt lat="43.17366" lon="5.87083">
        <ele>293.20001220703</ele>
        <time>2016-04-13T13:29:07.000Z</time>
      </trkpt>
      <trkpt lat="43.17367" lon="5.87084">
        <ele>293.20001220703</ele>
        <time>2016-04-13T13:29:08.000Z</time>
      </trkpt>
      <trkpt lat="43.1737" lon="5.87085">
        <ele>293.39999389648</ele>
        <time>2016-04-13T13:29:10.000Z</time>
      </trkpt>
      <trkpt lat="43.1737" lon="5.87081">
        <ele>293.39999389648</ele>
        <time>2016-04-13T13:29:12.000Z</time>
      </trkpt>
      <trkpt lat="43.17369" lon="5.87075">
        <ele>293</ele>
        <time>2016-04-13T13:29:14.000Z</time>
      </trkpt>
      <trkpt lat="43.17367" lon="5.87063">
        <ele>292.39999389648</ele>
        <time>2016-04-13T13:29:17.000Z</time>
      </trkpt>
      <trkpt lat="43.17356" lon="5.8705">
        <ele>291.39999389648</ele>
        <time>2016-04-13T13:29:22.000Z</time>
      </trkpt>
      <trkpt lat="43.17345" lon="5.87029">
        <ele>290.79998779297</ele>
        <time>2016-04-13T13:29:29.000Z</time>
      </trkpt>
      <trkpt lat="43.17341" lon="5.87017">
        <ele>290.39999389648</ele>
        <time>2016-04-13T13:29:35.000Z</time>
      </trkpt>
      <trkpt lat="43.1734" lon="5.87016">
        <ele>290.20001220703</ele>
        <time>2016-04-13T13:29:36.000Z</time>
      </trkpt>
      <trkpt lat="43.17338" lon="5.87011">
        <ele>290</ele>
        <time>2016-04-13T13:29:51.000Z</time>
      </trkpt>
      <trkpt lat="43.17337" lon="5.87009">
        <ele>290</ele>
        <time>2016-04-13T13:29:52.000Z</time>
      </trkpt>
      <trkpt lat="43.1733" lon="5.86988">
        <ele>289.39999389648</ele>
        <time>2016-04-13T13:29:58.000Z</time>
      </trkpt>
      <trkpt lat="43.1732" lon="5.86951">
        <ele>288.79998779297</ele>
        <time>2016-04-13T13:30:05.000Z</time>
      </trkpt>
      <trkpt lat="43.17316" lon="5.86936">
        <ele>288.60000610352</ele>
        <time>2016-04-13T13:30:08.000Z</time>
      </trkpt>
      <trkpt lat="43.17311" lon="5.86914">
        <ele>288.39999389648</ele>
        <time>2016-04-13T13:30:12.000Z</time>
      </trkpt>
      <trkpt lat="43.17303" lon="5.86887">
        <ele>288</ele>
        <time>2016-04-13T13:30:18.000Z</time>
      </trkpt>
      <trkpt lat="43.17302" lon="5.86883">
        <ele>287.79998779297</ele>
        <time>2016-04-13T13:30:19.000Z</time>
      </trkpt>
      <trkpt lat="43.17295" lon="5.86854">
        <ele>286.39999389648</ele>
        <time>2016-04-13T13:30:25.000Z</time>
      </trkpt>
      <trkpt lat="43.17294" lon="5.86849">
        <ele>286.20001220703</ele>
        <time>2016-04-13T13:30:26.000Z</time>
      </trkpt>
      <trkpt lat="43.17288" lon="5.86813">
        <ele>284.39999389648</ele>
        <time>2016-04-13T13:30:32.000Z</time>
      </trkpt>
      <trkpt lat="43.17283" lon="5.86783">
        <ele>283.20001220703</ele>
        <time>2016-04-13T13:30:36.000Z</time>
      </trkpt>
      <trkpt lat="43.1728" lon="5.86767">
        <ele>282.79998779297</ele>
        <time>2016-04-13T13:30:38.000Z</time>
      </trkpt>
      <trkpt lat="43.17277" lon="5.8675">
        <ele>282.20001220703</ele>
        <time>2016-04-13T13:30:40.000Z</time>
      </trkpt>
      <trkpt lat="43.1727" lon="5.86715">
        <ele>282</ele>
        <time>2016-04-13T13:30:45.000Z</time>
      </trkpt>
      <trkpt lat="43.17268" lon="5.8671">
        <ele>282.60000610352</ele>
        <time>2016-04-13T13:30:46.000Z</time>
      </trkpt>
      <trkpt lat="43.17261" lon="5.86694">
        <ele>284.39999389648</ele>
        <time>2016-04-13T13:30:49.000Z</time>
      </trkpt>
      <trkpt lat="43.17258" lon="5.8669">
        <ele>285</ele>
        <time>2016-04-13T13:30:50.000Z</time>
      </trkpt>
      <trkpt lat="43.17236" lon="5.86674">
        <ele>287</ele>
        <time>2016-04-13T13:30:55.000Z</time>
      </trkpt>
      <trkpt lat="43.17231" lon="5.86671">
        <ele>287.20001220703</ele>
        <time>2016-04-13T13:30:56.000Z</time>
      </trkpt>
      <trkpt lat="43.17201" lon="5.86654">
        <ele>289.20001220703</ele>
        <time>2016-04-13T13:31:02.000Z</time>
      </trkpt>
      <trkpt lat="43.17186" lon="5.86646">
        <ele>290.20001220703</ele>
        <time>2016-04-13T13:31:05.000Z</time>
      </trkpt>
      <trkpt lat="43.17171" lon="5.86638">
        <ele>292</ele>
        <time>2016-04-13T13:31:08.000Z</time>
      </trkpt>
      <trkpt lat="43.17152" lon="5.8663">
        <ele>294.60000610352</ele>
        <time>2016-04-13T13:31:12.000Z</time>
      </trkpt>
      <trkpt lat="43.17147" lon="5.8663">
        <ele>295.39999389648</ele>
        <time>2016-04-13T13:31:13.000Z</time>
      </trkpt>
      <trkpt lat="43.17128" lon="5.86645">
        <ele>298</ele>
        <time>2016-04-13T13:31:17.000Z</time>
      </trkpt>
      <trkpt lat="43.17121" lon="5.86665">
        <ele>298</ele>
        <time>2016-04-13T13:31:20.000Z</time>
      </trkpt>
      <trkpt lat="43.17116" lon="5.86695">
        <ele>298</ele>
        <time>2016-04-13T13:31:24.000Z</time>
      </trkpt>
      <trkpt lat="43.17113" lon="5.86709">
        <ele>298.20001220703</ele>
        <time>2016-04-13T13:31:26.000Z</time>
      </trkpt>
      <trkpt lat="43.17111" lon="5.86716">
        <ele>298.39999389648</ele>
        <time>2016-04-13T13:31:27.000Z</time>
      </trkpt>
      <trkpt lat="43.17108" lon="5.86723">
        <ele>298.60000610352</ele>
        <time>2016-04-13T13:31:28.000Z</time>
      </trkpt>
      <trkpt lat="43.17098" lon="5.86741">
        <ele>299.20001220703</ele>
        <time>2016-04-13T13:31:31.000Z</time>
      </trkpt>
      <trkpt lat="43.17091" lon="5.86753">
        <ele>299.39999389648</ele>
        <time>2016-04-13T13:31:33.000Z</time>
      </trkpt>
      <trkpt lat="43.17073" lon="5.8679">
        <ele>298</ele>
        <time>2016-04-13T13:31:39.000Z</time>
      </trkpt>
      <trkpt lat="43.17062" lon="5.86811">
        <ele>296.39999389648</ele>
        <time>2016-04-13T13:31:43.000Z</time>
      </trkpt>
      <trkpt lat="43.1705" lon="5.86825">
        <ele>295.79998779297</ele>
        <time>2016-04-13T13:31:46.000Z</time>
      </trkpt>
      <trkpt lat="43.17045" lon="5.86827">
        <ele>295.79998779297</ele>
        <time>2016-04-13T13:31:47.000Z</time>
      </trkpt>
      <trkpt lat="43.17035" lon="5.86825">
        <ele>296.20001220703</ele>
        <time>2016-04-13T13:31:49.000Z</time>
      </trkpt>
      <trkpt lat="43.1703" lon="5.86821">
        <ele>296.39999389648</ele>
        <time>2016-04-13T13:31:50.000Z</time>
      </trkpt>
      <trkpt lat="43.17022" lon="5.86812">
        <ele>297.39999389648</ele>
        <time>2016-04-13T13:31:52.000Z</time>
      </trkpt>
      <trkpt lat="43.17014" lon="5.86792">
        <ele>299.20001220703</ele>
        <time>2016-04-13T13:31:55.000Z</time>
      </trkpt>
      <trkpt lat="43.17012" lon="5.86785">
        <ele>300</ele>
        <time>2016-04-13T13:31:56.000Z</time>
      </trkpt>
      <trkpt lat="43.17009" lon="5.86779">
        <ele>300.39999389648</ele>
        <time>2016-04-13T13:31:57.000Z</time>
      </trkpt>
      <trkpt lat="43.16996" lon="5.86737">
        <ele>302.20001220703</ele>
        <time>2016-04-13T13:32:03.000Z</time>
      </trkpt>
      <trkpt lat="43.16985" lon="5.86702">
        <ele>303.60000610352</ele>
        <time>2016-04-13T13:32:08.000Z</time>
      </trkpt>
      <trkpt lat="43.16975" lon="5.86675">
        <ele>304.39999389648</ele>
        <time>2016-04-13T13:32:12.000Z</time>
      </trkpt>
      <trkpt lat="43.16972" lon="5.86668">
        <ele>304.60000610352</ele>
        <time>2016-04-13T13:32:13.000Z</time>
      </trkpt>
      <trkpt lat="43.1696" lon="5.86634">
        <ele>306</ele>
        <time>2016-04-13T13:32:18.000Z</time>
      </trkpt>
      <trkpt lat="43.16958" lon="5.86627">
        <ele>306.39999389648</ele>
        <time>2016-04-13T13:32:19.000Z</time>
      </trkpt>
      <trkpt lat="43.16944" lon="5.86596">
        <ele>307.39999389648</ele>
        <time>2016-04-13T13:32:24.000Z</time>
      </trkpt>
      <trkpt lat="43.16936" lon="5.86586">
        <ele>307.20001220703</ele>
        <time>2016-04-13T13:32:26.000Z</time>
      </trkpt>
      <trkpt lat="43.16928" lon="5.86576">
        <ele>307</ele>
        <time>2016-04-13T13:32:28.000Z</time>
      </trkpt>
      <trkpt lat="43.16913" lon="5.86554">
        <ele>304.79998779297</ele>
        <time>2016-04-13T13:32:32.000Z</time>
      </trkpt>
      <trkpt lat="43.16898" lon="5.86524">
        <ele>303.79998779297</ele>
        <time>2016-04-13T13:32:37.000Z</time>
      </trkpt>
      <trkpt lat="43.16895" lon="5.86518">
        <ele>303.60000610352</ele>
        <time>2016-04-13T13:32:38.000Z</time>
      </trkpt>
      <trkpt lat="43.16883" lon="5.86484">
        <ele>304.79998779297</ele>
        <time>2016-04-13T13:32:43.000Z</time>
      </trkpt>
      <trkpt lat="43.16881" lon="5.8647">
        <ele>306</ele>
        <time>2016-04-13T13:32:45.000Z</time>
      </trkpt>
      <trkpt lat="43.16877" lon="5.86442">
        <ele>307.60000610352</ele>
        <time>2016-04-13T13:32:49.000Z</time>
      </trkpt>
      <trkpt lat="43.16874" lon="5.86421">
        <ele>308.79998779297</ele>
        <time>2016-04-13T13:32:52.000Z</time>
      </trkpt>
      <trkpt lat="43.16872" lon="5.86414">
        <ele>309.20001220703</ele>
        <time>2016-04-13T13:32:53.000Z</time>
      </trkpt>
      <trkpt lat="43.16868" lon="5.86401">
        <ele>309.79998779297</ele>
        <time>2016-04-13T13:32:55.000Z</time>
      </trkpt>
      <trkpt lat="43.16864" lon="5.86387">
        <ele>309.79998779297</ele>
        <time>2016-04-13T13:32:57.000Z</time>
      </trkpt>
      <trkpt lat="43.16862" lon="5.86381">
        <ele>309.20001220703</ele>
        <time>2016-04-13T13:32:58.000Z</time>
      </trkpt>
      <trkpt lat="43.16857" lon="5.86368">
        <ele>308.20001220703</ele>
        <time>2016-04-13T13:33:00.000Z</time>
      </trkpt>
      <trkpt lat="43.16855" lon="5.86355">
        <ele>307.79998779297</ele>
        <time>2016-04-13T13:33:02.000Z</time>
      </trkpt>
      <trkpt lat="43.16854" lon="5.86341">
        <ele>308</ele>
        <time>2016-04-13T13:33:04.000Z</time>
      </trkpt>
      <trkpt lat="43.16855" lon="5.8631">
        <ele>310</ele>
        <time>2016-04-13T13:33:08.000Z</time>
      </trkpt>
      <trkpt lat="43.16855" lon="5.86302">
        <ele>310.60000610352</ele>
        <time>2016-04-13T13:33:09.000Z</time>
      </trkpt>
      <trkpt lat="43.16856" lon="5.86251">
        <ele>314.39999389648</ele>
        <time>2016-04-13T13:33:16.000Z</time>
      </trkpt>
      <trkpt lat="43.16856" lon="5.86243">
        <ele>314.39999389648</ele>
        <time>2016-04-13T13:33:17.000Z</time>
      </trkpt>
      <trkpt lat="43.16851" lon="5.86222">
        <ele>313.60000610352</ele>
        <time>2016-04-13T13:33:20.000Z</time>
      </trkpt>
      <trkpt lat="43.16848" lon="5.86216">
        <ele>313.39999389648</ele>
        <time>2016-04-13T13:33:21.000Z</time>
      </trkpt>
      <trkpt lat="43.16846" lon="5.86209">
        <ele>313.39999389648</ele>
        <time>2016-04-13T13:33:22.000Z</time>
      </trkpt>
      <trkpt lat="43.16826" lon="5.86156">
        <ele>311.60000610352</ele>
        <time>2016-04-13T13:33:30.000Z</time>
      </trkpt>
      <trkpt lat="43.16804" lon="5.86098">
        <ele>305.79998779297</ele>
        <time>2016-04-13T13:33:39.000Z</time>
      </trkpt>
      <trkpt lat="43.16805" lon="5.86069">
        <ele>308.39999389648</ele>
        <time>2016-04-13T13:33:43.000Z</time>
      </trkpt>
      <trkpt lat="43.16805" lon="5.86062">
        <ele>309.20001220703</ele>
        <time>2016-04-13T13:33:44.000Z</time>
      </trkpt>
      <trkpt lat="43.16813" lon="5.85998">
        <ele>314.39999389648</ele>
        <time>2016-04-13T13:33:53.000Z</time>
      </trkpt>
      <trkpt lat="43.16813" lon="5.85977">
        <ele>315</ele>
        <time>2016-04-13T13:33:56.000Z</time>
      </trkpt>
      <trkpt lat="43.16811" lon="5.85964">
        <ele>315</ele>
        <time>2016-04-13T13:33:58.000Z</time>
      </trkpt>
      <trkpt lat="43.16803" lon="5.85944">
        <ele>314.20001220703</ele>
        <time>2016-04-13T13:34:01.000Z</time>
      </trkpt>
      <trkpt lat="43.16797" lon="5.85932">
        <ele>313</ele>
        <time>2016-04-13T13:34:03.000Z</time>
      </trkpt>
      <trkpt lat="43.16771" lon="5.85889">
        <ele>306.20001220703</ele>
        <time>2016-04-13T13:34:10.000Z</time>
      </trkpt>
      <trkpt lat="43.16756" lon="5.85847">
        <ele>303.39999389648</ele>
        <time>2016-04-13T13:34:16.000Z</time>
      </trkpt>
      <trkpt lat="43.16757" lon="5.85818">
        <ele>307.20001220703</ele>
        <time>2016-04-13T13:34:20.000Z</time>
      </trkpt>
      <trkpt lat="43.16758" lon="5.85811">
        <ele>308.79998779297</ele>
        <time>2016-04-13T13:34:21.000Z</time>
      </trkpt>
      <trkpt lat="43.16768" lon="5.85763">
        <ele>313.20001220703</ele>
        <time>2016-04-13T13:34:28.000Z</time>
      </trkpt>
      <trkpt lat="43.16776" lon="5.85705">
        <ele>318</ele>
        <time>2016-04-13T13:34:36.000Z</time>
      </trkpt>
      <trkpt lat="43.16776" lon="5.85691">
        <ele>319</ele>
        <time>2016-04-13T13:34:38.000Z</time>
      </trkpt>
      <trkpt lat="43.16772" lon="5.85671">
        <ele>319.20001220703</ele>
        <time>2016-04-13T13:34:41.000Z</time>
      </trkpt>
      <trkpt lat="43.16756" lon="5.8565">
        <ele>314.79998779297</ele>
        <time>2016-04-13T13:34:45.000Z</time>
      </trkpt>
      <trkpt lat="43.16751" lon="5.85646">
        <ele>314</ele>
        <time>2016-04-13T13:34:46.000Z</time>
      </trkpt>
      <trkpt lat="43.16714" lon="5.85613">
        <ele>317</ele>
        <time>2016-04-13T13:34:54.000Z</time>
      </trkpt>
      <trkpt lat="43.16699" lon="5.85607">
        <ele>316.20001220703</ele>
        <time>2016-04-13T13:34:57.000Z</time>
      </trkpt>
      <trkpt lat="43.16686" lon="5.85608">
        <ele>312.39999389648</ele>
        <time>2016-04-13T13:34:59.000Z</time>
      </trkpt>
      <trkpt lat="43.16673" lon="5.85612">
        <ele>308.39999389648</ele>
        <time>2016-04-13T13:35:01.000Z</time>
      </trkpt>
      <trkpt lat="43.16641" lon="5.85618">
        <ele>303.20001220703</ele>
        <time>2016-04-13T13:35:07.000Z</time>
      </trkpt>
      <trkpt lat="43.16605" lon="5.85614">
        <ele>302.79998779297</ele>
        <time>2016-04-13T13:35:14.000Z</time>
      </trkpt>
      <trkpt lat="43.16591" lon="5.85606">
        <ele>304.39999389648</ele>
        <time>2016-04-13T13:35:17.000Z</time>
      </trkpt>
      <trkpt lat="43.16578" lon="5.85598">
        <ele>304.79998779297</ele>
        <time>2016-04-13T13:35:20.000Z</time>
      </trkpt>
      <trkpt lat="43.1654" lon="5.85577">
        <ele>304.39999389648</ele>
        <time>2016-04-13T13:35:28.000Z</time>
      </trkpt>
      <trkpt lat="43.16523" lon="5.85569">
        <ele>303.60000610352</ele>
        <time>2016-04-13T13:35:32.000Z</time>
      </trkpt>
      <trkpt lat="43.16516" lon="5.85569">
        <ele>302.20001220703</ele>
        <time>2016-04-13T13:35:34.000Z</time>
      </trkpt>
      <trkpt lat="43.16507" lon="5.85565">
        <ele>301.20001220703</ele>
        <time>2016-04-13T13:35:38.000Z</time>
      </trkpt>
      <trkpt lat="43.16505" lon="5.85564">
        <ele>300.79998779297</ele>
        <time>2016-04-13T13:35:39.000Z</time>
      </trkpt>
      <trkpt lat="43.16497" lon="5.85559">
        <ele>299.60000610352</ele>
        <time>2016-04-13T13:35:44.000Z</time>
      </trkpt>
      <trkpt lat="43.16493" lon="5.85555">
        <ele>299.79998779297</ele>
        <time>2016-04-13T13:35:54.000Z</time>
      </trkpt>
      <trkpt lat="43.16486" lon="5.85551">
        <ele>298.79998779297</ele>
        <time>2016-04-13T13:35:56.000Z</time>
      </trkpt>
      <trkpt lat="43.16478" lon="5.85546">
        <ele>298</ele>
        <time>2016-04-13T13:35:58.000Z</time>
      </trkpt>
      <trkpt lat="43.16465" lon="5.85538">
        <ele>296.20001220703</ele>
        <time>2016-04-13T13:36:01.000Z</time>
      </trkpt>
      <trkpt lat="43.16436" lon="5.85515">
        <ele>295.39999389648</ele>
        <time>2016-04-13T13:36:08.000Z</time>
      </trkpt>
      <trkpt lat="43.1643" lon="5.85507">
        <ele>296.20001220703</ele>
        <time>2016-04-13T13:36:12.000Z</time>
      </trkpt>
      <trkpt lat="43.16428" lon="5.85505">
        <ele>296.39999389648</ele>
        <time>2016-04-13T13:37:07.000Z</time>
      </trkpt>
      <trkpt lat="43.16425" lon="5.85503">
        <ele>296.20001220703</ele>
        <time>2016-04-13T13:37:08.000Z</time>
      </trkpt>
      <trkpt lat="43.16412" lon="5.85488">
        <ele>295.79998779297</ele>
        <time>2016-04-13T13:37:12.000Z</time>
      </trkpt>
      <trkpt lat="43.16391" lon="5.85461">
        <ele>294.79998779297</ele>
        <time>2016-04-13T13:37:19.000Z</time>
      </trkpt>
      <trkpt lat="43.16387" lon="5.85453">
        <ele>294.60000610352</ele>
        <time>2016-04-13T13:37:21.000Z</time>
      </trkpt>
      <trkpt lat="43.16383" lon="5.85435">
        <ele>295.60000610352</ele>
        <time>2016-04-13T13:37:25.000Z</time>
      </trkpt>
      <trkpt lat="43.16384" lon="5.85412">
        <ele>299.79998779297</ele>
        <time>2016-04-13T13:37:31.000Z</time>
      </trkpt>
      <trkpt lat="43.16393" lon="5.85387">
        <ele>307.39999389648</ele>
        <time>2016-04-13T13:37:38.000Z</time>
      </trkpt>
      <trkpt lat="43.16407" lon="5.85353">
        <ele>311</ele>
        <time>2016-04-13T13:37:47.000Z</time>
      </trkpt>
      <trkpt lat="43.16412" lon="5.85346">
        <ele>312.60000610352</ele>
        <time>2016-04-13T13:37:51.000Z</time>
      </trkpt>
      <trkpt lat="43.16413" lon="5.85341">
        <ele>312.39999389648</ele>
        <time>2016-04-13T13:39:41.000Z</time>
      </trkpt>
      <trkpt lat="43.16415" lon="5.85336">
        <ele>312.60000610352</ele>
        <time>2016-04-13T13:39:42.000Z</time>
      </trkpt>
      <trkpt lat="43.16423" lon="5.85315">
        <ele>314</ele>
        <time>2016-04-13T13:39:46.000Z</time>
      </trkpt>
      <trkpt lat="43.16425" lon="5.8531">
        <ele>314.39999389648</ele>
        <time>2016-04-13T13:39:47.000Z</time>
      </trkpt>
      <trkpt lat="43.16429" lon="5.85292">
        <ele>316</ele>
        <time>2016-04-13T13:39:50.000Z</time>
      </trkpt>
      <trkpt lat="43.16428" lon="5.85281">
        <ele>316.20001220703</ele>
        <time>2016-04-13T13:39:52.000Z</time>
      </trkpt>
      <trkpt lat="43.1642" lon="5.85257">
        <ele>315</ele>
        <time>2016-04-13T13:39:56.000Z</time>
      </trkpt>
      <trkpt lat="43.16408" lon="5.85242">
        <ele>312.60000610352</ele>
        <time>2016-04-13T13:39:59.000Z</time>
      </trkpt>
      <trkpt lat="43.164" lon="5.85232">
        <ele>311</ele>
        <time>2016-04-13T13:40:01.000Z</time>
      </trkpt>
      <trkpt lat="43.16379" lon="5.85201">
        <ele>305.79998779297</ele>
        <time>2016-04-13T13:40:07.000Z</time>
      </trkpt>
      <trkpt lat="43.16377" lon="5.85194">
        <ele>305.20001220703</ele>
        <time>2016-04-13T13:40:08.000Z</time>
      </trkpt>
      <trkpt lat="43.16378" lon="5.85176">
        <ele>306</ele>
        <time>2016-04-13T13:40:11.000Z</time>
      </trkpt>
      <trkpt lat="43.1639" lon="5.85154">
        <ele>310.20001220703</ele>
        <time>2016-04-13T13:40:15.000Z</time>
      </trkpt>
      <trkpt lat="43.1641" lon="5.85121">
        <ele>311.60000610352</ele>
        <time>2016-04-13T13:40:21.000Z</time>
      </trkpt>
      <trkpt lat="43.16417" lon="5.8511">
        <ele>313</ele>
        <time>2016-04-13T13:40:26.000Z</time>
      </trkpt>
      <trkpt lat="43.16418" lon="5.85106">
        <ele>312.79998779297</ele>
        <time>2016-04-13T13:42:20.000Z</time>
      </trkpt>
      <trkpt lat="43.16422" lon="5.85098">
        <ele>313.20001220703</ele>
        <time>2016-04-13T13:42:22.000Z</time>
      </trkpt>
      <trkpt lat="43.16436" lon="5.85074">
        <ele>314.20001220703</ele>
        <time>2016-04-13T13:42:27.000Z</time>
      </trkpt>
      <trkpt lat="43.16458" lon="5.85036">
        <ele>313.79998779297</ele>
        <time>2016-04-13T13:42:33.000Z</time>
      </trkpt>
      <trkpt lat="43.16466" lon="5.85023">
        <ele>313</ele>
        <time>2016-04-13T13:42:35.000Z</time>
      </trkpt>
      <trkpt lat="43.16487" lon="5.84989">
        <ele>313.39999389648</ele>
        <time>2016-04-13T13:42:40.000Z</time>
      </trkpt>
      <trkpt lat="43.16492" lon="5.84981">
        <ele>313.79998779297</ele>
        <time>2016-04-13T13:42:41.000Z</time>
      </trkpt>
      <trkpt lat="43.16509" lon="5.84953">
        <ele>314.79998779297</ele>
        <time>2016-04-13T13:42:45.000Z</time>
      </trkpt>
      <trkpt lat="43.16516" lon="5.84942">
        <ele>315.20001220703</ele>
        <time>2016-04-13T13:42:47.000Z</time>
      </trkpt>
      <trkpt lat="43.16526" lon="5.84929">
        <ele>315.79998779297</ele>
        <time>2016-04-13T13:42:50.000Z</time>
      </trkpt>
      <trkpt lat="43.1654" lon="5.84912">
        <ele>316.39999389648</ele>
        <time>2016-04-13T13:42:54.000Z</time>
      </trkpt>
      <trkpt lat="43.16566" lon="5.84878">
        <ele>314.60000610352</ele>
        <time>2016-04-13T13:43:01.000Z</time>
      </trkpt>
      <trkpt lat="43.16582" lon="5.84856">
        <ele>314.60000610352</ele>
        <time>2016-04-13T13:43:05.000Z</time>
      </trkpt>
      <trkpt lat="43.16602" lon="5.84829">
        <ele>314.79998779297</ele>
        <time>2016-04-13T13:43:10.000Z</time>
      </trkpt>
      <trkpt lat="43.16639" lon="5.8478">
        <ele>310.60000610352</ele>
        <time>2016-04-13T13:43:19.000Z</time>
      </trkpt>
      <trkpt lat="43.16659" lon="5.84765">
        <ele>310.39999389648</ele>
        <time>2016-04-13T13:43:23.000Z</time>
      </trkpt>
      <trkpt lat="43.16665" lon="5.84762">
        <ele>310.60000610352</ele>
        <time>2016-04-13T13:43:24.000Z</time>
      </trkpt>
      <trkpt lat="43.16695" lon="5.84756">
        <ele>311.20001220703</ele>
        <time>2016-04-13T13:43:29.000Z</time>
      </trkpt>
      <trkpt lat="43.16747" lon="5.84763">
        <ele>313.20001220703</ele>
        <time>2016-04-13T13:43:37.000Z</time>
      </trkpt>
      <trkpt lat="43.16798" lon="5.84772">
        <ele>312.60000610352</ele>
        <time>2016-04-13T13:43:45.000Z</time>
      </trkpt>
      <trkpt lat="43.16857" lon="5.84783">
        <ele>312.60000610352</ele>
        <time>2016-04-13T13:43:54.000Z</time>
      </trkpt>
      <trkpt lat="43.16863" lon="5.84784">
        <ele>312.60000610352</ele>
        <time>2016-04-13T13:43:55.000Z</time>
      </trkpt>
      <trkpt lat="43.16876" lon="5.84786">
        <ele>312.60000610352</ele>
        <time>2016-04-13T13:43:57.000Z</time>
      </trkpt>
      <trkpt lat="43.16906" lon="5.84788">
        <ele>312.20001220703</ele>
        <time>2016-04-13T13:44:02.000Z</time>
      </trkpt>
      <trkpt lat="43.1692" lon="5.84777">
        <ele>312.39999389648</ele>
        <time>2016-04-13T13:44:05.000Z</time>
      </trkpt>
      <trkpt lat="43.16928" lon="5.84749">
        <ele>312</ele>
        <time>2016-04-13T13:44:09.000Z</time>
      </trkpt>
      <trkpt lat="43.16929" lon="5.84741">
        <ele>311.60000610352</ele>
        <time>2016-04-13T13:44:10.000Z</time>
      </trkpt>
      <trkpt lat="43.16935" lon="5.84711">
        <ele>312.39999389648</ele>
        <time>2016-04-13T13:44:14.000Z</time>
      </trkpt>
      <trkpt lat="43.16939" lon="5.84698">
        <ele>314</ele>
        <time>2016-04-13T13:44:16.000Z</time>
      </trkpt>
      <trkpt lat="43.16943" lon="5.84694">
        <ele>314.39999389648</ele>
        <time>2016-04-13T13:44:17.000Z</time>
      </trkpt>
      <trkpt lat="43.16953" lon="5.84689">
        <ele>315.20001220703</ele>
        <time>2016-04-13T13:44:19.000Z</time>
      </trkpt>
      <trkpt lat="43.16962" lon="5.84684">
        <ele>316</ele>
        <time>2016-04-13T13:44:21.000Z</time>
      </trkpt>
      <trkpt lat="43.16967" lon="5.8468">
        <ele>316.60000610352</ele>
        <time>2016-04-13T13:44:22.000Z</time>
      </trkpt>
      <trkpt lat="43.16971" lon="5.84676">
        <ele>316.79998779297</ele>
        <time>2016-04-13T13:44:23.000Z</time>
      </trkpt>
      <trkpt lat="43.16975" lon="5.8467">
        <ele>317.20001220703</ele>
        <time>2016-04-13T13:44:24.000Z</time>
      </trkpt>
      <trkpt lat="43.16978" lon="5.84664">
        <ele>317.60000610352</ele>
        <time>2016-04-13T13:44:25.000Z</time>
      </trkpt>
      <trkpt lat="43.16984" lon="5.84652">
        <ele>318.39999389648</ele>
        <time>2016-04-13T13:44:27.000Z</time>
      </trkpt>
      <trkpt lat="43.16986" lon="5.84647">
        <ele>318.79998779297</ele>
        <time>2016-04-13T13:44:28.000Z</time>
      </trkpt>
      <trkpt lat="43.16988" lon="5.84641">
        <ele>319.20001220703</ele>
        <time>2016-04-13T13:44:29.000Z</time>
      </trkpt>
      <trkpt lat="43.16992" lon="5.84636">
        <ele>319.60000610352</ele>
        <time>2016-04-13T13:44:30.000Z</time>
      </trkpt>
      <trkpt lat="43.16996" lon="5.84633">
        <ele>320</ele>
        <time>2016-04-13T13:44:31.000Z</time>
      </trkpt>
      <trkpt lat="43.17001" lon="5.84632">
        <ele>320</ele>
        <time>2016-04-13T13:44:32.000Z</time>
      </trkpt>
      <trkpt lat="43.17013" lon="5.84633">
        <ele>319.79998779297</ele>
        <time>2016-04-13T13:44:34.000Z</time>
      </trkpt>
      <trkpt lat="43.17024" lon="5.84637">
        <ele>318.60000610352</ele>
        <time>2016-04-13T13:44:36.000Z</time>
      </trkpt>
      <trkpt lat="43.1703" lon="5.84639">
        <ele>318.20001220703</ele>
        <time>2016-04-13T13:44:37.000Z</time>
      </trkpt>
      <trkpt lat="43.17061" lon="5.84647">
        <ele>316.60000610352</ele>
        <time>2016-04-13T13:44:43.000Z</time>
      </trkpt>
      <trkpt lat="43.17109" lon="5.84661">
        <ele>316.20001220703</ele>
        <time>2016-04-13T13:44:52.000Z</time>
      </trkpt>
      <trkpt lat="43.1714" lon="5.84671">
        <ele>318.39999389648</ele>
        <time>2016-04-13T13:44:58.000Z</time>
      </trkpt>
      <trkpt lat="43.17189" lon="5.84678">
        <ele>321.39999389648</ele>
        <time>2016-04-13T13:45:06.000Z</time>
      </trkpt>
      <trkpt lat="43.1724" lon="5.84685">
        <ele>323.79998779297</ele>
        <time>2016-04-13T13:45:15.000Z</time>
      </trkpt>
      <trkpt lat="43.17286" lon="5.84692">
        <ele>323.60000610352</ele>
        <time>2016-04-13T13:45:23.000Z</time>
      </trkpt>
      <trkpt lat="43.17303" lon="5.84694">
        <ele>323</ele>
        <time>2016-04-13T13:45:26.000Z</time>
      </trkpt>
      <trkpt lat="43.17339" lon="5.847">
        <ele>322.79998779297</ele>
        <time>2016-04-13T13:45:32.000Z</time>
      </trkpt>
      <trkpt lat="43.17381" lon="5.84707">
        <ele>320.20001220703</ele>
        <time>2016-04-13T13:45:38.000Z</time>
      </trkpt>
      <trkpt lat="43.174" lon="5.84707">
        <ele>318.79998779297</ele>
        <time>2016-04-13T13:45:41.000Z</time>
      </trkpt>
      <trkpt lat="43.17412" lon="5.84708">
        <ele>318</ele>
        <time>2016-04-13T13:45:43.000Z</time>
      </trkpt>
      <trkpt lat="43.17417" lon="5.84708">
        <ele>317.39999389648</ele>
        <time>2016-04-13T13:45:44.000Z</time>
      </trkpt>
      <trkpt lat="43.17434" lon="5.84711">
        <ele>315.60000610352</ele>
        <time>2016-04-13T13:45:47.000Z</time>
      </trkpt>
      <trkpt lat="43.17447" lon="5.84714">
        <ele>313.79998779297</ele>
        <time>2016-04-13T13:45:50.000Z</time>
      </trkpt>
      <trkpt lat="43.17451" lon="5.84716">
        <ele>313.39999389648</ele>
        <time>2016-04-13T13:45:51.000Z</time>
      </trkpt>
      <trkpt lat="43.17455" lon="5.84719">
        <ele>313</ele>
        <time>2016-04-13T13:45:52.000Z</time>
      </trkpt>
      <trkpt lat="43.17463" lon="5.84725">
        <ele>312.20001220703</ele>
        <time>2016-04-13T13:45:54.000Z</time>
      </trkpt>
      <trkpt lat="43.17471" lon="5.84732">
        <ele>311.39999389648</ele>
        <time>2016-04-13T13:45:56.000Z</time>
      </trkpt>
      <trkpt lat="43.17488" lon="5.84754">
        <ele>310.20001220703</ele>
        <time>2016-04-13T13:46:00.000Z</time>
      </trkpt>
      <trkpt lat="43.17491" lon="5.84762">
        <ele>310.20001220703</ele>
        <time>2016-04-13T13:46:01.000Z</time>
      </trkpt>
      <trkpt lat="43.17492" lon="5.84792">
        <ele>311.79998779297</ele>
        <time>2016-04-13T13:46:04.000Z</time>
      </trkpt>
      <trkpt lat="43.17491" lon="5.84822">
        <ele>312.60000610352</ele>
        <time>2016-04-13T13:46:07.000Z</time>
      </trkpt>
      <trkpt lat="43.17495" lon="5.84844">
        <ele>312.39999389648</ele>
        <time>2016-04-13T13:46:09.000Z</time>
      </trkpt>
      <trkpt lat="43.175" lon="5.84856">
        <ele>312</ele>
        <time>2016-04-13T13:46:10.000Z</time>
      </trkpt>
      <trkpt lat="43.17511" lon="5.84878">
        <ele>311</ele>
        <time>2016-04-13T13:46:12.000Z</time>
      </trkpt>
      <trkpt lat="43.17517" lon="5.84889">
        <ele>310.20001220703</ele>
        <time>2016-04-13T13:46:13.000Z</time>
      </trkpt>
      <trkpt lat="43.17524" lon="5.84901">
        <ele>310</ele>
        <time>2016-04-13T13:46:14.000Z</time>
      </trkpt>
      <trkpt lat="43.1754" lon="5.84924">
        <ele>309.60000610352</ele>
        <time>2016-04-13T13:46:16.000Z</time>
      </trkpt>
      <trkpt lat="43.17548" lon="5.84936">
        <ele>309.20001220703</ele>
        <time>2016-04-13T13:46:17.000Z</time>
      </trkpt>
      <trkpt lat="43.17556" lon="5.84947">
        <ele>309</ele>
        <time>2016-04-13T13:46:18.000Z</time>
      </trkpt>
      <trkpt lat="43.17572" lon="5.84969">
        <ele>308.39999389648</ele>
        <time>2016-04-13T13:46:20.000Z</time>
      </trkpt>
      <trkpt lat="43.17589" lon="5.84988">
        <ele>307.79998779297</ele>
        <time>2016-04-13T13:46:22.000Z</time>
      </trkpt>
      <trkpt lat="43.17607" lon="5.85006">
        <ele>307</ele>
        <time>2016-04-13T13:46:24.000Z</time>
      </trkpt>
      <trkpt lat="43.17625" lon="5.85024">
        <ele>306.20001220703</ele>
        <time>2016-04-13T13:46:26.000Z</time>
      </trkpt>
      <trkpt lat="43.1764" lon="5.85043">
        <ele>305.79998779297</ele>
        <time>2016-04-13T13:46:28.000Z</time>
      </trkpt>
      <trkpt lat="43.17647" lon="5.85052">
        <ele>305.79998779297</ele>
        <time>2016-04-13T13:46:29.000Z</time>
      </trkpt>
      <trkpt lat="43.17654" lon="5.8506">
        <ele>305.60000610352</ele>
        <time>2016-04-13T13:46:30.000Z</time>
      </trkpt>
      <trkpt lat="43.17669" lon="5.85073">
        <ele>305</ele>
        <time>2016-04-13T13:46:32.000Z</time>
      </trkpt>
      <trkpt lat="43.17677" lon="5.85073">
        <ele>303.79998779297</ele>
        <time>2016-04-13T13:46:33.000Z</time>
      </trkpt>
      <trkpt lat="43.17685" lon="5.85071">
        <ele>301.79998779297</ele>
        <time>2016-04-13T13:46:34.000Z</time>
      </trkpt>
      <trkpt lat="43.17692" lon="5.85065">
        <ele>300.20001220703</ele>
        <time>2016-04-13T13:46:35.000Z</time>
      </trkpt>
      <trkpt lat="43.17696" lon="5.85057">
        <ele>299.39999389648</ele>
        <time>2016-04-13T13:46:36.000Z</time>
      </trkpt>
      <trkpt lat="43.17697" lon="5.85046">
        <ele>298</ele>
        <time>2016-04-13T13:46:37.000Z</time>
      </trkpt>
      <trkpt lat="43.17698" lon="5.85033">
        <ele>296</ele>
        <time>2016-04-13T13:46:38.000Z</time>
      </trkpt>
      <trkpt lat="43.17698" lon="5.85004">
        <ele>291.79998779297</ele>
        <time>2016-04-13T13:46:40.000Z</time>
      </trkpt>
      <trkpt lat="43.17698" lon="5.8499">
        <ele>290</ele>
        <time>2016-04-13T13:46:41.000Z</time>
      </trkpt>
      <trkpt lat="43.17695" lon="5.84979">
        <ele>288.79998779297</ele>
        <time>2016-04-13T13:46:42.000Z</time>
      </trkpt>
      <trkpt lat="43.17693" lon="5.84968">
        <ele>288</ele>
        <time>2016-04-13T13:46:43.000Z</time>
      </trkpt>
      <trkpt lat="43.17693" lon="5.84957">
        <ele>287.79998779297</ele>
        <time>2016-04-13T13:46:44.000Z</time>
      </trkpt>
      <trkpt lat="43.17694" lon="5.8495">
        <ele>287.60000610352</ele>
        <time>2016-04-13T13:46:45.000Z</time>
      </trkpt>
      <trkpt lat="43.17697" lon="5.84945">
        <ele>287.20001220703</ele>
        <time>2016-04-13T13:46:46.000Z</time>
      </trkpt>
      <trkpt lat="43.17702" lon="5.84941">
        <ele>286.79998779297</ele>
        <time>2016-04-13T13:46:47.000Z</time>
      </trkpt>
      <trkpt lat="43.17706" lon="5.84939">
        <ele>286.60000610352</ele>
        <time>2016-04-13T13:46:48.000Z</time>
      </trkpt>
      <trkpt lat="43.17715" lon="5.84943">
        <ele>286</ele>
        <time>2016-04-13T13:46:49.000Z</time>
      </trkpt>
      <trkpt lat="43.17723" lon="5.84948">
        <ele>285.79998779297</ele>
        <time>2016-04-13T13:46:50.000Z</time>
      </trkpt>
      <trkpt lat="43.17735" lon="5.84957">
        <ele>285.20001220703</ele>
        <time>2016-04-13T13:46:51.000Z</time>
      </trkpt>
      <trkpt lat="43.17745" lon="5.84967">
        <ele>284.79998779297</ele>
        <time>2016-04-13T13:46:52.000Z</time>
      </trkpt>
      <trkpt lat="43.17755" lon="5.84976">
        <ele>284.79998779297</ele>
        <time>2016-04-13T13:46:53.000Z</time>
      </trkpt>
      <trkpt lat="43.17778" lon="5.84993">
        <ele>284.20001220703</ele>
        <time>2016-04-13T13:46:55.000Z</time>
      </trkpt>
      <trkpt lat="43.1779" lon="5.85002">
        <ele>283.60000610352</ele>
        <time>2016-04-13T13:46:56.000Z</time>
      </trkpt>
      <trkpt lat="43.17801" lon="5.8501">
        <ele>283</ele>
        <time>2016-04-13T13:46:57.000Z</time>
      </trkpt>
      <trkpt lat="43.17819" lon="5.85022">
        <ele>281.79998779297</ele>
        <time>2016-04-13T13:46:59.000Z</time>
      </trkpt>
      <trkpt lat="43.17827" lon="5.85026">
        <ele>281</ele>
        <time>2016-04-13T13:47:00.000Z</time>
      </trkpt>
      <trkpt lat="43.17834" lon="5.85024">
        <ele>279.39999389648</ele>
        <time>2016-04-13T13:47:01.000Z</time>
      </trkpt>
      <trkpt lat="43.1784" lon="5.8502">
        <ele>277.39999389648</ele>
        <time>2016-04-13T13:47:02.000Z</time>
      </trkpt>
      <trkpt lat="43.17846" lon="5.85014">
        <ele>275.20001220703</ele>
        <time>2016-04-13T13:47:03.000Z</time>
      </trkpt>
      <trkpt lat="43.1785" lon="5.85006">
        <ele>273.20001220703</ele>
        <time>2016-04-13T13:47:04.000Z</time>
      </trkpt>
      <trkpt lat="43.17852" lon="5.84996">
        <ele>271.20001220703</ele>
        <time>2016-04-13T13:47:05.000Z</time>
      </trkpt>
      <trkpt lat="43.17852" lon="5.84984">
        <ele>269</ele>
        <time>2016-04-13T13:47:06.000Z</time>
      </trkpt>
      <trkpt lat="43.1785" lon="5.84964">
        <ele>268.39999389648</ele>
        <time>2016-04-13T13:47:08.000Z</time>
      </trkpt>
      <trkpt lat="43.17849" lon="5.84954">
        <ele>268.20001220703</ele>
        <time>2016-04-13T13:47:09.000Z</time>
      </trkpt>
      <trkpt lat="43.17844" lon="5.84936">
        <ele>267.60000610352</ele>
        <time>2016-04-13T13:47:11.000Z</time>
      </trkpt>
      <trkpt lat="43.17841" lon="5.84927">
        <ele>267.60000610352</ele>
        <time>2016-04-13T13:47:12.000Z</time>
      </trkpt>
      <trkpt lat="43.17837" lon="5.84919">
        <ele>267.39999389648</ele>
        <time>2016-04-13T13:47:13.000Z</time>
      </trkpt>
      <trkpt lat="43.17815" lon="5.849">
        <ele>267.39999389648</ele>
        <time>2016-04-13T13:47:16.000Z</time>
      </trkpt>
      <trkpt lat="43.17809" lon="5.84894">
        <ele>267.39999389648</ele>
        <time>2016-04-13T13:47:17.000Z</time>
      </trkpt>
      <trkpt lat="43.17778" lon="5.8486">
        <ele>267.79998779297</ele>
        <time>2016-04-13T13:47:22.000Z</time>
      </trkpt>
      <trkpt lat="43.1775" lon="5.84828">
        <ele>269.60000610352</ele>
        <time>2016-04-13T13:47:27.000Z</time>
      </trkpt>
      <trkpt lat="43.17745" lon="5.84821">
        <ele>270.20001220703</ele>
        <time>2016-04-13T13:47:28.000Z</time>
      </trkpt>
      <trkpt lat="43.17723" lon="5.84793">
        <ele>270</ele>
        <time>2016-04-13T13:47:32.000Z</time>
      </trkpt>
      <trkpt lat="43.17705" lon="5.84769">
        <ele>267</ele>
        <time>2016-04-13T13:47:35.000Z</time>
      </trkpt>
      <trkpt lat="43.17699" lon="5.8476">
        <ele>265.79998779297</ele>
        <time>2016-04-13T13:47:36.000Z</time>
      </trkpt>
      <trkpt lat="43.17688" lon="5.84741">
        <ele>263</ele>
        <time>2016-04-13T13:47:38.000Z</time>
      </trkpt>
      <trkpt lat="43.17677" lon="5.84719">
        <ele>260</ele>
        <time>2016-04-13T13:47:40.000Z</time>
      </trkpt>
      <trkpt lat="43.17671" lon="5.84706">
        <ele>260</ele>
        <time>2016-04-13T13:47:41.000Z</time>
      </trkpt>
      <trkpt lat="43.17661" lon="5.84678">
        <ele>260</ele>
        <time>2016-04-13T13:47:43.000Z</time>
      </trkpt>
      <trkpt lat="43.17648" lon="5.84649">
        <ele>260</ele>
        <time>2016-04-13T13:47:45.000Z</time>
      </trkpt>
      <trkpt lat="43.17642" lon="5.84634">
        <ele>259</ele>
        <time>2016-04-13T13:47:46.000Z</time>
      </trkpt>
      <trkpt lat="43.17636" lon="5.84618">
        <ele>255.39999389648</ele>
        <time>2016-04-13T13:47:47.000Z</time>
      </trkpt>
      <trkpt lat="43.17627" lon="5.84586">
        <ele>248.80000305176</ele>
        <time>2016-04-13T13:47:49.000Z</time>
      </trkpt>
      <trkpt lat="43.17623" lon="5.84569">
        <ele>248.60000610352</ele>
        <time>2016-04-13T13:47:50.000Z</time>
      </trkpt>
      <trkpt lat="43.17615" lon="5.84536">
        <ele>245.19999694824</ele>
        <time>2016-04-13T13:47:52.000Z</time>
      </trkpt>
      <trkpt lat="43.17609" lon="5.8452">
        <ele>242.19999694824</ele>
        <time>2016-04-13T13:47:53.000Z</time>
      </trkpt>
      <trkpt lat="43.17601" lon="5.84505">
        <ele>238.80000305176</ele>
        <time>2016-04-13T13:47:54.000Z</time>
      </trkpt>
      <trkpt lat="43.17593" lon="5.8449">
        <ele>236</ele>
        <time>2016-04-13T13:47:55.000Z</time>
      </trkpt>
      <trkpt lat="43.17586" lon="5.84474">
        <ele>235</ele>
        <time>2016-04-13T13:47:56.000Z</time>
      </trkpt>
      <trkpt lat="43.17577" lon="5.8446">
        <ele>233.19999694824</ele>
        <time>2016-04-13T13:47:57.000Z</time>
      </trkpt>
      <trkpt lat="43.17568" lon="5.84448">
        <ele>231.39999389648</ele>
        <time>2016-04-13T13:47:58.000Z</time>
      </trkpt>
      <trkpt lat="43.17559" lon="5.84436">
        <ele>230.19999694824</ele>
        <time>2016-04-13T13:47:59.000Z</time>
      </trkpt>
      <trkpt lat="43.17548" lon="5.84423">
        <ele>229.19999694824</ele>
        <time>2016-04-13T13:48:00.000Z</time>
      </trkpt>
      <trkpt lat="43.17539" lon="5.84409">
        <ele>228.39999389648</ele>
        <time>2016-04-13T13:48:01.000Z</time>
      </trkpt>
      <trkpt lat="43.17531" lon="5.84396">
        <ele>227.60000610352</ele>
        <time>2016-04-13T13:48:02.000Z</time>
      </trkpt>
      <trkpt lat="43.17523" lon="5.8438">
        <ele>225</ele>
        <time>2016-04-13T13:48:03.000Z</time>
      </trkpt>
      <trkpt lat="43.17517" lon="5.84363">
        <ele>220.80000305176</ele>
        <time>2016-04-13T13:48:04.000Z</time>
      </trkpt>
      <trkpt lat="43.17511" lon="5.84345">
        <ele>216.80000305176</ele>
        <time>2016-04-13T13:48:05.000Z</time>
      </trkpt>
      <trkpt lat="43.17504" lon="5.84327">
        <ele>215.80000305176</ele>
        <time>2016-04-13T13:48:06.000Z</time>
      </trkpt>
      <trkpt lat="43.17499" lon="5.84308">
        <ele>214.60000610352</ele>
        <time>2016-04-13T13:48:07.000Z</time>
      </trkpt>
      <trkpt lat="43.17494" lon="5.8429">
        <ele>211.80000305176</ele>
        <time>2016-04-13T13:48:08.000Z</time>
      </trkpt>
      <trkpt lat="43.17491" lon="5.84271">
        <ele>211.39999389648</ele>
        <time>2016-04-13T13:48:09.000Z</time>
      </trkpt>
      <trkpt lat="43.17489" lon="5.84251">
        <ele>211</ele>
        <time>2016-04-13T13:48:10.000Z</time>
      </trkpt>
      <trkpt lat="43.17487" lon="5.84232">
        <ele>210.60000610352</ele>
        <time>2016-04-13T13:48:11.000Z</time>
      </trkpt>
      <trkpt lat="43.17487" lon="5.84213">
        <ele>208.80000305176</ele>
        <time>2016-04-13T13:48:12.000Z</time>
      </trkpt>
      <trkpt lat="43.17487" lon="5.84194">
        <ele>206.60000610352</ele>
        <time>2016-04-13T13:48:13.000Z</time>
      </trkpt>
      <trkpt lat="43.17487" lon="5.84179">
        <ele>207.80000305176</ele>
        <time>2016-04-13T13:48:14.000Z</time>
      </trkpt>
      <trkpt lat="43.17487" lon="5.84165">
        <ele>208.80000305176</ele>
        <time>2016-04-13T13:48:15.000Z</time>
      </trkpt>
      <trkpt lat="43.17484" lon="5.84151">
        <ele>209.39999389648</ele>
        <time>2016-04-13T13:48:16.000Z</time>
      </trkpt>
      <trkpt lat="43.17478" lon="5.8414">
        <ele>210</ele>
        <time>2016-04-13T13:48:17.000Z</time>
      </trkpt>
      <trkpt lat="43.17472" lon="5.84129">
        <ele>208.39999389648</ele>
        <time>2016-04-13T13:48:18.000Z</time>
      </trkpt>
      <trkpt lat="43.17458" lon="5.84108">
        <ele>205</ele>
        <time>2016-04-13T13:48:20.000Z</time>
      </trkpt>
      <trkpt lat="43.17442" lon="5.84086">
        <ele>201.39999389648</ele>
        <time>2016-04-13T13:48:22.000Z</time>
      </trkpt>
      <trkpt lat="43.17434" lon="5.84075">
        <ele>199.60000610352</ele>
        <time>2016-04-13T13:48:23.000Z</time>
      </trkpt>
      <trkpt lat="43.17426" lon="5.84064">
        <ele>198.39999389648</ele>
        <time>2016-04-13T13:48:24.000Z</time>
      </trkpt>
      <trkpt lat="43.17419" lon="5.84052">
        <ele>198.39999389648</ele>
        <time>2016-04-13T13:48:25.000Z</time>
      </trkpt>
      <trkpt lat="43.17411" lon="5.8404">
        <ele>197.80000305176</ele>
        <time>2016-04-13T13:48:26.000Z</time>
      </trkpt>
      <trkpt lat="43.17405" lon="5.84026">
        <ele>197.80000305176</ele>
        <time>2016-04-13T13:48:27.000Z</time>
      </trkpt>
      <trkpt lat="43.17395" lon="5.83999">
        <ele>198</ele>
        <time>2016-04-13T13:48:29.000Z</time>
      </trkpt>
      <trkpt lat="43.17385" lon="5.83972">
        <ele>198</ele>
        <time>2016-04-13T13:48:31.000Z</time>
      </trkpt>
      <trkpt lat="43.1738" lon="5.8396">
        <ele>194.80000305176</ele>
        <time>2016-04-13T13:48:32.000Z</time>
      </trkpt>
      <trkpt lat="43.17376" lon="5.83946">
        <ele>191.19999694824</ele>
        <time>2016-04-13T13:48:33.000Z</time>
      </trkpt>
      <trkpt lat="43.17372" lon="5.8392">
        <ele>184.39999389648</ele>
        <time>2016-04-13T13:48:35.000Z</time>
      </trkpt>
      <trkpt lat="43.1737" lon="5.83897">
        <ele>182.39999389648</ele>
        <time>2016-04-13T13:48:37.000Z</time>
      </trkpt>
      <trkpt lat="43.17368" lon="5.83876">
        <ele>181.80000305176</ele>
        <time>2016-04-13T13:48:39.000Z</time>
      </trkpt>
      <trkpt lat="43.17368" lon="5.83866">
        <ele>181.39999389648</ele>
        <time>2016-04-13T13:48:40.000Z</time>
      </trkpt>
      <trkpt lat="43.17367" lon="5.83857">
        <ele>181.19999694824</ele>
        <time>2016-04-13T13:48:41.000Z</time>
      </trkpt>
      <trkpt lat="43.17364" lon="5.83839">
        <ele>180.19999694824</ele>
        <time>2016-04-13T13:48:43.000Z</time>
      </trkpt>
      <trkpt lat="43.1736" lon="5.83832">
        <ele>179.60000610352</ele>
        <time>2016-04-13T13:48:44.000Z</time>
      </trkpt>
      <trkpt lat="43.17351" lon="5.83818">
        <ele>177.60000610352</ele>
        <time>2016-04-13T13:48:46.000Z</time>
      </trkpt>
      <trkpt lat="43.17337" lon="5.83795">
        <ele>176.80000305176</ele>
        <time>2016-04-13T13:48:49.000Z</time>
      </trkpt>
      <trkpt lat="43.17313" lon="5.83751">
        <ele>180.39999389648</ele>
        <time>2016-04-13T13:48:54.000Z</time>
      </trkpt>
      <trkpt lat="43.17298" lon="5.83723">
        <ele>182.60000610352</ele>
        <time>2016-04-13T13:48:57.000Z</time>
      </trkpt>
      <trkpt lat="43.17293" lon="5.83713">
        <ele>181.19999694824</ele>
        <time>2016-04-13T13:48:58.000Z</time>
      </trkpt>
      <trkpt lat="43.17288" lon="5.83704">
        <ele>179.60000610352</ele>
        <time>2016-04-13T13:48:59.000Z</time>
      </trkpt>
      <trkpt lat="43.17279" lon="5.83686">
        <ele>176.39999389648</ele>
        <time>2016-04-13T13:49:01.000Z</time>
      </trkpt>
      <trkpt lat="43.17274" lon="5.83677">
        <ele>175</ele>
        <time>2016-04-13T13:49:02.000Z</time>
      </trkpt>
      <trkpt lat="43.17271" lon="5.83667">
        <ele>173.39999389648</ele>
        <time>2016-04-13T13:49:03.000Z</time>
      </trkpt>
      <trkpt lat="43.17268" lon="5.83658">
        <ele>172</ele>
        <time>2016-04-13T13:49:04.000Z</time>
      </trkpt>
      <trkpt lat="43.17265" lon="5.83627">
        <ele>170</ele>
        <time>2016-04-13T13:49:07.000Z</time>
      </trkpt>
      <trkpt lat="43.17265" lon="5.83616">
        <ele>169.80000305176</ele>
        <time>2016-04-13T13:49:08.000Z</time>
      </trkpt>
      <trkpt lat="43.17265" lon="5.83595">
        <ele>170</ele>
        <time>2016-04-13T13:49:10.000Z</time>
      </trkpt>
      <trkpt lat="43.17265" lon="5.83575">
        <ele>170</ele>
        <time>2016-04-13T13:49:12.000Z</time>
      </trkpt>
      <trkpt lat="43.17263" lon="5.83555">
        <ele>169.19999694824</ele>
        <time>2016-04-13T13:49:14.000Z</time>
      </trkpt>
      <trkpt lat="43.17261" lon="5.83546">
        <ele>169.19999694824</ele>
        <time>2016-04-13T13:49:15.000Z</time>
      </trkpt>
      <trkpt lat="43.17251" lon="5.83514">
        <ele>169.80000305176</ele>
        <time>2016-04-13T13:49:19.000Z</time>
      </trkpt>
      <trkpt lat="43.17244" lon="5.8349">
        <ele>170.39999389648</ele>
        <time>2016-04-13T13:49:22.000Z</time>
      </trkpt>
      <trkpt lat="43.17234" lon="5.83458">
        <ele>169.60000610352</ele>
        <time>2016-04-13T13:49:26.000Z</time>
      </trkpt>
      <trkpt lat="43.17229" lon="5.8344">
        <ele>168.39999389648</ele>
        <time>2016-04-13T13:49:28.000Z</time>
      </trkpt>
      <trkpt lat="43.17222" lon="5.83412">
        <ele>166</ele>
        <time>2016-04-13T13:49:31.000Z</time>
      </trkpt>
      <trkpt lat="43.17214" lon="5.83371">
        <ele>163.19999694824</ele>
        <time>2016-04-13T13:49:35.000Z</time>
      </trkpt>
      <trkpt lat="43.17213" lon="5.8336">
        <ele>162.60000610352</ele>
        <time>2016-04-13T13:49:36.000Z</time>
      </trkpt>
      <trkpt lat="43.1721" lon="5.83325">
        <ele>160.80000305176</ele>
        <time>2016-04-13T13:49:39.000Z</time>
      </trkpt>
      <trkpt lat="43.1721" lon="5.83312">
        <ele>160</ele>
        <time>2016-04-13T13:49:40.000Z</time>
      </trkpt>
      <trkpt lat="43.17211" lon="5.833">
        <ele>159.19999694824</ele>
        <time>2016-04-13T13:49:41.000Z</time>
      </trkpt>
      <trkpt lat="43.17213" lon="5.83288">
        <ele>158</ele>
        <time>2016-04-13T13:49:42.000Z</time>
      </trkpt>
      <trkpt lat="43.17218" lon="5.83266">
        <ele>156.19999694824</ele>
        <time>2016-04-13T13:49:44.000Z</time>
      </trkpt>
      <trkpt lat="43.1722" lon="5.83256">
        <ele>155.80000305176</ele>
        <time>2016-04-13T13:49:45.000Z</time>
      </trkpt>
      <trkpt lat="43.17226" lon="5.8323">
        <ele>155</ele>
        <time>2016-04-13T13:49:48.000Z</time>
      </trkpt>
      <trkpt lat="43.17228" lon="5.83221">
        <ele>154.80000305176</ele>
        <time>2016-04-13T13:49:49.000Z</time>
      </trkpt>
      <trkpt lat="43.1723" lon="5.83212">
        <ele>154.60000610352</ele>
        <time>2016-04-13T13:49:50.000Z</time>
      </trkpt>
      <trkpt lat="43.17234" lon="5.83193">
        <ele>154</ele>
        <time>2016-04-13T13:49:52.000Z</time>
      </trkpt>
      <trkpt lat="43.17235" lon="5.83174">
        <ele>152.60000610352</ele>
        <time>2016-04-13T13:49:54.000Z</time>
      </trkpt>
      <trkpt lat="43.17235" lon="5.83166">
        <ele>152</ele>
        <time>2016-04-13T13:49:55.000Z</time>
      </trkpt>
      <trkpt lat="43.17231" lon="5.83143">
        <ele>150.39999389648</ele>
        <time>2016-04-13T13:49:58.000Z</time>
      </trkpt>
      <trkpt lat="43.1723" lon="5.83136">
        <ele>149.80000305176</ele>
        <time>2016-04-13T13:49:59.000Z</time>
      </trkpt>
      <trkpt lat="43.17228" lon="5.83112">
        <ele>149</ele>
        <time>2016-04-13T13:50:02.000Z</time>
      </trkpt>
      <trkpt lat="43.17226" lon="5.83084">
        <ele>148</ele>
        <time>2016-04-13T13:50:06.000Z</time>
      </trkpt>
      <trkpt lat="43.17225" lon="5.83078">
        <ele>147.80000305176</ele>
        <time>2016-04-13T13:50:07.000Z</time>
      </trkpt>
      <trkpt lat="43.17223" lon="5.83064">
        <ele>147.19999694824</ele>
        <time>2016-04-13T13:50:10.000Z</time>
      </trkpt>
      <trkpt lat="43.17223" lon="5.8306">
        <ele>147.19999694824</ele>
        <time>2016-04-13T13:50:11.000Z</time>
      </trkpt>
      <trkpt lat="43.17223" lon="5.83056">
        <ele>147</ele>
        <time>2016-04-13T13:50:13.000Z</time>
      </trkpt>
      <trkpt lat="43.17222" lon="5.83053">
        <ele>147</ele>
        <time>2016-04-13T13:50:15.000Z</time>
      </trkpt>
      <trkpt lat="43.17222" lon="5.83051">
        <ele>147</ele>
        <time>2016-04-13T13:50:16.000Z</time>
      </trkpt>
      <trkpt lat="43.17219" lon="5.83032">
        <ele>147.19999694824</ele>
        <time>2016-04-13T13:50:20.000Z</time>
      </trkpt>
      <trkpt lat="43.17221" lon="5.83007">
        <ele>147.60000610352</ele>
        <time>2016-04-13T13:50:25.000Z</time>
      </trkpt>
      <trkpt lat="43.17235" lon="5.82995">
        <ele>148.19999694824</ele>
        <time>2016-04-13T13:50:29.000Z</time>
      </trkpt>
      <trkpt lat="43.17267" lon="5.82976">
        <ele>148.80000305176</ele>
        <time>2016-04-13T13:50:37.000Z</time>
      </trkpt>
      <trkpt lat="43.17284" lon="5.82964">
        <ele>148.80000305176</ele>
        <time>2016-04-13T13:50:41.000Z</time>
      </trkpt>
      <trkpt lat="43.17297" lon="5.82955">
        <ele>148.60000610352</ele>
        <time>2016-04-13T13:50:44.000Z</time>
      </trkpt>
      <trkpt lat="43.1731" lon="5.82947">
        <ele>148.39999389648</ele>
        <time>2016-04-13T13:50:47.000Z</time>
      </trkpt>
      <trkpt lat="43.17338" lon="5.82928">
        <ele>149.80000305176</ele>
        <time>2016-04-13T13:50:53.000Z</time>
      </trkpt>
      <trkpt lat="43.17347" lon="5.82922">
        <ele>150.39999389648</ele>
        <time>2016-04-13T13:50:55.000Z</time>
      </trkpt>
      <trkpt lat="43.17372" lon="5.82903">
        <ele>151.60000610352</ele>
        <time>2016-04-13T13:51:00.000Z</time>
      </trkpt>
      <trkpt lat="43.17377" lon="5.82899">
        <ele>151.60000610352</ele>
        <time>2016-04-13T13:51:01.000Z</time>
      </trkpt>
      <trkpt lat="43.17388" lon="5.82892">
        <ele>152</ele>
        <time>2016-04-13T13:51:03.000Z</time>
      </trkpt>
      <trkpt lat="43.17414" lon="5.82872">
        <ele>152.19999694824</ele>
        <time>2016-04-13T13:51:08.000Z</time>
      </trkpt>
      <trkpt lat="43.17425" lon="5.82864">
        <ele>152.60000610352</ele>
        <time>2016-04-13T13:51:10.000Z</time>
      </trkpt>
      <trkpt lat="43.17452" lon="5.82845">
        <ele>153</ele>
        <time>2016-04-13T13:51:15.000Z</time>
      </trkpt>
      <trkpt lat="43.1748" lon="5.82826">
        <ele>153.60000610352</ele>
        <time>2016-04-13T13:51:20.000Z</time>
      </trkpt>
      <trkpt lat="43.17518" lon="5.82796">
        <ele>154</ele>
        <time>2016-04-13T13:51:28.000Z</time>
      </trkpt>
      <trkpt lat="43.17527" lon="5.82785">
        <ele>153.80000305176</ele>
        <time>2016-04-13T13:51:31.000Z</time>
      </trkpt>
      <trkpt lat="43.17528" lon="5.82783">
        <ele>153.80000305176</ele>
        <time>2016-04-13T13:51:32.000Z</time>
      </trkpt>
      <trkpt lat="43.17537" lon="5.82781">
        <ele>153.60000610352</ele>
        <time>2016-04-13T13:51:37.000Z</time>
      </trkpt>
      <trkpt lat="43.17547" lon="5.82786">
        <ele>153.39999389648</ele>
        <time>2016-04-13T13:51:40.000Z</time>
      </trkpt>
      <trkpt lat="43.17549" lon="5.82791">
        <ele>153.19999694824</ele>
        <time>2016-04-13T13:51:41.000Z</time>
      </trkpt>
      <trkpt lat="43.17553" lon="5.82814">
        <ele>153.19999694824</ele>
        <time>2016-04-13T13:51:44.000Z</time>
      </trkpt>
      <trkpt lat="43.17555" lon="5.82822">
        <ele>153.39999389648</ele>
        <time>2016-04-13T13:51:45.000Z</time>
      </trkpt>
      <trkpt lat="43.17559" lon="5.82851">
        <ele>154</ele>
        <time>2016-04-13T13:51:49.000Z</time>
      </trkpt>
      <trkpt lat="43.17559" lon="5.82857">
        <ele>154</ele>
        <time>2016-04-13T13:51:50.000Z</time>
      </trkpt>
      <trkpt lat="43.17559" lon="5.82867">
        <ele>153.60000610352</ele>
        <time>2016-04-13T13:51:52.000Z</time>
      </trkpt>
      <trkpt lat="43.17561" lon="5.82872">
        <ele>153.60000610352</ele>
        <time>2016-04-13T13:51:54.000Z</time>
      </trkpt>
      <trkpt lat="43.17562" lon="5.82873">
        <ele>153.60000610352</ele>
        <time>2016-04-13T13:51:55.000Z</time>
      </trkpt>
      <trkpt lat="43.17565" lon="5.82874">
        <ele>153.60000610352</ele>
        <time>2016-04-13T13:51:57.000Z</time>
      </trkpt>
      <trkpt lat="43.1757" lon="5.82874">
        <ele>153.80000305176</ele>
        <time>2016-04-13T13:51:59.000Z</time>
      </trkpt>
      <trkpt lat="43.1759" lon="5.8287">
        <ele>153.60000610352</ele>
        <time>2016-04-13T13:52:03.000Z</time>
      </trkpt>
      <trkpt lat="43.17632" lon="5.82863">
        <ele>152</ele>
        <time>2016-04-13T13:52:09.000Z</time>
      </trkpt>
      <trkpt lat="43.17678" lon="5.82858">
        <ele>151</ele>
        <time>2016-04-13T13:52:16.000Z</time>
      </trkpt>
      <trkpt lat="43.17711" lon="5.82845">
        <ele>151.80000305176</ele>
        <time>2016-04-13T13:52:22.000Z</time>
      </trkpt>
      <trkpt lat="43.17723" lon="5.8284">
        <ele>152.39999389648</ele>
        <time>2016-04-13T13:52:24.000Z</time>
      </trkpt>
      <trkpt lat="43.17729" lon="5.82836">
        <ele>152.80000305176</ele>
        <time>2016-04-13T13:52:25.000Z</time>
      </trkpt>
      <trkpt lat="43.17746" lon="5.82826">
        <ele>153.80000305176</ele>
        <time>2016-04-13T13:52:28.000Z</time>
      </trkpt>
      <trkpt lat="43.17762" lon="5.82815">
        <ele>154.80000305176</ele>
        <time>2016-04-13T13:52:31.000Z</time>
      </trkpt>
      <trkpt lat="43.17814" lon="5.82779">
        <ele>155</ele>
        <time>2016-04-13T13:52:41.000Z</time>
      </trkpt>
      <trkpt lat="43.1782" lon="5.82775">
        <ele>155</ele>
        <time>2016-04-13T13:52:42.000Z</time>
      </trkpt>
      <trkpt lat="43.17863" lon="5.82754">
        <ele>155.39999389648</ele>
        <time>2016-04-13T13:52:50.000Z</time>
      </trkpt>
      <trkpt lat="43.17874" lon="5.82749">
        <ele>155.60000610352</ele>
        <time>2016-04-13T13:52:52.000Z</time>
      </trkpt>
      <trkpt lat="43.17883" lon="5.82742">
        <ele>155.39999389648</ele>
        <time>2016-04-13T13:52:54.000Z</time>
      </trkpt>
      <trkpt lat="43.17893" lon="5.82734">
        <ele>155.19999694824</ele>
        <time>2016-04-13T13:52:56.000Z</time>
      </trkpt>
      <trkpt lat="43.17925" lon="5.82707">
        <ele>155.39999389648</ele>
        <time>2016-04-13T13:53:03.000Z</time>
      </trkpt>
      <trkpt lat="43.17937" lon="5.82695">
        <ele>155.80000305176</ele>
        <time>2016-04-13T13:53:06.000Z</time>
      </trkpt>
      <trkpt lat="43.17955" lon="5.8268">
        <ele>156.39999389648</ele>
        <time>2016-04-13T13:53:10.000Z</time>
      </trkpt>
      <trkpt lat="43.17974" lon="5.82664">
        <ele>157.19999694824</ele>
        <time>2016-04-13T13:53:14.000Z</time>
      </trkpt>
      <trkpt lat="43.18002" lon="5.82642">
        <ele>158.60000610352</ele>
        <time>2016-04-13T13:53:20.000Z</time>
      </trkpt>
      <trkpt lat="43.18006" lon="5.82639">
        <ele>158.80000305176</ele>
        <time>2016-04-13T13:53:21.000Z</time>
      </trkpt>
      <trkpt lat="43.18037" lon="5.8262">
        <ele>159.39999389648</ele>
        <time>2016-04-13T13:53:27.000Z</time>
      </trkpt>
      <trkpt lat="43.18073" lon="5.826">
        <ele>160.19999694824</ele>
        <time>2016-04-13T13:53:34.000Z</time>
      </trkpt>
      <trkpt lat="43.18083" lon="5.82592">
        <ele>160.60000610352</ele>
        <time>2016-04-13T13:53:36.000Z</time>
      </trkpt>
      <trkpt lat="43.18106" lon="5.82569">
        <ele>161.80000305176</ele>
        <time>2016-04-13T13:53:41.000Z</time>
      </trkpt>
      <trkpt lat="43.18119" lon="5.82556">
        <ele>162</ele>
        <time>2016-04-13T13:53:44.000Z</time>
      </trkpt>
      <trkpt lat="43.1815" lon="5.8252">
        <ele>162</ele>
        <time>2016-04-13T13:53:51.000Z</time>
      </trkpt>
      <trkpt lat="43.18154" lon="5.82514">
        <ele>162</ele>
        <time>2016-04-13T13:53:52.000Z</time>
      </trkpt>
      <trkpt lat="43.18178" lon="5.82479">
        <ele>162</ele>
        <time>2016-04-13T13:53:58.000Z</time>
      </trkpt>
      <trkpt lat="43.18196" lon="5.82458">
        <ele>162.80000305176</ele>
        <time>2016-04-13T13:54:02.000Z</time>
      </trkpt>
      <trkpt lat="43.18201" lon="5.82453">
        <ele>163.19999694824</ele>
        <time>2016-04-13T13:54:03.000Z</time>
      </trkpt>
      <trkpt lat="43.18226" lon="5.82433">
        <ele>164.39999389648</ele>
        <time>2016-04-13T13:54:08.000Z</time>
      </trkpt>
      <trkpt lat="43.18231" lon="5.82429">
        <ele>164.19999694824</ele>
        <time>2016-04-13T13:54:09.000Z</time>
      </trkpt>
      <trkpt lat="43.18278" lon="5.82389">
        <ele>164.60000610352</ele>
        <time>2016-04-13T13:54:18.000Z</time>
      </trkpt>
      <trkpt lat="43.18283" lon="5.82384">
        <ele>165</ele>
        <time>2016-04-13T13:54:19.000Z</time>
      </trkpt>
      <trkpt lat="43.18326" lon="5.8234">
        <ele>168</ele>
        <time>2016-04-13T13:54:28.000Z</time>
      </trkpt>
      <trkpt lat="43.18331" lon="5.82335">
        <ele>168.19999694824</ele>
        <time>2016-04-13T13:54:29.000Z</time>
      </trkpt>
      <trkpt lat="43.18341" lon="5.82325">
        <ele>168.39999389648</ele>
        <time>2016-04-13T13:54:31.000Z</time>
      </trkpt>
      <trkpt lat="43.18379" lon="5.82291">
        <ele>168.39999389648</ele>
        <time>2016-04-13T13:54:39.000Z</time>
      </trkpt>
      <trkpt lat="43.18384" lon="5.82287">
        <ele>168.19999694824</ele>
        <time>2016-04-13T13:54:40.000Z</time>
      </trkpt>
      <trkpt lat="43.18424" lon="5.82255">
        <ele>167.60000610352</ele>
        <time>2016-04-13T13:54:48.000Z</time>
      </trkpt>
      <trkpt lat="43.18433" lon="5.82246">
        <ele>167.80000305176</ele>
        <time>2016-04-13T13:54:50.000Z</time>
      </trkpt>
      <trkpt lat="43.18462" lon="5.82221">
        <ele>169.19999694824</ele>
        <time>2016-04-13T13:54:56.000Z</time>
      </trkpt>
      <trkpt lat="43.18476" lon="5.82212">
        <ele>170.39999389648</ele>
        <time>2016-04-13T13:54:59.000Z</time>
      </trkpt>
      <trkpt lat="43.18497" lon="5.822">
        <ele>171.39999389648</ele>
        <time>2016-04-13T13:55:03.000Z</time>
      </trkpt>
      <trkpt lat="43.18512" lon="5.82192">
        <ele>171.39999389648</ele>
        <time>2016-04-13T13:55:06.000Z</time>
      </trkpt>
      <trkpt lat="43.18546" lon="5.82168">
        <ele>171.19999694824</ele>
        <time>2016-04-13T13:55:13.000Z</time>
      </trkpt>
      <trkpt lat="43.18587" lon="5.82133">
        <ele>172</ele>
        <time>2016-04-13T13:55:22.000Z</time>
      </trkpt>
      <trkpt lat="43.186" lon="5.8212">
        <ele>172.60000610352</ele>
        <time>2016-04-13T13:55:25.000Z</time>
      </trkpt>
      <trkpt lat="43.18625" lon="5.82097">
        <ele>173.19999694824</ele>
        <time>2016-04-13T13:55:32.000Z</time>
      </trkpt>
      <trkpt lat="43.18631" lon="5.82094">
        <ele>173.19999694824</ele>
        <time>2016-04-13T13:55:36.000Z</time>
      </trkpt>
      <trkpt lat="43.18633" lon="5.82091">
        <ele>173.19999694824</ele>
        <time>2016-04-13T13:55:37.000Z</time>
      </trkpt>
      <trkpt lat="43.18633" lon="5.82082">
        <ele>173.39999389648</ele>
        <time>2016-04-13T13:55:39.000Z</time>
      </trkpt>
      <trkpt lat="43.1863" lon="5.82065">
        <ele>174</ele>
        <time>2016-04-13T13:55:42.000Z</time>
      </trkpt>
      <trkpt lat="43.18628" lon="5.82052">
        <ele>174.39999389648</ele>
        <time>2016-04-13T13:55:44.000Z</time>
      </trkpt>
      <trkpt lat="43.18617" lon="5.82007">
        <ele>176.19999694824</ele>
        <time>2016-04-13T13:55:51.000Z</time>
      </trkpt>
      <trkpt lat="43.18616" lon="5.82001">
        <ele>176.39999389648</ele>
        <time>2016-04-13T13:55:52.000Z</time>
      </trkpt>
      <trkpt lat="43.18604" lon="5.81965">
        <ele>178</ele>
        <time>2016-04-13T13:55:58.000Z</time>
      </trkpt>
      <trkpt lat="43.18602" lon="5.81959">
        <ele>178.19999694824</ele>
        <time>2016-04-13T13:55:59.000Z</time>
      </trkpt>
      <trkpt lat="43.18596" lon="5.81943">
        <ele>179</ele>
        <time>2016-04-13T13:56:02.000Z</time>
      </trkpt>
      <trkpt lat="43.18587" lon="5.81919">
        <ele>180</ele>
        <time>2016-04-13T13:56:07.000Z</time>
      </trkpt>
      <trkpt lat="43.18583" lon="5.81904">
        <ele>180.80000305176</ele>
        <time>2016-04-13T13:56:11.000Z</time>
      </trkpt>
      <trkpt lat="43.18584" lon="5.81902">
        <ele>180.80000305176</ele>
        <time>2016-04-13T13:56:12.000Z</time>
      </trkpt>
      <trkpt lat="43.18585" lon="5.81898">
        <ele>181</ele>
        <time>2016-04-13T13:56:21.000Z</time>
      </trkpt>
      <trkpt lat="43.18585" lon="5.81895">
        <ele>181</ele>
        <time>2016-04-13T13:56:22.000Z</time>
      </trkpt>
      <trkpt lat="43.1858" lon="5.81883">
        <ele>181.80000305176</ele>
        <time>2016-04-13T13:56:27.000Z</time>
      </trkpt>
      <trkpt lat="43.1857" lon="5.81858">
        <ele>183.39999389648</ele>
        <time>2016-04-13T13:56:31.000Z</time>
      </trkpt>
      <trkpt lat="43.18565" lon="5.81834">
        <ele>184.19999694824</ele>
        <time>2016-04-13T13:56:34.000Z</time>
      </trkpt>
      <trkpt lat="43.18557" lon="5.81803">
        <ele>185.19999694824</ele>
        <time>2016-04-13T13:56:38.000Z</time>
      </trkpt>
      <trkpt lat="43.18551" lon="5.8179">
        <ele>185.60000610352</ele>
        <time>2016-04-13T13:56:40.000Z</time>
      </trkpt>
      <trkpt lat="43.18543" lon="5.81777">
        <ele>186.39999389648</ele>
        <time>2016-04-13T13:56:42.000Z</time>
      </trkpt>
      <trkpt lat="43.18539" lon="5.81771">
        <ele>186.60000610352</ele>
        <time>2016-04-13T13:56:43.000Z</time>
      </trkpt>
      <trkpt lat="43.18522" lon="5.8175">
        <ele>188.19999694824</ele>
        <time>2016-04-13T13:56:47.000Z</time>
      </trkpt>
      <trkpt lat="43.18518" lon="5.81744">
        <ele>188.39999389648</ele>
        <time>2016-04-13T13:56:48.000Z</time>
      </trkpt>
      <trkpt lat="43.18515" lon="5.81737">
        <ele>188.60000610352</ele>
        <time>2016-04-13T13:56:49.000Z</time>
      </trkpt>
      <trkpt lat="43.1851" lon="5.81723">
        <ele>189</ele>
        <time>2016-04-13T13:56:51.000Z</time>
      </trkpt>
      <trkpt lat="43.18505" lon="5.81703">
        <ele>189.60000610352</ele>
        <time>2016-04-13T13:56:54.000Z</time>
      </trkpt>
      <trkpt lat="43.18504" lon="5.81695">
        <ele>189.80000305176</ele>
        <time>2016-04-13T13:56:55.000Z</time>
      </trkpt>
      <trkpt lat="43.18502" lon="5.81688">
        <ele>190</ele>
        <time>2016-04-13T13:56:56.000Z</time>
      </trkpt>
      <trkpt lat="43.18493" lon="5.81667">
        <ele>190.80000305176</ele>
        <time>2016-04-13T13:56:59.000Z</time>
      </trkpt>
      <trkpt lat="43.18489" lon="5.81661">
        <ele>191</ele>
        <time>2016-04-13T13:57:00.000Z</time>
      </trkpt>
      <trkpt lat="43.18475" lon="5.81644">
        <ele>192.19999694824</ele>
        <time>2016-04-13T13:57:03.000Z</time>
      </trkpt>
      <trkpt lat="43.18457" lon="5.81625">
        <ele>194</ele>
        <time>2016-04-13T13:57:07.000Z</time>
      </trkpt>
      <trkpt lat="43.18452" lon="5.81622">
        <ele>194.39999389648</ele>
        <time>2016-04-13T13:57:08.000Z</time>
      </trkpt>
      <trkpt lat="43.18437" lon="5.81609">
        <ele>196</ele>
        <time>2016-04-13T13:57:11.000Z</time>
      </trkpt>
      <trkpt lat="43.18428" lon="5.81589">
        <ele>197.39999389648</ele>
        <time>2016-04-13T13:57:14.000Z</time>
      </trkpt>
      <trkpt lat="43.18426" lon="5.81581">
        <ele>198</ele>
        <time>2016-04-13T13:57:15.000Z</time>
      </trkpt>
      <trkpt lat="43.18421" lon="5.81568">
        <ele>199</ele>
        <time>2016-04-13T13:57:17.000Z</time>
      </trkpt>
      <trkpt lat="43.18416" lon="5.81545">
        <ele>200.80000305176</ele>
        <time>2016-04-13T13:57:20.000Z</time>
      </trkpt>
      <trkpt lat="43.18413" lon="5.81529">
        <ele>202.39999389648</ele>
        <time>2016-04-13T13:57:22.000Z</time>
      </trkpt>
      <trkpt lat="43.1841" lon="5.81505">
        <ele>205</ele>
        <time>2016-04-13T13:57:25.000Z</time>
      </trkpt>
      <trkpt lat="43.18408" lon="5.81489">
        <ele>206.60000610352</ele>
        <time>2016-04-13T13:57:27.000Z</time>
      </trkpt>
      <trkpt lat="43.18407" lon="5.81465">
        <ele>208.80000305176</ele>
        <time>2016-04-13T13:57:30.000Z</time>
      </trkpt>
      <trkpt lat="43.18406" lon="5.81458">
        <ele>209.60000610352</ele>
        <time>2016-04-13T13:57:31.000Z</time>
      </trkpt>
      <trkpt lat="43.18401" lon="5.81451">
        <ele>210.60000610352</ele>
        <time>2016-04-13T13:57:33.000Z</time>
      </trkpt>
      <trkpt lat="43.18399" lon="5.81454">
        <ele>210.60000610352</ele>
        <time>2016-04-13T13:57:35.000Z</time>
      </trkpt>
      <trkpt lat="43.18397" lon="5.81457">
        <ele>210.39999389648</ele>
        <time>2016-04-13T13:57:36.000Z</time>
      </trkpt>
      <trkpt lat="43.18394" lon="5.81461">
        <ele>210.19999694824</ele>
        <time>2016-04-13T13:57:37.000Z</time>
      </trkpt>
      <trkpt lat="43.18386" lon="5.81469">
        <ele>209.80000305176</ele>
        <time>2016-04-13T13:57:39.000Z</time>
      </trkpt>
      <trkpt lat="43.18381" lon="5.81474">
        <ele>209.60000610352</ele>
        <time>2016-04-13T13:57:40.000Z</time>
      </trkpt>
      <trkpt lat="43.18375" lon="5.81478">
        <ele>209.60000610352</ele>
        <time>2016-04-13T13:57:41.000Z</time>
      </trkpt>
      <trkpt lat="43.18365" lon="5.81488">
        <ele>209.19999694824</ele>
        <time>2016-04-13T13:57:43.000Z</time>
      </trkpt>
      <trkpt lat="43.18355" lon="5.81497">
        <ele>209.60000610352</ele>
        <time>2016-04-13T13:57:45.000Z</time>
      </trkpt>
      <trkpt lat="43.18344" lon="5.81504">
        <ele>210.19999694824</ele>
        <time>2016-04-13T13:57:47.000Z</time>
      </trkpt>
      <trkpt lat="43.18332" lon="5.81509">
        <ele>211.39999389648</ele>
        <time>2016-04-13T13:57:49.000Z</time>
      </trkpt>
      <trkpt lat="43.18321" lon="5.81514">
        <ele>212.60000610352</ele>
        <time>2016-04-13T13:57:51.000Z</time>
      </trkpt>
      <trkpt lat="43.18303" lon="5.81522">
        <ele>214</ele>
        <time>2016-04-13T13:57:54.000Z</time>
      </trkpt>
      <trkpt lat="43.18264" lon="5.81532">
        <ele>216.19999694824</ele>
        <time>2016-04-13T13:58:01.000Z</time>
      </trkpt>
      <trkpt lat="43.18226" lon="5.81542">
        <ele>219.80000305176</ele>
        <time>2016-04-13T13:58:08.000Z</time>
      </trkpt>
      <trkpt lat="43.1821" lon="5.81549">
        <ele>221</ele>
        <time>2016-04-13T13:58:11.000Z</time>
      </trkpt>
      <trkpt lat="43.1819" lon="5.81558">
        <ele>222.19999694824</ele>
        <time>2016-04-13T13:58:15.000Z</time>
      </trkpt>
      <trkpt lat="43.18185" lon="5.8156">
        <ele>222.39999389648</ele>
        <time>2016-04-13T13:58:16.000Z</time>
      </trkpt>
      <trkpt lat="43.18177" lon="5.81566">
        <ele>222.80000305176</ele>
        <time>2016-04-13T13:58:18.000Z</time>
      </trkpt>
      <trkpt lat="43.18167" lon="5.81572">
        <ele>223</ele>
        <time>2016-04-13T13:58:20.000Z</time>
      </trkpt>
      <trkpt lat="43.18158" lon="5.81576">
        <ele>223.39999389648</ele>
        <time>2016-04-13T13:58:22.000Z</time>
      </trkpt>
      <trkpt lat="43.18153" lon="5.81578">
        <ele>223.80000305176</ele>
        <time>2016-04-13T13:58:23.000Z</time>
      </trkpt>
      <trkpt lat="43.18148" lon="5.81579">
        <ele>224.19999694824</ele>
        <time>2016-04-13T13:58:24.000Z</time>
      </trkpt>
      <trkpt lat="43.18132" lon="5.8158">
        <ele>225.80000305176</ele>
        <time>2016-04-13T13:58:27.000Z</time>
      </trkpt>
      <trkpt lat="43.18116" lon="5.8158">
        <ele>227.39999389648</ele>
        <time>2016-04-13T13:58:30.000Z</time>
      </trkpt>
      <trkpt lat="43.18111" lon="5.8158">
        <ele>228</ele>
        <time>2016-04-13T13:58:31.000Z</time>
      </trkpt>
      <trkpt lat="43.18106" lon="5.8158">
        <ele>228.60000610352</ele>
        <time>2016-04-13T13:58:32.000Z</time>
      </trkpt>
      <trkpt lat="43.18097" lon="5.81575">
        <ele>230</ele>
        <time>2016-04-13T13:58:34.000Z</time>
      </trkpt>
      <trkpt lat="43.18093" lon="5.81572">
        <ele>231</ele>
        <time>2016-04-13T13:58:35.000Z</time>
      </trkpt>
      <trkpt lat="43.18086" lon="5.81556">
        <ele>233.39999389648</ele>
        <time>2016-04-13T13:58:38.000Z</time>
      </trkpt>
      <trkpt lat="43.18084" lon="5.81552">
        <ele>234.39999389648</ele>
        <time>2016-04-13T13:58:39.000Z</time>
      </trkpt>
      <trkpt lat="43.18081" lon="5.81551">
        <ele>235</ele>
        <time>2016-04-13T13:58:40.000Z</time>
      </trkpt>
      <trkpt lat="43.18076" lon="5.81552">
        <ele>235</ele>
        <time>2016-04-13T13:58:41.000Z</time>
      </trkpt>
      <trkpt lat="43.18067" lon="5.81556">
        <ele>234.60000610352</ele>
        <time>2016-04-13T13:58:43.000Z</time>
      </trkpt>
      <trkpt lat="43.18057" lon="5.81561">
        <ele>234.39999389648</ele>
        <time>2016-04-13T13:58:45.000Z</time>
      </trkpt>
      <trkpt lat="43.18052" lon="5.81564">
        <ele>234.39999389648</ele>
        <time>2016-04-13T13:58:46.000Z</time>
      </trkpt>
      <trkpt lat="43.18047" lon="5.81566">
        <ele>234.39999389648</ele>
        <time>2016-04-13T13:58:47.000Z</time>
      </trkpt>
      <trkpt lat="43.18032" lon="5.81574">
        <ele>234.39999389648</ele>
        <time>2016-04-13T13:58:50.000Z</time>
      </trkpt>
      <trkpt lat="43.18021" lon="5.81573">
        <ele>234.80000305176</ele>
        <time>2016-04-13T13:58:52.000Z</time>
      </trkpt>
      <trkpt lat="43.18011" lon="5.8157">
        <ele>235.80000305176</ele>
        <time>2016-04-13T13:58:54.000Z</time>
      </trkpt>
      <trkpt lat="43.18005" lon="5.81568">
        <ele>236.19999694824</ele>
        <time>2016-04-13T13:58:55.000Z</time>
      </trkpt>
      <trkpt lat="43.1799" lon="5.81563">
        <ele>237.19999694824</ele>
        <time>2016-04-13T13:58:58.000Z</time>
      </trkpt>
      <trkpt lat="43.17964" lon="5.81557">
        <ele>238.80000305176</ele>
        <time>2016-04-13T13:59:03.000Z</time>
      </trkpt>
      <trkpt lat="43.17948" lon="5.81555">
        <ele>239.60000610352</ele>
        <time>2016-04-13T13:59:06.000Z</time>
      </trkpt>
      <trkpt lat="43.17942" lon="5.81555">
        <ele>239.60000610352</ele>
        <time>2016-04-13T13:59:07.000Z</time>
      </trkpt>
      <trkpt lat="43.17927" lon="5.81553">
        <ele>240.19999694824</ele>
        <time>2016-04-13T13:59:10.000Z</time>
      </trkpt>
      <trkpt lat="43.17922" lon="5.8155">
        <ele>240.19999694824</ele>
        <time>2016-04-13T13:59:11.000Z</time>
      </trkpt>
      <trkpt lat="43.17918" lon="5.81547">
        <ele>240.39999389648</ele>
        <time>2016-04-13T13:59:12.000Z</time>
      </trkpt>
      <trkpt lat="43.17914" lon="5.81536">
        <ele>241.80000305176</ele>
        <time>2016-04-13T13:59:14.000Z</time>
      </trkpt>
      <trkpt lat="43.17913" lon="5.81529">
        <ele>242.80000305176</ele>
        <time>2016-04-13T13:59:15.000Z</time>
      </trkpt>
      <trkpt lat="43.1791" lon="5.81517">
        <ele>244.60000610352</ele>
        <time>2016-04-13T13:59:17.000Z</time>
      </trkpt>
      <trkpt lat="43.17907" lon="5.81512">
        <ele>245.19999694824</ele>
        <time>2016-04-13T13:59:18.000Z</time>
      </trkpt>
      <trkpt lat="43.17904" lon="5.81508">
        <ele>245.60000610352</ele>
        <time>2016-04-13T13:59:19.000Z</time>
      </trkpt>
      <trkpt lat="43.179" lon="5.81503">
        <ele>246</ele>
        <time>2016-04-13T13:59:20.000Z</time>
      </trkpt>
      <trkpt lat="43.17896" lon="5.81498">
        <ele>246.39999389648</ele>
        <time>2016-04-13T13:59:21.000Z</time>
      </trkpt>
      <trkpt lat="43.17887" lon="5.8149">
        <ele>246.80000305176</ele>
        <time>2016-04-13T13:59:23.000Z</time>
      </trkpt>
      <trkpt lat="43.17879" lon="5.81481">
        <ele>247.39999389648</ele>
        <time>2016-04-13T13:59:25.000Z</time>
      </trkpt>
      <trkpt lat="43.17876" lon="5.81475">
        <ele>248.19999694824</ele>
        <time>2016-04-13T13:59:26.000Z</time>
      </trkpt>
      <trkpt lat="43.17874" lon="5.81462">
        <ele>250.39999389648</ele>
        <time>2016-04-13T13:59:28.000Z</time>
      </trkpt>
      <trkpt lat="43.17875" lon="5.81455">
        <ele>251.60000610352</ele>
        <time>2016-04-13T13:59:29.000Z</time>
      </trkpt>
      <trkpt lat="43.17876" lon="5.81448">
        <ele>253</ele>
        <time>2016-04-13T13:59:30.000Z</time>
      </trkpt>
      <trkpt lat="43.17879" lon="5.8144">
        <ele>254.80000305176</ele>
        <time>2016-04-13T13:59:31.000Z</time>
      </trkpt>
      <trkpt lat="43.17882" lon="5.81432">
        <ele>256.79998779297</ele>
        <time>2016-04-13T13:59:32.000Z</time>
      </trkpt>
      <trkpt lat="43.17888" lon="5.81414">
        <ele>259.60000610352</ele>
        <time>2016-04-13T13:59:34.000Z</time>
      </trkpt>
      <trkpt lat="43.17892" lon="5.81389">
        <ele>262.79998779297</ele>
        <time>2016-04-13T13:59:37.000Z</time>
      </trkpt>
      <trkpt lat="43.1789" lon="5.81367">
        <ele>268.20001220703</ele>
        <time>2016-04-13T13:59:41.000Z</time>
      </trkpt>
      <trkpt lat="43.17888" lon="5.81356">
        <ele>270.79998779297</ele>
        <time>2016-04-13T13:59:43.000Z</time>
      </trkpt>
      <trkpt lat="43.17887" lon="5.81345">
        <ele>273.20001220703</ele>
        <time>2016-04-13T13:59:46.000Z</time>
      </trkpt>
      <trkpt lat="43.17887" lon="5.81349">
        <ele>272.39999389648</ele>
        <time>2016-04-13T13:59:49.000Z</time>
      </trkpt>
      <trkpt lat="43.17886" lon="5.81354">
        <ele>271.20001220703</ele>
        <time>2016-04-13T13:59:50.000Z</time>
      </trkpt>
      <trkpt lat="43.17884" lon="5.8137">
        <ele>267</ele>
        <time>2016-04-13T13:59:53.000Z</time>
      </trkpt>
      <trkpt lat="43.17881" lon="5.81372">
        <ele>266.39999389648</ele>
        <time>2016-04-13T13:59:54.000Z</time>
      </trkpt>
      <trkpt lat="43.1787" lon="5.81368">
        <ele>266.60000610352</ele>
        <time>2016-04-13T13:59:57.000Z</time>
      </trkpt>
      <trkpt lat="43.1787" lon="5.81365">
        <ele>267.60000610352</ele>
        <time>2016-04-13T13:59:58.000Z</time>
      </trkpt>
      <trkpt lat="43.17873" lon="5.81355">
        <ele>270.20001220703</ele>
        <time>2016-04-13T14:00:00.000Z</time>
      </trkpt>
      <trkpt lat="43.17876" lon="5.81343">
        <ele>273.20001220703</ele>
        <time>2016-04-13T14:00:02.000Z</time>
      </trkpt>
      <trkpt lat="43.17879" lon="5.81332">
        <ele>275.20001220703</ele>
        <time>2016-04-13T14:00:04.000Z</time>
      </trkpt>
      <trkpt lat="43.17881" lon="5.8132">
        <ele>276.39999389648</ele>
        <time>2016-04-13T14:00:06.000Z</time>
      </trkpt>
      <trkpt lat="43.17881" lon="5.81315">
        <ele>276.79998779297</ele>
        <time>2016-04-13T14:00:07.000Z</time>
      </trkpt>
      <trkpt lat="43.17882" lon="5.81309">
        <ele>277.39999389648</ele>
        <time>2016-04-13T14:00:08.000Z</time>
      </trkpt>
      <trkpt lat="43.17882" lon="5.81298">
        <ele>279.39999389648</ele>
        <time>2016-04-13T14:00:10.000Z</time>
      </trkpt>
      <trkpt lat="43.17882" lon="5.81286">
        <ele>281.39999389648</ele>
        <time>2016-04-13T14:00:12.000Z</time>
      </trkpt>
      <trkpt lat="43.17882" lon="5.81277">
        <ele>283.39999389648</ele>
        <time>2016-04-13T14:00:14.000Z</time>
      </trkpt>
      <trkpt lat="43.17881" lon="5.81267">
        <ele>285.20001220703</ele>
        <time>2016-04-13T14:00:16.000Z</time>
      </trkpt>
      <trkpt lat="43.17879" lon="5.81259">
        <ele>287</ele>
        <time>2016-04-13T14:00:18.000Z</time>
      </trkpt>
      <trkpt lat="43.17877" lon="5.81253">
        <ele>288.20001220703</ele>
        <time>2016-04-13T14:00:20.000Z</time>
      </trkpt>
      <trkpt lat="43.17877" lon="5.81248">
        <ele>289</ele>
        <time>2016-04-13T14:00:22.000Z</time>
      </trkpt>
      <trkpt lat="43.17877" lon="5.81243">
        <ele>290</ele>
        <time>2016-04-13T14:00:24.000Z</time>
      </trkpt>
      <trkpt lat="43.17877" lon="5.81238">
        <ele>290.79998779297</ele>
        <time>2016-04-13T14:00:26.000Z</time>
      </trkpt>
      <trkpt lat="43.17877" lon="5.81235">
        <ele>291.20001220703</ele>
        <time>2016-04-13T14:00:27.000Z</time>
      </trkpt>
      <trkpt lat="43.17877" lon="5.81233">
        <ele>291.60000610352</ele>
        <time>2016-04-13T14:00:28.000Z</time>
      </trkpt>
      <trkpt lat="43.17877" lon="5.81227">
        <ele>292.60000610352</ele>
        <time>2016-04-13T14:00:30.000Z</time>
      </trkpt>
      <trkpt lat="43.17878" lon="5.81221">
        <ele>293.60000610352</ele>
        <time>2016-04-13T14:00:32.000Z</time>
      </trkpt>
      <trkpt lat="43.17879" lon="5.81215">
        <ele>294.60000610352</ele>
        <time>2016-04-13T14:00:34.000Z</time>
      </trkpt>
      <trkpt lat="43.17881" lon="5.81209">
        <ele>295.39999389648</ele>
        <time>2016-04-13T14:00:36.000Z</time>
      </trkpt>
      <trkpt lat="43.17882" lon="5.81206">
        <ele>296</ele>
        <time>2016-04-13T14:00:37.000Z</time>
      </trkpt>
      <trkpt lat="43.17882" lon="5.81195">
        <ele>298</ele>
        <time>2016-04-13T14:00:40.000Z</time>
      </trkpt>
      <trkpt lat="43.17882" lon="5.81188">
        <ele>299.39999389648</ele>
        <time>2016-04-13T14:00:42.000Z</time>
      </trkpt>
      <trkpt lat="43.17882" lon="5.81181">
        <ele>300.79998779297</ele>
        <time>2016-04-13T14:00:44.000Z</time>
      </trkpt>
      <trkpt lat="43.17887" lon="5.81156">
        <ele>303.79998779297</ele>
        <time>2016-04-13T14:00:48.000Z</time>
      </trkpt>
      <trkpt lat="43.17894" lon="5.81143">
        <ele>304.60000610352</ele>
        <time>2016-04-13T14:00:49.000Z</time>
      </trkpt>
      <trkpt lat="43.17903" lon="5.81123">
        <ele>304.60000610352</ele>
        <time>2016-04-13T14:00:52.000Z</time>
      </trkpt>
      <trkpt lat="43.17905" lon="5.81106">
        <ele>305</ele>
        <time>2016-04-13T14:00:55.000Z</time>
      </trkpt>
      <trkpt lat="43.17904" lon="5.811">
        <ele>305.20001220703</ele>
        <time>2016-04-13T14:00:56.000Z</time>
      </trkpt>
      <trkpt lat="43.17903" lon="5.81081">
        <ele>305.79998779297</ele>
        <time>2016-04-13T14:00:59.000Z</time>
      </trkpt>
      <trkpt lat="43.17899" lon="5.81061">
        <ele>307.20001220703</ele>
        <time>2016-04-13T14:01:02.000Z</time>
      </trkpt>
      <trkpt lat="43.17897" lon="5.81055">
        <ele>307.60000610352</ele>
        <time>2016-04-13T14:01:03.000Z</time>
      </trkpt>
      <trkpt lat="43.17895" lon="5.8105">
        <ele>307.39999389648</ele>
        <time>2016-04-13T14:01:04.000Z</time>
      </trkpt>
      <trkpt lat="43.17887" lon="5.81036">
        <ele>306.79998779297</ele>
        <time>2016-04-13T14:01:07.000Z</time>
      </trkpt>
      <trkpt lat="43.17884" lon="5.81031">
        <ele>306.60000610352</ele>
        <time>2016-04-13T14:01:08.000Z</time>
      </trkpt>
      <trkpt lat="43.17875" lon="5.81018">
        <ele>306.60000610352</ele>
        <time>2016-04-13T14:01:11.000Z</time>
      </trkpt>
      <trkpt lat="43.17865" lon="5.81006">
        <ele>306.79998779297</ele>
        <time>2016-04-13T14:01:14.000Z</time>
      </trkpt>
      <trkpt lat="43.17862" lon="5.81003">
        <ele>307</ele>
        <time>2016-04-13T14:01:15.000Z</time>
      </trkpt>
      <trkpt lat="43.17856" lon="5.80996">
        <ele>307.20001220703</ele>
        <time>2016-04-13T14:01:17.000Z</time>
      </trkpt>
      <trkpt lat="43.17843" lon="5.80984">
        <ele>307.79998779297</ele>
        <time>2016-04-13T14:01:21.000Z</time>
      </trkpt>
      <trkpt lat="43.17837" lon="5.80979">
        <ele>308</ele>
        <time>2016-04-13T14:01:23.000Z</time>
      </trkpt>
      <trkpt lat="43.17833" lon="5.80972">
        <ele>307.60000610352</ele>
        <time>2016-04-13T14:01:25.000Z</time>
      </trkpt>
      <trkpt lat="43.17831" lon="5.80963">
        <ele>307.79998779297</ele>
        <time>2016-04-13T14:01:27.000Z</time>
      </trkpt>
      <trkpt lat="43.17832" lon="5.80958">
        <ele>307.60000610352</ele>
        <time>2016-04-13T14:01:28.000Z</time>
      </trkpt>
      <trkpt lat="43.17839" lon="5.80946">
        <ele>306.79998779297</ele>
        <time>2016-04-13T14:01:31.000Z</time>
      </trkpt>
      <trkpt lat="43.17848" lon="5.8093">
        <ele>305.79998779297</ele>
        <time>2016-04-13T14:01:35.000Z</time>
      </trkpt>
      <trkpt lat="43.17854" lon="5.80914">
        <ele>305.20001220703</ele>
        <time>2016-04-13T14:01:39.000Z</time>
      </trkpt>
      <trkpt lat="43.17854" lon="5.80901">
        <ele>305.20001220703</ele>
        <time>2016-04-13T14:01:42.000Z</time>
      </trkpt>
      <trkpt lat="43.17852" lon="5.80897">
        <ele>305.39999389648</ele>
        <time>2016-04-13T14:01:43.000Z</time>
      </trkpt>
      <trkpt lat="43.17847" lon="5.80892">
        <ele>305.79998779297</ele>
        <time>2016-04-13T14:01:45.000Z</time>
      </trkpt>
      <trkpt lat="43.1784" lon="5.80888">
        <ele>306.60000610352</ele>
        <time>2016-04-13T14:01:47.000Z</time>
      </trkpt>
      <trkpt lat="43.1783" lon="5.8088">
        <ele>307.60000610352</ele>
        <time>2016-04-13T14:01:50.000Z</time>
      </trkpt>
      <trkpt lat="43.17826" lon="5.80872">
        <ele>307.79998779297</ele>
        <time>2016-04-13T14:01:52.000Z</time>
      </trkpt>
      <trkpt lat="43.17825" lon="5.80867">
        <ele>308.20001220703</ele>
        <time>2016-04-13T14:01:53.000Z</time>
      </trkpt>
      <trkpt lat="43.1782" lon="5.80848">
        <ele>310.39999389648</ele>
        <time>2016-04-13T14:01:57.000Z</time>
      </trkpt>
      <trkpt lat="43.17815" lon="5.80836">
        <ele>311.79998779297</ele>
        <time>2016-04-13T14:02:00.000Z</time>
      </trkpt>
      <trkpt lat="43.17811" lon="5.80828">
        <ele>312.79998779297</ele>
        <time>2016-04-13T14:02:02.000Z</time>
      </trkpt>
      <trkpt lat="43.17805" lon="5.80822">
        <ele>313.39999389648</ele>
        <time>2016-04-13T14:02:04.000Z</time>
      </trkpt>
      <trkpt lat="43.17802" lon="5.80819">
        <ele>313.60000610352</ele>
        <time>2016-04-13T14:02:05.000Z</time>
      </trkpt>
      <trkpt lat="43.17796" lon="5.80812">
        <ele>314.39999389648</ele>
        <time>2016-04-13T14:02:07.000Z</time>
      </trkpt>
      <trkpt lat="43.17787" lon="5.80796">
        <ele>316.20001220703</ele>
        <time>2016-04-13T14:02:11.000Z</time>
      </trkpt>
      <trkpt lat="43.17775" lon="5.80775">
        <ele>319</ele>
        <time>2016-04-13T14:02:16.000Z</time>
      </trkpt>
      <trkpt lat="43.17768" lon="5.80763">
        <ele>320.39999389648</ele>
        <time>2016-04-13T14:02:19.000Z</time>
      </trkpt>
      <trkpt lat="43.17764" lon="5.80755">
        <ele>321.20001220703</ele>
        <time>2016-04-13T14:02:21.000Z</time>
      </trkpt>
      <trkpt lat="43.17762" lon="5.80752">
        <ele>321.79998779297</ele>
        <time>2016-04-13T14:02:22.000Z</time>
      </trkpt>
      <trkpt lat="43.17756" lon="5.80741">
        <ele>322.79998779297</ele>
        <time>2016-04-13T14:02:25.000Z</time>
      </trkpt>
      <trkpt lat="43.17749" lon="5.80732">
        <ele>323.79998779297</ele>
        <time>2016-04-13T14:02:28.000Z</time>
      </trkpt>
      <trkpt lat="43.17746" lon="5.8073">
        <ele>324</ele>
        <time>2016-04-13T14:02:29.000Z</time>
      </trkpt>
      <trkpt lat="43.17743" lon="5.80729">
        <ele>323.79998779297</ele>
        <time>2016-04-13T14:02:30.000Z</time>
      </trkpt>
      <trkpt lat="43.17732" lon="5.80733">
        <ele>322.60000610352</ele>
        <time>2016-04-13T14:02:33.000Z</time>
      </trkpt>
      <trkpt lat="43.17728" lon="5.80736">
        <ele>322</ele>
        <time>2016-04-13T14:02:34.000Z</time>
      </trkpt>
      <trkpt lat="43.17711" lon="5.80751">
        <ele>318.79998779297</ele>
        <time>2016-04-13T14:02:38.000Z</time>
      </trkpt>
      <trkpt lat="43.17686" lon="5.80775">
        <ele>321.39999389648</ele>
        <time>2016-04-13T14:02:44.000Z</time>
      </trkpt>
      <trkpt lat="43.17682" lon="5.80787">
        <ele>322.20001220703</ele>
        <time>2016-04-13T14:02:47.000Z</time>
      </trkpt>
      <trkpt lat="43.17681" lon="5.80792">
        <ele>322.39999389648</ele>
        <time>2016-04-13T14:02:48.000Z</time>
      </trkpt>
      <trkpt lat="43.17677" lon="5.80813">
        <ele>323.39999389648</ele>
        <time>2016-04-13T14:02:52.000Z</time>
      </trkpt>
      <trkpt lat="43.17669" lon="5.80837">
        <ele>324.60000610352</ele>
        <time>2016-04-13T14:02:57.000Z</time>
      </trkpt>
      <trkpt lat="43.17661" lon="5.80848">
        <ele>324.39999389648</ele>
        <time>2016-04-13T14:03:00.000Z</time>
      </trkpt>
      <trkpt lat="43.17657" lon="5.80849">
        <ele>324</ele>
        <time>2016-04-13T14:03:01.000Z</time>
      </trkpt>
      <trkpt lat="43.17636" lon="5.80851">
        <ele>321.79998779297</ele>
        <time>2016-04-13T14:03:05.000Z</time>
      </trkpt>
      <trkpt lat="43.1763" lon="5.80854">
        <ele>322</ele>
        <time>2016-04-13T14:03:06.000Z</time>
      </trkpt>
      <trkpt lat="43.17618" lon="5.80859">
        <ele>322.20001220703</ele>
        <time>2016-04-13T14:03:08.000Z</time>
      </trkpt>
      <trkpt lat="43.17597" lon="5.80862">
        <ele>321.79998779297</ele>
        <time>2016-04-13T14:03:11.000Z</time>
      </trkpt>
      <trkpt lat="43.17581" lon="5.80871">
        <ele>321.60000610352</ele>
        <time>2016-04-13T14:03:13.000Z</time>
      </trkpt>
      <trkpt lat="43.17574" lon="5.80876">
        <ele>321.60000610352</ele>
        <time>2016-04-13T14:03:14.000Z</time>
      </trkpt>
      <trkpt lat="43.17567" lon="5.80881">
        <ele>321.60000610352</ele>
        <time>2016-04-13T14:03:15.000Z</time>
      </trkpt>
      <trkpt lat="43.17554" lon="5.80889">
        <ele>321.60000610352</ele>
        <time>2016-04-13T14:03:17.000Z</time>
      </trkpt>
      <trkpt lat="43.17536" lon="5.80902">
        <ele>319.20001220703</ele>
        <time>2016-04-13T14:03:20.000Z</time>
      </trkpt>
      <trkpt lat="43.17522" lon="5.80918">
        <ele>318.20001220703</ele>
        <time>2016-04-13T14:03:23.000Z</time>
      </trkpt>
      <trkpt lat="43.17514" lon="5.80928">
        <ele>318</ele>
        <time>2016-04-13T14:03:25.000Z</time>
      </trkpt>
      <trkpt lat="43.17506" lon="5.80937">
        <ele>317.79998779297</ele>
        <time>2016-04-13T14:03:27.000Z</time>
      </trkpt>
      <trkpt lat="43.17483" lon="5.80955">
        <ele>315.60000610352</ele>
        <time>2016-04-13T14:03:32.000Z</time>
      </trkpt>
      <trkpt lat="43.17473" lon="5.8096">
        <ele>314.20001220703</ele>
        <time>2016-04-13T14:03:34.000Z</time>
      </trkpt>
      <trkpt lat="43.17456" lon="5.80966">
        <ele>311.79998779297</ele>
        <time>2016-04-13T14:03:37.000Z</time>
      </trkpt>
      <trkpt lat="43.17445" lon="5.80972">
        <ele>310.20001220703</ele>
        <time>2016-04-13T14:03:39.000Z</time>
      </trkpt>
      <trkpt lat="43.17435" lon="5.80983">
        <ele>308.20001220703</ele>
        <time>2016-04-13T14:03:41.000Z</time>
      </trkpt>
      <trkpt lat="43.17426" lon="5.80995">
        <ele>307.60000610352</ele>
        <time>2016-04-13T14:03:43.000Z</time>
      </trkpt>
      <trkpt lat="43.17421" lon="5.81">
        <ele>306.60000610352</ele>
        <time>2016-04-13T14:03:44.000Z</time>
      </trkpt>
      <trkpt lat="43.17417" lon="5.81003">
        <ele>305.79998779297</ele>
        <time>2016-04-13T14:03:45.000Z</time>
      </trkpt>
      <trkpt lat="43.17414" lon="5.81004">
        <ele>304.79998779297</ele>
        <time>2016-04-13T14:03:46.000Z</time>
      </trkpt>
      <trkpt lat="43.17409" lon="5.81002">
        <ele>303.79998779297</ele>
        <time>2016-04-13T14:03:47.000Z</time>
      </trkpt>
      <trkpt lat="43.17403" lon="5.80997">
        <ele>302.60000610352</ele>
        <time>2016-04-13T14:03:48.000Z</time>
      </trkpt>
      <trkpt lat="43.17397" lon="5.80992">
        <ele>301.39999389648</ele>
        <time>2016-04-13T14:03:49.000Z</time>
      </trkpt>
      <trkpt lat="43.17391" lon="5.80986">
        <ele>300</ele>
        <time>2016-04-13T14:03:50.000Z</time>
      </trkpt>
      <trkpt lat="43.17384" lon="5.8098">
        <ele>298.60000610352</ele>
        <time>2016-04-13T14:03:51.000Z</time>
      </trkpt>
      <trkpt lat="43.17377" lon="5.80974">
        <ele>297</ele>
        <time>2016-04-13T14:03:52.000Z</time>
      </trkpt>
      <trkpt lat="43.1737" lon="5.80968">
        <ele>295.39999389648</ele>
        <time>2016-04-13T14:03:53.000Z</time>
      </trkpt>
      <trkpt lat="43.17363" lon="5.80961">
        <ele>293.79998779297</ele>
        <time>2016-04-13T14:03:54.000Z</time>
      </trkpt>
      <trkpt lat="43.17356" lon="5.80954">
        <ele>292.20001220703</ele>
        <time>2016-04-13T14:03:55.000Z</time>
      </trkpt>
      <trkpt lat="43.1735" lon="5.80947">
        <ele>290.79998779297</ele>
        <time>2016-04-13T14:03:56.000Z</time>
      </trkpt>
      <trkpt lat="43.17344" lon="5.80937">
        <ele>289.60000610352</ele>
        <time>2016-04-13T14:03:57.000Z</time>
      </trkpt>
      <trkpt lat="43.1734" lon="5.80926">
        <ele>289.60000610352</ele>
        <time>2016-04-13T14:03:58.000Z</time>
      </trkpt>
      <trkpt lat="43.17335" lon="5.80913">
        <ele>289.79998779297</ele>
        <time>2016-04-13T14:03:59.000Z</time>
      </trkpt>
      <trkpt lat="43.17329" lon="5.80901">
        <ele>289.79998779297</ele>
        <time>2016-04-13T14:04:00.000Z</time>
      </trkpt>
      <trkpt lat="43.17317" lon="5.80877">
        <ele>288.39999389648</ele>
        <time>2016-04-13T14:04:02.000Z</time>
      </trkpt>
      <trkpt lat="43.17311" lon="5.80866">
        <ele>287</ele>
        <time>2016-04-13T14:04:03.000Z</time>
      </trkpt>
      <trkpt lat="43.17305" lon="5.80855">
        <ele>285.79998779297</ele>
        <time>2016-04-13T14:04:04.000Z</time>
      </trkpt>
      <trkpt lat="43.17298" lon="5.80845">
        <ele>284.39999389648</ele>
        <time>2016-04-13T14:04:05.000Z</time>
      </trkpt>
      <trkpt lat="43.17291" lon="5.80834">
        <ele>283.39999389648</ele>
        <time>2016-04-13T14:04:06.000Z</time>
      </trkpt>
      <trkpt lat="43.17284" lon="5.80824">
        <ele>282.79998779297</ele>
        <time>2016-04-13T14:04:07.000Z</time>
      </trkpt>
      <trkpt lat="43.17276" lon="5.80815">
        <ele>282</ele>
        <time>2016-04-13T14:04:08.000Z</time>
      </trkpt>
      <trkpt lat="43.17268" lon="5.80806">
        <ele>281.20001220703</ele>
        <time>2016-04-13T14:04:09.000Z</time>
      </trkpt>
      <trkpt lat="43.1726" lon="5.80798">
        <ele>279.39999389648</ele>
        <time>2016-04-13T14:04:10.000Z</time>
      </trkpt>
      <trkpt lat="43.17252" lon="5.80789">
        <ele>277.60000610352</ele>
        <time>2016-04-13T14:04:11.000Z</time>
      </trkpt>
      <trkpt lat="43.17244" lon="5.80781">
        <ele>275.60000610352</ele>
        <time>2016-04-13T14:04:12.000Z</time>
      </trkpt>
      <trkpt lat="43.17235" lon="5.80773">
        <ele>273.79998779297</ele>
        <time>2016-04-13T14:04:13.000Z</time>
      </trkpt>
      <trkpt lat="43.17227" lon="5.80766">
        <ele>272</ele>
        <time>2016-04-13T14:04:14.000Z</time>
      </trkpt>
      <trkpt lat="43.1722" lon="5.80759">
        <ele>270.39999389648</ele>
        <time>2016-04-13T14:04:15.000Z</time>
      </trkpt>
      <trkpt lat="43.17214" lon="5.80752">
        <ele>269</ele>
        <time>2016-04-13T14:04:16.000Z</time>
      </trkpt>
      <trkpt lat="43.17208" lon="5.80745">
        <ele>267.60000610352</ele>
        <time>2016-04-13T14:04:17.000Z</time>
      </trkpt>
      <trkpt lat="43.17202" lon="5.80739">
        <ele>266.20001220703</ele>
        <time>2016-04-13T14:04:18.000Z</time>
      </trkpt>
      <trkpt lat="43.17197" lon="5.80733">
        <ele>265</ele>
        <time>2016-04-13T14:04:19.000Z</time>
      </trkpt>
      <trkpt lat="43.17191" lon="5.80729">
        <ele>263.79998779297</ele>
        <time>2016-04-13T14:04:20.000Z</time>
      </trkpt>
      <trkpt lat="43.17186" lon="5.80726">
        <ele>262.60000610352</ele>
        <time>2016-04-13T14:04:21.000Z</time>
      </trkpt>
      <trkpt lat="43.17181" lon="5.80724">
        <ele>261.60000610352</ele>
        <time>2016-04-13T14:04:22.000Z</time>
      </trkpt>
      <trkpt lat="43.17175" lon="5.80723">
        <ele>260.60000610352</ele>
        <time>2016-04-13T14:04:23.000Z</time>
      </trkpt>
      <trkpt lat="43.17171" lon="5.80721">
        <ele>259.60000610352</ele>
        <time>2016-04-13T14:04:24.000Z</time>
      </trkpt>
      <trkpt lat="43.17166" lon="5.80717">
        <ele>258.60000610352</ele>
        <time>2016-04-13T14:04:25.000Z</time>
      </trkpt>
      <trkpt lat="43.17162" lon="5.80713">
        <ele>257.79998779297</ele>
        <time>2016-04-13T14:04:26.000Z</time>
      </trkpt>
      <trkpt lat="43.17159" lon="5.80707">
        <ele>256.79998779297</ele>
        <time>2016-04-13T14:04:27.000Z</time>
      </trkpt>
      <trkpt lat="43.17151" lon="5.80693">
        <ele>254.80000305176</ele>
        <time>2016-04-13T14:04:29.000Z</time>
      </trkpt>
      <trkpt lat="43.17145" lon="5.80678">
        <ele>253.39999389648</ele>
        <time>2016-04-13T14:04:31.000Z</time>
      </trkpt>
      <trkpt lat="43.17136" lon="5.80663">
        <ele>251.39999389648</ele>
        <time>2016-04-13T14:04:33.000Z</time>
      </trkpt>
      <trkpt lat="43.17131" lon="5.80656">
        <ele>250.19999694824</ele>
        <time>2016-04-13T14:04:34.000Z</time>
      </trkpt>
      <trkpt lat="43.17126" lon="5.8065">
        <ele>249.19999694824</ele>
        <time>2016-04-13T14:04:35.000Z</time>
      </trkpt>
      <trkpt lat="43.17113" lon="5.80639">
        <ele>246.19999694824</ele>
        <time>2016-04-13T14:04:37.000Z</time>
      </trkpt>
      <trkpt lat="43.17099" lon="5.8063">
        <ele>243.80000305176</ele>
        <time>2016-04-13T14:04:39.000Z</time>
      </trkpt>
      <trkpt lat="43.17092" lon="5.80626">
        <ele>242.60000610352</ele>
        <time>2016-04-13T14:04:40.000Z</time>
      </trkpt>
      <trkpt lat="43.17079" lon="5.80619">
        <ele>239.80000305176</ele>
        <time>2016-04-13T14:04:42.000Z</time>
      </trkpt>
      <trkpt lat="43.17065" lon="5.8061">
        <ele>237.19999694824</ele>
        <time>2016-04-13T14:04:44.000Z</time>
      </trkpt>
      <trkpt lat="43.17053" lon="5.80603">
        <ele>235</ele>
        <time>2016-04-13T14:04:46.000Z</time>
      </trkpt>
      <trkpt lat="43.17042" lon="5.80596">
        <ele>233</ele>
        <time>2016-04-13T14:04:48.000Z</time>
      </trkpt>
      <trkpt lat="43.17037" lon="5.80592">
        <ele>232.19999694824</ele>
        <time>2016-04-13T14:04:49.000Z</time>
      </trkpt>
      <trkpt lat="43.17033" lon="5.80589">
        <ele>231.60000610352</ele>
        <time>2016-04-13T14:04:50.000Z</time>
      </trkpt>
      <trkpt lat="43.17024" lon="5.80582">
        <ele>230</ele>
        <time>2016-04-13T14:04:52.000Z</time>
      </trkpt>
      <trkpt lat="43.17016" lon="5.80576">
        <ele>228.39999389648</ele>
        <time>2016-04-13T14:04:54.000Z</time>
      </trkpt>
      <trkpt lat="43.17008" lon="5.80569">
        <ele>226.80000305176</ele>
        <time>2016-04-13T14:04:56.000Z</time>
      </trkpt>
      <trkpt lat="43.16999" lon="5.80562">
        <ele>224.60000610352</ele>
        <time>2016-04-13T14:04:58.000Z</time>
      </trkpt>
      <trkpt lat="43.16991" lon="5.80555">
        <ele>222.19999694824</ele>
        <time>2016-04-13T14:05:00.000Z</time>
      </trkpt>
      <trkpt lat="43.16987" lon="5.8055">
        <ele>221</ele>
        <time>2016-04-13T14:05:01.000Z</time>
      </trkpt>
      <trkpt lat="43.16982" lon="5.80544">
        <ele>219.60000610352</ele>
        <time>2016-04-13T14:05:02.000Z</time>
      </trkpt>
      <trkpt lat="43.16977" lon="5.80538">
        <ele>218</ele>
        <time>2016-04-13T14:05:03.000Z</time>
      </trkpt>
      <trkpt lat="43.16971" lon="5.80532">
        <ele>216.60000610352</ele>
        <time>2016-04-13T14:05:04.000Z</time>
      </trkpt>
      <trkpt lat="43.1696" lon="5.80519">
        <ele>213</ele>
        <time>2016-04-13T14:05:06.000Z</time>
      </trkpt>
      <trkpt lat="43.16951" lon="5.80507">
        <ele>210.39999389648</ele>
        <time>2016-04-13T14:05:08.000Z</time>
      </trkpt>
      <trkpt lat="43.16947" lon="5.80499">
        <ele>209.60000610352</ele>
        <time>2016-04-13T14:05:09.000Z</time>
      </trkpt>
      <trkpt lat="43.16945" lon="5.80491">
        <ele>209</ele>
        <time>2016-04-13T14:05:10.000Z</time>
      </trkpt>
      <trkpt lat="43.16943" lon="5.80468">
        <ele>209.60000610352</ele>
        <time>2016-04-13T14:05:12.000Z</time>
      </trkpt>
      <trkpt lat="43.16942" lon="5.80457">
        <ele>210</ele>
        <time>2016-04-13T14:05:13.000Z</time>
      </trkpt>
      <trkpt lat="43.16942" lon="5.80446">
        <ele>210.19999694824</ele>
        <time>2016-04-13T14:05:14.000Z</time>
      </trkpt>
      <trkpt lat="43.1694" lon="5.80418">
        <ele>210.60000610352</ele>
        <time>2016-04-13T14:05:17.000Z</time>
      </trkpt>
      <trkpt lat="43.16937" lon="5.804">
        <ele>210</ele>
        <time>2016-04-13T14:05:19.000Z</time>
      </trkpt>
      <trkpt lat="43.16934" lon="5.80392">
        <ele>209.19999694824</ele>
        <time>2016-04-13T14:05:20.000Z</time>
      </trkpt>
      <trkpt lat="43.16931" lon="5.80384">
        <ele>208.19999694824</ele>
        <time>2016-04-13T14:05:21.000Z</time>
      </trkpt>
      <trkpt lat="43.16928" lon="5.80376">
        <ele>207</ele>
        <time>2016-04-13T14:05:22.000Z</time>
      </trkpt>
      <trkpt lat="43.16923" lon="5.80363">
        <ele>205.80000305176</ele>
        <time>2016-04-13T14:05:24.000Z</time>
      </trkpt>
      <trkpt lat="43.16918" lon="5.80353">
        <ele>205</ele>
        <time>2016-04-13T14:05:26.000Z</time>
      </trkpt>
      <trkpt lat="43.16915" lon="5.80351">
        <ele>204.39999389648</ele>
        <time>2016-04-13T14:05:27.000Z</time>
      </trkpt>
      <trkpt lat="43.16912" lon="5.80352">
        <ele>203.80000305176</ele>
        <time>2016-04-13T14:05:28.000Z</time>
      </trkpt>
      <trkpt lat="43.16904" lon="5.80353">
        <ele>202.60000610352</ele>
        <time>2016-04-13T14:05:30.000Z</time>
      </trkpt>
      <trkpt lat="43.16897" lon="5.80349">
        <ele>201.39999389648</ele>
        <time>2016-04-13T14:05:32.000Z</time>
      </trkpt>
      <trkpt lat="43.16896" lon="5.80345">
        <ele>201.19999694824</ele>
        <time>2016-04-13T14:05:33.000Z</time>
      </trkpt>
      <trkpt lat="43.16896" lon="5.80341">
        <ele>201</ele>
        <time>2016-04-13T14:05:34.000Z</time>
      </trkpt>
      <trkpt lat="43.16899" lon="5.80331">
        <ele>201.39999389648</ele>
        <time>2016-04-13T14:05:36.000Z</time>
      </trkpt>
      <trkpt lat="43.16901" lon="5.80325">
        <ele>201.80000305176</ele>
        <time>2016-04-13T14:05:37.000Z</time>
      </trkpt>
      <trkpt lat="43.16903" lon="5.80319">
        <ele>202</ele>
        <time>2016-04-13T14:05:38.000Z</time>
      </trkpt>
      <trkpt lat="43.16905" lon="5.80312">
        <ele>202.19999694824</ele>
        <time>2016-04-13T14:05:39.000Z</time>
      </trkpt>
      <trkpt lat="43.16912" lon="5.80298">
        <ele>202.80000305176</ele>
        <time>2016-04-13T14:05:41.000Z</time>
      </trkpt>
      <trkpt lat="43.16922" lon="5.80275">
        <ele>201.39999389648</ele>
        <time>2016-04-13T14:05:44.000Z</time>
      </trkpt>
      <trkpt lat="43.16932" lon="5.80248">
        <ele>199.60000610352</ele>
        <time>2016-04-13T14:05:47.000Z</time>
      </trkpt>
      <trkpt lat="43.16935" lon="5.80237">
        <ele>199.39999389648</ele>
        <time>2016-04-13T14:05:48.000Z</time>
      </trkpt>
      <trkpt lat="43.16945" lon="5.80202">
        <ele>197.80000305176</ele>
        <time>2016-04-13T14:05:51.000Z</time>
      </trkpt>
      <trkpt lat="43.16951" lon="5.80181">
        <ele>196.39999389648</ele>
        <time>2016-04-13T14:05:53.000Z</time>
      </trkpt>
      <trkpt lat="43.16953" lon="5.80162">
        <ele>194.19999694824</ele>
        <time>2016-04-13T14:05:55.000Z</time>
      </trkpt>
      <trkpt lat="43.16954" lon="5.80153">
        <ele>192.80000305176</ele>
        <time>2016-04-13T14:05:56.000Z</time>
      </trkpt>
      <trkpt lat="43.16953" lon="5.80144">
        <ele>191.19999694824</ele>
        <time>2016-04-13T14:05:57.000Z</time>
      </trkpt>
      <trkpt lat="43.16953" lon="5.80135">
        <ele>189.80000305176</ele>
        <time>2016-04-13T14:05:58.000Z</time>
      </trkpt>
      <trkpt lat="43.16953" lon="5.80126">
        <ele>189.19999694824</ele>
        <time>2016-04-13T14:05:59.000Z</time>
      </trkpt>
      <trkpt lat="43.16958" lon="5.80109">
        <ele>189.19999694824</ele>
        <time>2016-04-13T14:06:01.000Z</time>
      </trkpt>
      <trkpt lat="43.16972" lon="5.80089">
        <ele>190.80000305176</ele>
        <time>2016-04-13T14:06:04.000Z</time>
      </trkpt>
      <trkpt lat="43.16983" lon="5.80074">
        <ele>189.80000305176</ele>
        <time>2016-04-13T14:06:06.000Z</time>
      </trkpt>
      <trkpt lat="43.16994" lon="5.80061">
        <ele>189</ele>
        <time>2016-04-13T14:06:08.000Z</time>
      </trkpt>
      <trkpt lat="43.17" lon="5.80055">
        <ele>188.80000305176</ele>
        <time>2016-04-13T14:06:09.000Z</time>
      </trkpt>
      <trkpt lat="43.17006" lon="5.8005">
        <ele>189.60000610352</ele>
        <time>2016-04-13T14:06:10.000Z</time>
      </trkpt>
      <trkpt lat="43.17012" lon="5.80045">
        <ele>190.60000610352</ele>
        <time>2016-04-13T14:06:11.000Z</time>
      </trkpt>
      <trkpt lat="43.17028" lon="5.80033">
        <ele>195.19999694824</ele>
        <time>2016-04-13T14:06:14.000Z</time>
      </trkpt>
      <trkpt lat="43.17033" lon="5.80027">
        <ele>196.39999389648</ele>
        <time>2016-04-13T14:06:15.000Z</time>
      </trkpt>
      <trkpt lat="43.17036" lon="5.8002">
        <ele>197.19999694824</ele>
        <time>2016-04-13T14:06:16.000Z</time>
      </trkpt>
      <trkpt lat="43.17039" lon="5.80006">
        <ele>197.39999389648</ele>
        <time>2016-04-13T14:06:18.000Z</time>
      </trkpt>
      <trkpt lat="43.1703" lon="5.79997">
        <ele>194.19999694824</ele>
        <time>2016-04-13T14:06:20.000Z</time>
      </trkpt>
      <trkpt lat="43.17016" lon="5.79991">
        <ele>189.60000610352</ele>
        <time>2016-04-13T14:06:22.000Z</time>
      </trkpt>
      <trkpt lat="43.16997" lon="5.79981">
        <ele>184.19999694824</ele>
        <time>2016-04-13T14:06:25.000Z</time>
      </trkpt>
      <trkpt lat="43.16978" lon="5.79971">
        <ele>179.39999389648</ele>
        <time>2016-04-13T14:06:28.000Z</time>
      </trkpt>
      <trkpt lat="43.1696" lon="5.79957">
        <ele>176.19999694824</ele>
        <time>2016-04-13T14:06:31.000Z</time>
      </trkpt>
      <trkpt lat="43.1695" lon="5.79944">
        <ele>174.80000305176</ele>
        <time>2016-04-13T14:06:33.000Z</time>
      </trkpt>
      <trkpt lat="43.16946" lon="5.79936">
        <ele>174.39999389648</ele>
        <time>2016-04-13T14:06:34.000Z</time>
      </trkpt>
      <trkpt lat="43.16943" lon="5.79928">
        <ele>174.19999694824</ele>
        <time>2016-04-13T14:06:35.000Z</time>
      </trkpt>
      <trkpt lat="43.16939" lon="5.799">
        <ele>175</ele>
        <time>2016-04-13T14:06:38.000Z</time>
      </trkpt>
      <trkpt lat="43.16939" lon="5.7989">
        <ele>176.19999694824</ele>
        <time>2016-04-13T14:06:39.000Z</time>
      </trkpt>
      <trkpt lat="43.1694" lon="5.7988">
        <ele>176.80000305176</ele>
        <time>2016-04-13T14:06:40.000Z</time>
      </trkpt>
      <trkpt lat="43.16939" lon="5.7986">
        <ele>177</ele>
        <time>2016-04-13T14:06:42.000Z</time>
      </trkpt>
      <trkpt lat="43.16935" lon="5.79839">
        <ele>176.39999389648</ele>
        <time>2016-04-13T14:06:44.000Z</time>
      </trkpt>
      <trkpt lat="43.1693" lon="5.7982">
        <ele>175.39999389648</ele>
        <time>2016-04-13T14:06:46.000Z</time>
      </trkpt>
      <trkpt lat="43.1692" lon="5.79771">
        <ele>174</ele>
        <time>2016-04-13T14:06:51.000Z</time>
      </trkpt>
      <trkpt lat="43.16919" lon="5.79762">
        <ele>173.80000305176</ele>
        <time>2016-04-13T14:06:52.000Z</time>
      </trkpt>
      <trkpt lat="43.1691" lon="5.79707">
        <ele>172.80000305176</ele>
        <time>2016-04-13T14:06:58.000Z</time>
      </trkpt>
      <trkpt lat="43.16909" lon="5.79698">
        <ele>172.19999694824</ele>
        <time>2016-04-13T14:06:59.000Z</time>
      </trkpt>
      <trkpt lat="43.1691" lon="5.79661">
        <ele>169.39999389648</ele>
        <time>2016-04-13T14:07:03.000Z</time>
      </trkpt>
      <trkpt lat="43.16912" lon="5.79652">
        <ele>169</ele>
        <time>2016-04-13T14:07:04.000Z</time>
      </trkpt>
      <trkpt lat="43.1692" lon="5.79634">
        <ele>168.60000610352</ele>
        <time>2016-04-13T14:07:06.000Z</time>
      </trkpt>
      <trkpt lat="43.16924" lon="5.79625">
        <ele>168.19999694824</ele>
        <time>2016-04-13T14:07:07.000Z</time>
      </trkpt>
      <trkpt lat="43.16928" lon="5.79616">
        <ele>167.60000610352</ele>
        <time>2016-04-13T14:07:08.000Z</time>
      </trkpt>
      <trkpt lat="43.16939" lon="5.79585">
        <ele>168</ele>
        <time>2016-04-13T14:07:11.000Z</time>
      </trkpt>
      <trkpt lat="43.16942" lon="5.79575">
        <ele>168</ele>
        <time>2016-04-13T14:07:12.000Z</time>
      </trkpt>
      <trkpt lat="43.16949" lon="5.79554">
        <ele>167</ele>
        <time>2016-04-13T14:07:14.000Z</time>
      </trkpt>
      <trkpt lat="43.16956" lon="5.79522">
        <ele>166.39999389648</ele>
        <time>2016-04-13T14:07:17.000Z</time>
      </trkpt>
      <trkpt lat="43.16961" lon="5.79491">
        <ele>164.60000610352</ele>
        <time>2016-04-13T14:07:20.000Z</time>
      </trkpt>
      <trkpt lat="43.16967" lon="5.79462">
        <ele>162.80000305176</ele>
        <time>2016-04-13T14:07:23.000Z</time>
      </trkpt>
      <trkpt lat="43.16972" lon="5.79442">
        <ele>162.39999389648</ele>
        <time>2016-04-13T14:07:25.000Z</time>
      </trkpt>
      <trkpt lat="43.16978" lon="5.79423">
        <ele>161.80000305176</ele>
        <time>2016-04-13T14:07:27.000Z</time>
      </trkpt>
      <trkpt lat="43.16986" lon="5.79404">
        <ele>161</ele>
        <time>2016-04-13T14:07:29.000Z</time>
      </trkpt>
      <trkpt lat="43.16989" lon="5.79394">
        <ele>160.39999389648</ele>
        <time>2016-04-13T14:07:30.000Z</time>
      </trkpt>
      <trkpt lat="43.16996" lon="5.79374">
        <ele>160.19999694824</ele>
        <time>2016-04-13T14:07:32.000Z</time>
      </trkpt>
      <trkpt lat="43.17003" lon="5.79349">
        <ele>160.80000305176</ele>
        <time>2016-04-13T14:07:35.000Z</time>
      </trkpt>
      <trkpt lat="43.16999" lon="5.79324">
        <ele>159</ele>
        <time>2016-04-13T14:07:38.000Z</time>
      </trkpt>
      <trkpt lat="43.16989" lon="5.793">
        <ele>156</ele>
        <time>2016-04-13T14:07:41.000Z</time>
      </trkpt>
      <trkpt lat="43.16983" lon="5.79276">
        <ele>153.19999694824</ele>
        <time>2016-04-13T14:07:44.000Z</time>
      </trkpt>
      <trkpt lat="43.16982" lon="5.79258">
        <ele>152.60000610352</ele>
        <time>2016-04-13T14:07:46.000Z</time>
      </trkpt>
      <trkpt lat="43.16984" lon="5.79238">
        <ele>152.60000610352</ele>
        <time>2016-04-13T14:07:48.000Z</time>
      </trkpt>
      <trkpt lat="43.16986" lon="5.79217">
        <ele>152.80000305176</ele>
        <time>2016-04-13T14:07:50.000Z</time>
      </trkpt>
      <trkpt lat="43.16987" lon="5.79189">
        <ele>154.19999694824</ele>
        <time>2016-04-13T14:07:53.000Z</time>
      </trkpt>
      <trkpt lat="43.16987" lon="5.79181">
        <ele>154</ele>
        <time>2016-04-13T14:07:54.000Z</time>
      </trkpt>
      <trkpt lat="43.16986" lon="5.79173">
        <ele>154</ele>
        <time>2016-04-13T14:07:55.000Z</time>
      </trkpt>
      <trkpt lat="43.16985" lon="5.79147">
        <ele>153.60000610352</ele>
        <time>2016-04-13T14:07:59.000Z</time>
      </trkpt>
      <trkpt lat="43.16988" lon="5.79113">
        <ele>154.60000610352</ele>
        <time>2016-04-13T14:08:04.000Z</time>
      </trkpt>
      <trkpt lat="43.1699" lon="5.79106">
        <ele>154.60000610352</ele>
        <time>2016-04-13T14:08:05.000Z</time>
      </trkpt>
      <trkpt lat="43.16999" lon="5.79071">
        <ele>155.39999389648</ele>
        <time>2016-04-13T14:08:10.000Z</time>
      </trkpt>
      <trkpt lat="43.16998" lon="5.79065">
        <ele>155.19999694824</ele>
        <time>2016-04-13T14:08:11.000Z</time>
      </trkpt>
      <trkpt lat="43.16996" lon="5.7906">
        <ele>154.39999389648</ele>
        <time>2016-04-13T14:08:12.000Z</time>
      </trkpt>
      <trkpt lat="43.16986" lon="5.79054">
        <ele>152.80000305176</ele>
        <time>2016-04-13T14:08:14.000Z</time>
      </trkpt>
      <trkpt lat="43.16981" lon="5.79051">
        <ele>151.80000305176</ele>
        <time>2016-04-13T14:08:15.000Z</time>
      </trkpt>
      <trkpt lat="43.16975" lon="5.79048">
        <ele>150.60000610352</ele>
        <time>2016-04-13T14:08:16.000Z</time>
      </trkpt>
      <trkpt lat="43.16961" lon="5.79041">
        <ele>147.60000610352</ele>
        <time>2016-04-13T14:08:19.000Z</time>
      </trkpt>
      <trkpt lat="43.16955" lon="5.79037">
        <ele>146.60000610352</ele>
        <time>2016-04-13T14:09:06.000Z</time>
      </trkpt>
      <trkpt lat="43.16951" lon="5.79034">
        <ele>145.60000610352</ele>
        <time>2016-04-13T14:09:08.000Z</time>
      </trkpt>
      <trkpt lat="43.16927" lon="5.79025">
        <ele>141.19999694824</ele>
        <time>2016-04-13T14:09:13.000Z</time>
      </trkpt>
      <trkpt lat="43.16908" lon="5.79017">
        <ele>137.60000610352</ele>
        <time>2016-04-13T14:09:17.000Z</time>
      </trkpt>
      <trkpt lat="43.16904" lon="5.79014">
        <ele>136.80000305176</ele>
        <time>2016-04-13T14:09:18.000Z</time>
      </trkpt>
      <trkpt lat="43.16897" lon="5.78998">
        <ele>134.60000610352</ele>
        <time>2016-04-13T14:09:21.000Z</time>
      </trkpt>
      <trkpt lat="43.16896" lon="5.7899">
        <ele>134.19999694824</ele>
        <time>2016-04-13T14:09:22.000Z</time>
      </trkpt>
      <trkpt lat="43.16898" lon="5.78977">
        <ele>133.60000610352</ele>
        <time>2016-04-13T14:09:24.000Z</time>
      </trkpt>
      <trkpt lat="43.16899" lon="5.7897">
        <ele>133.39999389648</ele>
        <time>2016-04-13T14:09:25.000Z</time>
      </trkpt>
      <trkpt lat="43.169" lon="5.78965">
        <ele>133.19999694824</ele>
        <time>2016-04-13T14:09:26.000Z</time>
      </trkpt>
      <trkpt lat="43.16906" lon="5.7895">
        <ele>133.19999694824</ele>
        <time>2016-04-13T14:09:29.000Z</time>
      </trkpt>
      <trkpt lat="43.16909" lon="5.78947">
        <ele>133.39999389648</ele>
        <time>2016-04-13T14:09:30.000Z</time>
      </trkpt>
      <trkpt lat="43.16914" lon="5.78945">
        <ele>134</ele>
        <time>2016-04-13T14:09:31.000Z</time>
      </trkpt>
      <trkpt lat="43.16919" lon="5.78947">
        <ele>134.80000305176</ele>
        <time>2016-04-13T14:09:32.000Z</time>
      </trkpt>
      <trkpt lat="43.16925" lon="5.78949">
        <ele>135.80000305176</ele>
        <time>2016-04-13T14:09:33.000Z</time>
      </trkpt>
      <trkpt lat="43.1693" lon="5.78949">
        <ele>136.39999389648</ele>
        <time>2016-04-13T14:09:34.000Z</time>
      </trkpt>
      <trkpt lat="43.16936" lon="5.78946">
        <ele>136.60000610352</ele>
        <time>2016-04-13T14:09:35.000Z</time>
      </trkpt>
      <trkpt lat="43.16941" lon="5.78941">
        <ele>136.60000610352</ele>
        <time>2016-04-13T14:09:36.000Z</time>
      </trkpt>
      <trkpt lat="43.16951" lon="5.78927">
        <ele>136.19999694824</ele>
        <time>2016-04-13T14:09:38.000Z</time>
      </trkpt>
      <trkpt lat="43.16955" lon="5.78918">
        <ele>135.80000305176</ele>
        <time>2016-04-13T14:09:39.000Z</time>
      </trkpt>
      <trkpt lat="43.16959" lon="5.78907">
        <ele>135.19999694824</ele>
        <time>2016-04-13T14:09:40.000Z</time>
      </trkpt>
      <trkpt lat="43.16962" lon="5.78898">
        <ele>134.80000305176</ele>
        <time>2016-04-13T14:09:41.000Z</time>
      </trkpt>
      <trkpt lat="43.16976" lon="5.78861">
        <ele>132.39999389648</ele>
        <time>2016-04-13T14:09:45.000Z</time>
      </trkpt>
      <trkpt lat="43.16981" lon="5.78844">
        <ele>131.39999389648</ele>
        <time>2016-04-13T14:09:47.000Z</time>
      </trkpt>
      <trkpt lat="43.16983" lon="5.78826">
        <ele>130</ele>
        <time>2016-04-13T14:09:49.000Z</time>
      </trkpt>
      <trkpt lat="43.1698" lon="5.78798">
        <ele>127.40000152588</ele>
        <time>2016-04-13T14:09:52.000Z</time>
      </trkpt>
      <trkpt lat="43.16978" lon="5.78788">
        <ele>126.40000152588</ele>
        <time>2016-04-13T14:09:53.000Z</time>
      </trkpt>
      <trkpt lat="43.16975" lon="5.7877">
        <ele>124.59999847412</ele>
        <time>2016-04-13T14:09:55.000Z</time>
      </trkpt>
      <trkpt lat="43.16967" lon="5.78734">
        <ele>120.59999847412</ele>
        <time>2016-04-13T14:09:59.000Z</time>
      </trkpt>
      <trkpt lat="43.16965" lon="5.78724">
        <ele>119.40000152588</ele>
        <time>2016-04-13T14:10:00.000Z</time>
      </trkpt>
      <trkpt lat="43.16957" lon="5.78682">
        <ele>118.40000152588</ele>
        <time>2016-04-13T14:10:04.000Z</time>
      </trkpt>
      <trkpt lat="43.16955" lon="5.78672">
        <ele>118.19999694824</ele>
        <time>2016-04-13T14:10:05.000Z</time>
      </trkpt>
      <trkpt lat="43.16951" lon="5.78652">
        <ele>117</ele>
        <time>2016-04-13T14:10:07.000Z</time>
      </trkpt>
      <trkpt lat="43.16941" lon="5.78604">
        <ele>115.80000305176</ele>
        <time>2016-04-13T14:10:12.000Z</time>
      </trkpt>
      <trkpt lat="43.16938" lon="5.78596">
        <ele>115.80000305176</ele>
        <time>2016-04-13T14:10:13.000Z</time>
      </trkpt>
      <trkpt lat="43.1693" lon="5.78582">
        <ele>116</ele>
        <time>2016-04-13T14:10:15.000Z</time>
      </trkpt>
      <trkpt lat="43.16925" lon="5.78579">
        <ele>115.40000152588</ele>
        <time>2016-04-13T14:10:16.000Z</time>
      </trkpt>
      <trkpt lat="43.16912" lon="5.78573">
        <ele>113.40000152588</ele>
        <time>2016-04-13T14:10:18.000Z</time>
      </trkpt>
      <trkpt lat="43.169" lon="5.78565">
        <ele>111.59999847412</ele>
        <time>2016-04-13T14:10:20.000Z</time>
      </trkpt>
      <trkpt lat="43.16895" lon="5.78559">
        <ele>111</ele>
        <time>2016-04-13T14:10:21.000Z</time>
      </trkpt>
      <trkpt lat="43.1689" lon="5.78544">
        <ele>109.80000305176</ele>
        <time>2016-04-13T14:10:24.000Z</time>
      </trkpt>
      <trkpt lat="43.16888" lon="5.78536">
        <ele>109.19999694824</ele>
        <time>2016-04-13T14:10:25.000Z</time>
      </trkpt>
      <trkpt lat="43.16887" lon="5.78527">
        <ele>108.59999847412</ele>
        <time>2016-04-13T14:10:26.000Z</time>
      </trkpt>
      <trkpt lat="43.16884" lon="5.78506">
        <ele>107.40000152588</ele>
        <time>2016-04-13T14:10:28.000Z</time>
      </trkpt>
      <trkpt lat="43.16881" lon="5.78484">
        <ele>105.80000305176</ele>
        <time>2016-04-13T14:10:30.000Z</time>
      </trkpt>
      <trkpt lat="43.1688" lon="5.78472">
        <ele>105.19999694824</ele>
        <time>2016-04-13T14:10:31.000Z</time>
      </trkpt>
      <trkpt lat="43.16879" lon="5.78439">
        <ele>104.19999694824</ele>
        <time>2016-04-13T14:10:34.000Z</time>
      </trkpt>
      <trkpt lat="43.1688" lon="5.78417">
        <ele>103.59999847412</ele>
        <time>2016-04-13T14:10:36.000Z</time>
      </trkpt>
      <trkpt lat="43.16883" lon="5.78395">
        <ele>102.59999847412</ele>
        <time>2016-04-13T14:10:38.000Z</time>
      </trkpt>
      <trkpt lat="43.16886" lon="5.7837">
        <ele>101.59999847412</ele>
        <time>2016-04-13T14:10:40.000Z</time>
      </trkpt>
      <trkpt lat="43.16888" lon="5.78358">
        <ele>101.19999694824</ele>
        <time>2016-04-13T14:10:41.000Z</time>
      </trkpt>
      <trkpt lat="43.16888" lon="5.78347">
        <ele>100.80000305176</ele>
        <time>2016-04-13T14:10:42.000Z</time>
      </trkpt>
      <trkpt lat="43.16887" lon="5.78336">
        <ele>100</ele>
        <time>2016-04-13T14:10:43.000Z</time>
      </trkpt>
      <trkpt lat="43.16884" lon="5.78313">
        <ele>98.199996948242</ele>
        <time>2016-04-13T14:10:45.000Z</time>
      </trkpt>
      <trkpt lat="43.1688" lon="5.7829">
        <ele>96.800003051758</ele>
        <time>2016-04-13T14:10:47.000Z</time>
      </trkpt>
      <trkpt lat="43.16873" lon="5.78259">
        <ele>95.199996948242</ele>
        <time>2016-04-13T14:10:50.000Z</time>
      </trkpt>
      <trkpt lat="43.16867" lon="5.78229">
        <ele>93</ele>
        <time>2016-04-13T14:10:53.000Z</time>
      </trkpt>
      <trkpt lat="43.16865" lon="5.78219">
        <ele>92.400001525879</ele>
        <time>2016-04-13T14:10:54.000Z</time>
      </trkpt>
      <trkpt lat="43.16861" lon="5.78199">
        <ele>92</ele>
        <time>2016-04-13T14:10:56.000Z</time>
      </trkpt>
      <trkpt lat="43.16856" lon="5.78173">
        <ele>91.199996948242</ele>
        <time>2016-04-13T14:10:59.000Z</time>
      </trkpt>
      <trkpt lat="43.16853" lon="5.78156">
        <ele>90.800003051758</ele>
        <time>2016-04-13T14:11:01.000Z</time>
      </trkpt>
      <trkpt lat="43.16851" lon="5.78126">
        <ele>89.800003051758</ele>
        <time>2016-04-13T14:11:05.000Z</time>
      </trkpt>
      <trkpt lat="43.16851" lon="5.78118">
        <ele>89.400001525879</ele>
        <time>2016-04-13T14:11:06.000Z</time>
      </trkpt>
      <trkpt lat="43.1685" lon="5.78092">
        <ele>88.599998474121</ele>
        <time>2016-04-13T14:11:09.000Z</time>
      </trkpt>
      <trkpt lat="43.16851" lon="5.78066">
        <ele>87.599998474121</ele>
        <time>2016-04-13T14:11:12.000Z</time>
      </trkpt>
      <trkpt lat="43.16853" lon="5.78057">
        <ele>87.400001525879</ele>
        <time>2016-04-13T14:11:13.000Z</time>
      </trkpt>
      <trkpt lat="43.16859" lon="5.7803">
        <ele>85.800003051758</ele>
        <time>2016-04-13T14:11:16.000Z</time>
      </trkpt>
      <trkpt lat="43.16861" lon="5.78012">
        <ele>84.800003051758</ele>
        <time>2016-04-13T14:11:18.000Z</time>
      </trkpt>
      <trkpt lat="43.16861" lon="5.77988">
        <ele>83.400001525879</ele>
        <time>2016-04-13T14:11:21.000Z</time>
      </trkpt>
      <trkpt lat="43.16862" lon="5.77981">
        <ele>83</ele>
        <time>2016-04-13T14:11:22.000Z</time>
      </trkpt>
      <trkpt lat="43.16864" lon="5.77975">
        <ele>82.599998474121</ele>
        <time>2016-04-13T14:11:23.000Z</time>
      </trkpt>
      <trkpt lat="43.16866" lon="5.7797">
        <ele>82.199996948242</ele>
        <time>2016-04-13T14:11:24.000Z</time>
      </trkpt>
      <trkpt lat="43.16877" lon="5.77963">
        <ele>82</ele>
        <time>2016-04-13T14:11:26.000Z</time>
      </trkpt>
      <trkpt lat="43.16881" lon="5.77958">
        <ele>81.800003051758</ele>
        <time>2016-04-13T14:11:27.000Z</time>
      </trkpt>
      <trkpt lat="43.16884" lon="5.77953">
        <ele>81.599998474121</ele>
        <time>2016-04-13T14:11:28.000Z</time>
      </trkpt>
      <trkpt lat="43.16885" lon="5.77946">
        <ele>81.199996948242</ele>
        <time>2016-04-13T14:11:29.000Z</time>
      </trkpt>
      <trkpt lat="43.16885" lon="5.77921">
        <ele>80.199996948242</ele>
        <time>2016-04-13T14:11:32.000Z</time>
      </trkpt>
      <trkpt lat="43.16884" lon="5.77911">
        <ele>79.800003051758</ele>
        <time>2016-04-13T14:11:33.000Z</time>
      </trkpt>
      <trkpt lat="43.16877" lon="5.77865">
        <ele>77.199996948242</ele>
        <time>2016-04-13T14:11:38.000Z</time>
      </trkpt>
      <trkpt lat="43.16876" lon="5.77856">
        <ele>76.400001525879</ele>
        <time>2016-04-13T14:11:39.000Z</time>
      </trkpt>
      <trkpt lat="43.16875" lon="5.77846">
        <ele>75.800003051758</ele>
        <time>2016-04-13T14:11:40.000Z</time>
      </trkpt>
      <trkpt lat="43.16872" lon="5.77825">
        <ele>73.800003051758</ele>
        <time>2016-04-13T14:11:42.000Z</time>
      </trkpt>
      <trkpt lat="43.1687" lon="5.77804">
        <ele>71.599998474121</ele>
        <time>2016-04-13T14:11:44.000Z</time>
      </trkpt>
      <trkpt lat="43.16868" lon="5.77793">
        <ele>71.199996948242</ele>
        <time>2016-04-13T14:11:45.000Z</time>
      </trkpt>
      <trkpt lat="43.16866" lon="5.77782">
        <ele>71</ele>
        <time>2016-04-13T14:11:46.000Z</time>
      </trkpt>
      <trkpt lat="43.16862" lon="5.77752">
        <ele>70</ele>
        <time>2016-04-13T14:11:49.000Z</time>
      </trkpt>
      <trkpt lat="43.1686" lon="5.77734">
        <ele>69.199996948242</ele>
        <time>2016-04-13T14:11:51.000Z</time>
      </trkpt>
      <trkpt lat="43.1686" lon="5.77725">
        <ele>68.599998474121</ele>
        <time>2016-04-13T14:11:52.000Z</time>
      </trkpt>
      <trkpt lat="43.16859" lon="5.77716">
        <ele>68.199996948242</ele>
        <time>2016-04-13T14:11:53.000Z</time>
      </trkpt>
      <trkpt lat="43.16858" lon="5.777">
        <ele>67.800003051758</ele>
        <time>2016-04-13T14:11:55.000Z</time>
      </trkpt>
      <trkpt lat="43.16859" lon="5.77682">
        <ele>67</ele>
        <time>2016-04-13T14:11:57.000Z</time>
      </trkpt>
      <trkpt lat="43.1686" lon="5.77662">
        <ele>66.400001525879</ele>
        <time>2016-04-13T14:11:59.000Z</time>
      </trkpt>
      <trkpt lat="43.16863" lon="5.77644">
        <ele>65</ele>
        <time>2016-04-13T14:12:01.000Z</time>
      </trkpt>
      <trkpt lat="43.16865" lon="5.77627">
        <ele>63.599998474121</ele>
        <time>2016-04-13T14:12:03.000Z</time>
      </trkpt>
      <trkpt lat="43.16868" lon="5.77614">
        <ele>62.599998474121</ele>
        <time>2016-04-13T14:12:05.000Z</time>
      </trkpt>
      <trkpt lat="43.16873" lon="5.77606">
        <ele>61.599998474121</ele>
        <time>2016-04-13T14:12:07.000Z</time>
      </trkpt>
      <trkpt lat="43.1688" lon="5.77603">
        <ele>61</ele>
        <time>2016-04-13T14:12:09.000Z</time>
      </trkpt>
      <trkpt lat="43.16885" lon="5.77606">
        <ele>60.599998474121</ele>
        <time>2016-04-13T14:12:10.000Z</time>
      </trkpt>
      <trkpt lat="43.16889" lon="5.7761">
        <ele>60.599998474121</ele>
        <time>2016-04-13T14:12:11.000Z</time>
      </trkpt>
      <trkpt lat="43.16896" lon="5.77614">
        <ele>60.200000762939</ele>
        <time>2016-04-13T14:12:13.000Z</time>
      </trkpt>
      <trkpt lat="43.169" lon="5.77603">
        <ele>59.400001525879</ele>
        <time>2016-04-13T14:12:15.000Z</time>
      </trkpt>
      <trkpt lat="43.16901" lon="5.77588">
        <ele>58.599998474121</ele>
        <time>2016-04-13T14:12:17.000Z</time>
      </trkpt>
      <trkpt lat="43.16901" lon="5.77579">
        <ele>58.200000762939</ele>
        <time>2016-04-13T14:12:18.000Z</time>
      </trkpt>
      <trkpt lat="43.169" lon="5.77569">
        <ele>57.599998474121</ele>
        <time>2016-04-13T14:12:19.000Z</time>
      </trkpt>
      <trkpt lat="43.16899" lon="5.77545">
        <ele>56</ele>
        <time>2016-04-13T14:12:21.000Z</time>
      </trkpt>
      <trkpt lat="43.16897" lon="5.77521">
        <ele>53.400001525879</ele>
        <time>2016-04-13T14:12:23.000Z</time>
      </trkpt>
      <trkpt lat="43.16896" lon="5.77508">
        <ele>52.599998474121</ele>
        <time>2016-04-13T14:12:24.000Z</time>
      </trkpt>
      <trkpt lat="43.16895" lon="5.77496">
        <ele>51.799999237061</ele>
        <time>2016-04-13T14:12:25.000Z</time>
      </trkpt>
      <trkpt lat="43.16896" lon="5.77472">
        <ele>50.400001525879</ele>
        <time>2016-04-13T14:12:27.000Z</time>
      </trkpt>
      <trkpt lat="43.16898" lon="5.77461">
        <ele>49.200000762939</ele>
        <time>2016-04-13T14:12:28.000Z</time>
      </trkpt>
      <trkpt lat="43.16902" lon="5.77451">
        <ele>48.200000762939</ele>
        <time>2016-04-13T14:12:29.000Z</time>
      </trkpt>
      <trkpt lat="43.16906" lon="5.77442">
        <ele>47.400001525879</ele>
        <time>2016-04-13T14:12:30.000Z</time>
      </trkpt>
      <trkpt lat="43.16911" lon="5.77433">
        <ele>46.799999237061</ele>
        <time>2016-04-13T14:12:31.000Z</time>
      </trkpt>
      <trkpt lat="43.16916" lon="5.77425">
        <ele>46.400001525879</ele>
        <time>2016-04-13T14:12:32.000Z</time>
      </trkpt>
      <trkpt lat="43.16922" lon="5.77418">
        <ele>46</ele>
        <time>2016-04-13T14:12:33.000Z</time>
      </trkpt>
      <trkpt lat="43.16928" lon="5.77412">
        <ele>45.799999237061</ele>
        <time>2016-04-13T14:12:34.000Z</time>
      </trkpt>
      <trkpt lat="43.16934" lon="5.77408">
        <ele>45.799999237061</ele>
        <time>2016-04-13T14:12:35.000Z</time>
      </trkpt>
      <trkpt lat="43.1694" lon="5.77404">
        <ele>45.799999237061</ele>
        <time>2016-04-13T14:12:36.000Z</time>
      </trkpt>
      <trkpt lat="43.16944" lon="5.77398">
        <ele>45.599998474121</ele>
        <time>2016-04-13T14:12:37.000Z</time>
      </trkpt>
      <trkpt lat="43.16958" lon="5.77381">
        <ele>45</ele>
        <time>2016-04-13T14:12:40.000Z</time>
      </trkpt>
      <trkpt lat="43.16972" lon="5.77361">
        <ele>45</ele>
        <time>2016-04-13T14:12:43.000Z</time>
      </trkpt>
      <trkpt lat="43.16988" lon="5.77344">
        <ele>44.400001525879</ele>
        <time>2016-04-13T14:12:46.000Z</time>
      </trkpt>
      <trkpt lat="43.16994" lon="5.77342">
        <ele>44.200000762939</ele>
        <time>2016-04-13T14:12:47.000Z</time>
      </trkpt>
      <trkpt lat="43.17019" lon="5.77341">
        <ele>44.200000762939</ele>
        <time>2016-04-13T14:12:51.000Z</time>
      </trkpt>
      <trkpt lat="43.17035" lon="5.77343">
        <ele>44.599998474121</ele>
        <time>2016-04-13T14:12:54.000Z</time>
      </trkpt>
      <trkpt lat="43.1705" lon="5.77347">
        <ele>45</ele>
        <time>2016-04-13T14:12:57.000Z</time>
      </trkpt>
      <trkpt lat="43.17093" lon="5.77354">
        <ele>46.400001525879</ele>
        <time>2016-04-13T14:13:05.000Z</time>
      </trkpt>
      <trkpt lat="43.17129" lon="5.77347">
        <ele>48.799999237061</ele>
        <time>2016-04-13T14:13:12.000Z</time>
      </trkpt>
      <trkpt lat="43.17169" lon="5.77331">
        <ele>48.200000762939</ele>
        <time>2016-04-13T14:13:20.000Z</time>
      </trkpt>
      <trkpt lat="43.17184" lon="5.77326">
        <ele>47.799999237061</ele>
        <time>2016-04-13T14:13:23.000Z</time>
      </trkpt>
      <trkpt lat="43.17209" lon="5.77315">
        <ele>48</ele>
        <time>2016-04-13T14:13:29.000Z</time>
      </trkpt>
      <trkpt lat="43.17242" lon="5.77294">
        <ele>48.799999237061</ele>
        <time>2016-04-13T14:13:36.000Z</time>
      </trkpt>
      <trkpt lat="43.17291" lon="5.77255">
        <ele>47.599998474121</ele>
        <time>2016-04-13T14:13:46.000Z</time>
      </trkpt>
      <trkpt lat="43.17323" lon="5.7723">
        <ele>45.799999237061</ele>
        <time>2016-04-13T14:13:53.000Z</time>
      </trkpt>
      <trkpt lat="43.17337" lon="5.77219">
        <ele>45.200000762939</ele>
        <time>2016-04-13T14:13:56.000Z</time>
      </trkpt>
      <trkpt lat="43.1738" lon="5.77188">
        <ele>46.599998474121</ele>
        <time>2016-04-13T14:14:05.000Z</time>
      </trkpt>
      <trkpt lat="43.17402" lon="5.77173">
        <ele>47.200000762939</ele>
        <time>2016-04-13T14:14:10.000Z</time>
      </trkpt>
      <trkpt lat="43.17412" lon="5.77168">
        <ele>47.400001525879</ele>
        <time>2016-04-13T14:14:12.000Z</time>
      </trkpt>
      <trkpt lat="43.17447" lon="5.7715">
        <ele>48.799999237061</ele>
        <time>2016-04-13T14:14:20.000Z</time>
      </trkpt>
      <trkpt lat="43.17451" lon="5.77149">
        <ele>48.799999237061</ele>
        <time>2016-04-13T14:14:21.000Z</time>
      </trkpt>
      <trkpt lat="43.17467" lon="5.77149">
        <ele>49.200000762939</ele>
        <time>2016-04-13T14:14:25.000Z</time>
      </trkpt>
      <trkpt lat="43.17483" lon="5.77158">
        <ele>49.799999237061</ele>
        <time>2016-04-13T14:14:30.000Z</time>
      </trkpt>
      <trkpt lat="43.17485" lon="5.7716">
        <ele>50</ele>
        <time>2016-04-13T14:14:31.000Z</time>
      </trkpt>
      <trkpt lat="43.17491" lon="5.7716">
        <ele>50</ele>
        <time>2016-04-13T14:14:40.000Z</time>
      </trkpt>
      <trkpt lat="43.17491" lon="5.77151">
        <ele>49.799999237061</ele>
        <time>2016-04-13T14:14:42.000Z</time>
      </trkpt>
      <trkpt lat="43.17482" lon="5.77133">
        <ele>49.400001525879</ele>
        <time>2016-04-13T14:14:46.000Z</time>
      </trkpt>
      <trkpt lat="43.17473" lon="5.77119">
        <ele>49.400001525879</ele>
        <time>2016-04-13T14:14:49.000Z</time>
      </trkpt>
      <trkpt lat="43.17462" lon="5.77102">
        <ele>49.200000762939</ele>
        <time>2016-04-13T14:14:53.000Z</time>
      </trkpt>
      <trkpt lat="43.1746" lon="5.77096">
        <ele>49.200000762939</ele>
        <time>2016-04-13T14:14:54.000Z</time>
      </trkpt>
      <trkpt lat="43.17465" lon="5.77083">
        <ele>49.400001525879</ele>
        <time>2016-04-13T14:14:57.000Z</time>
      </trkpt>
      <trkpt lat="43.17479" lon="5.77073">
        <ele>49.599998474121</ele>
        <time>2016-04-13T14:15:00.000Z</time>
      </trkpt>
      <trkpt lat="43.17483" lon="5.7707">
        <ele>49.599998474121</ele>
        <time>2016-04-13T14:15:01.000Z</time>
      </trkpt>
      <trkpt lat="43.17491" lon="5.77061">
        <ele>49.799999237061</ele>
        <time>2016-04-13T14:15:03.000Z</time>
      </trkpt>
      <trkpt lat="43.17496" lon="5.77049">
        <ele>50</ele>
        <time>2016-04-13T14:15:05.000Z</time>
      </trkpt>
      <trkpt lat="43.17497" lon="5.77042">
        <ele>50.200000762939</ele>
        <time>2016-04-13T14:15:06.000Z</time>
      </trkpt>
      <trkpt lat="43.175" lon="5.77028">
        <ele>50.599998474121</ele>
        <time>2016-04-13T14:15:08.000Z</time>
      </trkpt>
      <trkpt lat="43.175" lon="5.77021">
        <ele>50.799999237061</ele>
        <time>2016-04-13T14:15:09.000Z</time>
      </trkpt>
      <trkpt lat="43.175" lon="5.77013">
        <ele>51</ele>
        <time>2016-04-13T14:15:10.000Z</time>
      </trkpt>
      <trkpt lat="43.17499" lon="5.77005">
        <ele>51.200000762939</ele>
        <time>2016-04-13T14:15:11.000Z</time>
      </trkpt>
      <trkpt lat="43.17498" lon="5.7699">
        <ele>51.599998474121</ele>
        <time>2016-04-13T14:15:13.000Z</time>
      </trkpt>
      <trkpt lat="43.17497" lon="5.76967">
        <ele>52.400001525879</ele>
        <time>2016-04-13T14:15:16.000Z</time>
      </trkpt>
      <trkpt lat="43.17496" lon="5.76945">
        <ele>54</ele>
        <time>2016-04-13T14:15:19.000Z</time>
      </trkpt>
      <trkpt lat="43.17493" lon="5.76916">
        <ele>56.400001525879</ele>
        <time>2016-04-13T14:15:23.000Z</time>
      </trkpt>
      <trkpt lat="43.17491" lon="5.7691">
        <ele>57</ele>
        <time>2016-04-13T14:15:24.000Z</time>
      </trkpt>
      <trkpt lat="43.17486" lon="5.76897">
        <ele>57.799999237061</ele>
        <time>2016-04-13T14:15:26.000Z</time>
      </trkpt>
      <trkpt lat="43.17483" lon="5.76892">
        <ele>58.400001525879</ele>
        <time>2016-04-13T14:15:27.000Z</time>
      </trkpt>
      <trkpt lat="43.17477" lon="5.7688">
        <ele>59.599998474121</ele>
        <time>2016-04-13T14:15:29.000Z</time>
      </trkpt>
      <trkpt lat="43.17472" lon="5.76868">
        <ele>61</ele>
        <time>2016-04-13T14:15:31.000Z</time>
      </trkpt>
      <trkpt lat="43.17472" lon="5.76853">
        <ele>62.599998474121</ele>
        <time>2016-04-13T14:15:33.000Z</time>
      </trkpt>
      <trkpt lat="43.1748" lon="5.76834">
        <ele>64.199996948242</ele>
        <time>2016-04-13T14:15:36.000Z</time>
      </trkpt>
      <trkpt lat="43.17488" lon="5.76824">
        <ele>65</ele>
        <time>2016-04-13T14:15:38.000Z</time>
      </trkpt>
      <trkpt lat="43.17492" lon="5.76819">
        <ele>65.199996948242</ele>
        <time>2016-04-13T14:15:39.000Z</time>
      </trkpt>
      <trkpt lat="43.17501" lon="5.7681">
        <ele>65.800003051758</ele>
        <time>2016-04-13T14:15:41.000Z</time>
      </trkpt>
      <trkpt lat="43.17514" lon="5.76797">
        <ele>66.400001525879</ele>
        <time>2016-04-13T14:15:44.000Z</time>
      </trkpt>
      <trkpt lat="43.1753" lon="5.7678">
        <ele>66.800003051758</ele>
        <time>2016-04-13T14:15:48.000Z</time>
      </trkpt>
      <trkpt lat="43.17534" lon="5.76776">
        <ele>67</ele>
        <time>2016-04-13T14:15:49.000Z</time>
      </trkpt>
      <trkpt lat="43.17538" lon="5.76771">
        <ele>67</ele>
        <time>2016-04-13T14:15:50.000Z</time>
      </trkpt>
      <trkpt lat="43.1755" lon="5.76758">
        <ele>67.400001525879</ele>
        <time>2016-04-13T14:15:53.000Z</time>
      </trkpt>
      <trkpt lat="43.17554" lon="5.76753">
        <ele>67.599998474121</ele>
        <time>2016-04-13T14:15:54.000Z</time>
      </trkpt>
      <trkpt lat="43.17572" lon="5.76737">
        <ele>68.400001525879</ele>
        <time>2016-04-13T14:15:58.000Z</time>
      </trkpt>
      <trkpt lat="43.17593" lon="5.76725">
        <ele>68.800003051758</ele>
        <time>2016-04-13T14:16:02.000Z</time>
      </trkpt>
      <trkpt lat="43.17603" lon="5.76719">
        <ele>68.800003051758</ele>
        <time>2016-04-13T14:16:04.000Z</time>
      </trkpt>
      <trkpt lat="43.17618" lon="5.76708">
        <ele>69</ele>
        <time>2016-04-13T14:16:07.000Z</time>
      </trkpt>
      <trkpt lat="43.17637" lon="5.76693">
        <ele>69.400001525879</ele>
        <time>2016-04-13T14:16:11.000Z</time>
      </trkpt>
      <trkpt lat="43.17676" lon="5.76666">
        <ele>72.199996948242</ele>
        <time>2016-04-13T14:16:19.000Z</time>
      </trkpt>
      <trkpt lat="43.17686" lon="5.76661">
        <ele>73</ele>
        <time>2016-04-13T14:16:21.000Z</time>
      </trkpt>
      <trkpt lat="43.17705" lon="5.7665">
        <ele>74.199996948242</ele>
        <time>2016-04-13T14:16:25.000Z</time>
      </trkpt>
      <trkpt lat="43.1772" lon="5.7664">
        <ele>74.800003051758</ele>
        <time>2016-04-13T14:16:28.000Z</time>
      </trkpt>
      <trkpt lat="43.17724" lon="5.76636">
        <ele>75</ele>
        <time>2016-04-13T14:16:29.000Z</time>
      </trkpt>
      <trkpt lat="43.17753" lon="5.76615">
        <ele>76.599998474121</ele>
        <time>2016-04-13T14:16:35.000Z</time>
      </trkpt>
      <trkpt lat="43.17763" lon="5.76611">
        <ele>76.599998474121</ele>
        <time>2016-04-13T14:16:37.000Z</time>
      </trkpt>
      <trkpt lat="43.17788" lon="5.76604">
        <ele>76.400001525879</ele>
        <time>2016-04-13T14:16:42.000Z</time>
      </trkpt>
      <trkpt lat="43.17804" lon="5.76596">
        <ele>76.400001525879</ele>
        <time>2016-04-13T14:16:45.000Z</time>
      </trkpt>
      <trkpt lat="43.17809" lon="5.76593">
        <ele>76.400001525879</ele>
        <time>2016-04-13T14:16:46.000Z</time>
      </trkpt>
      <trkpt lat="43.17825" lon="5.76573">
        <ele>76.800003051758</ele>
        <time>2016-04-13T14:16:50.000Z</time>
      </trkpt>
      <trkpt lat="43.17844" lon="5.76536">
        <ele>77.800003051758</ele>
        <time>2016-04-13T14:16:56.000Z</time>
      </trkpt>
      <trkpt lat="43.17856" lon="5.76513">
        <ele>77.800003051758</ele>
        <time>2016-04-13T14:17:00.000Z</time>
      </trkpt>
      <trkpt lat="43.17865" lon="5.76505">
        <ele>77.599998474121</ele>
        <time>2016-04-13T14:17:02.000Z</time>
      </trkpt>
      <trkpt lat="43.17886" lon="5.76499">
        <ele>77.400001525879</ele>
        <time>2016-04-13T14:17:06.000Z</time>
      </trkpt>
      <trkpt lat="43.17891" lon="5.76498">
        <ele>77.400001525879</ele>
        <time>2016-04-13T14:17:07.000Z</time>
      </trkpt>
      <trkpt lat="43.17928" lon="5.76493">
        <ele>78</ele>
        <time>2016-04-13T14:17:14.000Z</time>
      </trkpt>
      <trkpt lat="43.17939" lon="5.76491">
        <ele>78.599998474121</ele>
        <time>2016-04-13T14:17:16.000Z</time>
      </trkpt>
      <trkpt lat="43.17949" lon="5.76488">
        <ele>79.599998474121</ele>
        <time>2016-04-13T14:17:18.000Z</time>
      </trkpt>
      <trkpt lat="43.17958" lon="5.76483">
        <ele>80.800003051758</ele>
        <time>2016-04-13T14:17:20.000Z</time>
      </trkpt>
      <trkpt lat="43.17963" lon="5.7648">
        <ele>81.199996948242</ele>
        <time>2016-04-13T14:17:21.000Z</time>
      </trkpt>
      <trkpt lat="43.17976" lon="5.76471">
        <ele>83</ele>
        <time>2016-04-13T14:17:24.000Z</time>
      </trkpt>
      <trkpt lat="43.1799" lon="5.76461">
        <ele>84.599998474121</ele>
        <time>2016-04-13T14:17:27.000Z</time>
      </trkpt>
      <trkpt lat="43.18002" lon="5.76452">
        <ele>86.199996948242</ele>
        <time>2016-04-13T14:17:30.000Z</time>
      </trkpt>
      <trkpt lat="43.18007" lon="5.76449">
        <ele>86.800003051758</ele>
        <time>2016-04-13T14:17:31.000Z</time>
      </trkpt>
      <trkpt lat="43.18016" lon="5.76444">
        <ele>87.800003051758</ele>
        <time>2016-04-13T14:17:33.000Z</time>
      </trkpt>
      <trkpt lat="43.1803" lon="5.76436">
        <ele>88.800003051758</ele>
        <time>2016-04-13T14:17:36.000Z</time>
      </trkpt>
      <trkpt lat="43.18039" lon="5.76431">
        <ele>89.400001525879</ele>
        <time>2016-04-13T14:17:38.000Z</time>
      </trkpt>
      <trkpt lat="43.18044" lon="5.76429">
        <ele>89.800003051758</ele>
        <time>2016-04-13T14:17:39.000Z</time>
      </trkpt>
      <trkpt lat="43.18059" lon="5.76423">
        <ele>90.599998474121</ele>
        <time>2016-04-13T14:17:42.000Z</time>
      </trkpt>
      <trkpt lat="43.18068" lon="5.76418">
        <ele>91.199996948242</ele>
        <time>2016-04-13T14:17:44.000Z</time>
      </trkpt>
      <trkpt lat="43.18071" lon="5.76414">
        <ele>91.400001525879</ele>
        <time>2016-04-13T14:17:45.000Z</time>
      </trkpt>
      <trkpt lat="43.18075" lon="5.7641">
        <ele>91.800003051758</ele>
        <time>2016-04-13T14:17:46.000Z</time>
      </trkpt>
      <trkpt lat="43.18081" lon="5.76401">
        <ele>92.800003051758</ele>
        <time>2016-04-13T14:17:48.000Z</time>
      </trkpt>
      <trkpt lat="43.18088" lon="5.76386">
        <ele>94</ele>
        <time>2016-04-13T14:17:51.000Z</time>
      </trkpt>
      <trkpt lat="43.18089" lon="5.76381">
        <ele>94.199996948242</ele>
        <time>2016-04-13T14:17:52.000Z</time>
      </trkpt>
      <trkpt lat="43.18092" lon="5.76373">
        <ele>95</ele>
        <time>2016-04-13T14:17:54.000Z</time>
      </trkpt>
      <trkpt lat="43.18093" lon="5.76369">
        <ele>95.199996948242</ele>
        <time>2016-04-13T14:17:56.000Z</time>
      </trkpt>
      <trkpt lat="43.18093" lon="5.76368">
        <ele>95.400001525879</ele>
        <time>2016-04-13T14:19:58.000Z</time>
      </trkpt>
      <trkpt lat="43.18093" lon="5.76364">
        <ele>95.599998474121</ele>
        <time>2016-04-13T14:19:59.000Z</time>
      </trkpt>
      <trkpt lat="43.18098" lon="5.76347">
        <ele>96.800003051758</ele>
        <time>2016-04-13T14:20:02.000Z</time>
      </trkpt>
      <trkpt lat="43.18104" lon="5.76321">
        <ele>98.199996948242</ele>
        <time>2016-04-13T14:20:06.000Z</time>
      </trkpt>
      <trkpt lat="43.18106" lon="5.76308">
        <ele>98.599998474121</ele>
        <time>2016-04-13T14:20:08.000Z</time>
      </trkpt>
      <trkpt lat="43.18108" lon="5.76296">
        <ele>98.599998474121</ele>
        <time>2016-04-13T14:20:10.000Z</time>
      </trkpt>
      <trkpt lat="43.18111" lon="5.76267">
        <ele>99</ele>
        <time>2016-04-13T14:20:15.000Z</time>
      </trkpt>
      <trkpt lat="43.18111" lon="5.76261">
        <ele>99</ele>
        <time>2016-04-13T14:20:16.000Z</time>
      </trkpt>
      <trkpt lat="43.18115" lon="5.76239">
        <ele>99.400001525879</ele>
        <time>2016-04-13T14:20:20.000Z</time>
      </trkpt>
      <trkpt lat="43.1812" lon="5.7623">
        <ele>99.599998474121</ele>
        <time>2016-04-13T14:20:22.000Z</time>
      </trkpt>
      <trkpt lat="43.18134" lon="5.76224">
        <ele>99.400001525879</ele>
        <time>2016-04-13T14:20:25.000Z</time>
      </trkpt>
      <trkpt lat="43.18164" lon="5.76219">
        <ele>98</ele>
        <time>2016-04-13T14:20:30.000Z</time>
      </trkpt>
      <trkpt lat="43.18178" lon="5.76219">
        <ele>97.199996948242</ele>
        <time>2016-04-13T14:20:32.000Z</time>
      </trkpt>
      <trkpt lat="43.182" lon="5.76221">
        <ele>96</ele>
        <time>2016-04-13T14:20:35.000Z</time>
      </trkpt>
      <trkpt lat="43.18216" lon="5.76222">
        <ele>95</ele>
        <time>2016-04-13T14:20:37.000Z</time>
      </trkpt>
      <trkpt lat="43.1824" lon="5.76224">
        <ele>93.599998474121</ele>
        <time>2016-04-13T14:20:40.000Z</time>
      </trkpt>
      <trkpt lat="43.18256" lon="5.76226">
        <ele>92.800003051758</ele>
        <time>2016-04-13T14:20:42.000Z</time>
      </trkpt>
      <trkpt lat="43.1828" lon="5.76224">
        <ele>91.400001525879</ele>
        <time>2016-04-13T14:20:45.000Z</time>
      </trkpt>
      <trkpt lat="43.18296" lon="5.76222">
        <ele>90.400001525879</ele>
        <time>2016-04-13T14:20:47.000Z</time>
      </trkpt>
      <trkpt lat="43.18334" lon="5.76214">
        <ele>88.599998474121</ele>
        <time>2016-04-13T14:20:53.000Z</time>
      </trkpt>
      <trkpt lat="43.18334" lon="5.76212">
        <ele>88.800003051758</ele>
        <time>2016-04-13T14:20:54.000Z</time>
      </trkpt>
      <trkpt lat="43.18336" lon="5.76212">
        <ele>88.800003051758</ele>
        <time>2016-04-13T14:22:27.000Z</time>
      </trkpt>
      <trkpt lat="43.18351" lon="5.76215">
        <ele>87.400001525879</ele>
        <time>2016-04-13T14:22:31.000Z</time>
      </trkpt>
      <trkpt lat="43.18357" lon="5.76215">
        <ele>87.199996948242</ele>
        <time>2016-04-13T14:22:32.000Z</time>
      </trkpt>
      <trkpt lat="43.18362" lon="5.76215">
        <ele>86.800003051758</ele>
        <time>2016-04-13T14:22:33.000Z</time>
      </trkpt>
      <trkpt lat="43.18375" lon="5.76216">
        <ele>86.199996948242</ele>
        <time>2016-04-13T14:22:35.000Z</time>
      </trkpt>
      <trkpt lat="43.18396" lon="5.76216">
        <ele>85.199996948242</ele>
        <time>2016-04-13T14:22:38.000Z</time>
      </trkpt>
      <trkpt lat="43.18412" lon="5.76213">
        <ele>84.800003051758</ele>
        <time>2016-04-13T14:22:40.000Z</time>
      </trkpt>
      <trkpt lat="43.1842" lon="5.76209">
        <ele>84.599998474121</ele>
        <time>2016-04-13T14:22:41.000Z</time>
      </trkpt>
      <trkpt lat="43.18428" lon="5.76205">
        <ele>84.199996948242</ele>
        <time>2016-04-13T14:22:42.000Z</time>
      </trkpt>
      <trkpt lat="43.18446" lon="5.76195">
        <ele>83.199996948242</ele>
        <time>2016-04-13T14:22:44.000Z</time>
      </trkpt>
      <trkpt lat="43.18455" lon="5.76189">
        <ele>82.800003051758</ele>
        <time>2016-04-13T14:22:45.000Z</time>
      </trkpt>
      <trkpt lat="43.18464" lon="5.76183">
        <ele>82.400001525879</ele>
        <time>2016-04-13T14:22:46.000Z</time>
      </trkpt>
      <trkpt lat="43.18481" lon="5.76173">
        <ele>81.599998474121</ele>
        <time>2016-04-13T14:22:48.000Z</time>
      </trkpt>
      <trkpt lat="43.18505" lon="5.76159">
        <ele>80.800003051758</ele>
        <time>2016-04-13T14:22:51.000Z</time>
      </trkpt>
      <trkpt lat="43.1853" lon="5.76143">
        <ele>81.199996948242</ele>
        <time>2016-04-13T14:22:55.000Z</time>
      </trkpt>
      <trkpt lat="43.18546" lon="5.76131">
        <ele>81.599998474121</ele>
        <time>2016-04-13T14:22:59.000Z</time>
      </trkpt>
      <trkpt lat="43.1855" lon="5.76126">
        <ele>82</ele>
        <time>2016-04-13T14:23:00.000Z</time>
      </trkpt>
      <trkpt lat="43.18558" lon="5.76109">
        <ele>83</ele>
        <time>2016-04-13T14:23:03.000Z</time>
      </trkpt>
      <trkpt lat="43.18563" lon="5.76097">
        <ele>83.599998474121</ele>
        <time>2016-04-13T14:23:05.000Z</time>
      </trkpt>
      <trkpt lat="43.18565" lon="5.76091">
        <ele>84</ele>
        <time>2016-04-13T14:23:06.000Z</time>
      </trkpt>
      <trkpt lat="43.18578" lon="5.76062">
        <ele>85.800003051758</ele>
        <time>2016-04-13T14:23:11.000Z</time>
      </trkpt>
      <trkpt lat="43.18591" lon="5.7604">
        <ele>87.199996948242</ele>
        <time>2016-04-13T14:23:15.000Z</time>
      </trkpt>
      <trkpt lat="43.18601" lon="5.76024">
        <ele>88</ele>
        <time>2016-04-13T14:23:18.000Z</time>
      </trkpt>
      <trkpt lat="43.18624" lon="5.75996">
        <ele>89</ele>
        <time>2016-04-13T14:23:24.000Z</time>
      </trkpt>
      <trkpt lat="43.18631" lon="5.75991">
        <ele>88.800003051758</ele>
        <time>2016-04-13T14:23:27.000Z</time>
      </trkpt>
      <trkpt lat="43.18635" lon="5.75986">
        <ele>88.800003051758</ele>
        <time>2016-04-13T14:24:12.000Z</time>
      </trkpt>
      <trkpt lat="43.18637" lon="5.75985">
        <ele>88.800003051758</ele>
        <time>2016-04-13T14:24:13.000Z</time>
      </trkpt>
      <trkpt lat="43.18648" lon="5.75978">
        <ele>88.400001525879</ele>
        <time>2016-04-13T14:24:16.000Z</time>
      </trkpt>
      <trkpt lat="43.18663" lon="5.75969">
        <ele>88.199996948242</ele>
        <time>2016-04-13T14:24:19.000Z</time>
      </trkpt>
      <trkpt lat="43.18675" lon="5.75962">
        <ele>87.800003051758</ele>
        <time>2016-04-13T14:24:21.000Z</time>
      </trkpt>
      <trkpt lat="43.18713" lon="5.75941">
        <ele>86</ele>
        <time>2016-04-13T14:24:27.000Z</time>
      </trkpt>
      <trkpt lat="43.1872" lon="5.75938">
        <ele>85.599998474121</ele>
        <time>2016-04-13T14:24:28.000Z</time>
      </trkpt>
      <trkpt lat="43.18744" lon="5.75935">
        <ele>83.400001525879</ele>
        <time>2016-04-13T14:24:31.000Z</time>
      </trkpt>
      <trkpt lat="43.18752" lon="5.75933">
        <ele>82.599998474121</ele>
        <time>2016-04-13T14:24:32.000Z</time>
      </trkpt>
      <trkpt lat="43.18779" lon="5.75923">
        <ele>80.199996948242</ele>
        <time>2016-04-13T14:24:35.000Z</time>
      </trkpt>
      <trkpt lat="43.18797" lon="5.75916">
        <ele>79</ele>
        <time>2016-04-13T14:24:37.000Z</time>
      </trkpt>
      <trkpt lat="43.18806" lon="5.75914">
        <ele>78.599998474121</ele>
        <time>2016-04-13T14:24:38.000Z</time>
      </trkpt>
      <trkpt lat="43.18834" lon="5.7591">
        <ele>77.199996948242</ele>
        <time>2016-04-13T14:24:41.000Z</time>
      </trkpt>
      <trkpt lat="43.18843" lon="5.75908">
        <ele>76.800003051758</ele>
        <time>2016-04-13T14:24:42.000Z</time>
      </trkpt>
      <trkpt lat="43.18861" lon="5.75907">
        <ele>76.599998474121</ele>
        <time>2016-04-13T14:24:44.000Z</time>
      </trkpt>
      <trkpt lat="43.18888" lon="5.75906">
        <ele>76.800003051758</ele>
        <time>2016-04-13T14:24:47.000Z</time>
      </trkpt>
      <trkpt lat="43.18897" lon="5.75905">
        <ele>77</ele>
        <time>2016-04-13T14:24:48.000Z</time>
      </trkpt>
      <trkpt lat="43.18905" lon="5.75902">
        <ele>77.199996948242</ele>
        <time>2016-04-13T14:24:49.000Z</time>
      </trkpt>
      <trkpt lat="43.18918" lon="5.75887">
        <ele>77.800003051758</ele>
        <time>2016-04-13T14:24:51.000Z</time>
      </trkpt>
      <trkpt lat="43.18929" lon="5.75871">
        <ele>77.599998474121</ele>
        <time>2016-04-13T14:24:53.000Z</time>
      </trkpt>
      <trkpt lat="43.18941" lon="5.75858">
        <ele>77.599998474121</ele>
        <time>2016-04-13T14:24:55.000Z</time>
      </trkpt>
      <trkpt lat="43.18948" lon="5.75854">
        <ele>77.599998474121</ele>
        <time>2016-04-13T14:24:56.000Z</time>
      </trkpt>
      <trkpt lat="43.18974" lon="5.75846">
        <ele>78.199996948242</ele>
        <time>2016-04-13T14:25:00.000Z</time>
      </trkpt>
      <trkpt lat="43.19016" lon="5.75832">
        <ele>79.599998474121</ele>
        <time>2016-04-13T14:25:07.000Z</time>
      </trkpt>
      <trkpt lat="43.19027" lon="5.75828">
        <ele>80.400001525879</ele>
        <time>2016-04-13T14:25:09.000Z</time>
      </trkpt>
      <trkpt lat="43.19038" lon="5.75823">
        <ele>81.400001525879</ele>
        <time>2016-04-13T14:25:11.000Z</time>
      </trkpt>
      <trkpt lat="43.19053" lon="5.75814">
        <ele>83</ele>
        <time>2016-04-13T14:25:14.000Z</time>
      </trkpt>
      <trkpt lat="43.19064" lon="5.7581">
        <ele>84</ele>
        <time>2016-04-13T14:25:16.000Z</time>
      </trkpt>
      <trkpt lat="43.19069" lon="5.75809">
        <ele>84.400001525879</ele>
        <time>2016-04-13T14:25:17.000Z</time>
      </trkpt>
      <trkpt lat="43.19085" lon="5.75802">
        <ele>86</ele>
        <time>2016-04-13T14:25:20.000Z</time>
      </trkpt>
      <trkpt lat="43.19095" lon="5.75796">
        <ele>87.199996948242</ele>
        <time>2016-04-13T14:25:22.000Z</time>
      </trkpt>
      <trkpt lat="43.19106" lon="5.75789">
        <ele>87.800003051758</ele>
        <time>2016-04-13T14:25:24.000Z</time>
      </trkpt>
      <trkpt lat="43.19119" lon="5.75774">
        <ele>88.599998474121</ele>
        <time>2016-04-13T14:25:27.000Z</time>
      </trkpt>
      <trkpt lat="43.19124" lon="5.75769">
        <ele>88.800003051758</ele>
        <time>2016-04-13T14:25:28.000Z</time>
      </trkpt>
      <trkpt lat="43.19132" lon="5.75758">
        <ele>89.400001525879</ele>
        <time>2016-04-13T14:25:30.000Z</time>
      </trkpt>
      <trkpt lat="43.19145" lon="5.75742">
        <ele>90.800003051758</ele>
        <time>2016-04-13T14:25:33.000Z</time>
      </trkpt>
      <trkpt lat="43.19153" lon="5.75733">
        <ele>91.800003051758</ele>
        <time>2016-04-13T14:25:35.000Z</time>
      </trkpt>
      <trkpt lat="43.19157" lon="5.75728">
        <ele>92.199996948242</ele>
        <time>2016-04-13T14:25:36.000Z</time>
      </trkpt>
      <trkpt lat="43.19165" lon="5.75719">
        <ele>93.199996948242</ele>
        <time>2016-04-13T14:25:38.000Z</time>
      </trkpt>
      <trkpt lat="43.19173" lon="5.7571">
        <ele>93.800003051758</ele>
        <time>2016-04-13T14:25:40.000Z</time>
      </trkpt>
      <trkpt lat="43.19184" lon="5.75695">
        <ele>94</ele>
        <time>2016-04-13T14:25:43.000Z</time>
      </trkpt>
      <trkpt lat="43.19187" lon="5.7569">
        <ele>94</ele>
        <time>2016-04-13T14:25:44.000Z</time>
      </trkpt>
      <trkpt lat="43.19207" lon="5.75658">
        <ele>94</ele>
        <time>2016-04-13T14:25:50.000Z</time>
      </trkpt>
      <trkpt lat="43.19212" lon="5.75646">
        <ele>94</ele>
        <time>2016-04-13T14:25:52.000Z</time>
      </trkpt>
      <trkpt lat="43.19215" lon="5.7564">
        <ele>94</ele>
        <time>2016-04-13T14:25:53.000Z</time>
      </trkpt>
      <trkpt lat="43.19218" lon="5.75627">
        <ele>93.800003051758</ele>
        <time>2016-04-13T14:25:55.000Z</time>
      </trkpt>
      <trkpt lat="43.1922" lon="5.75614">
        <ele>93.400001525879</ele>
        <time>2016-04-13T14:25:57.000Z</time>
      </trkpt>
      <trkpt lat="43.19225" lon="5.75599">
        <ele>93.199996948242</ele>
        <time>2016-04-13T14:26:00.000Z</time>
      </trkpt>
      <trkpt lat="43.19228" lon="5.75596">
        <ele>93.400001525879</ele>
        <time>2016-04-13T14:26:01.000Z</time>
      </trkpt>
      <trkpt lat="43.19243" lon="5.75592">
        <ele>94.599998474121</ele>
        <time>2016-04-13T14:26:05.000Z</time>
      </trkpt>
      <trkpt lat="43.19247" lon="5.75595">
        <ele>94.599998474121</ele>
        <time>2016-04-13T14:26:07.000Z</time>
      </trkpt>
      <trkpt lat="43.1925" lon="5.75596">
        <ele>94.800003051758</ele>
        <time>2016-04-13T14:26:09.000Z</time>
      </trkpt>
      <trkpt lat="43.19253" lon="5.75594">
        <ele>95</ele>
        <time>2016-04-13T14:26:10.000Z</time>
      </trkpt>
      <trkpt lat="43.19261" lon="5.75583">
        <ele>96</ele>
        <time>2016-04-13T14:26:12.000Z</time>
      </trkpt>
      <trkpt lat="43.19277" lon="5.75574">
        <ele>97</ele>
        <time>2016-04-13T14:26:15.000Z</time>
      </trkpt>
      <trkpt lat="43.19296" lon="5.75582">
        <ele>97.800003051758</ele>
        <time>2016-04-13T14:26:18.000Z</time>
      </trkpt>
      <trkpt lat="43.19309" lon="5.75602">
        <ele>97.599998474121</ele>
        <time>2016-04-13T14:26:21.000Z</time>
      </trkpt>
      <trkpt lat="43.19314" lon="5.75608">
        <ele>97.599998474121</ele>
        <time>2016-04-13T14:26:22.000Z</time>
      </trkpt>
      <trkpt lat="43.19322" lon="5.75621">
        <ele>97.599998474121</ele>
        <time>2016-04-13T14:26:24.000Z</time>
      </trkpt>
      <trkpt lat="43.19335" lon="5.7564">
        <ele>97.400001525879</ele>
        <time>2016-04-13T14:26:27.000Z</time>
      </trkpt>
      <trkpt lat="43.19348" lon="5.75659">
        <ele>97.800003051758</ele>
        <time>2016-04-13T14:26:30.000Z</time>
      </trkpt>
      <trkpt lat="43.19361" lon="5.75678">
        <ele>99.800003051758</ele>
        <time>2016-04-13T14:26:33.000Z</time>
      </trkpt>
      <trkpt lat="43.1937" lon="5.75701">
        <ele>100.80000305176</ele>
        <time>2016-04-13T14:26:36.000Z</time>
      </trkpt>
      <trkpt lat="43.19378" lon="5.75723">
        <ele>101.80000305176</ele>
        <time>2016-04-13T14:26:39.000Z</time>
      </trkpt>
      <trkpt lat="43.19389" lon="5.75743">
        <ele>103.80000305176</ele>
        <time>2016-04-13T14:26:42.000Z</time>
      </trkpt>
      <trkpt lat="43.19395" lon="5.75746">
        <ele>104.80000305176</ele>
        <time>2016-04-13T14:26:43.000Z</time>
      </trkpt>
      <trkpt lat="43.19401" lon="5.75748">
        <ele>106</ele>
        <time>2016-04-13T14:26:44.000Z</time>
      </trkpt>
      <trkpt lat="43.19418" lon="5.75759">
        <ele>109.40000152588</ele>
        <time>2016-04-13T14:26:47.000Z</time>
      </trkpt>
      <trkpt lat="43.19426" lon="5.75782">
        <ele>110.80000305176</ele>
        <time>2016-04-13T14:26:50.000Z</time>
      </trkpt>
      <trkpt lat="43.19426" lon="5.75807">
        <ele>110.19999694824</ele>
        <time>2016-04-13T14:26:53.000Z</time>
      </trkpt>
      <trkpt lat="43.19426" lon="5.75816">
        <ele>109.59999847412</ele>
        <time>2016-04-13T14:26:54.000Z</time>
      </trkpt>
      <trkpt lat="43.19427" lon="5.75833">
        <ele>108.19999694824</ele>
        <time>2016-04-13T14:26:56.000Z</time>
      </trkpt>
      <trkpt lat="43.19429" lon="5.75858">
        <ele>106.59999847412</ele>
        <time>2016-04-13T14:26:59.000Z</time>
      </trkpt>
      <trkpt lat="43.19432" lon="5.75866">
        <ele>106.40000152588</ele>
        <time>2016-04-13T14:27:00.000Z</time>
      </trkpt>
      <trkpt lat="43.19447" lon="5.75882">
        <ele>107.80000305176</ele>
        <time>2016-04-13T14:27:03.000Z</time>
      </trkpt>
      <trkpt lat="43.19452" lon="5.75888">
        <ele>108.19999694824</ele>
        <time>2016-04-13T14:27:04.000Z</time>
      </trkpt>
      <trkpt lat="43.19466" lon="5.75904">
        <ele>110.59999847412</ele>
        <time>2016-04-13T14:27:07.000Z</time>
      </trkpt>
      <trkpt lat="43.19475" lon="5.75914">
        <ele>112.19999694824</ele>
        <time>2016-04-13T14:27:09.000Z</time>
      </trkpt>
      <trkpt lat="43.19481" lon="5.75915">
        <ele>113.19999694824</ele>
        <time>2016-04-13T14:27:10.000Z</time>
      </trkpt>
      <trkpt lat="43.19487" lon="5.75912">
        <ele>114.19999694824</ele>
        <time>2016-04-13T14:27:11.000Z</time>
      </trkpt>
      <trkpt lat="43.19496" lon="5.75902">
        <ele>116</ele>
        <time>2016-04-13T14:27:13.000Z</time>
      </trkpt>
      <trkpt lat="43.19503" lon="5.7589">
        <ele>117.40000152588</ele>
        <time>2016-04-13T14:27:15.000Z</time>
      </trkpt>
      <trkpt lat="43.19509" lon="5.75878">
        <ele>119.19999694824</ele>
        <time>2016-04-13T14:27:17.000Z</time>
      </trkpt>
      <trkpt lat="43.19515" lon="5.75866">
        <ele>120.59999847412</ele>
        <time>2016-04-13T14:27:19.000Z</time>
      </trkpt>
      <trkpt lat="43.19521" lon="5.75855">
        <ele>122</ele>
        <time>2016-04-13T14:27:21.000Z</time>
      </trkpt>
      <trkpt lat="43.19525" lon="5.7585">
        <ele>122.59999847412</ele>
        <time>2016-04-13T14:27:22.000Z</time>
      </trkpt>
      <trkpt lat="43.19528" lon="5.75846">
        <ele>123.19999694824</ele>
        <time>2016-04-13T14:27:23.000Z</time>
      </trkpt>
      <trkpt lat="43.19531" lon="5.75843">
        <ele>123.80000305176</ele>
        <time>2016-04-13T14:27:24.000Z</time>
      </trkpt>
      <trkpt lat="43.19534" lon="5.75841">
        <ele>124.19999694824</ele>
        <time>2016-04-13T14:27:25.000Z</time>
      </trkpt>
      <trkpt lat="43.19537" lon="5.75838">
        <ele>124.59999847412</ele>
        <time>2016-04-13T14:27:27.000Z</time>
      </trkpt>
      <trkpt lat="43.19538" lon="5.75836">
        <ele>125</ele>
        <time>2016-04-13T14:27:28.000Z</time>
      </trkpt>
      <trkpt lat="43.1954" lon="5.75832">
        <ele>125.40000152588</ele>
        <time>2016-04-13T14:27:29.000Z</time>
      </trkpt>
      <trkpt lat="43.19539" lon="5.75821">
        <ele>126</ele>
        <time>2016-04-13T14:27:31.000Z</time>
      </trkpt>
      <trkpt lat="43.19537" lon="5.75805">
        <ele>126.80000305176</ele>
        <time>2016-04-13T14:27:34.000Z</time>
      </trkpt>
      <trkpt lat="43.1954" lon="5.75789">
        <ele>127.19999694824</ele>
        <time>2016-04-13T14:27:37.000Z</time>
      </trkpt>
      <trkpt lat="43.19543" lon="5.75786">
        <ele>127.59999847412</ele>
        <time>2016-04-13T14:27:38.000Z</time>
      </trkpt>
      <trkpt lat="43.1955" lon="5.75779">
        <ele>128.39999389648</ele>
        <time>2016-04-13T14:27:40.000Z</time>
      </trkpt>
      <trkpt lat="43.19553" lon="5.75776">
        <ele>128.80000305176</ele>
        <time>2016-04-13T14:27:41.000Z</time>
      </trkpt>
      <trkpt lat="43.19563" lon="5.75766">
        <ele>130.60000610352</ele>
        <time>2016-04-13T14:27:44.000Z</time>
      </trkpt>
      <trkpt lat="43.19569" lon="5.7576">
        <ele>132.19999694824</ele>
        <time>2016-04-13T14:27:46.000Z</time>
      </trkpt>
      <trkpt lat="43.19574" lon="5.75755">
        <ele>133.80000305176</ele>
        <time>2016-04-13T14:27:48.000Z</time>
      </trkpt>
      <trkpt lat="43.19577" lon="5.75752">
        <ele>134.60000610352</ele>
        <time>2016-04-13T14:27:49.000Z</time>
      </trkpt>
      <trkpt lat="43.19579" lon="5.7575">
        <ele>135.19999694824</ele>
        <time>2016-04-13T14:27:50.000Z</time>
      </trkpt>
      <trkpt lat="43.19583" lon="5.75748">
        <ele>136</ele>
        <time>2016-04-13T14:27:53.000Z</time>
      </trkpt>
    </trkseg>
  </trk>
</gpx>